# Wetter Temperatur Luftdruck Luftfeuchtigkeit Sichtweite Windgeschwindigkeit Windrichtung Zeit
1 Clear 16 1026 26 10000 6 270 10:21 08.04.2020
2 Clear 16 1026 26 10000 6 270 09:57 08.04.2020
3 Clear 15 1026 24 10000 6 270 09:39 08.04.2020
4 Clear 13 1027 24 10000 6 270 09:18 08.04.2020
5 Clear 13 1027 24 10000 6 270 09:18 08.04.2020
6 Clear 13 1027 24 10000 6 270 08:56 08.04.2020
7 Clear 12 1027 25 10000 6 250 08:38 08.04.2020
8 Clear 11 1027 29 10000 6 260 08:20 08.04.2020
9 Clear 9 1027 34 10000 5 260 07:42 08.04.2020
10 Clear 8 1028 36 10000 4 240 07:20 08.04.2020
11 Clear 6 1028 38 10000 4 230 06:23 08.04.2020
12 Clear 4 1029 44 10000 3 240 04:54 08.04.2020
13 Clear 9 1030 36 10000 3 240 02:50 08.04.2020
14 Clear 9 1030 33 10000 3 240 02:21 08.04.2020
15 Clear 9 1030 33 10000 3 240 01:56 08.04.2020
16 Clear 9 1031 39 10000 3 230 01:27 08.04.2020
17 Clear 9 1030 36 10000 3 230 01:27 08.04.2020
18 Clear 10 1031 36 10000 3 230 00:44 08.04.2020
19 Clear 10 1031 36 10000 3 230 00:23 08.04.2020
20 Clear 9 1031 34 10000 3 230 23:40 07.04.2020
21 Clear 9 1031 34 10000 3 230 23:22 07.04.2020
22 Clear 9 1031 36 10000 3 220 22:58 07.04.2020
23 Clear 10 1031 31 10000 3 210 22:40 07.04.2020
24 Clear 10 1031 31 10000 3 210 22:21 07.04.2020
25 Clear 11 1031 29 10000 3 200 21:58 07.04.2020
26 Clear 11 1032 29 10000 3 200 21:40 07.04.2020
27 Clear 12 1032 26 10000 2 190 21:20 07.04.2020
28 Clear 12 1032 26 10000 2 190 20:57 07.04.2020
29 Clear 12 1032 26 10000 2 190 20:39 07.04.2020
30 Clear 12 1032 26 10000 2 170 20:20 07.04.2020
31 Clear 12 1032 26 10000 2 170 20:20 07.04.2020
32 Clear 13 1032 24 10000 1 180 19:57 07.04.2020
33 Clear 13 1032 24 10000 1 180 19:37 07.04.2020
34 Clear 14 1032 22 10000 2 210 19:18 07.04.2020
35 Clear 14 1032 22 10000 2 210 18:56 07.04.2020
36 Clear 15 1032 21 10000 2 210 18:38 07.04.2020
37 Clear 15 1032 21 10000 2 210 18:19 07.04.2020
38 Clear 17 1033 20 10000 3 250 17:44 07.04.2020
39 Clear 17 1033 20 10000 3 250 17:20 07.04.2020
40 Clear 17 1033 21 10000 3 240 16:46 07.04.2020
41 Clear 17 1033 21 10000 3 240 16:27 07.04.2020
42 Clear 17 1034 21 10000 3 210 15:56 07.04.2020
43 Clear 17 1034 21 10000 3 210 15:38 07.04.2020
44 Clear 17 1034 21 10000 3 210 15:19 07.04.2020
45 Clear 17 1035 23 10000 2 290 14:41 07.04.2020
46 Clear 17 1035 23 10000 2 290 14:22 07.04.2020
47 Clear 17 1035 21 10000 1 0 13:56 07.04.2020
48 Clear 17 1035 23 10000 2 160 13:37 07.04.2020
49 Clear 17 1036 23 10000 2 310 13:18 07.04.2020
50 Clear 17 1036 23 10000 2 310 12:54 07.04.2020
51 Clear 16 1036 23 10000 2 170 12:36 07.04.2020
52 Clear 15 1036 24 10000 2 210 12:18 07.04.2020
53 Clear 15 1036 24 10000 2 160 11:42 07.04.2020
54 Clear 15 1036 24 10000 2 160 11:22 07.04.2020
55 Clear 15 1036 24 10000 2 170 10:57 07.04.2020
56 Clear 14 1037 26 10000 2 190 10:37 07.04.2020
57 Clear 14 1037 26 10000 2 190 10:18 07.04.2020
58 Clear 13 1037 28 10000 1 0 09:44 07.04.2020
59 Clear 11 1037 29 10000 2 150 09:18 07.04.2020
60 Clear 10 1037 34 10000 2 130 08:43 07.04.2020
61 Clear 9 1037 39 10000 2 120 08:25 07.04.2020
62 Clear 8 1037 39 10000 2 120 07:59 07.04.2020
63 Clear 7 1036 60 8000 2 110 07:40 07.04.2020
64 Clear 7 1036 60 8000 2 110 07:40 07.04.2020
65 Clear 3 1036 59 8000 2 100 07:21 07.04.2020
66 Clear 3 1036 59 8000 2 100 07:21 07.04.2020
67 Clear -1 1036 46 9000 1 110 06:49 07.04.2020
68 Clear -1 1036 56 8000 1 100 06:21 07.04.2020
69 Clear -1 1036 80 7000 1 0 05:38 07.04.2020
70 Clear 0 1035 56 7000 1 290 04:40 07.04.2020
71 Clear 0 1035 52 6000 2 280 03:25 07.04.2020
72 Clear 0 1035 52 6000 1 280 02:54 07.04.2020
73 Clear 1 1035 64 7000 0.64 289 01:48 07.04.2020
74 Clear 1 1035 69 7000 0.64 289 01:25 07.04.2020
75 Clear 2 1035 51 7000 2 110 00:29 07.04.2020
76 Clear 2 1035 55 6000 3 90 23:55 06.04.2020
77 Clear 3 1035 55 8000 0.33 348 23:36 06.04.2020
78 Smoke 4 1035 51 5000 0.33 348 23:18 06.04.2020
79 Smoke 4 1035 55 4900 1 0 22:39 06.04.2020
80 Smoke 5 1035 48 5000 0.33 348 22:21 06.04.2020
81 Smoke 5 1035 48 5000 0.33 348 21:57 06.04.2020
82 Clear 6 1035 41 7000 0.94 294 21:38 06.04.2020
83 Clear 7 1035 39 6000 0.96 309 21:18 06.04.2020
84 Clear 8 1035 39 6000 0.96 309 20:55 06.04.2020
85 Clear 9 1035 36 7000 1 0 20:37 06.04.2020
86 Clear 9 1035 34 10000 2 70 20:18 06.04.2020
87 Clear 10 1034 31 10000 2 30 19:41 06.04.2020
88 Clear 12 1034 24 10000 4 320 19:22 06.04.2020
89 Clear 12 1034 24 10000 4 320 18:57 06.04.2020
90 Clear 13 1034 24 10000 4 290 18:39 06.04.2020
91 Clear 13 1034 22 10000 5 310 18:20 06.04.2020
92 Clear 14 1034 20 10000 4 300 17:42 06.04.2020
93 Clear 14 1035 20 10000 4 290 17:20 06.04.2020
94 Clear 14 1035 20 10000 4 290 16:50 06.04.2020
95 Clear 15 1035 22 10000 4 310 16:31 06.04.2020
96 Clear 15 1035 20 10000 5 320 15:41 06.04.2020
97 Clear 14 1036 22 10000 4 250 14:00 06.04.2020
98 Clear 14 1036 22 10000 4 250 14:00 06.04.2020
99 Clear 14 1036 24 10000 3 310 13:40 06.04.2020
100 Clear 14 1036 24 10000 3 310 13:40 06.04.2020
101 Clear 14 1036 24 10000 3 310 13:19 06.04.2020
102 Clear 14 1036 24 10000 3 310 13:19 06.04.2020
103 Clear 14 1036 24 10000 3 310 13:19 06.04.2020
104 Clear 14 1036 24 10000 3 310 13:19 06.04.2020
105 Clear 12 1037 27 10000 4 260 12:22 06.04.2020
106 Clear 12 1037 27 10000 4 250 11:55 06.04.2020
107 Clear 12 1037 27 10000 2 310 11:33 06.04.2020
108 Clear 11 1037 27 10000 2 310 11:33 06.04.2020
109 Clear 12 1037 27 10000 2 310 11:33 06.04.2020
110 Clear 12 1037 27 10000 2 310 11:33 06.04.2020
111 Clear 11 1037 27 10000 2 310 11:33 06.04.2020
112 Clear 10 1038 29 10000 3 290 10:52 06.04.2020
113 Clear 10 1038 29 10000 3 290 10:52 06.04.2020
114 Clear 10 1038 29 10000 3 290 10:52 06.04.2020
115 Clear 10 1038 29 10000 3 290 10:52 06.04.2020
116 Clear 10 1038 29 10000 3 290 10:52 06.04.2020
117 Clear 10 1037 27 10000 3 310 10:22 06.04.2020
118 Clear 11 1037 29 10000 2 320 09:47 06.04.2020
119 Clear 11 1037 29 10000 2 320 09:47 06.04.2020
120 Clear 9 1037 29 10000 2 190 09:21 06.04.2020
121 Clear 8 1037 33 10000 2 200 08:55 06.04.2020
122 Clear 8 1037 36 10000 2 230 08:31 06.04.2020
123 Clear 6 1037 48 9000 1.38 325 07:39 06.04.2020
124 Clear -3 1036 74 10000 1.38 325 06:47 06.04.2020
125 Clear -3 1036 74 10000 1.38 325 06:24 06.04.2020
126 Clear -2 1036 68 10000 1 0 04:20 06.04.2020
127 Clear 3 1035 47 10000 1 70 02:59 06.04.2020
128 Clouds 2 1035 63 10000 3 30 02:36 06.04.2020
129 Clouds 2 1034 50 10000 3 10 01:28 06.04.2020
130 Clouds 3 1034 43 10000 2 310 00:44 06.04.2020
131 Clouds 2 1034 43 10000 2 310 00:23 06.04.2020
132 Clear 4 1034 43 10000 2 250 23:44 05.04.2020
133 Clear 4 1034 43 10000 2 280 23:25 05.04.2020
134 Clear 4 1034 43 10000 2 280 23:25 05.04.2020
135 Clear 5 1033 40 9000 2 280 22:55 05.04.2020
136 Clear 4 1033 40 9000 2 280 22:37 05.04.2020
137 Clear 5 1033 40 10000 2 300 22:18 05.04.2020
138 Clear 7 1033 30 10000 2 310 21:46 05.04.2020
139 Clear 7 1033 30 10000 2 310 21:25 05.04.2020
140 Clear 7 1033 35 10000 2 350 20:47 05.04.2020
141 Clear 6 1033 35 10000 2 360 20:19 05.04.2020
142 Clear 6 1033 35 10000 2 360 20:19 05.04.2020
143 Clear 6 1033 35 10000 2 360 20:18 05.04.2020
144 Clear 6 1033 35 10000 2 360 20:18 05.04.2020
145 Clear 6 1033 35 10000 2 360 20:18 05.04.2020
146 Clear 7 1032 30 10000 2 10 19:37 05.04.2020
147 Clear 7 1032 30 10000 2 10 19:19 05.04.2020
148 Clear 9 1031 28 10000 3 20 18:44 05.04.2020
149 Clear 9 1031 28 10000 3 20 18:44 05.04.2020
150 Clear 9 1031 28 10000 3 20 18:44 05.04.2020
151 Clear 10 1031 25 10000 4 20 18:44 05.04.2020
152 Clear 10 1031 25 10000 4 20 18:44 05.04.2020
153 Clear 11 1031 21 10000 4 20 17:52 05.04.2020
154 Clear 11 1031 21 10000 4 20 17:52 05.04.2020
155 Clear 11 1031 21 10000 4 20 17:52 05.04.2020
156 Clear 11 1031 21 10000 4 20 17:52 05.04.2020
157 Clear 11 1031 21 10000 4 20 17:52 05.04.2020
158 Clear 11 1031 18 10000 3 360 17:24 05.04.2020
159 Clear 11 1031 18 10000 3 360 17:24 05.04.2020
160 Clear 11 1031 18 10000 3 360 17:24 05.04.2020
161 Clear 12 1031 20 10000 4 20 16:56 05.04.2020
162 Clear 12 1031 20 10000 4 20 16:54 05.04.2020
163 Clear 12 1031 20 10000 4 20 16:53 05.04.2020
164 Clear 12 1031 20 10000 4 20 16:53 05.04.2020
165 Clear 12 1031 20 10000 4 20 16:53 05.04.2020
166 Clear 11 1031 21 10000 4 30 16:20 05.04.2020
167 Clear 12 1031 21 10000 5 30 15:51 05.04.2020
168 Clear 12 1031 20 10000 4 10 15:32 05.04.2020
169 Clear 12 1031 20 10000 4 10 15:32 05.04.2020
170 Clear 12 1031 22 10000 4 10 14:50 05.04.2020
171 Clear 12 1031 22 10000 4 10 14:50 05.04.2020
172 Clear 11 1031 20 10000 7 330 14:25 05.04.2020
173 Clear 11 1031 20 10000 7 330 14:25 05.04.2020
174 Clear 11 1032 20 10000 5 360 13:43 05.04.2020
175 Clear 11 1032 20 10000 5 360 13:43 05.04.2020
176 Clear 11 1032 21 10000 6 360 12:49 05.04.2020
177 Clear 11 1032 21 10000 7 340 12:49 05.04.2020
178 Clear 11 1032 29 10000 6 340 11:41 05.04.2020
179 Clear 10 1032 29 10000 7 320 11:21 05.04.2020
180 Clear 10 1032 34 10000 7 330 10:49 05.04.2020
181 Clear 9 1032 34 10000 5 340 10:25 05.04.2020
182 Clear 9 1032 34 10000 5 340 10:24 05.04.2020
183 Clear 8 1032 36 9000 4 340 09:58 05.04.2020
184 Clear 8 1032 36 9000 4 340 09:39 05.04.2020
185 Clear 8 1032 39 9000 3 360 09:39 05.04.2020
186 Clear 8 1032 36 9000 4 340 09:39 05.04.2020
187 Clear 8 1032 39 9000 3 360 09:20 05.04.2020
188 Clear 8 1032 39 9000 3 360 09:20 05.04.2020
189 Clear 8 1032 39 9000 3 360 09:20 05.04.2020
190 Clear 8 1032 39 9000 3 360 09:20 05.04.2020
191 Clear 8 1032 39 9000 3 360 09:20 05.04.2020
192 Smoke 3 1031 55 3200 3 290 07:31 05.04.2020
193 Smoke 1 1029 66 5000 2 250 04:36 05.04.2020
194 Clear 0 1029 66 6000 3 320 03:31 05.04.2020
195 Clouds -1 1029 54 7000 2 290 02:51 05.04.2020
196 Clouds 1 1028 59 9000 2 260 01:47 05.04.2020
197 Clouds 2 1028 59 9000 2 270 01:28 05.04.2020
198 Clouds 3 1028 43 9000 2 260 00:44 05.04.2020
199 Clouds 4 1027 40 8000 2 250 00:21 05.04.2020
200 Clear 3 1027 40 7000 2 250 23:54 04.04.2020
201 Clear 4 1027 43 6000 2 280 23:36 04.04.2020
202 Clear 4 1027 43 6000 2 280 23:18 04.04.2020
203 Clear 5 1026 35 7000 2 290 22:40 04.04.2020
204 Clear 5 1026 32 9000 2 310 22:21 04.04.2020
205 Clear 6 1026 30 10000 2 330 21:58 04.04.2020
206 Clear 6 1025 26 10000 3 330 21:39 04.04.2020
207 Clear 6 1025 26 10000 3 330 21:19 04.04.2020
208 Clear 6 1025 26 10000 3 330 21:19 04.04.2020
209 Clear 7 1025 22 10000 2 330 20:58 04.04.2020
210 Clear 8 1025 20 10000 3 330 20:39 04.04.2020
211 Clear 8 1025 20 10000 3 330 20:20 04.04.2020
212 Clouds 8 1024 21 10000 3 330 19:57 04.04.2020
213 Clouds 8 1024 21 10000 4 320 19:37 04.04.2020
214 Clear 9 1023 19 10000 4 310 19:18 04.04.2020
215 Clear 9 1023 19 10000 4 310 18:55 04.04.2020
216 Clear 10 1023 18 10000 6 300 18:37 04.04.2020
217 Clear 10 1023 18 10000 6 300 18:18 04.04.2020
218 Clear 12 1022 17 10000 7 300 17:40 04.04.2020
219 Clear 12 1022 17 10000 7 300 17:20 04.04.2020
220 Clear 12 1022 16 10000 7 300 16:55 04.04.2020
221 Clouds 13 1022 16 10000 6 320 16:37 04.04.2020
222 Clear 13 1022 16 10000 6 320 16:37 04.04.2020
223 Clear 13 1022 16 10000 6 320 16:18 04.04.2020
224 Clouds 13 1022 19 10000 6 300 15:40 04.04.2020
225 Clear 13 1022 19 10000 6 300 15:22 04.04.2020
226 Clear 13 1022 19 10000 7 310 14:57 04.04.2020
227 Clear 13 1022 19 10000 7 310 14:57 04.04.2020
228 Clear 13 1021 18 10000 6 300 14:39 04.04.2020
229 Clear 13 1021 18 10000 6 300 14:20 04.04.2020
230 Clear 13 1021 18 10000 6 290 13:55 04.04.2020
231 Clear 13 1021 22 10000 8 310 13:37 04.04.2020
232 Clear 13 1021 22 10000 8 310 13:18 04.04.2020
233 Clear 12 1021 23 10000 4 300 12:43 04.04.2020
234 Clear 12 1021 23 10000 4 300 12:23 04.04.2020
235 Clear 12 1021 23 10000 6 300 11:55 04.04.2020
236 Clear 11 1021 27 10000 5 300 11:36 04.04.2020
237 Clear 11 1021 27 10000 5 300 11:18 04.04.2020
238 Clear 11 1021 34 10000 6 310 10:55 04.04.2020
239 Clear 10 1021 37 10000 5 330 10:37 04.04.2020
240 Clear 10 1021 37 10000 5 330 10:18 04.04.2020
241 Clear 10 1021 39 10000 3 340 09:44 04.04.2020
242 Clear 9 1021 42 10000 3 350 09:25 04.04.2020
243 Clouds 8 1020 42 10000 4 340 08:58 04.04.2020
244 Clouds 7 1020 48 10000 4 310 08:38 04.04.2020
245 Clouds 7 1020 48 10000 4 310 08:19 04.04.2020
246 Clouds 5 1019 64 10000 3 260 07:40 04.04.2020
247 Clouds 5 1019 64 10000 3 260 07:22 04.04.2020
248 Clouds 3 1019 64 10000 3 260 06:46 04.04.2020
249 Clouds 3 1018 64 10000 3 250 05:57 04.04.2020
250 Clouds 3 1017 64 10000 2 300 05:39 04.04.2020
251 Clouds 2 1017 64 10000 2 300 05:21 04.04.2020
252 Clouds 3 1016 59 10000 2 250 04:24 04.04.2020
253 Clouds 5 1016 55 10000 2 250 03:45 04.04.2020
254 Clouds 5 1015 55 10000 2 240 02:49 04.04.2020
255 Clouds 6 1015 48 10000 2 260 02:30 04.04.2020
256 Clouds 6 1014 48 10000 3 260 01:50 04.04.2020
257 Clouds 6 1014 41 10000 2 270 01:22 04.04.2020
258 Clouds 6 1014 41 10000 2 270 01:22 04.04.2020
259 Clouds 6 1014 42 10000 3 280 00:47 04.04.2020
260 Clouds 7 1013 44 9000 2 270 00:26 04.04.2020
261 Clouds 8 1012 38 10000 3 260 23:39 03.04.2020
262 Clouds 7 1012 38 10000 3 260 23:21 03.04.2020
263 Clouds 8 1012 36 10000 3 260 22:56 03.04.2020
264 Clouds 8 1012 36 10000 3 260 22:37 03.04.2020
265 Clouds 8 1012 33 10000 2 250 22:18 03.04.2020
266 Clouds 8 1012 35 9000 3 240 21:43 03.04.2020
267 Clear 9 1011 31 8000 2 230 21:22 03.04.2020
268 Clear 9 1011 33 7000 2 260 20:56 03.04.2020
269 Clear 9 1010 28 8000 2 230 20:37 03.04.2020
270 Clear 10 1010 28 8000 2 230 20:19 03.04.2020
271 Clear 10 1010 26 9000 2 220 19:56 03.04.2020
272 Clear 11 1009 23 10000 2 220 19:37 03.04.2020
273 Clear 11 1009 23 10000 2 220 19:19 03.04.2020
274 Clear 12 1009 22 10000 3 240 18:58 03.04.2020
275 Clear 13 1009 20 10000 4 250 18:40 03.04.2020
276 Clear 13 1009 20 10000 4 250 18:22 03.04.2020
277 Clear 14 1008 19 10000 7 260 17:43 03.04.2020
278 Clear 14 1008 19 10000 7 260 17:21 03.04.2020
279 Clear 14 1008 19 10000 7 260 17:21 03.04.2020
280 Clear 15 1008 19 10000 6 240 16:58 03.04.2020
281 Clear 15 1008 21 10000 7 230 16:40 03.04.2020
282 Clear 15 1008 21 10000 7 230 16:21 03.04.2020
283 Clear 15 1008 19 10000 6 240 15:56 03.04.2020
284 Clear 15 1008 19 10000 6 240 15:37 03.04.2020
285 Clear 15 1008 19 10000 7 230 15:19 03.04.2020
286 Clear 15 1009 19 10000 6 240 14:41 03.04.2020
287 Clear 14 1009 19 10000 6 240 14:22 03.04.2020
288 Clear 14 1009 19 10000 6 240 13:57 03.04.2020
289 Clear 14 1009 19 10000 6 240 13:37 03.04.2020
290 Clear 14 1009 21 10000 5 230 13:18 03.04.2020
291 Clear 14 1010 20 10000 8 230 12:43 03.04.2020
292 Clear 14 1010 20 10000 8 230 12:20 03.04.2020
293 Clear 14 1010 22 10000 7 240 11:56 03.04.2020
294 Clear 13 1010 20 10000 7 230 11:37 03.04.2020
295 Clear 13 1010 20 10000 7 230 11:18 03.04.2020
296 Clear 12 1010 23 10000 6 240 10:57 03.04.2020
297 Clear 12 1010 23 10000 6 220 10:38 03.04.2020
298 Clear 12 1010 23 10000 6 220 10:20 03.04.2020
299 Clear 11 1010 25 10000 4 220 09:57 03.04.2020
300 Clear 11 1010 25 10000 4 220 09:39 03.04.2020
301 Clear 10 1010 25 10000 4 230 09:21 03.04.2020
302 Clear 8 1010 28 10000 4 230 08:55 03.04.2020
303 Clear 7 1010 30 10000 4 220 08:36 03.04.2020
304 Clear 7 1010 30 10000 4 220 08:18 03.04.2020
305 Clear 3 1010 40 10000 4 230 07:41 03.04.2020
306 Clear 0 1010 54 10000 2 240 07:23 03.04.2020
307 Clear -2 1010 54 10000 2 260 06:38 03.04.2020
308 Clear -2 1010 54 10000 2 250 06:20 03.04.2020
309 Clear -2 1010 58 10000 2 240 05:34 03.04.2020
310 Clear -1 1010 58 10000 2 240 03:40 03.04.2020
311 Clear 0 1010 64 9000 2 230 02:53 03.04.2020
312 Clear 0 1011 58 9000 2 220 01:36 03.04.2020
313 Clear 0 1011 58 9000 2 220 01:18 03.04.2020
314 Clear 0 1011 64 9000 2 220 00:34 03.04.2020
315 Clear 0 1011 50 6000 2 220 23:57 02.04.2020
316 Clear 1 1011 59 7000 1 240 23:39 02.04.2020
317 Clear 1 1011 59 7000 1 240 23:19 02.04.2020
318 Clear 1 1011 59 7000 2 210 22:43 02.04.2020
319 Clear 2 1011 55 6000 1 220 22:24 02.04.2020
320 Smoke 3 1011 51 5000 2 220 21:59 02.04.2020
321 Smoke 3 1011 51 5000 2 220 21:59 02.04.2020
322 Smoke 3 1011 51 5000 2 220 21:59 02.04.2020
323 Clear 4 1011 44 6000 1 220 21:37 02.04.2020
324 Clear 4 1011 44 6000 1 220 21:19 02.04.2020
325 Clear 4 1011 47 6000 1 230 20:54 02.04.2020
326 Clear 5 1011 44 6000 2 220 20:36 02.04.2020
327 Clear 5 1011 44 6000 2 220 20:18 02.04.2020
328 Clear 8 1010 28 10000 2 250 19:42 02.04.2020
329 Clear 9 1010 26 10000 3 270 19:20 02.04.2020
330 Clear 9 1010 26 10000 3 270 18:56 02.04.2020
331 Clear 10 1010 25 10000 4 280 18:38 02.04.2020
332 Clear 10 1010 23 10000 5 270 18:18 02.04.2020
333 Clear 11 1010 23 10000 5 270 17:43 02.04.2020
334 Clear 11 1010 23 10000 6 270 17:24 02.04.2020
335 Clear 11 1010 25 10000 8 280 16:58 02.04.2020
336 Clear 11 1010 23 10000 8 260 16:40 02.04.2020
337 Clear 12 1010 23 10000 8 260 16:22 02.04.2020
338 Clear 12 1010 23 10000 6 270 15:57 02.04.2020
339 Clear 12 1010 23 10000 7 270 15:39 02.04.2020
340 Clear 12 1010 23 10000 7 270 15:19 02.04.2020
341 Clear 11 1011 25 10000 7 260 14:57 02.04.2020
342 Clear 11 1011 25 10000 7 260 14:38 02.04.2020
343 Clear 11 1011 23 10000 9 260 14:18 02.04.2020
344 Clear 11 1011 23 10000 9 260 13:55 02.04.2020
345 Clear 10 1012 25 10000 8 270 13:37 02.04.2020
346 Clear 10 1012 25 10000 8 270 13:18 02.04.2020
347 Clear 11 1012 27 10000 8 260 12:45 02.04.2020
348 Clear 10 1012 26 10000 8 260 12:19 02.04.2020
349 Clear 9 1012 29 10000 7 270 11:57 02.04.2020
350 Clear 9 1012 29 10000 7 270 11:57 02.04.2020
351 Clear 8 1012 29 10000 7 280 11:39 02.04.2020
352 Clear 8 1012 29 10000 7 280 11:20 02.04.2020
353 Clear 8 1012 29 10000 7 280 11:20 02.04.2020
354 Clear 8 1013 33 10000 8 270 10:56 02.04.2020
355 Clear 7 1013 33 10000 8 260 10:38 02.04.2020
356 Clear 7 1013 33 10000 8 260 10:38 02.04.2020
357 Clear 7 1013 33 10000 8 260 10:20 02.04.2020
358 Clear 7 1014 36 10000 7 270 09:58 02.04.2020
359 Clear 7 1014 36 10000 7 270 09:39 02.04.2020
360 Clouds 6 1014 38 10000 5 260 09:20 02.04.2020
361 Clouds 4 1014 41 10000 5 260 08:47 02.04.2020
362 Clouds 3 1014 44 10000 5 250 08:27 02.04.2020
363 Clouds 2 1014 47 10000 5 260 07:47 02.04.2020
364 Clouds 1 1014 50 10000 3 250 07:22 02.04.2020
365 Clouds 0 1014 58 10000 3 250 06:59 02.04.2020
366 Clouds -1 1014 58 10000 3 240 06:23 02.04.2020
367 Clouds -1 1014 58 10000 3 230 05:45 02.04.2020
368 Clouds -2 1014 58 10000 3 240 04:50 02.04.2020
369 Clouds 0 1014 73 10000 3 260 02:19 02.04.2020
370 Clouds 1 1014 47 10000 3 270 00:58 02.04.2020
371 Clouds 1 1014 47 10000 4 260 00:36 02.04.2020
372 Clouds 1 1014 47 10000 4 260 00:18 02.04.2020
373 Clouds 1 1014 47 10000 4 260 23:38 01.04.2020
374 Clouds 2 1014 47 10000 4 260 23:19 01.04.2020
375 Clouds 2 1014 43 10000 4 270 22:41 01.04.2020
376 Clouds 3 1014 40 10000 5 270 22:22 01.04.2020
377 Clouds 3 1015 40 10000 5 270 21:58 01.04.2020
378 Clouds 3 1015 40 10000 5 270 21:39 01.04.2020
379 Clouds 3 1015 40 10000 5 270 21:19 01.04.2020
380 Clouds 3 1015 40 10000 5 270 20:56 01.04.2020
381 Clouds 4 1015 38 10000 5 260 20:38 01.04.2020
382 Clouds 4 1015 38 10000 5 260 20:18 01.04.2020
383 Clouds 4 1015 38 10000 5 260 19:55 01.04.2020
384 Clouds 4 1015 35 10000 5 270 19:37 01.04.2020
385 Clouds 5 1015 32 10000 5 270 19:19 01.04.2020
386 Clouds 5 1015 32 10000 8 280 18:41 01.04.2020
387 Clouds 6 1015 30 10000 8 270 18:21 01.04.2020
388 Clouds 6 1015 30 10000 8 270 17:56 01.04.2020
389 Clouds 7 1015 30 10000 8 270 17:37 01.04.2020
390 Clouds 7 1015 30 10000 8 270 17:18 01.04.2020
391 Clouds 7 1015 28 10000 7 290 16:56 01.04.2020
392 Clouds 7 1015 28 10000 8 270 16:38 01.04.2020
393 Clouds 7 1015 30 10000 8 290 16:19 01.04.2020
394 Clouds 7 1015 30 10000 8 290 15:42 01.04.2020
395 Clouds 7 1016 30 10000 9 280 15:22 01.04.2020
396 Clouds 7 1016 33 10000 9 290 14:59 01.04.2020
397 Clouds 7 1016 30 10000 8 290 14:39 01.04.2020
398 Clouds 6 1016 30 10000 8 290 14:21 01.04.2020
399 Clouds 7 1017 33 10000 8 290 13:59 01.04.2020
400 Clouds 7 1017 33 10000 8 290 13:59 01.04.2020
401 Clouds 5 1017 35 10000 9 280 13:38 01.04.2020
402 Clouds 5 1017 35 10000 9 280 13:19 01.04.2020
403 Clouds 5 1017 33 10000 8 290 12:57 01.04.2020
404 Clouds 6 1018 32 10000 10 270 12:37 01.04.2020
405 Clouds 6 1018 32 10000 10 270 12:18 01.04.2020
406 Clouds 6 1018 32 10000 10 270 12:18 01.04.2020
407 Clouds 5 1018 35 10000 9 270 11:56 01.04.2020
408 Clouds 4 1018 38 10000 8 280 11:37 01.04.2020
409 Clouds 5 1018 38 10000 8 280 11:18 01.04.2020
410 Clouds 4 1019 41 10000 7 280 10:38 01.04.2020
411 Clouds 4 1019 41 10000 7 280 10:20 01.04.2020
412 Clouds 4 1019 48 10000 6 260 09:58 01.04.2020
413 Clouds 3 1020 51 10000 5 270 09:39 01.04.2020
414 Clouds 3 1020 51 10000 5 270 09:19 01.04.2020
415 Clouds 1 1020 55 10000 5 270 08:43 01.04.2020
416 Clouds 1 1020 67 10000 5 270 08:18 01.04.2020
417 Clouds -2 1020 54 10000 4 270 07:48 01.04.2020
418 Clouds -2 1020 54 10000 4 270 07:22 01.04.2020
419 Clouds -3 1020 53 10000 2 240 06:58 01.04.2020
420 Clouds -4 1020 57 10000 2 240 06:27 01.04.2020
421 Clouds -5 1020 57 10000 3 230 05:59 01.04.2020
422 Clouds -6 1020 73 8000 2 230 04:36 01.04.2020
423 Clouds -5 1020 57 10000 2 230 03:35 01.04.2020
424 Clear -5 1020 53 9000 2 230 02:57 01.04.2020
425 Clouds -6 1020 67 7000 2 240 02:21 01.04.2020
426 Clouds -5 1021 58 6000 3 230 01:40 01.04.2020
427 Clouds -5 1021 58 6000 3 230 01:22 01.04.2020
428 Clouds -5 1021 58 6000 2 230 00:46 01.04.2020
429 Clouds -5 1021 67 6000 1 230 00:21 01.04.2020
430 Smoke -5 1021 62 5000 1 220 23:48 31.03.2020
431 Clouds -5 1021 58 7000 1 0 23:28 31.03.2020
432 Clouds -4 1021 62 10000 1.41 308 22:59 31.03.2020
433 Clouds -4 1021 62 10000 1.41 308 22:37 31.03.2020
434 Clouds -3 1021 53 10000 1 80 22:19 31.03.2020
435 Clouds -1 1020 39 10000 1 70 21:57 31.03.2020
436 Clouds -1 1020 39 10000 1 70 21:39 31.03.2020
437 Clouds 0 1020 68 10000 1 0 21:20 31.03.2020
438 Clouds 0 1020 68 10000 1 0 20:55 31.03.2020
439 Clouds 0 1020 68 10000 1 0 20:37 31.03.2020
440 Clouds 1 1020 31 10000 3 350 20:18 31.03.2020
441 Clouds 2 1020 27 10000 2 350 19:42 31.03.2020
442 Clouds 2 1020 27 10000 2 350 19:24 31.03.2020
443 Clouds 2 1020 25 10000 4 340 18:59 31.03.2020
444 Clouds 3 1020 25 10000 4 340 18:41 31.03.2020
445 Clouds 4 1019 23 10000 5 350 18:19 31.03.2020
446 Clouds 4 1019 23 10000 5 350 17:55 31.03.2020
447 Clouds 4 1019 29 10000 5 30 17:37 31.03.2020
448 Clouds 4 1019 34 10000 3 20 17:19 31.03.2020
449 Clouds 4 1019 35 10000 5 40 16:41 31.03.2020
450 Clouds 4 1019 35 10000 5 40 16:20 31.03.2020
451 Clouds 4 1019 38 10000 5 40 15:58 31.03.2020
452 Clouds 4 1019 38 10000 5 40 15:58 31.03.2020
453 Clouds 5 1019 35 10000 4 330 15:40 31.03.2020
454 Clouds 4 1019 35 10000 4 330 15:22 31.03.2020
455 Clouds 4 1019 40 10000 6 10 14:58 31.03.2020
456 Clouds 4 1019 40 10000 6 10 14:58 31.03.2020
457 Clouds 4 1019 47 10000 4 340 14:39 31.03.2020
458 Clouds 4 1019 47 10000 4 340 14:21 31.03.2020
459 Clouds 3 1020 51 10000 5 360 13:43 31.03.2020
460 Clouds 3 1020 51 10000 5 360 13:20 31.03.2020
461 Clouds 3 1020 55 10000 6 360 12:59 31.03.2020
462 Snow 2 1020 59 4100 5 340 12:40 31.03.2020
463 Snow 1 1020 76 4100 5 340 12:19 31.03.2020
464 Snow 0 1019 68 6000 7 330 11:41 31.03.2020
465 Snow 0 1019 68 6000 7 330 11:20 31.03.2020
466 Snow -1 1019 68 9000 6 340 10:59 31.03.2020
467 Snow -1 1019 74 7000 6 330 10:40 31.03.2020
468 Snow 0 1019 74 7000 6 330 10:22 31.03.2020
469 Clouds -1 1019 68 9000 6 340 09:59 31.03.2020
470 Snow -1 1019 74 10000 6 340 09:40 31.03.2020
471 Snow -2 1019 74 10000 6 340 09:22 31.03.2020
472 Snow -2 1018 74 10000 6 320 08:57 31.03.2020
473 Snow -2 1018 79 9000 6 330 08:38 31.03.2020
474 Snow -1 1018 79 9000 6 330 08:19 31.03.2020
475 Snow -1 1018 79 9000 6 330 08:19 31.03.2020
476 Snow -2 1017 79 8000 6 330 07:56 31.03.2020
477 Snow -2 1017 79 9000 4 330 07:37 31.03.2020
478 Snow -2 1017 79 7000 6 340 07:18 31.03.2020
479 Clouds -2 1016 74 10000 6 330 06:43 31.03.2020
480 Clouds -2 1016 74 10000 6 320 05:59 31.03.2020
481 Clouds -2 1016 74 10000 6 320 05:39 31.03.2020
482 Clouds -1 1015 74 10000 7 310 03:34 31.03.2020
483 Clouds -1 1015 80 10000 6 310 01:54 31.03.2020
484 Clouds -1 1015 80 10000 7 310 01:34 31.03.2020
485 Clouds -1 1014 80 10000 7 320 00:46 31.03.2020
486 Clouds -1 1014 80 10000 7 320 00:25 31.03.2020
487 Clouds -1 1014 80 10000 7 320 23:41 30.03.2020
488 Clouds -1 1014 80 10000 7 320 23:20 30.03.2020
489 Clouds 0 1014 86 10000 5 330 22:58 30.03.2020
490 Snow 0 1014 86 10000 7 320 22:39 30.03.2020
491 -273 0 0 0 0 0 22:20 30.03.2020
492 Snow 0 1013 86 9000 7 330 21:58 30.03.2020
493 Snow 0 1013 85 4900 6 340 21:39 30.03.2020
494 Snow 0 1013 85 4900 6 340 21:39 30.03.2020
495 Snow 0 1013 68 4900 6 340 21:20 30.03.2020
496 Snow 0 1013 68 9000 7 330 20:59 30.03.2020
497 Snow 1 1013 80 10000 6 320 20:39 30.03.2020
498 Snow 1 1013 80 10000 6 320 20:20 30.03.2020
499 Snow 1 1013 80 10000 6 320 20:20 30.03.2020
500 Snow 1 1013 80 10000 6 320 20:20 30.03.2020
501 Clouds 2 1012 74 10000 6 330 19:56 30.03.2020
502 Clouds 2 1012 69 10000 7 330 19:38 30.03.2020
503 Clouds 2 1012 69 10000 7 330 19:38 30.03.2020
504 Clouds 2 1012 69 10000 7 330 19:20 30.03.2020
505 Clouds 3 1011 69 10000 7 330 18:43 30.03.2020
506 Clouds 3 1011 69 10000 7 330 18:25 30.03.2020
507 Clouds 3 1011 69 10000 8 320 17:58 30.03.2020
508 Clouds 3 1011 74 10000 7 330 17:39 30.03.2020
509 Clouds 3 1011 74 10000 7 330 17:39 30.03.2020
510 Clouds 4 1011 74 10000 7 330 17:20 30.03.2020
511 Clouds 4 1010 69 10000 7 330 16:58 30.03.2020
512 Clouds 4 1010 69 10000 7 330 16:39 30.03.2020
513 Clouds 6 1010 61 10000 9 310 16:20 30.03.2020
514 Clouds 5 1010 69 10000 8 320 16:20 30.03.2020
515 Clouds 5 1010 69 10000 8 320 16:20 30.03.2020
516 Clouds 6 1010 61 10000 9 310 15:56 30.03.2020
517 Clouds 6 1009 61 10000 8 320 15:37 30.03.2020
518 Clouds 6 1009 55 10000 8 320 15:19 30.03.2020
519 Clouds 7 1009 65 10000 8 310 14:56 30.03.2020
520 Clouds 8 1008 61 10000 7 330 14:37 30.03.2020
521 Clouds 8 1008 61 10000 7 330 14:18 30.03.2020
522 Clouds 8 1008 61 10000 8 320 13:55 30.03.2020
523 Clouds 8 1008 61 10000 8 320 13:55 30.03.2020
524 Clouds 8 1008 57 10000 7 330 13:37 30.03.2020
525 Clouds 9 1008 57 10000 7 330 13:18 30.03.2020
526 Clouds 10 1007 53 10000 8 320 12:43 30.03.2020
527 Clouds 10 1007 53 10000 8 320 12:20 30.03.2020
528 Clouds 10 1007 53 10000 7 320 11:57 30.03.2020
529 Clouds 10 1007 53 10000 7 330 11:39 30.03.2020
530 Clouds 10 1007 53 10000 7 330 11:21 30.03.2020
531 Clouds 9 1007 57 10000 6 340 10:41 30.03.2020
532 Clouds 9 1007 57 10000 6 340 10:23 30.03.2020
533 Clouds 9 1006 57 10000 5 340 09:58 30.03.2020
534 Clouds 9 1006 57 10000 5 340 09:39 30.03.2020
535 Clouds 8 1006 72 10000 5 330 09:19 30.03.2020
536 Clouds 7 1006 72 10000 5 330 08:43 30.03.2020
537 Clouds 6 1006 72 10000 5 330 08:23 30.03.2020
538 Clouds 6 1005 72 10000 7 320 07:53 30.03.2020
539 Clouds 6 1005 72 10000 5 330 07:34 30.03.2020
540 Clouds 6 1005 72 10000 6 350 06:57 30.03.2020
541 Clouds 7 1004 56 10000 5 340 06:33 30.03.2020
542 Clouds 7 1004 56 10000 5 340 05:55 30.03.2020
543 Clouds 7 1004 56 10000 5 340 05:33 30.03.2020
544 Clouds 7 1003 49 10000 4 340 04:24 30.03.2020
545 Clouds 6 1003 52 10000 2 290 03:44 30.03.2020
546 Clouds 7 1003 45 10000 3 330 02:42 30.03.2020
547 Clouds 4 1003 56 6000 1 0 01:48 30.03.2020
548 Smoke 8 1003 42 6000 1 0 00:55 30.03.2020
549 Smoke 6 1003 52 5000 2 270 00:24 30.03.2020
550 Smoke 8 1003 52 3900 3 260 23:43 29.03.2020
551 Smoke 7 1003 52 3900 0.96 261 23:24 29.03.2020
552 Smoke 6 1003 56 3700 1 0 22:59 29.03.2020
553 Smoke 7 1003 56 3700 0.96 261 22:39 29.03.2020
554 Smoke 7 1003 56 3700 0.96 261 22:19 29.03.2020
555 Smoke 7 1003 56 3700 0.96 261 22:19 29.03.2020
556 Smoke 8 1003 52 3800 1 270 21:58 29.03.2020
557 Clouds 7 1003 52 6000 1 280 21:36 29.03.2020
558 Clouds 8 1003 45 7000 0.86 21 21:18 29.03.2020
559 Clouds 8 1003 45 7000 0.86 21 20:55 29.03.2020
560 Clouds 9 1003 39 8000 0.86 21 20:36 29.03.2020
561 Clouds 12 1003 27 9000 1 0 20:18 29.03.2020
562 Clouds 13 1003 30 10000 1 330 19:42 29.03.2020
563 Clouds 14 1003 24 10000 1 0 19:24 29.03.2020
564 Clouds 16 1003 23 10000 1 0 18:58 29.03.2020
565 Clouds 16 1003 23 10000 1 0 18:40 29.03.2020
566 Clouds 17 1003 20 10000 2 280 18:21 29.03.2020
567 Clouds 17 1003 20 10000 2 280 17:59 29.03.2020
568 Clouds 18 1003 20 10000 3 280 17:41 29.03.2020
569 Clouds 18 1003 20 10000 3 280 17:22 29.03.2020
570 Clouds 18 1003 23 10000 3 270 16:58 29.03.2020
571 Clouds 19 1003 17 10000 3 290 16:39 29.03.2020
572 Clouds 19 1003 17 10000 3 290 16:21 29.03.2020
573 Clouds 19 1003 20 10000 2 290 15:58 29.03.2020
574 Clouds 19 1003 17 10000 1 0 15:39 29.03.2020
575 Clouds 19 1003 17 10000 1 0 15:19 29.03.2020
576 Clouds 18 1003 17 10000 3 50 14:55 29.03.2020
577 Clouds 18 1004 17 10000 2 270 14:36 29.03.2020
578 Clouds 18 1004 17 10000 2 270 14:36 29.03.2020
579 Clouds 18 1004 16 10000 2 250 14:18 29.03.2020
580 Clouds 17 1004 20 10000 2 70 13:42 29.03.2020
581 Clouds 18 1005 23 10000 2 350 13:22 29.03.2020
582 Clouds 17 1005 21 10000 2 80 12:58 29.03.2020
583 Clouds 17 1005 21 10000 2 80 12:39 29.03.2020
584 Clouds 17 1005 21 10000 2 30 12:19 29.03.2020
585 Clouds 17 1005 21 10000 2 30 11:58 29.03.2020
586 Clouds 16 1005 25 10000 1 0 11:37 29.03.2020
587 Clouds 16 1005 25 10000 1 0 11:19 29.03.2020
588 Clouds 13 1006 30 10000 1 0 10:39 29.03.2020
589 Clouds 11 1006 37 10000 1 0 10:20 29.03.2020
590 Clouds 12 1006 37 10000 1 0 09:56 29.03.2020
591 Clouds 12 1006 37 10000 1 0 09:56 29.03.2020
592 Clouds 10 1006 39 10000 1.3 109 09:37 29.03.2020
593 Clouds 10 1006 39 10000 1.18 71 09:18 29.03.2020
594 Clouds 8 1006 42 10000 2 70 08:43 29.03.2020
595 Clouds 8 1006 42 10000 2 70 08:24 29.03.2020
596 Clouds 3 1007 69 10000 1 90 07:47 29.03.2020
597 Clouds 3 1007 60 10000 1.18 71 07:23 29.03.2020
598 Clouds 2 1007 64 10000 2 70 05:59 29.03.2020
599 Clouds 2 1007 55 10000 1 70 04:56 29.03.2020
600 Clouds 5 1008 44 10000 2 80 03:41 29.03.2020
601 Clouds 3 1008 51 10000 1 90 01:57 29.03.2020
602 Clouds 3 1009 51 10000 1 100 01:39 29.03.2020
603 Clouds 3 1009 51 10000 1 100 01:20 29.03.2020
604 Clouds 3 1009 48 10000 1 80 00:40 29.03.2020
605 Clouds 3 1010 48 10000 1.29 75 00:18 29.03.2020
606 Clouds 4 1010 48 10000 2 70 23:40 28.03.2020
607 Clouds 4 1010 48 10000 2 70 23:22 28.03.2020
608 Clouds 7 1010 33 10000 2 100 22:43 28.03.2020
609 Clouds 8 1010 33 10000 2 100 22:22 28.03.2020
610 Clouds 8 1010 31 10000 2 80 21:57 28.03.2020
611 Clouds 8 1011 36 10000 3 90 21:39 28.03.2020
612 Clouds 9 1011 36 10000 3 90 21:19 28.03.2020
613 Clouds 9 1011 33 10000 2 80 20:56 28.03.2020
614 Clouds 9 1011 31 10000 2 90 20:37 28.03.2020
615 Clouds 9 1011 31 10000 2 90 20:19 28.03.2020
616 Clouds 9 1011 33 9000 2 60 19:55 28.03.2020
617 Clouds 9 1011 33 7000 1 90 19:36 28.03.2020
618 Clouds 10 1011 33 7000 1 90 19:18 28.03.2020
619 Clouds 12 1011 20 10000 2 80 18:39 28.03.2020
620 Clouds 12 1011 20 10000 2 80 18:39 28.03.2020
621 Clouds 14 1011 17 10000 2 130 18:20 28.03.2020
622 Clouds 15 1011 14 10000 4 110 17:42 28.03.2020
623 Clouds 15 1011 15 10000 3 100 17:22 28.03.2020
624 Clouds 16 1011 15 10000 3 100 16:59 28.03.2020
625 Clouds 17 1012 13 10000 5 100 16:38 28.03.2020
626 Clouds 17 1012 13 10000 5 100 16:18 28.03.2020
627 Clouds 18 1012 12 10000 6 80 15:40 28.03.2020
628 Clouds 18 1012 12 10000 6 80 15:19 28.03.2020
629 Clouds 18 1013 16 10000 7 80 14:58 28.03.2020
630 Clouds 18 1013 15 10000 5 90 14:40 28.03.2020
631 Clouds 18 1013 15 10000 5 90 14:21 28.03.2020
632 Clouds 18 1013 20 10000 6 70 13:43 28.03.2020
633 Clouds 17 1014 21 10000 6 60 13:23 28.03.2020
634 Clouds 16 1015 25 10000 7 60 12:41 28.03.2020
635 Clouds 16 1015 25 10000 7 60 12:22 28.03.2020
636 Clouds 15 1016 28 10000 5 60 11:43 28.03.2020
637 Clouds 14 1016 30 10000 5 80 11:24 28.03.2020
638 Clouds 13 1016 30 10000 5 80 10:58 28.03.2020
639 Clouds 13 1017 30 10000 5 80 10:38 28.03.2020
640 Clouds 13 1017 30 10000 5 80 10:18 28.03.2020
641 Clouds 13 1017 30 10000 3 60 09:43 28.03.2020
642 Clouds 12 1018 34 10000 4 90 09:23 28.03.2020
643 Clouds 12 1018 32 10000 4 80 08:56 28.03.2020
644 Clouds 11 1018 34 10000 5 80 08:37 28.03.2020
645 Clouds 10 1018 34 10000 5 80 08:18 28.03.2020
646 Clouds 9 1018 34 10000 6 80 07:42 28.03.2020
647 Clouds 8 1018 36 10000 5 80 06:58 28.03.2020
648 Clouds 8 1019 39 10000 4 80 06:35 28.03.2020
649 Clouds 8 1019 39 10000 4 90 05:42 28.03.2020
650 Clouds 8 1019 39 10000 4 90 05:21 28.03.2020
651 Clouds 7 1019 45 10000 4 80 04:40 28.03.2020
652 Clouds 8 1019 39 10000 4 80 03:34 28.03.2020
653 Clouds 8 1020 39 10000 4 80 01:53 28.03.2020
654 Clouds 8 1020 42 10000 4 70 01:25 28.03.2020
655 Clouds 8 1021 42 10000 3 80 00:56 28.03.2020
656 Clouds 8 1021 42 10000 3 70 00:35 28.03.2020
657 Clouds 9 1021 39 10000 3 80 23:54 27.03.2020
658 Clouds 8 1021 34 10000 3 80 23:36 27.03.2020
659 Clouds 10 1022 31 10000 2 70 23:18 27.03.2020
660 Clouds 9 1022 31 10000 2 70 22:54 27.03.2020
661 Clouds 10 1022 27 10000 2 70 22:36 27.03.2020
662 Clouds 10 1022 27 10000 2 70 22:18 27.03.2020
663 Clouds 11 1023 25 10000 2 70 21:42 27.03.2020
664 Clouds 11 1023 25 10000 2 70 21:23 27.03.2020
665 Clouds 12 1023 23 10000 4 60 20:58 27.03.2020
666 Clouds 12 1023 23 10000 4 60 20:58 27.03.2020
667 Clouds 12 1023 23 10000 4 60 20:58 27.03.2020
668 Clouds 12 1023 22 10000 4 60 20:39 27.03.2020
669 Clouds 12 1023 22 10000 4 60 20:20 27.03.2020
670 Clouds 11 1023 23 10000 3 60 19:56 27.03.2020
671 Clouds 12 1023 23 10000 3 50 19:38 27.03.2020
672 Clouds 12 1023 23 10000 3 50 19:19 27.03.2020
673 Clouds 11 1024 25 10000 3 60 18:43 27.03.2020
674 Clouds 12 1024 20 10000 3 60 18:23 27.03.2020
675 Clouds 13 1024 19 10000 4 70 17:57 27.03.2020
676 Clouds 13 1024 19 10000 4 70 17:38 27.03.2020
677 Clouds 15 1024 15 10000 5 80 17:19 27.03.2020
678 Clouds 16 1024 13 10000 5 80 16:44 27.03.2020
679 Clouds 16 1024 13 10000 5 80 16:25 27.03.2020
680 Clouds 16 1025 13 10000 4 80 15:45 27.03.2020
681 Clouds 16 1025 13 10000 4 80 15:27 27.03.2020
682 Clouds 15 1025 14 10000 6 90 14:57 27.03.2020
683 Clouds 16 1026 13 10000 6 60 14:39 27.03.2020
684 Clouds 16 1026 17 10000 5 70 14:21 27.03.2020
685 Clouds 16 1026 17 10000 7 50 13:43 27.03.2020
686 Clouds 16 1026 17 10000 7 50 13:22 27.03.2020
687 Clouds 16 1027 15 10000 5 80 12:59 27.03.2020
688 Clouds 15 1027 19 10000 6 80 12:41 27.03.2020
689 Clouds 15 1028 21 10000 6 80 12:19 27.03.2020
690 Clouds 14 1028 22 10000 3 60 11:43 27.03.2020
691 Clouds 15 1028 22 10000 3 60 11:25 27.03.2020
692 Clouds 13 1028 24 10000 4 60 10:57 27.03.2020
693 Clouds 12 1029 27 10000 5 70 10:39 27.03.2020
694 Clouds 12 1029 27 10000 5 70 10:20 27.03.2020
695 Clouds 12 1029 25 10000 4 80 09:58 27.03.2020
696 Clouds 12 1029 25 10000 4 80 09:58 27.03.2020
697 Clouds 11 1029 31 10000 3 80 09:39 27.03.2020
698 Clouds 10 1029 31 10000 3 80 09:21 27.03.2020
699 Clouds 11 1029 29 10000 3 90 08:58 27.03.2020
700 Clouds 10 1030 31 10000 3 90 08:39 27.03.2020
701 Clouds 9 1030 31 10000 3 90 08:21 27.03.2020
702 Clouds 8 1030 33 10000 2 80 07:53 27.03.2020
703 Clouds 6 1030 41 10000 3 80 07:28 27.03.2020
704 Clouds 6 1030 48 10000 2 90 06:57 27.03.2020
705 Clouds 4 1030 55 10000 3 70 06:37 27.03.2020
706 Clouds 4 1030 40 10000 2 90 05:37 27.03.2020
707 Clear 2 1031 72 10000 3 90 02:50 27.03.2020
708 Clear 0 1031 67 10000 2 90 01:36 27.03.2020
709 Clear 4 1031 43 10000 3 80 00:55 27.03.2020
710 Clear -1 1031 58 10000 2 70 00:32 27.03.2020
711 Clear 0 1032 67 10000 2 70 23:44 26.03.2020
712 Clear 1 1032 47 10000 2 80 23:24 26.03.2020
713 Clear 1 1032 47 10000 2 80 22:59 26.03.2020
714 Clear 1 1032 47 10000 2 80 22:59 26.03.2020
715 Clear 1 1032 47 10000 2 70 22:39 26.03.2020
716 Clear 1 1032 47 10000 2 70 22:20 26.03.2020
717 Clear 1 1032 47 10000 2 70 22:20 26.03.2020
718 Clear 4 1032 43 10000 1 80 21:58 26.03.2020
719 Clear 3 1032 40 10000 1 0 21:39 26.03.2020
720 Clear 6 1032 40 10000 1 0 21:21 26.03.2020
721 Clear 5 1032 40 10000 1 40 20:58 26.03.2020
722 Clear 6 1032 38 10000 1 70 20:38 26.03.2020
723 Clouds 7 1032 38 10000 1 70 20:20 26.03.2020
724 Clouds 7 1032 33 10000 2 50 19:56 26.03.2020
725 Clouds 7 1032 35 10000 2 70 19:38 26.03.2020
726 Clouds 7 1032 35 10000 2 70 19:38 26.03.2020
727 Clouds 7 1032 33 10000 2 60 19:20 26.03.2020
728 Clouds 8 1032 33 10000 2 60 18:55 26.03.2020
729 Clouds 8 1032 33 10000 2 60 18:55 26.03.2020
730 Clouds 8 1032 33 10000 2 70 18:37 26.03.2020
731 Clouds 8 1032 28 10000 2 60 18:18 26.03.2020
732 Clouds 9 1032 26 10000 2 70 17:42 26.03.2020
733 Clouds 10 1032 23 10000 3 70 17:19 26.03.2020
734 Clouds 11 1033 21 10000 4 80 16:45 26.03.2020
735 Clouds 11 1033 21 10000 4 80 16:27 26.03.2020
736 Clouds 11 1033 20 10000 5 80 15:58 26.03.2020
737 Clouds 11 1033 21 10000 6 80 15:40 26.03.2020
738 Clouds 11 1033 21 10000 6 80 15:21 26.03.2020
739 Clouds 12 1033 22 10000 5 60 14:57 26.03.2020
740 Clouds 12 1034 22 10000 5 90 14:38 26.03.2020
741 Clouds 12 1034 22 10000 5 90 14:38 26.03.2020
742 Clouds 12 1034 22 10000 4 90 14:19 26.03.2020
743 Clear 11 1034 21 10000 5 100 13:43 26.03.2020
744 Clear 11 1034 21 10000 5 100 13:23 26.03.2020
745 Clear 11 1035 21 10000 6 80 12:56 26.03.2020
746 Clear 11 1035 23 10000 5 80 12:37 26.03.2020
747 Clear 10 1035 21 10000 4 60 12:19 26.03.2020
748 Clear 11 1036 23 10000 5 100 11:44 26.03.2020
749 Clear 9 1036 23 10000 6 60 11:20 26.03.2020
750 Clear 9 1036 23 10000 6 60 10:56 26.03.2020
751 Clear 9 1036 23 10000 6 80 10:37 26.03.2020
752 Clear 10 1036 23 10000 6 80 10:18 26.03.2020
753 Clear 10 1036 23 10000 6 80 10:18 26.03.2020
754 Clear 8 1036 26 10000 5 80 09:42 26.03.2020
755 Clear 8 1036 26 10000 5 80 09:19 26.03.2020
756 Clear 7 1036 26 10000 5 80 08:46 26.03.2020
757 Clear 6 1036 28 10000 4 80 08:27 26.03.2020
758 Clear 5 1036 32 10000 4 80 07:58 26.03.2020
759 Clear 4 1036 37 10000 3 80 07:40 26.03.2020
760 Clear 4 1036 37 10000 3 80 07:20 26.03.2020
761 Clear 4 1036 37 10000 3 80 07:20 26.03.2020
762 Clear 2 1036 67 10000 2 90 06:46 26.03.2020
763 Clear -5 1036 62 10000 2 80 05:52 26.03.2020
764 Clear -2 1036 58 10000 2 80 03:58 26.03.2020
765 Clear -1 1036 58 10000 1 60 03:35 26.03.2020
766 Clear -2 1036 58 10000 1 30 02:53 26.03.2020
767 Clear -4 1036 68 10000 2.34 44 01:44 26.03.2020
768 Clear -1 1036 54 10000 2.37 53 00:43 26.03.2020
769 Clear -1 1036 58 10000 1 0 23:45 25.03.2020
770 Clear -3 1036 58 10000 1 0 23:27 25.03.2020
771 Clear -3 1036 63 10000 2.28 64 22:57 25.03.2020
772 Clear 1 1036 46 10000 1 80 22:38 25.03.2020
773 Clear 1 1036 46 10000 1 80 22:19 25.03.2020
774 Clear 1 1036 54 10000 2.28 64 21:54 25.03.2020
775 Clear 0 1036 58 10000 1 70 21:36 25.03.2020
776 Clear 1 1036 58 10000 1 70 21:18 25.03.2020
777 Clear 2 1036 69 10000 1 30 20:39 25.03.2020
778 Clear 3 1036 61 10000 1 30 20:20 25.03.2020
779 Clear 3 1036 62 10000 1 30 19:58 25.03.2020
780 Clear 3 1036 40 10000 1 40 19:39 25.03.2020
781 Clear 3 1036 40 10000 1 40 19:21 25.03.2020
782 Clear 4 1036 43 10000 3 10 18:54 25.03.2020
783 Clear 5 1035 27 10000 3 60 18:36 25.03.2020
784 Clear 5 1035 27 10000 3 60 18:18 25.03.2020
785 Clear 5 1035 27 10000 4 70 17:41 25.03.2020
786 Clear 7 1035 24 10000 5 80 17:23 25.03.2020
787 Clear 7 1035 24 10000 5 80 16:59 25.03.2020
788 Clear 7 1036 24 10000 4 70 16:39 25.03.2020
789 Clear 7 1036 24 10000 4 70 16:21 25.03.2020
790 Clear 7 1036 24 10000 4 70 16:21 25.03.2020
791 Clear 8 1036 20 10000 5 60 15:44 25.03.2020
792 Clear 8 1036 20 10000 5 60 15:21 25.03.2020
793 Clear 8 1036 20 10000 5 80 14:59 25.03.2020
794 Clear 7 1036 20 10000 6 80 14:40 25.03.2020
795 Clear 8 1036 20 10000 6 80 14:20 25.03.2020
796 Clear 7 1036 22 10000 6 70 13:46 25.03.2020
797 Clear 7 1037 22 10000 5 50 13:25 25.03.2020
798 Clear 7 1037 24 10000 5 80 12:54 25.03.2020
799 Clear 7 1037 24 10000 5 70 12:36 25.03.2020
800 Clear 7 1037 24 10000 5 70 12:18 25.03.2020
801 Clear 7 1038 26 10000 4 70 11:41 25.03.2020
802 Clear 7 1038 26 10000 4 70 11:21 25.03.2020
803 Clear 6 1038 26 10000 4 80 10:59 25.03.2020
804 Clear 6 1038 26 10000 4 80 10:59 25.03.2020
805 Clear 6 1038 27 10000 4 80 10:40 25.03.2020
806 Clear 6 1038 27 10000 4 80 10:40 25.03.2020
807 Clear 5 1038 27 10000 4 80 10:19 25.03.2020
808 Clear 6 1038 30 10000 5 50 09:58 25.03.2020
809 Clear 5 1038 32 10000 5 70 09:39 25.03.2020
810 Clear 5 1038 32 10000 5 70 09:21 25.03.2020
811 Clear 4 1038 32 10000 5 60 08:43 25.03.2020
812 Clear 3 1038 34 10000 3 60 08:25 25.03.2020
813 Clear 3 1038 34 10000 3 60 08:25 25.03.2020
814 Clear 2 1038 40 10000 4 70 07:58 25.03.2020
815 Clear 1 1038 74 10000 3 50 07:38 25.03.2020
816 Clear 1 1038 74 10000 3 50 07:18 25.03.2020
817 Clear -1 1037 58 10000 2 30 06:43 25.03.2020
818 Clear -1 1037 58 10000 2 30 06:25 25.03.2020
819 Clear -2 1037 53 10000 2 40 05:47 25.03.2020
820 Clear -2 1037 49 10000 2 50 04:46 25.03.2020
821 Clear -2 1037 53 10000 2 40 03:58 25.03.2020
822 Clear -2 1037 58 10000 3 20 03:34 25.03.2020
823 Clear -2 1036 53 10000 2 20 01:41 25.03.2020
824 Clear -2 1036 53 10000 2 20 01:41 25.03.2020
825 Clear -2 1036 49 10000 1 0 00:51 25.03.2020
826 Clear -1 1036 53 10000 2 30 00:32 25.03.2020
827 Clear -1 1036 53 10000 1 0 23:59 24.03.2020
828 Clear -1 1036 46 10000 2 30 23:40 24.03.2020
829 Clear -1 1036 46 10000 2 30 23:20 24.03.2020
830 Clear -1 1036 46 10000 2 40 22:55 24.03.2020
831 Clear -1 1036 46 10000 1 0 22:36 24.03.2020
832 Clear -1 1036 46 10000 1 0 22:18 24.03.2020
833 Clear 0 1036 42 10000 3 30 21:42 24.03.2020
834 Clear 0 1036 42 10000 3 30 21:19 24.03.2020
835 Clear 0 1036 42 10000 3 30 20:59 24.03.2020
836 Clear 0 1036 78 10000 3 40 20:41 24.03.2020
837 Clear 0 1036 73 10000 3 40 20:22 24.03.2020
838 Clear 0 1036 73 10000 3 40 19:48 24.03.2020
839 Clear 0 1036 73 10000 3 40 19:48 24.03.2020
840 Clear 1 1036 73 10000 3 30 19:23 24.03.2020
841 Clear 1 1035 73 10000 3 30 18:59 24.03.2020
842 Clear 1 1035 34 10000 4 30 18:40 24.03.2020
843 Clear 1 1035 34 10000 5 40 18:20 24.03.2020
844 Clear 2 1035 31 10000 6 50 17:58 24.03.2020
845 Clear 2 1035 31 10000 6 50 17:40 24.03.2020
846 Clear 2 1035 31 10000 5 30 17:22 24.03.2020
847 Clear 3 1035 31 10000 5 30 16:57 24.03.2020
848 Clear 3 1035 31 10000 5 30 16:57 24.03.2020
849 Clear 3 1035 29 10000 5 40 16:38 24.03.2020
850 Clear 3 1035 29 10000 5 40 16:20 24.03.2020
851 Clear 3 1035 29 10000 5 30 15:43 24.03.2020
852 Clear 3 1035 29 10000 6 40 15:25 24.03.2020
853 Clear 3 1035 29 10000 5 10 14:57 24.03.2020
854 Clear 3 1035 29 10000 6 60 14:37 24.03.2020
855 Clear 3 1035 29 10000 6 60 14:18 24.03.2020
856 Clear 3 1036 29 10000 7 50 13:41 24.03.2020
857 Clear 3 1036 29 10000 7 50 13:22 24.03.2020
858 Clear 3 1036 32 10000 6 60 12:45 24.03.2020
859 Clear 3 1036 32 10000 6 60 12:27 24.03.2020
860 Clear 2 1036 31 10000 5 30 11:57 24.03.2020
861 Clear 3 1036 32 10000 6 30 11:38 24.03.2020
862 Clear 2 1036 34 10000 7 50 11:18 24.03.2020
863 Clear 1 1037 34 10000 5 30 10:42 24.03.2020
864 Clear 1 1037 34 10000 5 30 10:19 24.03.2020
865 Clear 1 1037 34 10000 5 30 10:19 24.03.2020
866 Clear 1 1037 34 10000 5 50 09:48 24.03.2020
867 Rain 1 1037 34 10000 5 50 09:27 24.03.2020
868 Rain 1 1037 34 10000 4 40 08:58 24.03.2020
869 Clear 0 1037 46 10000 4 30 08:38 24.03.2020
870 Clear 0 1037 46 10000 4 30 08:20 24.03.2020
871 Clear -1 1036 50 10000 4 10 07:44 24.03.2020
872 Clear -2 1036 50 10000 4 10 07:22 24.03.2020
873 Clear -3 1036 53 10000 1 40 06:42 24.03.2020
874 Clear -4 1036 62 10000 2 20 06:21 24.03.2020
875 Clear -6 1035 57 10000 3 30 04:52 24.03.2020
876 Clear -5 1035 53 10000 5 30 03:41 24.03.2020
877 Clear -5 1035 49 10000 4 20 02:44 24.03.2020
878 Clear -5 1035 57 10000 3 10 00:57 24.03.2020
879 Clear -5 1035 53 10000 3 10 00:28 24.03.2020
880 Clear -4 1035 53 10000 3 360 23:59 23.03.2020
881 Clear -4 1035 49 10000 2 10 23:38 23.03.2020
882 Clear -4 1035 53 10000 3 10 23:19 23.03.2020
883 Clear -4 1035 45 10000 3 30 22:45 23.03.2020
884 Clear -4 1035 45 10000 3 30 22:23 23.03.2020
885 Clear -3 1035 42 10000 3 50 21:55 23.03.2020
886 Clear -3 1035 42 10000 3 60 21:37 23.03.2020
887 Clear -4 1035 42 10000 3 60 21:19 23.03.2020
888 Clear -3 1035 42 10000 3 60 20:55 23.03.2020
889 Clear -2 1035 39 10000 4 50 20:36 23.03.2020
890 Clear -2 1035 39 10000 5 60 20:18 23.03.2020
891 Clear -2 1035 39 10000 4 50 20:18 23.03.2020
892 Clear -2 1035 39 10000 5 60 19:41 23.03.2020
893 Clear -2 1035 42 10000 4 50 19:22 23.03.2020
894 Clear -1 1035 36 10000 6 50 18:56 23.03.2020
895 Clear -1 1035 36 10000 6 50 18:38 23.03.2020
896 Clear -1 1035 42 10000 5 40 18:18 23.03.2020
897 Clear 0 1034 36 10000 7 40 17:41 23.03.2020
898 Clear 0 1034 32 10000 7 30 17:20 23.03.2020
899 Clear 1 1034 32 10000 7 30 16:55 23.03.2020
900 Clear 1 1033 31 10000 6 40 16:36 23.03.2020
901 Clear 1 1033 31 10000 6 40 16:18 23.03.2020
902 Clear 2 1033 31 10000 6 40 15:40 23.03.2020
903 Clear 2 1033 31 10000 6 40 15:19 23.03.2020
904 Clear 2 1033 31 10000 8 50 14:38 23.03.2020
905 Clear 2 1033 31 10000 8 50 14:19 23.03.2020
906 Clear 2 1033 34 10000 7 30 13:57 23.03.2020
907 Clear 2 1033 31 10000 8 40 13:38 23.03.2020
908 Clear 2 1033 31 10000 8 40 13:38 23.03.2020
909 Clear 2 1033 31 10000 8 40 13:38 23.03.2020
910 Clear 2 1033 31 10000 8 40 13:20 23.03.2020
911 Clear 2 1033 34 10000 7 30 12:43 23.03.2020
912 Clear 2 1033 34 10000 7 30 12:25 23.03.2020
913 Clear 1 1034 29 10000 7 40 11:56 23.03.2020
914 Clear 1 1034 29 10000 7 40 11:38 23.03.2020
915 Clear 1 1034 29 10000 7 40 11:38 23.03.2020
916 Clear 1 1033 30 10000 7 20 11:19 23.03.2020
917 Clear 1 1033 30 10000 7 20 10:56 23.03.2020
918 Clear 1 1034 30 10000 7 20 10:36 23.03.2020
919 Clear 1 1033 30 10000 7 40 10:18 23.03.2020
920 Clear 0 1033 30 10000 7 60 09:42 23.03.2020
921 Clear 0 1033 42 10000 8 50 09:20 23.03.2020
922 Clear 0 1033 46 10000 7 50 08:38 23.03.2020
923 Clouds 0 1033 46 10000 7 50 08:20 23.03.2020
924 Clouds -1 1033 50 10000 7 50 07:54 23.03.2020
925 Clouds -2 1033 53 10000 6 60 07:34 23.03.2020
926 Clouds -2 1032 53 10000 6 50 06:58 23.03.2020
927 Clouds -2 1032 53 10000 6 50 06:40 23.03.2020
928 Clouds -3 1031 58 10000 5 50 05:44 23.03.2020
929 Clouds -4 1031 58 10000 5 50 04:41 23.03.2020
930 Clouds -3 1030 58 10000 6 30 02:59 23.03.2020
931 Clouds -2 1029 54 10000 5 30 01:50 23.03.2020
932 Clouds -2 1029 50 10000 5 50 00:50 23.03.2020
933 Clouds -1 1029 50 10000 5 50 00:29 23.03.2020
934 Clouds -1 1028 54 10000 6 60 23:44 22.03.2020
935 Clouds -1 1028 54 10000 6 60 23:24 22.03.2020
936 Clouds -1 1028 54 10000 6 60 22:42 22.03.2020
937 Clouds -1 1028 54 10000 6 60 22:22 22.03.2020
938 Clouds 0 1027 48 10000 5 60 21:54 22.03.2020
939 Clouds 0 1027 48 10000 5 50 21:36 22.03.2020
940 Clouds 0 1027 48 10000 5 50 21:18 22.03.2020
941 Clouds 1 1027 48 10000 6 40 20:42 22.03.2020
942 Clouds 1 1027 48 10000 6 40 20:24 22.03.2020
943 Clouds 1 1026 59 10000 7 30 19:57 22.03.2020
944 Clouds 1 1026 59 10000 7 30 19:39 22.03.2020
945 Clouds 2 1025 51 10000 5 50 19:19 22.03.2020
946 Clouds 2 1025 51 10000 5 50 18:58 22.03.2020
947 Clouds 2 1025 55 10000 7 50 18:40 22.03.2020
948 Rain 2 1024 59 10000 6 40 18:21 22.03.2020
949 Rain 2 1024 64 10000 5 40 17:57 22.03.2020
950 Rain 2 1024 64 10000 5 40 17:38 22.03.2020
951 Rain 2 1024 64 10000 5 40 17:20 22.03.2020
952 Rain 2 1023 64 10000 6 30 16:57 22.03.2020
953 Rain 3 1023 69 10000 6 30 16:39 22.03.2020
954 Rain 3 1023 69 10000 6 30 16:20 22.03.2020
955 Rain 2 1023 53 10000 2 20 15:40 22.03.2020
956 Rain 2 1023 53 10000 2 20 15:19 22.03.2020
957 Rain 2 1022 53 10000 4 10 14:46 22.03.2020
958 Rain 1 1022 86 7000 6 10 14:18 22.03.2020
959 Rain 1 1022 86 4600 5 30 13:43 22.03.2020
960 Snow 1 1022 87 5000 5 30 13:20 22.03.2020
961 Snow 0 1022 87 8000 4 20 12:57 22.03.2020
962 Snow 0 1021 87 3500 4 30 12:38 22.03.2020
963 Snow 0 1021 87 1200 4 20 12:18 22.03.2020
964 Snow 0 1021 87 600 5 50 11:43 22.03.2020
965 Snow 0 1021 91 600 5 50 11:25 22.03.2020
966 Snow 0 1020 91 650 5 40 10:58 22.03.2020
967 Snow 0 1020 91 1300 5 50 10:39 22.03.2020
968 Snow 0 1020 91 1300 5 50 10:21 22.03.2020
969 Snow 1 1019 91 1300 5 10 09:43 22.03.2020
970 Snow 1 1019 91 1300 5 10 09:43 22.03.2020
971 Snow 1 1019 91 1300 5 10 09:24 22.03.2020
972 Snow 1 1019 86 6000 6 20 08:48 22.03.2020
973 Clouds 1 1018 80 10000 5 350 08:48 22.03.2020
974 Clouds 1 1018 80 10000 5 350 08:48 22.03.2020
975 Clouds 2 1018 80 10000 5 350 08:29 22.03.2020
976 Clouds 2 1018 80 10000 4 350 07:53 22.03.2020
977 Clouds 2 1018 80 10000 5 340 07:32 22.03.2020
978 Clouds 2 1017 80 10000 5 340 06:40 22.03.2020
979 Clouds 1 1017 80 10000 4 350 05:37 22.03.2020
980 Clouds 2 1017 80 10000 4 350 03:47 22.03.2020
981 Clouds 2 1016 75 10000 6 10 01:36 22.03.2020
982 Clouds 3 1016 77 10000 5 10 00:49 22.03.2020
983 Clouds 3 1016 77 10000 5 10 00:29 22.03.2020
984 Clouds 3 1016 77 10000 6 10 23:44 21.03.2020
985 Clouds 3 1016 61 10000 5 20 23:21 21.03.2020
986 Clouds 4 1016 61 10000 5 20 22:58 21.03.2020
987 Clouds 4 1016 69 10000 6 20 22:37 21.03.2020
988 Clouds 4 1016 69 10000 6 20 22:18 21.03.2020
989 Clouds 4 1016 69 10000 4 30 21:56 21.03.2020
990 Clouds 4 1016 65 10000 5 30 21:37 21.03.2020
991 Clouds 5 1016 65 10000 5 30 21:18 21.03.2020
992 Clouds 5 1016 65 10000 6 20 20:41 21.03.2020
993 Rain 5 1016 65 10000 6 20 20:20 21.03.2020
994 Clouds 6 1016 56 10000 6 360 19:45 21.03.2020
995 Clouds 6 1016 60 10000 6 360 19:25 21.03.2020
996 Clouds 6 1016 56 10000 5 10 18:59 21.03.2020
997 Clouds 7 1016 48 10000 4 20 18:40 21.03.2020
998 Clouds 7 1016 52 10000 5 360 18:20 21.03.2020
999 Clouds 7 1016 48 10000 5 340 17:57 21.03.2020
1000 Clouds 7 1016 48 10000 5 340 17:39 21.03.2020
1001 Clouds 8 1015 45 10000 6 340 17:21 21.03.2020
1002 Clouds 8 1015 45 10000 3 20 16:41 21.03.2020
1003 Clouds 8 1015 45 10000 3 20 16:22 21.03.2020
1004 Clouds 8 1015 42 10000 3 20 15:57 21.03.2020
1005 Clouds 9 1015 45 10000 6 10 15:39 21.03.2020
1006 Clouds 9 1015 42 10000 3 360 15:21 21.03.2020
1007 Clouds 10 1015 42 10000 3 330 14:55 21.03.2020
1008 Clouds 9 1015 42 10000 5 350 14:37 21.03.2020
1009 Clouds 9 1015 42 10000 5 350 14:18 21.03.2020
1010 Clouds 10 1015 39 10000 4 350 13:57 21.03.2020
1011 Clouds 10 1015 42 10000 5 360 13:38 21.03.2020
1012 Clouds 10 1015 39 10000 3 350 13:19 21.03.2020
1013 Clouds 10 1015 39 10000 2 30 12:41 21.03.2020
1014 Clouds 10 1015 39 10000 4 350 12:20 21.03.2020
1015 Clouds 10 1015 39 10000 4 350 11:59 21.03.2020
1016 Clouds 10 1016 36 10000 4 20 11:39 21.03.2020
1017 Clouds 10 1016 36 10000 4 20 11:39 21.03.2020
1018 Clouds 10 1016 39 10000 4 10 11:20 21.03.2020
1019 Clouds 9 1016 39 10000 4 10 10:58 21.03.2020
1020 Clouds 9 1016 42 10000 4 350 10:39 21.03.2020
1021 Clouds 9 1016 42 10000 4 350 10:21 21.03.2020
1022 Clouds 9 1016 42 10000 4 360 09:58 21.03.2020
1023 Clouds 9 1016 42 10000 4 360 09:38 21.03.2020
1024 Clouds 8 1016 39 10000 4 350 09:20 21.03.2020
1025 Clouds 9 1016 39 10000 4 350 08:55 21.03.2020
1026 Clouds 8 1016 39 10000 4 340 08:37 21.03.2020
1027 Clouds 8 1016 39 10000 4 340 08:18 21.03.2020
1028 Clouds 8 1016 39 10000 4 340 07:32 21.03.2020
1029 Clouds 7 1016 42 10000 3 330 06:49 21.03.2020
1030 Clouds 7 1016 42 10000 3 310 06:29 21.03.2020
1031 Clouds 7 1016 45 10000 3 310 05:50 21.03.2020
1032 Clouds 7 1016 45 10000 2 310 05:23 21.03.2020
1033 Clouds 6 1017 45 9000 2 270 03:32 21.03.2020
1034 Clouds 6 1017 52 8000 1 0 02:35 21.03.2020
1035 Clouds 6 1017 48 6000 1.37 181 01:40 21.03.2020
1036 Clouds 6 1017 48 6000 1.37 181 01:20 21.03.2020
1037 Clouds 5 1018 52 6000 1 210 00:38 21.03.2020
1038 Smoke 6 1018 52 5000 1.09 166 23:59 20.03.2020
1039 Clouds 5 1018 60 6000 1 200 23:40 20.03.2020
1040 Clouds 6 1018 48 6000 0.79 123 23:18 20.03.2020
1041 Clouds 6 1019 45 6000 0.79 123 22:42 20.03.2020
1042 Clouds 6 1019 45 6000 0.79 123 22:24 20.03.2020
1043 Clouds 6 1019 45 6000 0.79 123 21:57 20.03.2020
1044 Clouds 7 1019 48 6000 0.79 123 21:39 20.03.2020
1045 Clouds 6 1019 48 6000 0.79 123 21:19 20.03.2020
1046 Clouds 6 1019 56 7000 0.79 123 20:57 20.03.2020
1047 Clouds 7 1019 39 9000 1 150 20:39 20.03.2020
1048 Clouds 7 1019 39 9000 1 150 20:39 20.03.2020
1049 Clouds 6 1019 39 9000 1 150 20:18 20.03.2020
1050 Clouds 7 1020 42 9000 1 95 19:46 20.03.2020
1051 Clouds 7 1020 42 6000 1 150 19:19 20.03.2020
1052 Clouds 9 1020 31 6000 1 160 18:56 20.03.2020
1053 Clouds 8 1020 36 8000 1 120 18:37 20.03.2020
1054 Clouds 9 1020 34 10000 2 100 18:19 20.03.2020
1055 Clouds 10 1020 29 10000 1 120 17:40 20.03.2020
1056 Clear 10 1020 29 10000 2 80 17:22 20.03.2020
1057 Clear 11 1020 29 10000 2 80 16:59 20.03.2020
1058 Clear 11 1020 27 10000 2 50 16:41 20.03.2020
1059 Clear 11 1020 27 10000 2 50 16:20 20.03.2020
1060 Clear 12 1020 25 10000 2 60 15:43 20.03.2020
1061 Clear 12 1020 25 10000 2 60 15:22 20.03.2020
1062 Clear 12 1020 23 10000 3 130 14:57 20.03.2020
1063 Clear 12 1020 25 10000 2 40 14:38 20.03.2020
1064 Clear 12 1020 25 10000 2 40 14:19 20.03.2020
1065 Clear 12 1021 27 10000 3 100 13:46 20.03.2020
1066 Clear 12 1021 32 10000 3 30 13:20 20.03.2020
1067 Clear 12 1021 30 10000 4 30 12:54 20.03.2020
1068 Clear 12 1021 30 10000 4 30 12:36 20.03.2020
1069 Clear 11 1022 32 10000 4 350 12:18 20.03.2020
1070 Clear 11 1022 34 10000 3 360 11:39 20.03.2020
1071 Clear 11 1022 34 10000 3 40 11:20 20.03.2020
1072 Clear 11 1022 34 10000 3 40 10:54 20.03.2020
1073 Clear 10 1022 37 10000 4 320 10:36 20.03.2020
1074 Clear 10 1022 37 10000 4 320 10:18 20.03.2020
1075 Clear 10 1022 42 10000 3 40 09:43 20.03.2020
1076 Clear 9 1022 45 10000 4 50 09:20 20.03.2020
1077 Clear 9 1022 42 10000 3 40 08:43 20.03.2020
1078 Clouds 8 1022 49 10000 3 40 08:23 20.03.2020
1079 Clear 8 1022 52 10000 4 10 07:57 20.03.2020
1080 Clear 7 1022 62 10000 4 10 07:38 20.03.2020
1081 Clear 8 1022 62 10000 4 10 07:19 20.03.2020
1082 Clear 6 1021 62 10000 4 10 06:42 20.03.2020
1083 Clouds 7 1021 65 10000 5 10 04:57 20.03.2020
1084 Clouds 8 1021 61 10000 5 10 04:27 20.03.2020
1085 Clouds 8 1020 65 10000 5 10 02:43 20.03.2020
1086 Clouds 9 1019 76 10000 6 20 01:50 20.03.2020
1087 Clouds 11 1018 62 10000 4 320 00:38 20.03.2020
1088 Clouds 12 1018 58 10000 5 310 23:55 19.03.2020
1089 Clouds 12 1018 58 10000 5 310 23:36 19.03.2020
1090 Rain 13 1018 58 10000 5 310 23:18 19.03.2020
1091 Rain 13 1018 58 10000 5 310 22:38 19.03.2020
1092 Rain 13 1018 58 10000 5 310 22:20 19.03.2020
1093 Rain 13 1018 58 10000 4 310 21:57 19.03.2020
1094 Rain 13 1018 54 10000 4 320 21:38 19.03.2020
1095 Rain 12 1018 54 10000 4 330 21:18 19.03.2020
1096 Rain 13 1018 50 10000 5 320 20:42 19.03.2020
1097 Rain 13 1018 50 10000 5 320 20:24 19.03.2020
1098 Clouds 13 1018 50 10000 3 330 19:57 19.03.2020
1099 Clouds 13 1018 47 10000 4 330 19:38 19.03.2020
1100 Clouds 14 1018 44 10000 4 330 19:20 19.03.2020
1101 Clouds 14 1018 41 10000 4 330 18:56 19.03.2020
1102 Clouds 14 1018 41 10000 4 330 18:56 19.03.2020
1103 Clouds 14 1018 41 10000 4 330 18:38 19.03.2020
1104 Clouds 14 1018 41 10000 4 330 18:38 19.03.2020
1105 Clouds 13 1017 69 10000 2 320 18:19 19.03.2020
1106 Clouds 15 1017 36 10000 5 300 17:42 19.03.2020
1107 Clouds 16 1017 33 10000 5 310 17:19 19.03.2020
1108 Clouds 16 1017 33 10000 5 310 17:19 19.03.2020
1109 Clouds 17 1017 33 10000 6 320 16:45 19.03.2020
1110 Clouds 17 1017 33 10000 6 320 16:45 19.03.2020
1111 Clouds 17 1017 33 10000 6 320 16:25 19.03.2020
1112 Clouds 18 1017 31 10000 7 300 15:58 19.03.2020
1113 Clouds 18 1017 31 10000 7 300 15:40 19.03.2020
1114 Clouds 18 1017 31 10000 7 300 15:18 19.03.2020
1115 Clouds 18 1018 31 10000 5 280 14:43 19.03.2020
1116 Clouds 18 1018 31 10000 5 280 14:21 19.03.2020
1117 Clouds 18 1019 31 10000 6 290 13:41 19.03.2020
1118 Clouds 18 1018 34 10000 4 280 13:20 19.03.2020
1119 Clouds 18 1019 31 10000 6 300 12:58 19.03.2020
1120 Clouds 18 1019 31 10000 5 300 12:40 19.03.2020
1121 Clouds 18 1019 39 10000 5 300 12:21 19.03.2020
1122 Clouds 17 1020 39 10000 4 270 11:43 19.03.2020
1123 Clouds 15 1020 47 10000 5 270 11:24 19.03.2020
1124 Clouds 15 1020 47 10000 5 270 10:57 19.03.2020
1125 Clouds 14 1021 47 10000 4 260 10:38 19.03.2020
1126 Clouds 14 1021 47 10000 4 260 10:19 19.03.2020
1127 Clouds 12 1021 50 10000 4 270 09:45 19.03.2020
1128 Clouds 12 1021 50 10000 4 270 09:27 19.03.2020
1129 Clouds 10 1021 53 10000 4 270 08:59 19.03.2020
1130 Clouds 9 1021 57 10000 4 260 08:41 19.03.2020
1131 Clouds 9 1021 57 10000 4 260 08:19 19.03.2020
1132 Clouds 7 1022 72 10000 3 260 07:44 19.03.2020
1133 Clouds 6 1022 60 10000 3 250 07:23 19.03.2020
1134 Clouds 6 1022 72 10000 3 250 06:34 19.03.2020
1135 Clouds 4 1022 74 10000 3 250 05:47 19.03.2020
1136 Clouds 3 1023 74 10000 3 240 04:53 19.03.2020
1137 Clouds 3 1023 80 10000 3 240 04:34 19.03.2020
1138 Clouds 4 1024 74 10000 3 240 02:34 19.03.2020
1139 Clear 3 1025 80 7000 2 240 00:57 19.03.2020
1140 Clear 4 1025 80 6000 2 240 00:21 19.03.2020
1141 Clear 4 1025 74 7000 2 260 23:46 18.03.2020
1142 Clear 4 1025 74 7000 2 260 23:27 18.03.2020
1143 Clear 5 1025 74 7000 3 220 22:44 18.03.2020
1144 Clear 4 1025 74 7000 3 220 22:24 18.03.2020
1145 Clear 4 1026 74 8000 3 220 21:59 18.03.2020
1146 Clear 5 1026 69 6000 2 220 21:41 18.03.2020
1147 Clear 5 1026 69 6000 2 220 21:21 18.03.2020
1148 Clear 4 1026 69 6000 1 240 20:57 18.03.2020
1149 Clear 5 1026 69 6000 1 230 20:38 18.03.2020
1150 Clear 6 1026 69 6000 1 230 20:19 18.03.2020
1151 Smoke 6 1026 65 5000 1 220 19:55 18.03.2020
1152 Clear 7 1027 65 6000 3 230 19:36 18.03.2020
1153 Clear 7 1027 56 6000 2 230 19:18 18.03.2020
1154 Clear 8 1027 58 8000 2 240 18:41 18.03.2020
1155 Clear 9 1027 56 10000 2 230 18:20 18.03.2020
1156 Clear 10 1027 46 10000 2 250 17:57 18.03.2020
1157 Clear 10 1027 46 10000 2 250 17:39 18.03.2020
1158 Clear 10 1027 48 8000 4 260 17:20 18.03.2020
1159 Clear 11 1027 48 8000 4 260 16:54 18.03.2020
1160 Clear 11 1027 48 10000 4 270 16:36 18.03.2020
1161 Clear 12 1027 48 10000 4 270 16:18 18.03.2020
1162 Clear 12 1028 40 10000 5 270 15:44 18.03.2020
1163 Clear 12 1028 40 10000 5 270 15:20 18.03.2020
1164 Clear 12 1028 40 10000 5 270 14:44 18.03.2020
1165 Clouds 12 1028 40 10000 5 260 14:21 18.03.2020
1166 Clouds 12 1029 40 10000 5 250 13:42 18.03.2020
1167 Clear 12 1029 40 10000 5 250 13:20 18.03.2020
1168 Clouds 12 1029 40 10000 5 220 12:59 18.03.2020
1169 Clouds 12 1029 40 10000 3 230 12:41 18.03.2020
1170 Clouds 11 1030 49 10000 4 230 12:19 18.03.2020
1171 Clear 11 1030 49 10000 3 220 11:39 18.03.2020
1172 Clear 10 1031 62 10000 4 250 11:20 18.03.2020
1173 Clear 10 1031 62 10000 4 250 10:58 18.03.2020
1174 Clear 9 1031 49 10000 3 230 10:38 18.03.2020
1175 Clear 9 1031 49 10000 3 230 10:20 18.03.2020
1176 Clear 9 1031 49 10000 3 200 09:43 18.03.2020
1177 Clear 8 1031 62 10000 3 190 09:25 18.03.2020
1178 Clear 7 1031 52 10000 2 200 08:56 18.03.2020
1179 Clear 5 1031 62 10000 2 210 08:38 18.03.2020
1180 Clouds 3 1031 75 8000 1 0 08:20 18.03.2020
1181 Mist 1 1030 86 5000 2 180 07:44 18.03.2020
1182 Mist -1 1030 86 3700 0.69 209 07:26 18.03.2020
1183 Fog 0 1031 100 2300 1 0 06:44 18.03.2020
1184 Mist -4 1031 100 3200 1 190 06:20 18.03.2020
1185 Mist -4 1030 100 5000 0.69 209 05:34 18.03.2020
1186 Mist -3 1030 100 5000 0.28 312 04:24 18.03.2020
1187 Mist -2 1029 100 4800 0.28 312 02:43 18.03.2020
1188 Clear -2 1029 100 6000 0.71 354 01:48 18.03.2020
1189 Clear -2 1028 92 6000 0.95 355 01:26 18.03.2020
1190 Mist -1 1028 86 5000 1.4 342 00:24 18.03.2020
1191 Mist 0 1028 96 5000 2 80 23:47 17.03.2020
1192 Clouds -1 1028 100 7000 1 0 23:27 17.03.2020
1193 Clear 0 1028 96 7000 0.64 2 22:55 17.03.2020
1194 Clouds 1 1028 94 7000 0.36 32 22:37 17.03.2020
1195 Clouds 0 1028 86 9000 1 0 22:18 17.03.2020
1196 Clear 1 1027 80 9000 2 80 21:39 17.03.2020
1197 Clear 2 1027 80 9000 2 80 21:21 17.03.2020
1198 -273 0 0 0 0 0 21:20 17.03.2020
1199 Clear 2 1027 74 9000 2 80 20:39 17.03.2020
1200 Clear 2 1027 74 9000 2 80 20:39 17.03.2020
1201 Clouds 3 1027 74 10000 2 80 20:21 17.03.2020
1202 Clouds 3 1027 74 10000 2 80 19:56 17.03.2020
1203 Clouds 4 1026 69 10000 1 100 19:38 17.03.2020
1204 Clouds 5 1026 60 10000 2 110 19:18 17.03.2020
1205 Clouds 5 1026 60 10000 1.24 39 18:55 17.03.2020
1206 Clouds 5 1026 60 10000 1.24 39 18:37 17.03.2020
1207 Clouds 6 1025 56 10000 1.24 39 18:19 17.03.2020
1208 Clouds 6 1025 52 10000 1 0 17:40 17.03.2020
1209 Rain 7 1025 52 10000 0.7 46 17:21 17.03.2020
1210 Rain 7 1025 52 10000 1 0 16:45 17.03.2020
1211 Rain 7 1025 52 10000 1 0 16:20 17.03.2020
1212 Rain 7 1024 49 10000 1 0 15:58 17.03.2020
1213 Clouds 7 1024 52 10000 0.7 46 15:39 17.03.2020
1214 Clouds 7 1024 48 10000 1 0 15:18 17.03.2020
1215 Clouds 7 1024 48 10000 1 0 14:41 17.03.2020
1216 Clouds 7 1024 48 10000 2 220 14:21 17.03.2020
1217 Clouds 7 1024 48 10000 2 220 14:21 17.03.2020
1218 Clouds 7 1024 48 10000 3 210 13:43 17.03.2020
1219 Rain 7 1024 45 10000 2 230 13:25 17.03.2020
1220 Clouds 7 1024 45 10000 2 230 12:54 17.03.2020
1221 Clouds 7 1024 45 10000 2 230 12:36 17.03.2020
1222 Rain 7 1024 45 10000 2 210 12:18 17.03.2020
1223 Rain 7 1024 45 10000 2 210 11:42 17.03.2020
1224 Rain 6 1023 45 10000 2 190 11:24 17.03.2020
1225 Rain 6 1023 45 10000 2 190 10:57 17.03.2020
1226 Rain 6 1023 45 10000 2 190 10:57 17.03.2020
1227 Clouds 6 1023 44 10000 2 220 10:37 17.03.2020
1228 Clouds 6 1023 44 10000 2 220 10:18 17.03.2020
1229 Rain 5 1023 44 10000 3 230 09:46 17.03.2020
1230 Rain 5 1023 44 10000 3 250 09:20 17.03.2020
1231 Rain 4 1023 44 10000 3 240 08:59 17.03.2020
1232 Rain 4 1023 44 10000 4 230 08:41 17.03.2020
1233 Clouds 4 1023 44 10000 4 230 08:20 17.03.2020
1234 Clouds 4 1023 47 10000 5 240 07:49 17.03.2020
1235 Clouds 3 1023 47 10000 4 230 07:21 17.03.2020
1236 Clouds 3 1023 47 10000 4 230 06:52 17.03.2020
1237 Clouds 2 1023 43 10000 4 220 06:25 17.03.2020
1238 Clouds 2 1023 43 10000 4 230 05:34 17.03.2020
1239 Clouds 3 1023 40 10000 5 220 03:36 17.03.2020
1240 Clouds 2 1025 43 10000 4 210 02:31 17.03.2020
1241 Clouds 2 1025 40 10000 4 210 01:39 17.03.2020
1242 Clouds 2 1026 40 10000 4 220 00:54 17.03.2020
1243 Clouds 2 1027 38 10000 4 210 00:19 17.03.2020
1244 Clouds 3 1026 44 10000 4 220 23:38 16.03.2020
1245 Clouds 3 1027 44 10000 4 220 23:19 16.03.2020
1246 Clouds 2 1027 44 10000 4 220 22:38 16.03.2020
1247 Clouds 2 1027 44 10000 4 220 22:20 16.03.2020
1248 Clouds 2 1027 40 10000 3 230 21:45 16.03.2020
1249 Clouds 2 1027 40 10000 3 230 21:26 16.03.2020
1250 Clouds 3 1027 40 10000 4 230 20:59 16.03.2020
1251 Clouds 3 1027 38 10000 5 210 20:39 16.03.2020
1252 Clouds 3 1027 38 10000 5 210 20:20 16.03.2020
1253 Clouds 3 1028 40 10000 4 220 19:46 16.03.2020
1254 Clouds 4 1028 35 10000 4 210 19:24 16.03.2020
1255 Clouds 4 1028 35 10000 3 220 18:59 16.03.2020
1256 Clouds 4 1028 32 10000 3 210 18:39 16.03.2020
1257 Clouds 5 1029 30 10000 2 220 18:19 16.03.2020
1258 Clouds 6 1029 28 10000 3 220 17:46 16.03.2020
1259 Clouds 6 1029 28 10000 3 220 17:25 16.03.2020
1260 Clouds 7 1029 26 10000 3 230 16:56 16.03.2020
1261 Clouds 8 1029 24 10000 4 230 16:37 16.03.2020
1262 Clouds 8 1029 24 10000 4 230 16:19 16.03.2020
1263 Clouds 8 1029 26 10000 4 230 15:42 16.03.2020
1264 Clouds 8 1029 26 10000 4 230 15:23 16.03.2020
1265 Clouds 8 1029 26 10000 4 230 15:23 16.03.2020
1266 Clouds 8 1030 22 10000 3 260 14:45 16.03.2020
1267 Clear 8 1030 22 10000 3 260 14:20 16.03.2020
1268 Clear 9 1030 24 10000 3 240 13:47 16.03.2020
1269 Clear 8 1030 26 10000 2 260 13:27 16.03.2020
1270 Clear 8 1031 26 10000 3 260 12:57 16.03.2020
1271 Clear 8 1031 26 10000 3 220 12:38 16.03.2020
1272 Clear 7 1031 30 10000 2 260 12:19 16.03.2020
1273 Clear 6 1031 30 10000 2 260 11:42 16.03.2020
1274 Clear 5 1032 32 10000 3 260 11:23 16.03.2020
1275 Clear 4 1032 35 10000 4 270 10:43 16.03.2020
1276 Clear 4 1032 35 10000 4 270 10:24 16.03.2020
1277 Clear 4 1032 35 10000 3 290 09:49 16.03.2020
1278 Clear 4 1032 37 10000 3 290 09:30 16.03.2020
1279 Clear 3 1032 43 10000 3 290 08:59 16.03.2020
1280 Clear 2 1032 50 10000 3 280 08:36 16.03.2020
1281 Clear 0 1032 46 10000 2 270 08:18 16.03.2020
1282 Clear -1 1032 58 10000 3 280 07:40 16.03.2020
1283 Clear -2 1031 68 10000 2 250 07:18 16.03.2020
1284 Clear -4 1031 79 9000 2 240 06:28 16.03.2020
1285 Clear -6 1031 79 10000 2 240 05:54 16.03.2020
1286 Clear -5 1030 73 10000 2 250 03:36 16.03.2020
1287 Clear -3 1030 58 10000 2 250 01:29 16.03.2020
1288 Clear -3 1030 62 10000 2 260 00:43 16.03.2020
1289 Clear -3 1029 58 10000 3 320 23:56 15.03.2020
1290 Clear -2 1029 54 10000 2 310 23:37 15.03.2020
1291 Clear -2 1029 54 10000 2 310 23:18 15.03.2020
1292 Clear -3 1029 58 10000 2 300 22:41 15.03.2020
1293 Clear -2 1028 58 10000 3 270 22:20 15.03.2020
1294 Clear -2 1028 50 10000 3 310 21:39 15.03.2020
1295 Clear -2 1028 50 10000 3 310 21:20 15.03.2020
1296 Clear -2 1028 46 10000 3 320 20:44 15.03.2020
1297 Clear -1 1027 41 10000 3 320 20:22 15.03.2020
1298 Clear -1 1027 46 10000 4 320 19:59 15.03.2020
1299 Clear -1 1027 46 10000 4 320 19:59 15.03.2020
1300 Clear -1 1027 46 10000 4 320 19:41 15.03.2020
1301 Clear -1 1027 41 10000 4 320 19:23 15.03.2020
1302 Clear -1 1027 41 10000 4 330 18:58 15.03.2020
1303 Clear 0 1027 37 10000 4 330 18:39 15.03.2020
1304 Clear 1 1027 37 10000 4 330 18:21 15.03.2020
1305 Clear 1 1026 37 10000 6 340 17:54 15.03.2020
1306 Clear 1 1026 37 10000 6 340 17:36 15.03.2020
1307 Clear 2 1026 34 10000 7 340 17:18 15.03.2020
1308 Clear 2 1026 34 10000 7 340 16:42 15.03.2020
1309 Clear 2 1026 32 10000 5 340 16:23 15.03.2020
1310 Clear 3 1026 32 10000 8 320 15:57 15.03.2020
1311 Clear 3 1025 32 10000 8 310 15:38 15.03.2020
1312 Clear 3 1025 32 10000 7 330 15:19 15.03.2020
1313 Clear 3 1025 32 10000 7 330 14:43 15.03.2020
1314 Clear 4 1025 32 10000 9 320 14:24 15.03.2020
1315 Clouds 3 1025 34 10000 8 310 13:57 15.03.2020
1316 Clouds 3 1025 34 10000 8 320 13:38 15.03.2020
1317 Clouds 2 1025 34 10000 8 320 13:19 15.03.2020
1318 Clouds 3 1025 37 10000 8 320 12:41 15.03.2020
1319 Clouds 3 1025 37 10000 8 320 12:23 15.03.2020
1320 Clouds 2 1025 40 10000 9 320 11:45 15.03.2020
1321 Clouds 1 1025 43 10000 8 330 11:26 15.03.2020
1322 Clouds 1 1025 43 10000 8 320 10:59 15.03.2020
1323 Clouds 1 1025 43 10000 7 310 10:41 15.03.2020
1324 Clouds 1 1025 43 10000 7 310 10:22 15.03.2020
1325 Clouds 1 1025 43 10000 7 300 09:59 15.03.2020
1326 Clouds 1 1025 43 10000 7 300 09:59 15.03.2020
1327 Clouds 1 1025 38 10000 6 330 09:39 15.03.2020
1328 Clouds 0 1025 38 10000 6 330 09:20 15.03.2020
1329 Clouds -1 1025 50 10000 7 310 08:41 15.03.2020
1330 Snow -1 1025 54 10000 7 310 08:20 15.03.2020
1331 Snow -1 1024 58 10000 7 320 07:50 15.03.2020
1332 Clouds -2 1024 58 10000 7 330 07:23 15.03.2020
1333 Clouds -2 1024 63 10000 6 330 06:44 15.03.2020
1334 Clouds -2 1022 68 8000 6 330 05:49 15.03.2020
1335 Clouds -2 1022 63 10000 7 320 04:58 15.03.2020
1336 Clouds -2 1021 63 10000 8 330 04:40 15.03.2020
1337 Snow -2 1021 63 10000 4 340 04:20 15.03.2020
1338 Clouds -2 1021 63 10000 7 320 03:24 15.03.2020
1339 Clear -2 1020 63 10000 7 320 02:28 15.03.2020
1340 Snow -1 1019 79 6000 6 310 00:59 15.03.2020
1341 Snow -1 1019 86 2500 6 330 00:41 15.03.2020
1342 Snow -1 1018 80 4600 6 320 00:19 15.03.2020
1343 Snow -1 1018 74 7000 6 310 23:40 14.03.2020
1344 Snow 0 1017 51 10000 6 310 23:20 14.03.2020
1345 Snow 1 1017 51 10000 6 310 22:56 14.03.2020
1346 Snow 1 1017 51 10000 8 330 22:38 14.03.2020
1347 Snow 1 1017 51 10000 8 330 22:19 14.03.2020
1348 Clouds 1 1017 50 10000 6 320 21:55 14.03.2020
1349 Clouds 1 1017 50 10000 6 320 21:55 14.03.2020
1350 Clouds 1 1017 51 10000 4 280 21:36 14.03.2020
1351 Clouds 1 1017 51 10000 4 280 21:36 14.03.2020
1352 Clouds 1 1017 51 10000 4 280 21:18 14.03.2020
1353 Clouds 1 1017 51 10000 4 280 21:18 14.03.2020
1354 Clouds 0 1016 54 10000 4 280 20:56 14.03.2020
1355 Clouds 0 1016 54 10000 4 280 20:56 14.03.2020
1356 Clouds 0 1016 51 10000 4 290 20:38 14.03.2020
1357 Clouds 0 1016 41 10000 4 290 20:18 14.03.2020
1358 Clouds 1 1015 47 10000 6 290 19:41 14.03.2020
1359 Clouds 1 1015 50 10000 6 290 19:21 14.03.2020
1360 Clouds 1 1015 55 10000 6 290 18:40 14.03.2020
1361 Clouds 2 1015 51 10000 6 300 18:21 14.03.2020
1362 Clouds 2 1014 51 10000 9 310 17:43 14.03.2020
1363 Clouds 2 1014 51 10000 9 310 17:24 14.03.2020
1364 Clouds 3 1014 47 10000 9 300 16:59 14.03.2020
1365 Clouds 3 1013 47 10000 10 320 16:39 14.03.2020
1366 Clouds 3 1013 47 10000 10 320 16:20 14.03.2020
1367 Clouds 3 1012 47 10000 13 300 15:48 14.03.2020
1368 Clouds 4 1012 41 10000 15 300 15:25 14.03.2020
1369 Clouds 6 1011 44 10000 13 300 14:44 14.03.2020
1370 Snow 7 1010 36 10000 13 290 14:22 14.03.2020
1371 Snow 8 1009 36 10000 12 280 13:57 14.03.2020
1372 Clouds 7 1009 39 10000 12 280 13:39 14.03.2020
1373 Rain 8 1008 56 10000 10 270 13:20 14.03.2020
1374 Clouds 7 1008 56 10000 9 270 12:44 14.03.2020
1375 Clouds 7 1008 56 10000 9 270 12:26 14.03.2020
1376 Clouds 8 1008 52 10000 13 270 11:46 14.03.2020
1377 Clouds 8 1008 45 10000 10 270 11:26 14.03.2020
1378 Clouds 8 1008 52 10000 10 260 10:57 14.03.2020
1379 Clouds 8 1008 52 10000 10 260 10:39 14.03.2020
1380 Clouds 8 1008 52 10000 10 260 10:20 14.03.2020
1381 Clouds 7 1009 54 10000 10 270 09:41 14.03.2020
1382 Clouds 7 1009 54 10000 10 270 09:22 14.03.2020
1383 Rain 7 1009 54 10000 9 270 08:47 14.03.2020
1384 Rain 7 1009 54 10000 9 270 08:47 14.03.2020
1385 Rain 6 1009 57 10000 9 270 08:27 14.03.2020
1386 Clear 5 1009 65 10000 8 270 07:49 14.03.2020
1387 Clear 5 1009 65 10000 8 270 07:23 14.03.2020
1388 Clear 4 1009 65 10000 7 260 06:59 14.03.2020
1389 Clear 3 1009 65 10000 6 260 06:39 14.03.2020
1390 Clear 2 1009 67 10000 4 250 04:58 14.03.2020
1391 Clear 3 1009 86 10000 4 260 03:41 14.03.2020
1392 Clear 3 1009 86 10000 4 260 03:20 14.03.2020
1393 Clouds 4 1010 80 10000 4 260 02:19 14.03.2020
1394 Clouds 5 1010 80 10000 5 260 00:42 14.03.2020
1395 Rain 6 1009 80 10000 5 260 23:44 13.03.2020
1396 Rain 6 1009 80 10000 5 260 23:25 13.03.2020
1397 Rain 6 1010 75 10000 7 270 22:46 13.03.2020
1398 Rain 6 1010 75 10000 7 270 22:25 13.03.2020
1399 Clouds 7 1009 65 10000 6 260 21:42 13.03.2020
1400 Clouds 8 1009 50 10000 5 260 21:21 13.03.2020
1401 Clouds 8 1009 52 10000 5 250 20:56 13.03.2020
1402 Clouds 8 1009 45 10000 4 250 20:37 13.03.2020
1403 Clouds 9 1009 45 10000 4 250 20:18 13.03.2020
1404 Clouds 9 1009 45 10000 3 250 19:42 13.03.2020
1405 Clouds 9 1009 45 10000 3 250 19:23 13.03.2020
1406 Clouds 9 1009 49 10000 2 230 18:44 13.03.2020
1407 Clouds 10 1009 39 10000 3 260 18:25 13.03.2020
1408 Clouds 10 1009 37 10000 4 280 17:43 13.03.2020
1409 Clouds 10 1008 37 10000 5 280 17:22 13.03.2020
1410 Clouds 10 1008 37 10000 5 280 16:59 13.03.2020
1411 Clouds 10 1008 37 10000 6 280 16:39 13.03.2020
1412 Clouds 10 1008 37 10000 6 280 16:21 13.03.2020
1413 Clouds 11 1008 37 10000 6 260 15:46 13.03.2020
1414 Clouds 11 1008 37 10000 6 260 15:24 13.03.2020
1415 Clouds 11 1009 37 10000 7 260 14:59 13.03.2020
1416 Clouds 11 1009 37 10000 7 260 14:40 13.03.2020
1417 Clouds 11 1009 39 10000 6 270 14:22 13.03.2020
1418 Clouds 11 1009 39 10000 6 270 13:55 13.03.2020
1419 Clouds 11 1009 37 10000 7 260 13:36 13.03.2020
1420 Clouds 12 1010 37 10000 7 270 13:18 13.03.2020
1421 Clouds 11 1010 34 10000 7 290 12:39 13.03.2020
1422 Clouds 11 1010 34 10000 7 290 12:39 13.03.2020
1423 Clouds 11 1010 27 10000 6 270 12:20 13.03.2020
1424 Clouds 11 1009 27 10000 6 270 11:57 13.03.2020
1425 Clouds 11 1009 27 10000 6 270 11:37 13.03.2020
1426 Clouds 10 1010 34 10000 9 290 11:19 13.03.2020
1427 Clouds 10 1010 34 10000 9 290 10:47 13.03.2020
1428 Clouds 11 1010 31 10000 8 290 10:26 13.03.2020
1429 Clouds 10 1010 37 10000 7 280 09:56 13.03.2020
1430 Clouds 10 1010 39 10000 8 300 09:38 13.03.2020
1431 Clouds 10 1010 39 10000 8 300 09:19 13.03.2020
1432 Clouds 10 1010 39 10000 8 300 09:19 13.03.2020
1433 Clouds 8 1010 49 10000 7 290 08:41 13.03.2020
1434 Clouds 8 1010 49 10000 7 290 08:22 13.03.2020
1435 Clouds 8 1010 59 10000 7 290 07:45 13.03.2020
1436 Clouds 8 1010 59 10000 7 290 07:27 13.03.2020
1437 Clouds 8 1009 52 10000 7 300 06:46 13.03.2020
1438 Clouds 8 1009 52 10000 7 300 06:23 13.03.2020
1439 Clouds 8 1009 49 10000 5 300 05:46 13.03.2020
1440 Rain 9 1008 61 10000 7 300 04:57 13.03.2020
1441 Clouds 9 1008 70 10000 7 300 04:26 13.03.2020
1442 Clouds 12 1006 66 10000 10 290 02:58 13.03.2020
1443 Rain 14 1005 58 10000 8 260 01:39 13.03.2020
1444 Rain 14 1005 58 10000 8 260 01:18 13.03.2020
1445 Rain 13 1005 62 10000 7 240 00:42 13.03.2020
1446 Rain 13 1005 62 10000 5 240 00:20 13.03.2020
1447 Rain 14 1005 54 10000 7 250 23:40 12.03.2020
1448 Rain 14 1005 58 10000 7 250 23:22 12.03.2020
1449 Rain 14 1005 58 10000 7 240 22:47 12.03.2020
1450 Rain 14 1005 58 10000 7 240 22:29 12.03.2020
1451 Rain 14 1005 58 10000 6 230 21:59 12.03.2020
1452 Rain 13 1005 62 10000 6 230 21:40 12.03.2020
1453 Rain 13 1005 62 10000 6 230 21:21 12.03.2020
1454 Rain 13 1006 62 10000 6 230 20:42 12.03.2020
1455 Rain 13 1006 62 10000 6 230 20:42 12.03.2020
1456 Clouds 13 1006 62 10000 6 230 20:20 12.03.2020
1457 Clouds 13 1006 62 10000 6 230 20:20 12.03.2020
1458 Clouds 13 1006 62 10000 6 220 19:56 12.03.2020
1459 Clouds 13 1007 62 10000 5 220 19:37 12.03.2020
1460 Clouds 12 1007 58 10000 5 220 19:18 12.03.2020
1461 Clouds 12 1008 71 10000 6 200 18:42 12.03.2020
1462 Clouds 13 1008 66 10000 6 210 18:22 12.03.2020
1463 Clouds 13 1008 62 10000 5 220 17:56 12.03.2020
1464 Clouds 13 1008 62 10000 5 220 17:37 12.03.2020
1465 Clouds 13 1008 58 10000 5 220 17:18 12.03.2020
1466 Clouds 13 1009 58 10000 5 220 16:41 12.03.2020
1467 Clouds 13 1009 58 10000 5 220 16:23 12.03.2020
1468 Clouds 13 1009 54 10000 6 220 15:49 12.03.2020
1469 Clouds 13 1009 54 10000 6 240 15:28 12.03.2020
1470 Clouds 13 1010 54 10000 7 230 14:58 12.03.2020
1471 Clouds 13 1010 50 10000 7 250 14:38 12.03.2020
1472 Clouds 13 1010 50 10000 7 250 14:18 12.03.2020
1473 Clouds 13 1011 47 10000 7 260 13:40 12.03.2020
1474 Clouds 13 1012 43 10000 8 250 13:21 12.03.2020
1475 Clouds 13 1012 43 10000 8 250 12:55 12.03.2020
1476 Clouds 13 1011 43 10000 8 260 12:37 12.03.2020
1477 Clouds 13 1012 44 10000 8 250 12:18 12.03.2020
1478 Clouds 13 1012 44 10000 8 250 12:18 12.03.2020
1479 Clouds 12 1012 44 10000 8 250 11:55 12.03.2020
1480 Clouds 12 1012 43 10000 8 260 11:36 12.03.2020
1481 Clouds 11 1013 43 10000 7 260 11:18 12.03.2020
1482 Clouds 10 1013 50 10000 6 270 10:43 12.03.2020
1483 Clouds 10 1013 50 10000 6 270 10:23 12.03.2020
1484 Clouds 10 1013 50 10000 7 270 09:55 12.03.2020
1485 Clouds 9 1013 50 10000 8 260 09:37 12.03.2020
1486 Clouds 10 1013 50 10000 8 260 09:19 12.03.2020
1487 Clouds 8 1013 65 10000 8 270 08:38 12.03.2020
1488 Clear 7 1013 65 10000 8 270 08:18 12.03.2020
1489 Clear 6 1013 70 10000 7 270 07:47 12.03.2020
1490 Clear 6 1013 75 10000 6 270 07:21 12.03.2020
1491 Clear 4 1012 80 10000 5 270 06:20 12.03.2020
1492 Clear 4 1012 75 10000 4 260 05:34 12.03.2020
1493 Clear 5 1010 80 10000 5 260 03:34 12.03.2020
1494 Rain 5 1010 75 10000 5 280 01:57 12.03.2020
1495 Rain 6 1009 75 10000 6 270 01:21 12.03.2020
1496 Rain 6 1008 70 10000 8 290 00:42 12.03.2020
1497 Rain 7 1008 70 10000 8 290 23:57 11.03.2020
1498 Rain 7 1007 65 10000 8 300 23:28 11.03.2020
1499 Clouds 8 1007 81 10000 10 290 22:59 11.03.2020
1500 Clouds 8 1006 81 10000 8 270 22:39 11.03.2020
1501 Clouds 8 1006 81 10000 8 270 22:21 11.03.2020
1502 Clouds 8 1006 87 10000 6 260 21:57 11.03.2020
1503 Clouds 8 1006 87 10000 7 260 21:37 11.03.2020
1504 Clouds 8 1006 87 10000 7 260 21:37 11.03.2020
1505 Clouds 7 1006 93 10000 5 250 21:19 11.03.2020
1506 Clouds 7 1006 93 10000 5 250 20:56 11.03.2020
1507 Rain 7 1005 93 10000 4 250 20:36 11.03.2020
1508 Rain 7 1006 93 10000 5 250 20:18 11.03.2020
1509 Clouds 8 1005 87 10000 5 260 19:42 11.03.2020
1510 Clouds 8 1005 87 10000 5 260 19:24 11.03.2020
1511 Clouds 8 1005 87 10000 5 260 18:56 11.03.2020
1512 Clouds 8 1005 93 10000 6 250 18:37 11.03.2020
1513 Clouds 8 1005 93 10000 6 250 18:18 11.03.2020
1514 Drizzle 8 1004 93 10000 6 260 17:40 11.03.2020
1515 Drizzle 7 1004 100 9000 7 250 17:21 11.03.2020
1516 Drizzle 7 1004 100 9000 7 250 16:56 11.03.2020
1517 Drizzle 7 1004 93 7000 6 250 16:38 11.03.2020
1518 Drizzle 7 1004 93 7000 6 250 16:19 11.03.2020
1519 Clouds 8 1003 100 10000 6 230 15:42 11.03.2020
1520 Clouds 8 1003 100 10000 6 230 15:23 11.03.2020
1521 Rain 8 1004 87 10000 6 250 14:44 11.03.2020
1522 Rain 8 1004 81 10000 8 250 14:24 11.03.2020
1523 Rain 9 1004 70 10000 10 260 13:59 11.03.2020
1524 Rain 9 1004 70 10000 9 260 13:40 11.03.2020
1525 Rain 10 1004 70 10000 9 260 13:21 11.03.2020
1526 Clouds 11 1004 53 10000 7 250 12:41 11.03.2020
1527 Clouds 12 1004 53 10000 7 250 12:21 11.03.2020
1528 Clouds 12 1004 46 10000 8 260 11:57 11.03.2020
1529 Clouds 12 1004 54 10000 5 240 11:39 11.03.2020
1530 Clouds 11 1005 61 10000 4 230 11:19 11.03.2020
1531 Clouds 10 1005 61 10000 4 230 10:46 11.03.2020
1532 Clouds 9 1005 61 10000 4 250 10:19 11.03.2020
1533 Clouds 9 1005 61 10000 4 250 09:54 11.03.2020
1534 Clouds 8 1006 70 10000 4 250 09:36 11.03.2020
1535 Clouds 8 1006 75 10000 4 260 09:18 11.03.2020
1536 Clouds 6 1006 86 10000 3 250 08:41 11.03.2020
1537 Clouds 6 1006 86 10000 3 250 08:22 11.03.2020
1538 Clouds 4 1006 93 10000 3 250 07:45 11.03.2020
1539 Clouds 4 1007 93 10000 2 250 07:20 11.03.2020
1540 Clouds 3 1007 100 6000 2 240 06:48 11.03.2020
1541 Clouds 1 1007 100 9000 2 260 05:42 11.03.2020
1542 Clouds 2 1007 100 9000 2 260 04:52 11.03.2020
1543 Clouds 4 1007 86 10000 3 310 02:30 11.03.2020
1544 Clouds 4 1007 86 10000 2 320 01:43 11.03.2020
1545 Clouds 4 1008 86 10000 3 320 00:49 11.03.2020
1546 Clouds 4 1008 87 10000 4 330 00:21 11.03.2020
1547 Clouds 5 1009 86 10000 1 0 23:43 10.03.2020
1548 Clouds 5 1009 86 10000 1 0 23:22 10.03.2020
1549 Clouds 5 1009 86 10000 3 330 22:41 10.03.2020
1550 Clouds 5 1009 86 10000 3 330 22:20 10.03.2020
1551 Clouds 5 1009 86 10000 2 360 21:57 10.03.2020
1552 Clouds 5 1009 86 10000 3 360 21:39 10.03.2020
1553 Clouds 5 1009 86 10000 3 360 21:20 10.03.2020
1554 Clouds 6 1010 93 10000 3 360 20:59 10.03.2020
1555 Clouds 6 1010 87 10000 3 10 20:41 10.03.2020
1556 Clouds 6 1010 87 10000 3 10 20:19 10.03.2020
1557 Clouds 7 1010 81 10000 3 360 19:57 10.03.2020
1558 Clouds 7 1010 81 10000 3 10 19:39 10.03.2020
1559 Clouds 7 1010 81 10000 3 10 19:21 10.03.2020
1560 Clouds 8 1010 81 10000 4 30 18:45 10.03.2020
1561 Clouds 8 1010 81 10000 4 30 18:45 10.03.2020
1562 Clouds 8 1010 81 10000 4 30 18:27 10.03.2020
1563 Clouds 8 1010 81 10000 3 20 17:58 10.03.2020
1564 Clouds 8 1010 81 10000 4 10 17:40 10.03.2020
1565 Clouds 8 1010 81 10000 4 10 17:21 10.03.2020
1566 Clouds 8 1010 81 10000 4 10 17:21 10.03.2020
1567 Clouds 8 1010 81 10000 4 360 16:40 10.03.2020
1568 Clouds 8 1010 81 10000 4 360 16:20 10.03.2020
1569 Clouds 8 1010 87 10000 5 10 15:57 10.03.2020
1570 Clouds 8 1010 87 10000 4 10 15:39 10.03.2020
1571 Clouds 8 1010 87 10000 4 10 15:19 10.03.2020
1572 Clouds 9 1010 87 10000 5 10 14:41 10.03.2020
1573 Clouds 9 1010 87 10000 5 20 14:20 10.03.2020
1574 Clouds 8 1011 87 10000 4 10 13:59 10.03.2020
1575 Clouds 8 1011 87 10000 4 10 13:41 10.03.2020
1576 Clouds 9 1011 81 10000 4 20 13:22 10.03.2020
1577 Clouds 9 1011 87 10000 5 350 12:42 10.03.2020
1578 Clouds 9 1011 87 10000 5 360 12:21 10.03.2020
1579 Clouds 9 1011 87 10000 5 360 11:58 10.03.2020
1580 Clouds 9 1011 87 10000 4 360 11:40 10.03.2020
1581 Clouds 9 1011 87 10000 4 360 11:22 10.03.2020
1582 Clouds 9 1012 87 10000 4 10 10:43 10.03.2020
1583 Clouds 9 1012 93 10000 3 350 10:23 10.03.2020
1584 Clouds 8 1012 93 10000 4 10 09:58 10.03.2020
1585 Clouds 8 1012 93 9000 3 350 09:40 10.03.2020
1586 Mist 8 1012 93 5000 3 360 09:19 10.03.2020
1587 Clouds 8 1012 93 9000 3 350 09:19 10.03.2020
1588 Mist 8 1012 93 5000 3 360 08:51 10.03.2020
1589 Mist 8 1012 100 4500 3 10 08:32 10.03.2020
1590 Mist 7 1012 100 5000 3 360 07:50 10.03.2020
1591 Clouds 7 1012 100 8000 3 20 07:31 10.03.2020
1592 Mist 7 1012 100 5000 5 330 06:47 10.03.2020
1593 Mist 7 1012 100 3500 2 340 06:28 10.03.2020
1594 Mist 7 1012 100 2100 2 360 05:41 10.03.2020
1595 Mist 7 1012 100 1300 2 360 04:48 10.03.2020
1596 Mist 7 1012 100 1300 2 360 04:48 10.03.2020
1597 Mist 7 1012 100 1300 2 330 03:55 10.03.2020
1598 Mist 7 1012 100 3800 2 330 02:27 10.03.2020
1599 Mist 7 1012 100 3100 3 320 01:25 10.03.2020
1600 Mist 7 1013 100 2400 2 350 00:42 10.03.2020
1601 Mist 8 1013 100 2400 2 350 00:23 10.03.2020
1602 Mist 8 1013 100 3100 2 350 23:41 09.03.2020
1603 Mist 8 1013 100 3200 2 330 23:21 09.03.2020
1604 Mist 8 1013 100 3500 2 310 22:43 09.03.2020
1605 Mist 8 1013 100 3500 2 310 22:22 09.03.2020
1606 Mist 8 1013 100 2800 1 280 21:59 09.03.2020
1607 Mist 8 1013 100 2900 1.45 326 21:40 09.03.2020
1608 Mist 8 1013 100 2900 1.45 326 21:20 09.03.2020
1609 Mist 8 1013 100 3600 1 60 20:56 09.03.2020
1610 Fog 8 1014 100 1800 2 340 20:37 09.03.2020
1611 Fog 8 1014 100 1800 2 340 20:19 09.03.2020
1612 Mist 8 1014 100 2000 1 0 19:44 09.03.2020
1613 Mist 8 1014 100 2000 1 0 19:25 09.03.2020
1614 Fog 8 1014 100 700 0.65 116 18:58 09.03.2020
1615 Fog 8 1014 100 650 0.65 116 18:38 09.03.2020
1616 Fog 8 1014 100 500 1 60 18:19 09.03.2020
1617 Fog 8 1014 100 500 1 60 17:57 09.03.2020
1618 Fog 8 1014 100 600 0.65 116 17:38 09.03.2020
1619 Fog 8 1014 100 700 1 0 17:20 09.03.2020
1620 Fog 8 1014 100 700 1 0 16:58 09.03.2020
1621 Mist 8 1014 100 1300 2 100 16:39 09.03.2020
1622 Mist 8 1014 100 1300 2 100 16:20 09.03.2020
1623 Mist 8 1014 100 1300 2 100 15:57 09.03.2020
1624 Mist 8 1014 100 4200 3 110 15:38 09.03.2020
1625 Mist 8 1014 100 4200 3 110 15:19 09.03.2020
1626 Mist 8 1014 100 4000 3 90 14:54 09.03.2020
1627 Mist 8 1014 100 4300 3 100 14:36 09.03.2020
1628 Mist 8 1014 100 4300 3 100 14:36 09.03.2020
1629 Mist 8 1014 100 4300 3 100 14:18 09.03.2020
1630 Rain 8 1015 93 5000 3 100 13:40 09.03.2020
1631 Rain 8 1015 93 5000 3 100 13:22 09.03.2020
1632 Rain 8 1015 93 5000 3 100 13:22 09.03.2020
1633 Mist 8 1015 93 4700 4 80 12:59 09.03.2020
1634 Clouds 8 1015 93 7000 3 90 12:40 09.03.2020
1635 Rain 8 1015 93 6000 3 90 12:20 09.03.2020
1636 Rain 8 1016 100 7000 3 110 11:41 09.03.2020
1637 Rain 8 1016 100 7000 3 110 11:21 09.03.2020
1638 Mist 8 1016 100 5000 2 100 10:58 09.03.2020
1639 Mist 8 1016 100 5000 2 100 10:58 09.03.2020
1640 Clouds 7 1016 100 6000 3 100 10:40 09.03.2020
1641 Clouds 7 1016 100 6000 3 100 10:40 09.03.2020
1642 Clouds 7 1016 100 6000 3 100 10:19 09.03.2020
1643 Clouds 7 1016 100 6000 3 100 10:19 09.03.2020
1644 Clouds 7 1017 100 8000 2 130 09:43 09.03.2020
1645 Clouds 8 1017 100 8000 2 130 09:24 09.03.2020
1646 Clouds 7 1016 100 7000 4 110 08:55 09.03.2020
1647 Mist 7 1016 100 1600 2 90 08:37 09.03.2020
1648 Mist 7 1016 100 1600 2 90 08:18 09.03.2020
1649 Mist 7 1016 100 1600 2 90 08:18 09.03.2020
1650 Rain 7 1017 100 3200 3 120 07:39 09.03.2020
1651 Rain 7 1017 100 3200 3 120 07:20 09.03.2020
1652 Rain 7 1017 100 350 2 100 06:41 09.03.2020
1653 Rain 7 1017 100 350 2 100 06:23 09.03.2020
1654 Mist 7 1016 100 1400 3 90 05:45 09.03.2020
1655 Rain 7 1017 100 2800 3 70 04:59 09.03.2020
1656 Drizzle 7 1017 100 3600 2 40 04:40 09.03.2020
1657 Drizzle 7 1017 100 3600 2 40 04:21 09.03.2020
1658 Mist 7 1017 100 4500 1 0 02:56 09.03.2020
1659 Mist 7 1018 93 5000 2 30 00:46 09.03.2020
1660 Clouds 7 1018 93 6000 2 20 00:27 09.03.2020
1661 Clouds 7 1018 93 6000 2 360 23:59 08.03.2020
1662 Clouds 7 1018 93 6000 2 360 23:39 08.03.2020
1663 Clouds 7 1018 93 6000 2 360 23:20 08.03.2020
1664 Clouds 7 1017 100 6000 2 30 22:42 08.03.2020
1665 Clouds 7 1017 100 6000 2 30 22:22 08.03.2020
1666 Clouds 7 1018 100 6000 2 20 21:59 08.03.2020
1667 Mist 8 1018 100 4300 1 0 21:41 08.03.2020
1668 Mist 8 1018 100 4300 1 0 21:20 08.03.2020
1669 Mist 8 1018 100 4800 1 360 20:58 08.03.2020
1670 Mist 8 1018 100 5000 2 360 20:38 08.03.2020
1671 Mist 8 1018 100 3000 1 0 20:19 08.03.2020
1672 Mist 7 1018 100 5000 2 360 20:19 08.03.2020
1673 Mist 8 1018 100 6000 1 180 19:40 08.03.2020
1674 Mist 8 1018 100 3000 0.93 7 19:19 08.03.2020
1675 Mist 8 1018 100 3000 1 180 18:56 08.03.2020
1676 Mist 9 1018 100 3400 0.93 7 18:38 08.03.2020
1677 Clouds 9 990 67 0 0.93 7 18:19 08.03.2020
1678 Mist 9 1017 100 3600 0.93 7 17:40 08.03.2020
1679 Mist 9 1017 100 3600 0.85 90 17:22 08.03.2020
1680 Mist 9 1017 100 3600 0.85 90 16:58 08.03.2020
1681 Mist 9 1017 93 5000 0.85 90 16:40 08.03.2020
1682 Mist 9 1017 93 5000 0.85 90 16:22 08.03.2020
1683 Clouds 10 1017 87 10000 1 270 15:41 08.03.2020
1684 Mist 10 1017 93 5000 0.85 90 15:22 08.03.2020
1685 Drizzle 10 1017 87 10000 1 0 14:59 08.03.2020
1686 Drizzle 10 1017 87 10000 1 0 14:37 08.03.2020
1687 Mist 10 1017 93 4000 1 0 14:19 08.03.2020
1688 Rain 10 1017 93 3500 2 120 13:41 08.03.2020
1689 Rain 10 1017 93 7000 1.33 162 13:20 08.03.2020
1690 Rain 10 1017 93 3700 2 130 12:49 08.03.2020
1691 Rain 9 1017 93 4100 1 0 12:30 08.03.2020
1692 Rain 9 1017 93 6000 1 0 11:59 08.03.2020
1693 Clouds 9 1017 93 7000 1 0 11:41 08.03.2020
1694 Clouds 9 1017 93 7000 1 0 11:21 08.03.2020
1695 Clouds 9 1017 93 7000 1 0 10:42 08.03.2020
1696 Clouds 9 1017 93 7000 1 0 10:24 08.03.2020
1697 Clouds 9 1017 87 6000 2 330 09:59 08.03.2020
1698 Clouds 9 1017 87 6000 2 330 09:37 08.03.2020
1699 Clouds 9 1016 93 6000 2 310 09:19 08.03.2020
1700 Mist 8 1016 100 4700 2 280 08:42 08.03.2020
1701 Mist 8 1016 100 4700 2 280 08:20 08.03.2020
1702 Mist 8 1016 100 3300 1 250 07:45 08.03.2020
1703 Mist 8 1016 100 2200 1 240 07:26 08.03.2020
1704 Mist 7 1015 100 1400 3 280 06:43 08.03.2020
1705 Mist 7 1015 100 1800 3 270 06:24 08.03.2020
1706 Fog 7 1014 100 250 1 280 05:43 08.03.2020
1707 Fog 7 1014 100 900 2.12 316 03:52 08.03.2020
1708 Mist 7 1013 100 1600 3 280 02:38 08.03.2020
1709 Mist 8 1013 93 3900 3 230 01:35 08.03.2020
1710 Mist 8 1013 93 3900 3 230 00:58 08.03.2020
1711 Mist 7 1012 100 3300 1 0 00:28 08.03.2020
1712 Mist 7 1012 100 3300 1 0 23:48 07.03.2020
1713 Rain 8 1011 100 3200 1 200 23:26 07.03.2020
1714 Rain 8 1011 93 3800 1 270 22:56 07.03.2020
1715 Rain 8 1011 100 4200 1 220 22:37 07.03.2020
1716 Mist 8 1011 100 4200 1 220 22:19 07.03.2020
1717 Rain 9 1011 93 5000 1 0 21:43 07.03.2020
1718 Rain 9 1011 93 5000 1 0 21:19 07.03.2020
1719 Rain 9 1010 87 8000 2 150 20:40 07.03.2020
1720 Rain 9 1010 87 8000 2 150 20:20 07.03.2020
1721 Rain 10 1010 87 7000 1 0 19:41 07.03.2020
1722 Rain 10 1010 87 7000 1 0 19:22 07.03.2020
1723 Rain 10 1010 76 9000 1 0 18:58 07.03.2020
1724 Clouds 11 1010 66 10000 1 0 18:39 07.03.2020
1725 Clouds 11 1010 66 10000 1 0 18:20 07.03.2020
1726 Clouds 11 1009 66 10000 1 0 17:41 07.03.2020
1727 Clouds 12 1009 62 10000 2 160 17:19 07.03.2020
1728 Clouds 12 1009 62 10000 2 160 16:56 07.03.2020
1729 Clouds 12 1009 62 10000 1 0 16:38 07.03.2020
1730 Clouds 13 1009 62 10000 1 0 16:19 07.03.2020
1731 Clouds 13 1008 62 10000 4 200 15:42 07.03.2020
1732 Clouds 13 1008 62 10000 4 200 15:22 07.03.2020
1733 Clouds 13 1008 62 10000 3 200 14:59 07.03.2020
1734 Clouds 13 1008 62 10000 3 170 14:41 07.03.2020
1735 Clouds 13 1008 62 10000 3 170 14:23 07.03.2020
1736 Clouds 14 1008 58 10000 4 190 13:42 07.03.2020
1737 Clouds 14 1008 58 10000 4 190 13:21 07.03.2020
1738 Clouds 13 1008 62 10000 3 210 12:58 07.03.2020
1739 Clouds 13 1008 66 10000 3 180 12:38 07.03.2020
1740 Clouds 12 1008 76 10000 2 180 12:18 07.03.2020
1741 Clouds 11 1008 81 10000 3 200 11:42 07.03.2020
1742 Clouds 11 1008 81 10000 3 200 11:24 07.03.2020
1743 Clouds 10 1008 87 9000 4 240 10:57 07.03.2020
1744 Clouds 10 1008 93 6000 4 220 10:38 07.03.2020
1745 Mist 10 1008 93 5000 3 240 10:18 07.03.2020
1746 Mist 10 1007 93 5000 3 240 09:40 07.03.2020
1747 Mist 9 1007 93 5000 3 240 09:20 07.03.2020
1748 Clouds 9 1007 93 6000 3 220 08:57 07.03.2020
1749 Clouds 9 1007 93 7000 3 210 08:39 07.03.2020
1750 Rain 8 1007 100 6000 2 180 08:20 07.03.2020
1751 Rain 8 1007 100 6000 2 180 07:46 07.03.2020
1752 Rain 7 1006 99 0 2.01 176 07:21 07.03.2020
1753 Rain 7 1006 29 0 2.01 176 06:42 07.03.2020
1754 Rain 7 1006 99 0 2.01 176 06:23 07.03.2020
1755 Mist 6 1006 100 2700 2 80 05:40 07.03.2020
1756 Clouds 9 1006 86 0 1.42 154 03:36 07.03.2020
1757 Rain 6 1006 100 3400 2 40 02:43 07.03.2020
1758 Rain 6 1006 100 3400 2 40 01:51 07.03.2020
1759 Mist 6 1007 100 4200 2.01 150 00:58 07.03.2020
1760 Mist 6 1006 100 3500 2 40 00:23 07.03.2020
1761 Mist 6 1006 100 3500 2 40 00:23 07.03.2020
1762 Mist 5 1006 100 5000 2 20 23:58 06.03.2020
1763 Clouds 5 1006 100 6000 1 0 23:39 06.03.2020
1764 Clouds 5 1006 100 6000 1 0 23:21 06.03.2020
1765 Rain 5 1006 100 9000 2 70 22:44 06.03.2020
1766 Rain 5 1006 100 9000 2 70 22:44 06.03.2020
1767 Rain 6 1007 93 10000 2 50 22:20 06.03.2020
1768 Rain 6 1007 93 10000 2 50 21:47 06.03.2020
1769 Rain 6 1007 93 10000 3 30 21:20 06.03.2020
1770 Rain 7 1007 93 10000 2 20 20:44 06.03.2020
1771 Clouds 7 1007 93 10000 2 20 20:22 06.03.2020
1772 Clouds 7 1007 93 10000 2 20 19:57 06.03.2020
1773 Clouds 7 1007 87 10000 3 10 19:39 06.03.2020
1774 Clouds 8 1007 87 10000 2 20 19:19 06.03.2020
1775 Clouds 8 1007 87 10000 2 20 18:42 06.03.2020
1776 Mist 9 1007 93 5000 1 80 18:20 06.03.2020
1777 Clouds 9 1007 81 9000 2 30 17:56 06.03.2020
1778 -273 0 0 0 0 0 17:38 06.03.2020
1779 Clouds 10 1006 76 10000 2 70 17:20 06.03.2020
1780 Clouds 10 1006 76 10000 2 70 16:43 06.03.2020
1781 Clouds 11 1006 76 10000 0.66 187 16:22 06.03.2020
1782 Clouds 11 1006 76 10000 0.66 187 15:59 06.03.2020
1783 Clouds 11 1006 76 10000 1 0 15:40 06.03.2020
1784 Clouds 11 1006 76 10000 1 0 15:21 06.03.2020
1785 Clouds 11 1006 76 10000 2 310 14:40 06.03.2020
1786 Clouds 11 1006 76 10000 2 310 14:21 06.03.2020
1787 Clouds 10 1006 81 10000 2 260 13:44 06.03.2020
1788 Clouds 10 1006 81 10000 2 260 13:23 06.03.2020
1789 Clouds 10 1006 81 10000 1 0 12:59 06.03.2020
1790 Clouds 10 1006 81 10000 1 0 12:39 06.03.2020
1791 Clouds 10 1006 81 10000 1 0 12:20 06.03.2020
1792 Clouds 9 1006 81 10000 2 250 11:59 06.03.2020
1793 Clouds 9 1006 87 9000 2.18 196 11:40 06.03.2020
1794 Clouds 9 1006 87 9000 0.83 196 11:20 06.03.2020
1795 Clouds 8 1006 87 7000 0.83 196 10:40 06.03.2020
1796 Clouds 8 1006 87 7000 0.83 196 10:21 06.03.2020
1797 Clouds 8 1006 93 7000 0.83 196 09:56 06.03.2020
1798 Clouds 7 1006 100 10000 0.83 196 09:37 06.03.2020
1799 Clouds 7 1006 100 10000 0.83 196 09:19 06.03.2020
1800 Clouds 7 1006 100 10000 1 0 08:46 06.03.2020
1801 Clouds 6 1006 100 6000 2 310 08:27 06.03.2020
1802 Clouds 6 1006 100 9000 1 0 07:58 06.03.2020
1803 Clouds 6 1006 100 7000 2 350 07:39 06.03.2020
1804 Clouds 6 1006 100 7000 3 310 06:59 06.03.2020
1805 Mist 5 1005 100 5000 3 320 06:41 06.03.2020
1806 Mist 6 1005 100 4600 3 320 05:47 06.03.2020
1807 Mist 6 1005 100 5000 3 320 05:28 06.03.2020
1808 Clouds 6 1005 100 6000 3 310 04:58 06.03.2020
1809 Mist 6 1005 100 1500 3 280 02:55 06.03.2020
1810 Clouds 7 1005 100 9000 4 300 01:40 06.03.2020
1811 Clouds 7 1005 100 9000 4 300 01:22 06.03.2020
1812 Rain 7 1006 100 8000 2 360 00:33 06.03.2020
1813 Clouds 7 1006 93 10000 3 30 23:57 05.03.2020
1814 Clouds 7 1006 93 9000 2 70 23:39 05.03.2020
1815 Clouds 7 1006 93 9000 2 70 23:19 05.03.2020
1816 Clouds 8 1006 93 7000 2 330 22:40 05.03.2020
1817 Clouds 7 1006 93 7000 2 330 22:22 05.03.2020
1818 Clouds 8 1006 93 6000 2 340 21:57 05.03.2020
1819 Clouds 8 1007 93 6000 2 350 21:38 05.03.2020
1820 Clouds 8 1007 93 6000 2 350 21:20 05.03.2020
1821 Clouds 9 1007 93 6000 2 10 20:58 05.03.2020
1822 Clouds 9 1007 93 6000 2 10 20:58 05.03.2020
1823 Clouds 9 1007 93 6000 2 330 20:39 05.03.2020
1824 Clouds 9 1007 93 6000 2 330 20:20 05.03.2020
1825 Clouds 9 1008 93 6000 1.67 200 19:58 05.03.2020
1826 Clouds 9 1008 87 7000 1 0 19:39 05.03.2020
1827 Clouds 9 1008 87 7000 1 0 19:18 05.03.2020
1828 Clouds 10 1008 87 8000 1 0 18:54 05.03.2020
1829 Clouds 10 1008 87 10000 1 50 18:36 05.03.2020
1830 Clouds 10 1008 81 10000 2 20 18:18 05.03.2020
1831 Clouds 11 1008 81 10000 2 320 17:41 05.03.2020
1832 Clouds 11 1008 81 10000 2 320 17:22 05.03.2020
1833 Clouds 11 1008 81 9000 2 280 16:55 05.03.2020
1834 Clouds 12 1008 81 9000 4 280 16:37 05.03.2020
1835 Clouds 12 1008 81 9000 4 280 16:19 05.03.2020
1836 Clouds 12 1008 76 10000 3 280 15:44 05.03.2020
1837 Clouds 13 1008 71 10000 3 280 15:22 05.03.2020
1838 Clouds 13 1008 71 10000 3 300 14:58 05.03.2020
1839 Clouds 14 1008 71 10000 4 280 14:39 05.03.2020
1840 Clouds 14 1008 67 10000 2 200 14:21 05.03.2020
1841 Clouds 14 1008 67 10000 2 200 13:55 05.03.2020
1842 Clouds 14 1008 67 10000 2 180 13:36 05.03.2020
1843 Clouds 14 1008 67 10000 2 180 13:36 05.03.2020
1844 Clouds 14 1008 67 10000 2 180 13:18 05.03.2020
1845 Clouds 14 1008 67 10000 3 210 12:40 05.03.2020
1846 Clouds 14 1008 67 10000 3 210 12:40 05.03.2020
1847 Clouds 14 1008 67 10000 3 210 12:20 05.03.2020
1848 Clouds 13 1008 76 10000 3 210 11:57 05.03.2020
1849 Clouds 12 1008 71 10000 3 200 11:37 05.03.2020
1850 Clouds 12 1008 71 10000 3 200 11:19 05.03.2020
1851 Clouds 12 1008 71 10000 3 200 10:57 05.03.2020
1852 Clouds 13 1008 71 10000 3 210 10:39 05.03.2020
1853 Clouds 12 1008 71 10000 3 210 10:20 05.03.2020
1854 Clouds 11 1008 76 10000 3 210 09:45 05.03.2020
1855 Clouds 11 1008 76 10000 3 210 09:27 05.03.2020
1856 Clouds 10 1008 76 10000 3 200 08:48 05.03.2020
1857 Clouds 10 1008 76 10000 3 210 08:30 05.03.2020
1858 Clouds 9 1007 76 10000 3 200 07:49 05.03.2020
1859 Clouds 9 1007 81 10000 3 190 07:23 05.03.2020
1860 Clouds 8 1007 87 10000 2 200 06:50 05.03.2020
1861 Clouds 7 1007 87 10000 2 200 06:24 05.03.2020
1862 Clouds 8 1007 81 10000 3 210 05:57 05.03.2020
1863 Clouds 8 1007 81 10000 4 200 05:32 05.03.2020
1864 Clouds 8 1007 81 10000 4 200 04:23 05.03.2020
1865 Clouds 8 1006 81 10000 3 190 03:58 05.03.2020
1866 Clouds 9 1006 76 10000 3 170 02:21 05.03.2020
1867 Clouds 9 1006 76 10000 4 170 01:24 05.03.2020
1868 Clouds 10 1007 71 10000 3 170 00:29 05.03.2020
1869 Clouds 11 1006 66 10000 4 160 23:43 04.03.2020
1870 Clouds 11 1006 66 10000 4 160 23:24 04.03.2020
1871 Clouds 11 1006 66 10000 4 170 22:59 04.03.2020
1872 Clouds 11 1006 62 10000 4 170 22:40 04.03.2020
1873 Clouds 11 1006 62 10000 4 170 22:19 04.03.2020
1874 Clouds 12 1006 62 10000 4 160 21:59 04.03.2020
1875 Clouds 12 1006 62 10000 4 160 21:41 04.03.2020
1876 Clouds 12 1006 62 10000 4 160 21:20 04.03.2020
1877 Clouds 12 1006 66 10000 4 150 20:56 04.03.2020
1878 Clouds 11 1006 71 10000 4 140 20:37 04.03.2020
1879 Clouds 11 1006 71 10000 4 140 20:19 04.03.2020
1880 Clouds 11 1006 81 9000 4 120 19:42 04.03.2020
1881 Clouds 11 1006 81 9000 4 120 19:23 04.03.2020
1882 Clouds 11 1006 81 9000 5 120 18:56 04.03.2020
1883 Clouds 10 1007 87 7000 4 100 18:36 04.03.2020
1884 Clouds 10 1007 87 7000 4 100 18:18 04.03.2020
1885 Clouds 10 1007 87 7000 4 100 17:55 04.03.2020
1886 Clouds 10 1006 87 7000 5 100 17:37 04.03.2020
1887 Clouds 10 1006 87 7000 5 100 17:18 04.03.2020
1888 Clouds 10 1006 87 7000 5 100 16:42 04.03.2020
1889 Clouds 11 1007 87 9000 4 90 16:24 04.03.2020
1890 Clouds 11 1007 81 10000 3 100 15:57 04.03.2020
1891 Clouds 11 1007 81 10000 4 110 15:39 04.03.2020
1892 Clouds 11 1007 81 10000 4 110 15:21 04.03.2020
1893 Clouds 12 1007 76 10000 4 100 14:54 04.03.2020
1894 Clouds 11 1007 76 10000 4 110 14:36 04.03.2020
1895 Clouds 11 1008 87 10000 4 120 14:18 04.03.2020
1896 Clouds 11 1008 87 10000 4 120 13:54 04.03.2020
1897 Clouds 10 1008 87 7000 4 110 13:36 04.03.2020
1898 Clouds 10 1008 87 7000 4 110 13:18 04.03.2020
1899 Clouds 9 1008 100 6000 4 120 12:41 04.03.2020
1900 Clouds 9 1008 100 6000 4 120 12:23 04.03.2020
1901 Clouds 9 1008 100 6000 4 120 12:23 04.03.2020
1902 Mist 8 1008 100 3900 3 120 11:55 04.03.2020
1903 Mist 8 1008 100 3900 3 120 11:55 04.03.2020
1904 Mist 8 1009 100 2000 3 140 11:37 04.03.2020
1905 Mist 8 1009 100 2000 3 140 11:19 04.03.2020
1906 Fog 7 1009 100 650 3 130 10:44 04.03.2020
1907 Fog 7 1009 100 650 3 130 10:25 04.03.2020
1908 Fog 7 1009 100 550 4 120 09:56 04.03.2020
1909 Fog 7 1009 100 250 3 140 09:38 04.03.2020
1910 Fog 7 1009 100 250 3 140 09:19 04.03.2020
1911 Fog 7 1009 100 200 3 110 08:41 04.03.2020
1912 Fog 7 1009 100 250 3 140 08:23 04.03.2020
1913 Fog 7 1009 100 250 3 130 07:48 04.03.2020
1914 Fog 7 1009 100 250 3 130 07:29 04.03.2020
1915 Fog 6 1009 100 350 2 150 06:53 04.03.2020
1916 Fog 6 1009 100 400 2 150 06:26 04.03.2020
1917 Fog 6 1009 100 400 2 150 06:26 04.03.2020
1918 Fog 6 1008 100 400 2 140 05:58 04.03.2020
1919 Fog 6 1008 100 400 2 130 05:21 04.03.2020
1920 Fog 6 1008 100 400 2 130 05:21 04.03.2020
1921 Mist 6 1008 100 1300 2 130 03:52 04.03.2020
1922 Clouds 6 1008 100 7000 4 130 03:33 04.03.2020
1923 Clouds 6 1008 87 9000 3 130 02:58 04.03.2020
1924 Clouds 6 1008 87 10000 3 120 02:27 04.03.2020
1925 Clouds 7 1009 87 10000 3 120 01:56 04.03.2020
1926 Clouds 7 1009 87 10000 2 120 01:31 04.03.2020
1927 Clouds 7 1008 81 10000 3 110 00:41 04.03.2020
1928 Clouds 7 1009 75 10000 3 130 00:21 04.03.2020
1929 Clouds 8 1009 75 10000 4 130 23:42 03.03.2020
1930 Clouds 8 1009 75 10000 4 130 23:23 03.03.2020
1931 Clouds 8 1008 75 10000 4 120 22:55 03.03.2020
1932 Clouds 9 1008 70 10000 4 120 22:37 03.03.2020
1933 Clouds 9 1008 70 10000 4 120 22:18 03.03.2020
1934 Clouds 9 1008 70 10000 5 120 21:42 03.03.2020
1935 Clouds 9 1008 70 10000 5 120 21:22 03.03.2020
1936 Clouds 9 1008 66 10000 5 120 20:58 03.03.2020
1937 Clouds 9 1008 66 10000 5 110 20:39 03.03.2020
1938 Clouds 9 1008 66 10000 4 110 20:18 03.03.2020
1939 Clouds 9 1008 66 10000 4 110 19:56 03.03.2020
1940 Clouds 10 1008 61 10000 4 110 19:37 03.03.2020
1941 Clouds 10 1008 61 10000 4 110 19:37 03.03.2020
1942 Clouds 10 1008 61 10000 4 110 19:18 03.03.2020
1943 Clouds 10 1008 57 10000 3 110 18:56 03.03.2020
1944 Clouds 11 1008 57 10000 3 120 18:38 03.03.2020
1945 Clouds 11 1008 57 10000 3 120 18:19 03.03.2020
1946 Clouds 11 1008 54 10000 4 130 17:54 03.03.2020
1947 Clouds 11 1008 54 10000 4 130 17:36 03.03.2020
1948 Clouds 11 1008 54 10000 4 130 17:18 03.03.2020
1949 Clouds 12 1008 50 10000 2 130 16:39 03.03.2020
1950 Clouds 13 1008 50 10000 2 130 16:21 03.03.2020
1951 Clouds 13 1008 50 10000 2 170 15:59 03.03.2020
1952 Clouds 13 1008 50 10000 2 170 15:59 03.03.2020
1953 Clouds 14 1008 50 10000 3 180 15:41 03.03.2020
1954 Clouds 14 1008 50 10000 3 180 15:20 03.03.2020
1955 Clouds 14 1008 50 10000 3 170 14:43 03.03.2020
1956 Clouds 14 1008 50 10000 3 170 14:21 03.03.2020
1957 Clouds 14 1008 47 10000 3 190 13:59 03.03.2020
1958 Clouds 14 1009 47 10000 3 210 13:41 03.03.2020
1959 Clouds 14 1009 47 10000 3 210 13:23 03.03.2020
1960 Clouds 14 1008 44 10000 4 220 12:49 03.03.2020
1961 Clouds 14 1008 44 10000 4 220 12:27 03.03.2020
1962 Clouds 14 1008 43 10000 4 240 11:59 03.03.2020
1963 Clouds 13 1009 47 10000 5 240 11:38 03.03.2020
1964 Clouds 13 1009 47 10000 5 240 11:19 03.03.2020
1965 Clouds 12 1009 50 10000 5 240 10:56 03.03.2020
1966 Clouds 11 1009 57 10000 4 240 10:38 03.03.2020
1967 Clouds 11 1009 61 10000 4 240 10:19 03.03.2020
1968 Clouds 10 1009 61 10000 3 230 09:45 03.03.2020
1969 Clouds 10 1009 61 10000 3 230 09:23 03.03.2020
1970 Clouds 9 1009 70 10000 4 240 08:58 03.03.2020
1971 Clouds 8 1008 75 10000 4 230 08:39 03.03.2020
1972 -273 0 0 0 0 0 08:21 03.03.2020
1973 Clouds 5 1008 100 10000 3 240 07:44 03.03.2020
1974 Clouds 5 1008 100 10000 3 240 07:23 03.03.2020
1975 Clouds 3 1008 100 7000 3 230 06:51 03.03.2020
1976 Mist 3 1007 100 4100 2 250 06:25 03.03.2020
1977 Clouds 3 1007 100 6000 2 230 05:48 03.03.2020
1978 Mist 3 1007 100 4500 3 230 05:29 03.03.2020
1979 Clouds 4 1006 100 6000 3 210 04:37 03.03.2020
1980 Clouds 5 1005 93 8000 2 190 01:40 03.03.2020
1981 Clouds 6 1005 93 8000 3 190 00:49 03.03.2020
1982 Clouds 6 1004 93 9000 2 180 00:27 03.03.2020
1983 Clouds 6 1004 93 9000 3 180 23:59 02.03.2020
1984 Clouds 6 1004 93 10000 3 180 23:41 02.03.2020
1985 Clouds 6 1004 93 10000 3 180 23:22 02.03.2020
1986 Clouds 6 1004 93 10000 3 180 22:55 02.03.2020
1987 Clouds 6 1004 93 10000 3 160 22:37 02.03.2020
1988 Clouds 6 1004 93 10000 3 160 22:19 02.03.2020
1989 Clouds 6 1004 93 10000 4 160 21:42 02.03.2020
1990 Clouds 6 1004 93 10000 4 160 21:24 02.03.2020
1991 Rain 5 1004 100 10000 4 160 20:59 02.03.2020
1992 Rain 5 1004 93 10000 5 150 20:41 02.03.2020
1993 Rain 5 1004 93 10000 5 150 20:21 02.03.2020
1994 Rain 5 1004 93 7000 5 130 19:57 02.03.2020
1995 Rain 5 1004 93 9000 5 130 19:39 02.03.2020
1996 Rain 5 1004 93 9000 5 130 19:20 02.03.2020
1997 Rain 5 1005 93 8000 5 140 18:54 02.03.2020
1998 Rain 5 1005 93 8000 5 130 18:36 02.03.2020
1999 Rain 5 1005 93 8000 6 130 18:18 02.03.2020
2000 Rain 5 1005 93 8000 6 130 17:54 02.03.2020
2001 Rain 5 1005 93 8000 5 140 17:36 02.03.2020
2002 Rain 5 1005 93 10000 5 140 17:18 02.03.2020
2003 Rain 5 1005 93 9000 6 140 16:39 02.03.2020
2004 Rain 5 1005 93 10000 6 130 16:20 02.03.2020
2005 Rain 6 1006 93 8000 5 150 15:45 02.03.2020
2006 Rain 6 1006 93 8000 5 150 15:21 02.03.2020
2007 Rain 6 1006 93 9000 5 140 14:57 02.03.2020
2008 Rain 6 1007 87 9000 4 160 14:37 02.03.2020
2009 Rain 6 1007 87 9000 4 160 14:19 02.03.2020
2010 Clouds 7 1006 93 10000 5 150 13:44 02.03.2020
2011 Clouds 7 1006 93 10000 5 150 13:19 02.03.2020
2012 Clouds 7 1008 81 10000 4 160 12:57 02.03.2020
2013 Clouds 7 1008 81 10000 4 160 12:57 02.03.2020
2014 Clouds 6 1008 81 10000 4 160 12:39 02.03.2020
2015 Clouds 6 1008 81 10000 5 160 12:18 02.03.2020
2016 Clouds 6 1009 81 10000 5 170 11:38 02.03.2020
2017 Clouds 6 1009 81 10000 5 170 11:19 02.03.2020
2018 Clouds 5 1009 86 10000 5 170 10:55 02.03.2020
2019 Clouds 5 1009 86 10000 4 170 10:36 02.03.2020
2020 Clouds 5 1009 86 10000 4 170 10:18 02.03.2020
2021 Clouds 5 1009 86 10000 4 170 09:45 02.03.2020
2022 Clouds 5 1009 86 10000 4 170 09:26 02.03.2020
2023 Clouds 5 1009 80 10000 5 170 08:48 02.03.2020
2024 Clouds 5 1010 80 10000 4 170 08:22 02.03.2020
2025 Clouds 5 1010 86 10000 3 170 07:47 02.03.2020
2026 Clouds 5 1010 86 10000 3 170 07:28 02.03.2020
2027 Clouds 4 1010 86 10000 4 170 06:50 02.03.2020
2028 Clouds 4 1010 86 10000 3 170 05:58 02.03.2020
2029 Clouds 4 1010 86 10000 4 180 04:56 02.03.2020
2030 Clouds 4 1010 86 10000 3 180 03:25 02.03.2020
2031 Clouds 4 1010 86 10000 3 190 02:49 02.03.2020
2032 Clouds 4 1011 80 10000 4 190 01:55 02.03.2020
2033 Clouds 4 1011 80 10000 4 190 01:33 02.03.2020
2034 Clouds 5 1011 75 10000 5 190 00:25 02.03.2020
2035 Clouds 5 1011 80 10000 5 190 23:59 01.03.2020
2036 Clouds 5 1011 75 10000 4 190 23:41 01.03.2020
2037 Clouds 6 1011 75 10000 5 190 23:21 01.03.2020
2038 Clouds 6 1011 75 10000 5 190 22:44 01.03.2020
2039 Clouds 6 1011 75 10000 5 190 22:21 01.03.2020
2040 Clouds 6 1011 75 10000 5 180 21:57 01.03.2020
2041 Clouds 6 1011 65 10000 4 180 21:39 01.03.2020
2042 Clouds 6 1011 65 10000 4 180 21:20 01.03.2020
2043 Clouds 7 1011 65 10000 4 190 20:44 01.03.2020
2044 Clouds 7 1011 65 10000 5 190 20:26 01.03.2020
2045 Clouds 7 1011 65 10000 5 190 19:59 01.03.2020
2046 Clouds 7 1011 65 10000 5 190 19:59 01.03.2020
2047 Clouds 7 1011 56 10000 4 190 19:40 01.03.2020
2048 Clouds 7 1011 56 10000 4 190 19:21 01.03.2020
2049 Clouds 7 1012 65 10000 5 190 18:41 01.03.2020
2050 Clouds 7 1012 65 10000 5 190 18:21 01.03.2020
2051 -273 0 0 0 0 0 18:21 01.03.2020
2052 Clouds 7 1012 56 10000 4 180 17:58 01.03.2020
2053 Clouds 7 1011 56 10000 4 190 17:40 01.03.2020
2054 Clouds 7 1011 53 10000 4 190 17:22 01.03.2020
2055 Clouds 7 1012 65 10000 4 200 16:59 01.03.2020
2056 Clouds 7 1012 65 10000 5 200 16:39 01.03.2020
2057 Clouds 7 1012 65 10000 5 200 16:39 01.03.2020
2058 Clouds 7 1012 65 10000 5 210 16:19 01.03.2020
2059 Clouds 7 1012 65 10000 5 210 15:58 01.03.2020
2060 Clouds 7 1012 65 10000 5 200 15:40 01.03.2020
2061 Clouds 7 1012 65 10000 5 200 15:21 01.03.2020
2062 Clouds 7 1012 65 10000 7 220 14:57 01.03.2020
2063 Clouds 8 1012 52 10000 6 210 14:39 01.03.2020
2064 Clouds 8 1012 52 10000 6 210 14:21 01.03.2020
2065 Clouds 7 1012 65 10000 7 210 13:56 01.03.2020
2066 Clouds 8 1012 51 10000 7 210 13:38 01.03.2020
2067 Clouds 8 1012 52 10000 7 210 13:19 01.03.2020
2068 Clouds 7 1012 52 10000 6 200 12:43 01.03.2020
2069 Clouds 7 1012 52 10000 6 200 12:23 01.03.2020
2070 Clouds 7 1012 52 10000 7 200 11:58 01.03.2020
2071 Clouds 7 1012 52 10000 6 200 11:39 01.03.2020
2072 Clouds 7 1012 55 10000 6 200 11:19 01.03.2020
2073 Clouds 6 1012 54 10000 6 210 10:55 01.03.2020
2074 Clouds 6 1013 54 10000 6 200 10:36 01.03.2020
2075 Clouds 6 1013 54 10000 6 200 10:36 01.03.2020
2076 Clouds 6 1013 55 10000 6 200 10:18 01.03.2020
2077 Clouds 5 1013 69 10000 5 210 09:41 01.03.2020
2078 Clouds 4 1013 69 10000 5 210 09:22 01.03.2020
2079 Clouds 4 1013 74 10000 4 190 08:46 01.03.2020
2080 Clouds 3 1013 74 10000 4 190 08:27 01.03.2020
2081 Clouds 2 1013 80 10000 4 180 07:47 01.03.2020
2082 Clouds 2 1013 74 10000 3 180 07:27 01.03.2020
2083 Clouds 1 1013 80 10000 3 180 06:58 01.03.2020
2084 Clouds 1 1013 80 10000 3 170 06:40 01.03.2020
2085 Clouds 0 1013 74 10000 3 180 04:47 01.03.2020
2086 Clouds 0 1013 74 10000 3 170 02:58 01.03.2020
2087 Clear 0 1013 74 10000 3 180 02:18 01.03.2020
2088 Clear 0 1014 62 10000 2 190 01:36 01.03.2020
2089 Clear -1 1014 63 10000 4 200 00:48 01.03.2020
2090 Clear -1 1014 63 10000 4 190 00:25 01.03.2020
2091 Clear -1 1014 63 10000 4 200 23:54 29.02.2020
2092 Clear -1 1014 63 10000 3 200 23:35 29.02.2020
2093 Clear 0 1014 80 9000 3 220 22:46 29.02.2020
2094 Clear 0 1014 80 9000 3 220 22:26 29.02.2020
2095 Clear 0 1014 80 10000 3 220 21:57 29.02.2020
2096 Clear 0 1014 63 9000 3 210 21:38 29.02.2020
2097 Clear 0 1014 63 9000 3 210 21:19 29.02.2020
2098 Clear 1 1014 80 10000 3 210 20:41 29.02.2020
2099 Clouds 1 1014 80 10000 3 210 20:20 29.02.2020
2100 Clouds 1 1014 80 10000 3 210 19:54 29.02.2020
2101 Clouds 1 1014 74 10000 3 210 19:36 29.02.2020
2102 Clouds 1 1014 74 10000 3 210 19:18 29.02.2020
2103 Clouds 2 1014 74 10000 2 210 18:39 29.02.2020
2104 Clouds 2 1014 74 10000 2 210 18:19 29.02.2020
2105 Clouds 3 1014 69 10000 2 220 17:55 29.02.2020
2106 Clouds 4 1014 64 10000 3 220 17:37 29.02.2020
2107 Clouds 4 1014 64 10000 3 220 17:19 29.02.2020
2108 Clouds 4 1014 64 10000 3 240 16:43 29.02.2020
2109 Clouds 5 1014 60 10000 4 250 16:19 29.02.2020
2110 Clouds 5 1014 56 10000 4 250 15:56 29.02.2020
2111 Clouds 5 1014 60 10000 5 250 15:36 29.02.2020
2112 Clouds 5 1014 60 10000 5 250 15:18 29.02.2020
2113 Clouds 6 1014 60 10000 7 260 14:39 29.02.2020
2114 -273 0 0 0 0 0 14:21 29.02.2020
2115 Clouds 6 1014 56 10000 6 260 13:45 29.02.2020
2116 Clouds 6 1014 56 10000 6 270 13:26 29.02.2020
2117 Clouds 6 1014 56 10000 6 270 12:56 29.02.2020
2118 Clouds 6 1014 56 10000 6 270 12:37 29.02.2020
2119 Clouds 6 1014 56 10000 6 270 12:19 29.02.2020
2120 Clouds 6 1014 60 10000 7 270 11:44 29.02.2020
2121 Clouds 5 1014 60 10000 6 270 11:26 29.02.2020
2122 Clouds 5 1014 69 10000 5 260 10:51 29.02.2020
2123 Clouds 4 1014 69 10000 4 260 10:30 29.02.2020
2124 Clear 3 1014 57 10000 4 270 09:52 29.02.2020
2125 Clear 2 1014 57 10000 3 250 09:28 29.02.2020
2126 Clear 2 1014 86 9000 4 270 08:58 29.02.2020
2127 Clear 1 1014 57 8000 4 260 08:39 29.02.2020
2128 Clear 0 1014 75 7000 3 250 08:20 29.02.2020
2129 Clear 1 1014 75 7000 3 250 07:47 29.02.2020
2130 Mist 0 1014 100 5000 2 230 07:22 29.02.2020
2131 Mist -2 1014 100 4800 2 230 06:54 29.02.2020
2132 Mist -2 1013 100 4000 2 240 06:28 29.02.2020
2133 Clear -2 1013 100 6000 2 230 05:49 29.02.2020
2134 Clear -2 1013 100 6000 2 230 05:30 29.02.2020
2135 Mist -1 1013 100 5000 2 290 03:53 29.02.2020
2136 Mist -1 1013 92 5000 1 280 03:23 29.02.2020
2137 Clouds -1 1013 100 8000 1 200 02:51 29.02.2020
2138 Clouds -1 1012 100 9000 1 210 01:55 29.02.2020
2139 Clouds 0 1012 92 8000 1 230 00:49 29.02.2020
2140 Clouds 0 1012 92 8000 1 230 00:27 29.02.2020
2141 Clouds 0 1012 71 8000 2 230 23:40 28.02.2020
2142 Clouds 0 1012 86 8000 2 250 23:22 28.02.2020
2143 Clouds 0 1011 86 9000 2 250 22:42 28.02.2020
2144 Clouds 1 1011 86 9000 2 250 22:22 28.02.2020
2145 Clouds 1 1011 64 9000 2 240 21:42 28.02.2020
2146 Clouds 1 1011 64 9000 2 240 21:21 28.02.2020
2147 Clouds 0 1011 64 8000 1 240 20:57 28.02.2020
2148 Clouds 2 1010 80 8000 2 230 20:38 28.02.2020
2149 Clouds 2 1010 80 8000 2 230 20:20 28.02.2020
2150 Clouds 2 1010 80 9000 2 240 19:56 28.02.2020
2151 Clouds 2 1010 74 10000 3 230 19:38 28.02.2020
2152 Clouds 2 1010 74 10000 3 230 19:19 28.02.2020
2153 Clouds 3 1010 74 10000 2 230 18:46 28.02.2020
2154 Clouds 3 1009 64 10000 2 220 18:24 28.02.2020
2155 Clouds 4 1009 60 10000 3 240 17:41 28.02.2020
2156 Clouds 4 1009 60 10000 3 240 17:23 28.02.2020
2157 Clouds 4 1008 55 10000 4 260 16:57 28.02.2020
2158 Clouds 5 1008 48 10000 3 270 16:38 28.02.2020
2159 -273 0 0 0 0 0 16:38 28.02.2020
2160 Clouds 5 1008 48 10000 3 290 16:19 28.02.2020
2161 Clouds 5 1008 48 10000 3 290 15:55 28.02.2020
2162 Clouds 5 1007 48 10000 4 280 15:37 28.02.2020
2163 Clouds 6 1007 48 10000 4 300 15:18 28.02.2020
2164 Clouds 6 1007 48 10000 6 280 14:42 28.02.2020
2165 Clouds 6 1007 48 10000 6 280 14:19 28.02.2020
2166 Clouds 6 1007 45 10000 7 290 13:58 28.02.2020
2167 Clouds 6 1007 45 10000 6 290 13:40 28.02.2020
2168 Clouds 6 1007 45 10000 6 290 13:19 28.02.2020
2169 Clouds 6 1007 45 10000 7 300 12:43 28.02.2020
2170 Clouds 6 1006 48 10000 7 280 12:25 28.02.2020
2171 Clouds 6 1007 48 10000 7 280 11:55 28.02.2020
2172 Clouds 6 1006 48 10000 7 310 11:37 28.02.2020
2173 Clouds 5 1006 48 10000 7 290 11:18 28.02.2020
2174 Clouds 4 1006 60 10000 5 290 10:43 28.02.2020
2175 Clouds 4 1006 60 10000 5 290 10:23 28.02.2020
2176 Clouds 3 1005 74 10000 5 290 09:47 28.02.2020
2177 Clouds 3 1005 74 10000 5 290 09:22 28.02.2020
2178 Clouds 2 1005 80 10000 4 290 08:57 28.02.2020
2179 Clouds 1 1004 80 10000 4 300 08:39 28.02.2020
2180 Clouds 1 1004 80 10000 4 300 08:20 28.02.2020
2181 Clouds 1 1004 80 10000 4 300 08:20 28.02.2020
2182 Clouds 0 1004 92 10000 4 270 07:41 28.02.2020
2183 Clouds -1 1004 92 10000 3 270 07:22 28.02.2020
2184 Clouds -2 1004 92 10000 3 260 06:45 28.02.2020
2185 Clouds -2 1004 92 10000 3 260 06:24 28.02.2020
2186 Clouds -1 1003 86 10000 4 290 04:46 28.02.2020
2187 Clouds -1 1003 86 10000 3 290 04:18 28.02.2020
2188 Clouds 0 1002 86 10000 3 270 02:46 28.02.2020
2189 Clouds 0 1001 75 10000 3 270 02:27 28.02.2020
2190 Clouds 1 1001 74 10000 4 300 01:23 28.02.2020
2191 Clouds 1 1001 80 10000 4 300 00:28 28.02.2020
2192 Clouds 2 1000 74 10000 5 310 23:42 27.02.2020
2193 Clouds 2 1000 74 10000 5 310 23:21 27.02.2020
2194 Clouds 2 1001 80 10000 3 300 22:46 27.02.2020
2195 Clouds 2 1001 80 10000 3 300 22:26 27.02.2020
2196 Clouds 2 1000 80 10000 3 310 21:59 27.02.2020
2197 Clouds 2 1000 80 10000 3 300 21:39 27.02.2020
2198 Clouds 2 1000 80 10000 3 300 21:19 27.02.2020
2199 Clouds 2 1000 69 10000 3 310 20:57 27.02.2020
2200 Clouds 2 1000 69 10000 4 300 20:38 27.02.2020
2201 Clouds 2 1000 64 10000 4 300 20:20 27.02.2020
2202 Clouds 2 1000 64 10000 4 300 20:20 27.02.2020
2203 Clouds 2 1000 64 10000 3 280 19:55 27.02.2020
2204 Clouds 2 999 64 10000 3 290 19:37 27.02.2020
2205 Clouds 3 999 64 10000 5 310 19:18 27.02.2020
2206 Clouds 2 999 64 10000 3 290 18:40 27.02.2020
2207 Clouds 2 999 64 10000 3 290 18:22 27.02.2020
2208 Clouds 3 999 86 10000 4 300 17:58 27.02.2020
2209 Clouds 4 999 80 10000 4 310 17:39 27.02.2020
2210 Clouds 4 999 80 10000 4 290 17:19 27.02.2020
2211 Clouds 4 999 80 10000 4 290 16:56 27.02.2020
2212 Clouds 4 999 86 10000 5 290 16:37 27.02.2020
2213 Clouds 4 999 86 10000 5 290 16:18 27.02.2020
2214 Clouds 5 998 86 10000 4 300 15:56 27.02.2020
2215 Clouds 5 998 86 10000 4 290 15:36 27.02.2020
2216 Clouds 5 998 86 10000 4 290 15:18 27.02.2020
2217 Clouds 5 997 86 10000 3 290 14:40 27.02.2020
2218 Clouds 5 997 86 10000 3 290 14:22 27.02.2020
2219 Rain 5 997 80 10000 5 290 13:56 27.02.2020
2220 Rain 5 997 86 7000 7 300 13:38 27.02.2020
2221 Rain 5 997 86 7000 7 300 13:19 27.02.2020
2222 Rain 5 997 93 7000 4 300 12:45 27.02.2020
2223 Rain 6 997 93 9000 4 300 12:22 27.02.2020
2224 Rain 6 996 93 9000 1 0 11:47 27.02.2020
2225 Rain 6 997 93 7000 2 320 11:23 27.02.2020
2226 Rain 5 997 93 9000 3 320 10:58 27.02.2020
2227 Rain 5 997 93 9000 3 300 10:40 27.02.2020
2228 Rain 5 997 93 9000 3 300 10:20 27.02.2020
2229 Rain 5 996 93 10000 4 290 09:42 27.02.2020
2230 Rain 5 996 93 10000 4 290 09:23 27.02.2020
2231 Clouds 5 996 93 10000 5 300 08:55 27.02.2020
2232 Clouds 5 996 93 10000 5 300 08:55 27.02.2020
2233 Clouds 5 996 93 10000 5 300 08:37 27.02.2020
2234 Clouds 5 996 93 10000 5 300 08:18 27.02.2020
2235 Clouds 4 996 100 9000 2 270 07:41 27.02.2020
2236 Clouds 4 996 100 9000 2 270 07:20 27.02.2020
2237 Clouds 4 995 100 7000 3 280 06:21 27.02.2020
2238 Mist 4 995 100 5000 3 270 04:48 27.02.2020
2239 Mist 4 994 100 4600 2 230 02:58 27.02.2020
2240 Clouds 5 994 100 6000 3 260 01:32 27.02.2020
2241 Clouds 6 994 93 9000 2 210 00:41 27.02.2020
2242 Clouds 6 993 93 10000 2 180 23:41 26.02.2020
2243 Rain 6 993 93 10000 2 180 23:23 26.02.2020
2244 Rain 7 993 93 10000 2 180 22:59 26.02.2020
2245 Rain 7 994 93 7000 3 190 22:40 26.02.2020
2246 Rain 7 994 93 7000 3 190 22:22 26.02.2020
2247 Rain 7 995 93 7000 3 200 21:59 26.02.2020
2248 Rain 7 995 87 9000 3 190 21:39 26.02.2020
2249 Clouds 7 994 81 10000 2 150 21:19 26.02.2020
2250 Clouds 7 994 81 10000 2 150 20:56 26.02.2020
2251 Rain 7 995 81 10000 2 150 20:38 26.02.2020
2252 Rain 7 995 81 10000 2 150 20:19 26.02.2020
2253 Rain 7 995 75 10000 2 150 19:55 26.02.2020
2254 Rain 7 995 75 10000 2 140 19:36 26.02.2020
2255 Rain 7 995 75 10000 2 140 19:36 26.02.2020
2256 Rain 7 995 75 10000 2 140 19:36 26.02.2020
2257 Clouds 7 995 75 10000 2 150 19:18 26.02.2020
2258 Clouds 7 995 75 10000 2 150 18:54 26.02.2020
2259 Rain 7 995 75 10000 2 150 18:36 26.02.2020
2260 Rain 7 995 75 10000 2 150 18:18 26.02.2020
2261 Rain 8 995 75 10000 2 160 17:40 26.02.2020
2262 Rain 8 995 75 10000 2 160 17:19 26.02.2020
2263 Rain 8 995 75 10000 2 170 16:56 26.02.2020
2264 Rain 8 995 81 10000 2 150 16:37 26.02.2020
2265 Rain 8 995 81 10000 1 0 16:18 26.02.2020
2266 Rain 8 995 81 10000 1 0 15:43 26.02.2020
2267 -273 0 0 0 0 0 15:25 26.02.2020
2268 Rain 9 995 66 10000 2 180 14:43 26.02.2020
2269 Clouds 10 995 66 10000 2 170 14:23 26.02.2020
2270 Rain 10 995 61 10000 2 180 13:44 26.02.2020
2271 Rain 10 995 61 10000 2 180 13:23 26.02.2020
2272 Clouds 10 995 61 10000 2 190 12:59 26.02.2020
2273 Clouds 10 996 57 10000 3 220 12:38 26.02.2020
2274 Clouds 9 996 57 10000 3 220 12:18 26.02.2020
2275 Clouds 9 996 57 10000 4 230 11:43 26.02.2020
2276 Clouds 9 996 57 10000 4 230 11:22 26.02.2020
2277 Clouds 9 996 57 10000 4 230 11:22 26.02.2020
2278 Clouds 8 996 61 10000 3 210 10:59 26.02.2020
2279 Clouds 8 996 61 10000 3 230 10:39 26.02.2020
2280 Clouds 8 996 61 10000 3 230 10:21 26.02.2020
2281 Clouds 6 997 61 10000 4 230 09:43 26.02.2020
2282 Clouds 6 997 61 10000 4 230 09:23 26.02.2020
2283 Clouds 5 997 61 10000 4 210 08:56 26.02.2020
2284 Clouds 5 997 69 10000 3 200 08:36 26.02.2020
2285 Clouds 4 997 69 10000 2 220 08:18 26.02.2020
2286 Clouds 3 997 74 10000 2 200 07:42 26.02.2020
2287 Clouds 3 997 74 10000 2 200 07:23 26.02.2020
2288 Clouds 3 997 74 10000 3 210 06:50 26.02.2020
2289 Clouds 3 997 74 10000 2 210 06:31 26.02.2020
2290 Clouds 3 997 69 10000 2 190 05:49 26.02.2020
2291 Clouds 3 997 69 10000 3 200 05:20 26.02.2020
2292 Clouds 4 998 69 10000 2 170 03:57 26.02.2020
2293 Clouds 4 999 67 10000 2 160 02:20 26.02.2020
2294 Rain 4 1000 75 10000 3 180 01:40 26.02.2020
2295 Clouds 4 1001 70 10000 3 190 00:48 26.02.2020
2296 Clouds 5 1001 75 10000 3 210 00:22 26.02.2020
2297 Clouds 5 1001 70 10000 3 200 23:45 25.02.2020
2298 Clouds 5 1001 70 10000 3 200 23:26 25.02.2020
2299 Clouds 4 1002 76 10000 3 210 22:58 25.02.2020
2300 Clouds 4 1002 76 10000 3 220 22:40 25.02.2020
2301 Clouds 4 1002 76 10000 3 220 22:19 25.02.2020
2302 Clouds 4 1002 76 10000 4 230 21:39 25.02.2020
2303 Clouds 4 1002 76 10000 4 230 21:20 25.02.2020
2304 Clouds 4 1002 76 10000 4 230 21:20 25.02.2020
2305 Clouds 4 1003 76 10000 5 220 20:58 25.02.2020
2306 Clouds 4 1003 76 10000 5 210 20:39 25.02.2020
2307 Clouds 4 1003 82 10000 4 220 20:20 25.02.2020
2308 Clouds 4 1003 82 10000 4 220 19:59 25.02.2020
2309 Clouds 4 1004 82 10000 4 210 19:40 25.02.2020
2310 Clouds 4 1004 82 10000 3 210 19:19 25.02.2020
2311 Clouds 4 1004 82 10000 4 210 18:42 25.02.2020
2312 Clouds 4 1004 82 10000 4 210 18:21 25.02.2020
2313 Clouds 4 1004 82 10000 4 210 17:58 25.02.2020
2314 Clouds 4 1004 82 10000 4 210 17:37 25.02.2020
2315 Clouds 4 1004 66 10000 4 210 17:19 25.02.2020
2316 Clouds 5 1004 66 10000 3 210 16:58 25.02.2020
2317 Clouds 5 1005 65 10000 5 210 16:39 25.02.2020
2318 Clouds 5 1005 65 10000 5 210 16:20 25.02.2020
2319 Clouds 5 1005 66 10000 4 210 15:56 25.02.2020
2320 Clouds 5 1005 66 10000 4 200 15:37 25.02.2020
2321 Clouds 5 1005 66 10000 4 200 15:18 25.02.2020
2322 Clouds 5 1006 66 10000 4 200 14:54 25.02.2020
2323 Clouds 5 1006 66 10000 5 210 14:36 25.02.2020
2324 Clouds 5 1006 63 10000 5 210 14:18 25.02.2020
2325 Clouds 5 1006 63 10000 5 210 14:18 25.02.2020
2326 Clouds 5 1007 67 10000 4 220 13:42 25.02.2020
2327 -273 0 0 0 0 0 13:22 25.02.2020
2328 Clouds 5 1007 67 10000 4 220 13:21 25.02.2020
2329 Clouds 5 1007 67 10000 5 240 12:59 25.02.2020
2330 Clouds 5 1008 67 10000 6 230 12:39 25.02.2020
2331 Clouds 5 1008 67 10000 6 230 12:20 25.02.2020
2332 Clouds 4 1008 80 10000 6 240 11:56 25.02.2020
2333 Clouds 4 1008 80 10000 6 230 11:38 25.02.2020
2334 Clouds 4 1008 80 10000 6 230 11:18 25.02.2020
2335 Clouds 4 1009 80 10000 4 230 10:56 25.02.2020
2336 Clouds 3 1009 86 10000 3 220 10:38 25.02.2020
2337 Clouds 3 1009 86 10000 3 220 10:19 25.02.2020
2338 Clouds 2 1009 100 9000 3 220 09:40 25.02.2020
2339 Clouds 1 1010 100 6000 3 240 09:19 25.02.2020
2340 Mist 1 1010 65 5000 3 250 08:43 25.02.2020
2341 Clouds 0 1010 84 6000 4 250 08:24 25.02.2020
2342 Clouds 0 1010 84 9000 3 250 07:50 25.02.2020
2343 Clouds 0 1010 84 10000 4 250 07:25 25.02.2020
2344 Clouds 0 1009 100 6000 4 240 06:57 25.02.2020
2345 Clouds -1 1009 92 10000 2 230 06:25 25.02.2020
2346 Clouds -1 1009 92 10000 2 260 05:22 25.02.2020
2347 Clouds 0 1010 86 10000 4 280 02:38 25.02.2020
2348 Clear 1 1010 80 10000 4 290 00:59 25.02.2020
2349 Clear 1 1010 80 10000 5 290 00:33 25.02.2020
2350 Clear 1 1009 80 10000 5 290 23:56 24.02.2020
2351 Clear 1 1009 86 10000 6 300 23:37 24.02.2020
2352 Clear 1 1009 86 10000 6 300 23:37 24.02.2020
2353 Clear 1 1009 86 10000 6 300 23:18 24.02.2020
2354 Clouds 1 1008 86 10000 6 290 22:37 24.02.2020
2355 Clouds 1 1008 86 10000 6 290 22:18 24.02.2020
2356 Clouds 2 1008 80 10000 6 300 21:55 24.02.2020
2357 Clear 2 1007 80 10000 6 310 21:37 24.02.2020
2358 Clear 2 1007 80 10000 6 310 21:18 24.02.2020
2359 Clear 2 1007 65 10000 6 300 20:54 24.02.2020
2360 Clear 2 1007 65 10000 8 310 20:36 24.02.2020
2361 Snow 2 1006 68 10000 8 310 20:18 24.02.2020
2362 Snow 2 1006 68 10000 8 310 19:55 24.02.2020
2363 Clouds 3 1006 68 10000 8 320 19:36 24.02.2020
2364 Clouds 3 1005 68 10000 9 310 19:18 24.02.2020
2365 Clouds 3 1004 68 10000 9 300 18:41 24.02.2020
2366 Clouds 3 1004 68 10000 9 300 18:22 24.02.2020
2367 Clouds 3 1004 68 10000 9 300 17:55 24.02.2020
2368 Clouds 4 1003 68 10000 8 300 17:36 24.02.2020
2369 Clouds 4 1003 68 10000 8 300 17:18 24.02.2020
2370 Clouds 4 1003 68 10000 9 310 16:54 24.02.2020
2371 Snow 4 1002 68 10000 8 300 16:36 24.02.2020
2372 Clouds 4 1002 68 10000 8 310 16:18 24.02.2020
2373 Clouds 4 1002 68 10000 8 310 15:54 24.02.2020
2374 Clouds 4 1001 80 10000 8 310 15:36 24.02.2020
2375 Clouds 4 1001 80 10000 8 310 15:18 24.02.2020
2376 Clouds 4 1001 80 10000 9 310 14:40 24.02.2020
2377 Clouds 4 1001 80 10000 9 310 14:21 24.02.2020
2378 Clouds 4 1001 80 10000 9 310 14:21 24.02.2020
2379 Clouds 4 1000 80 10000 9 310 13:58 24.02.2020
2380 Clouds 4 1000 80 10000 9 320 13:39 24.02.2020
2381 Clouds 4 1000 80 10000 9 320 13:39 24.02.2020
2382 Clouds 4 1000 80 10000 9 320 13:20 24.02.2020
2383 Clouds 3 1000 86 10000 7 320 12:57 24.02.2020
2384 Clouds 2 999 93 10000 9 330 12:38 24.02.2020
2385 Clouds 2 999 93 10000 9 330 12:20 24.02.2020
2386 Clouds 2 998 93 10000 8 340 11:46 24.02.2020
2387 Rain 2 998 93 10000 8 340 11:28 24.02.2020
2388 Rain 2 996 93 9000 8 340 10:47 24.02.2020
2389 Rain 2 996 93 9000 8 340 10:29 24.02.2020
2390 Rain 1 994 100 6000 10 350 09:54 24.02.2020
2391 Rain 1 995 100 7000 8 340 09:36 24.02.2020
2392 Snow 1 992 82 3100 10 360 09:18 24.02.2020
2393 Snow 1 992 82 3100 10 360 08:45 24.02.2020
2394 Rain 1 990 100 3600 9 10 08:27 24.02.2020
2395 Rain 2 988 100 5000 6 30 07:45 24.02.2020
2396 Rain 2 988 100 5000 6 30 07:27 24.02.2020
2397 Rain 4 988 93 5000 3 90 06:36 24.02.2020
2398 Rain 4 988 93 5000 3 90 06:18 24.02.2020
2399 Rain 4 990 93 8000 2 200 05:28 24.02.2020
2400 Rain 4 993 100 10000 3 170 03:45 24.02.2020
2401 Rain 3 995 100 10000 2 180 02:52 24.02.2020
2402 Rain 3 999 100 9000 2 200 01:42 24.02.2020
2403 Rain 3 999 100 9000 3 220 00:52 24.02.2020
2404 Rain 3 1000 100 9000 3 210 00:23 24.02.2020
2405 Rain 3 1001 100 8000 3 210 23:59 23.02.2020
2406 Rain 3 1002 100 10000 3 210 23:40 23.02.2020
2407 Rain 3 1002 100 10000 3 210 23:18 23.02.2020
2408 Rain 3 1002 93 9000 2 220 22:54 23.02.2020
2409 Rain 3 1003 93 10000 2 230 22:36 23.02.2020
2410 Rain 3 1003 93 10000 2 230 22:18 23.02.2020
2411 Rain 4 1004 80 10000 4 250 21:43 23.02.2020
2412 Rain 4 1004 86 10000 3 240 21:43 23.02.2020
2413 Rain 4 1005 86 10000 5 260 21:19 23.02.2020
2414 Rain 4 1005 86 10000 5 260 20:56 23.02.2020
2415 Rain 4 1005 80 10000 5 250 20:37 23.02.2020
2416 Clouds 4 1005 80 10000 5 250 20:19 23.02.2020
2417 Clouds 4 1006 80 10000 5 250 19:55 23.02.2020
2418 Clouds 4 1006 80 10000 5 260 19:36 23.02.2020
2419 Clouds 4 1006 80 10000 5 260 19:18 23.02.2020
2420 Clouds 5 1006 75 10000 4 260 18:41 23.02.2020
2421 Clouds 5 1006 75 10000 4 260 18:21 23.02.2020
2422 Clouds 5 1007 80 10000 5 250 17:59 23.02.2020
2423 Clouds 5 1007 64 10000 5 260 17:41 23.02.2020
2424 Clouds 5 1007 57 10000 5 260 17:21 23.02.2020
2425 Clouds 5 1007 57 10000 5 270 16:57 23.02.2020
2426 Clouds 5 1007 75 10000 7 270 16:38 23.02.2020
2427 Clouds 5 1007 75 10000 7 270 16:20 23.02.2020
2428 Clouds 6 1007 70 10000 9 270 15:54 23.02.2020
2429 Clouds 6 1007 65 10000 9 270 15:36 23.02.2020
2430 Rain 7 1007 70 10000 9 270 15:18 23.02.2020
2431 Rain 7 1007 70 10000 9 270 14:55 23.02.2020
2432 Clouds 8 1007 61 10000 10 270 14:37 23.02.2020
2433 Clouds 8 1007 61 10000 10 270 14:19 23.02.2020
2434 Clouds 8 1007 61 10000 10 260 13:54 23.02.2020
2435 Clouds 8 1007 57 10000 10 270 13:36 23.02.2020
2436 Clouds 9 1007 57 10000 10 270 13:18 23.02.2020
2437 Rain 8 1008 65 10000 11 270 12:40 23.02.2020
2438 Rain 8 1008 65 10000 11 270 12:20 23.02.2020
2439 Rain 8 1008 65 10000 10 270 11:39 23.02.2020
2440 Rain 8 1008 65 10000 10 270 11:20 23.02.2020
2441 Clouds 7 1008 70 10000 9 260 10:58 23.02.2020
2442 Rain 7 1008 70 10000 9 250 10:40 23.02.2020
2443 Rain 7 1008 70 10000 9 250 10:21 23.02.2020
2444 Rain 6 1009 75 10000 9 260 09:56 23.02.2020
2445 Clouds 6 1009 75 10000 8 250 09:37 23.02.2020
2446 Rain 6 1010 75 10000 8 260 09:18 23.02.2020
2447 Clouds 5 1010 75 10000 6 250 08:44 23.02.2020
2448 Clouds 5 1010 75 10000 6 250 08:25 23.02.2020
2449 Rain 4 1010 80 10000 6 250 07:44 23.02.2020
2450 Rain 4 1010 80 10000 6 250 07:26 23.02.2020
2451 Clouds 5 1010 65 10000 7 250 06:20 23.02.2020
2452 Clouds 4 1011 69 10000 4 230 04:59 23.02.2020
2453 Clouds 4 1012 74 10000 5 230 03:53 23.02.2020
2454 Clouds 4 1013 74 10000 6 230 02:44 23.02.2020
2455 Clouds 4 1015 74 10000 5 220 01:28 23.02.2020
2456 Clouds 3 1016 74 10000 6 220 00:59 23.02.2020
2457 Clouds 3 1016 74 10000 5 220 00:41 23.02.2020
2458 Clouds 3 1016 74 10000 5 220 00:19 23.02.2020
2459 Clouds 3 1018 74 10000 5 230 23:42 22.02.2020
2460 Clouds 3 1018 74 10000 5 230 23:20 22.02.2020
2461 Clouds 3 1019 68 10000 5 230 22:45 22.02.2020
2462 Clouds 3 1019 68 10000 5 230 22:20 22.02.2020
2463 Clouds 3 1020 74 10000 4 230 21:43 22.02.2020
2464 Clouds 3 1020 74 10000 4 230 21:25 22.02.2020
2465 Clouds 3 1021 74 10000 4 220 20:58 22.02.2020
2466 Clouds 3 1021 74 10000 4 230 20:39 22.02.2020
2467 Clouds 4 1021 74 10000 4 230 20:21 22.02.2020
2468 Clouds 4 1022 65 8000 4 240 19:42 22.02.2020
2469 Clouds 4 1021 65 9000 3 220 19:24 22.02.2020
2470 Clouds 4 1021 65 9000 3 200 18:57 22.02.2020
2471 Clouds 4 1022 65 10000 3 210 18:37 22.02.2020
2472 Clouds 4 1022 65 10000 3 210 18:19 22.02.2020
2473 Clouds 5 1022 65 9000 3 210 17:44 22.02.2020
2474 Clouds 5 1023 65 9000 3 220 17:26 22.02.2020
2475 Clouds 5 1023 60 10000 3 210 16:59 22.02.2020
2476 Clouds 6 1024 60 10000 3 230 16:40 22.02.2020
2477 Clouds 6 1024 60 10000 3 230 16:20 22.02.2020
2478 Clouds 6 1024 60 10000 3 230 16:20 22.02.2020
2479 Clouds 7 1023 52 10000 3 240 15:55 22.02.2020
2480 Clouds 7 1023 52 10000 4 230 15:37 22.02.2020
2481 Clouds 7 1023 52 10000 4 230 15:19 22.02.2020
2482 Clouds 7 1024 48 10000 4 230 14:41 22.02.2020
2483 Clouds 7 1024 48 10000 4 230 14:21 22.02.2020
2484 Clouds 7 1025 48 10000 3 200 13:43 22.02.2020
2485 Clouds 7 1025 48 10000 3 200 13:20 22.02.2020
2486 Clouds 8 1025 48 10000 4 230 12:58 22.02.2020
2487 Clouds 8 1026 48 10000 3 190 12:39 22.02.2020
2488 Clouds 8 1026 48 10000 3 190 12:20 22.02.2020
2489 Clouds 8 1026 48 10000 2 210 11:43 22.02.2020
2490 Clouds 7 1026 48 10000 2 210 11:25 22.02.2020
2491 Clouds 7 1027 52 10000 2 260 10:55 22.02.2020
2492 Clouds 6 1027 52 10000 3 280 10:36 22.02.2020
2493 Clouds 5 1027 52 10000 3 280 10:18 22.02.2020
2494 Clouds 5 1027 52 10000 3 280 10:18 22.02.2020
2495 Clouds 5 1027 60 10000 2 260 09:42 22.02.2020
2496 Clouds 5 1027 60 10000 2 260 09:22 22.02.2020
2497 Clouds 4 1027 69 9000 1 0 08:57 22.02.2020
2498 Clouds 2 1026 64 7000 2 280 08:38 22.02.2020
2499 Clouds 2 1026 69 7000 2 280 08:20 22.02.2020
2500 Clouds 1 1026 69 6000 1.51 199 07:39 22.02.2020
2501 Clouds 0 1025 92 6000 1 170 07:18 22.02.2020
2502 Mist -1 1025 100 6000 1 0 06:43 22.02.2020
2503 Clouds 0 1025 92 7000 1.27 201 04:45 22.02.2020
2504 Clouds 0 1025 92 7000 1.27 201 04:25 22.02.2020
2505 Clouds -1 1024 92 9000 1 70 02:42 22.02.2020
2506 Clouds 0 1024 69 6000 1 140 01:49 22.02.2020
2507 Clouds 0 1024 92 7000 1 0 01:29 22.02.2020
2508 Mist -1 1024 92 5000 2.05 187 00:49 22.02.2020
2509 Clouds 0 1024 92 6000 2.05 187 00:31 22.02.2020
2510 Mist 0 1024 92 5000 2.05 187 23:53 21.02.2020
2511 Mist 0 1024 86 5000 2.89 169 23:26 21.02.2020
2512 Clear 1 1023 86 7000 2.89 169 22:59 21.02.2020
2513 Clear 0 1024 92 8000 2.89 169 22:41 21.02.2020
2514 Clear 0 1024 92 8000 2.89 169 22:41 21.02.2020
2515 Clear 1 1023 92 8000 2.89 169 22:23 21.02.2020
2516 Clear 1 1023 92 8000 2.89 169 21:56 21.02.2020
2517 Clear 1 1023 86 9000 2.89 169 21:37 21.02.2020
2518 Clear 1 1023 69 9000 2.89 169 21:19 21.02.2020
2519 Clear 1 1023 80 8000 2.89 169 20:41 21.02.2020
2520 Clear 1 1023 80 8000 2.92 159 20:23 21.02.2020
2521 Smoke 2 1022 80 10000 1 170 19:40 21.02.2020
2522 Clouds 2 1022 74 10000 1 160 19:20 21.02.2020
2523 Clouds 2 1022 74 10000 1 0 18:43 21.02.2020
2524 Clouds 2 1022 74 10000 1 0 18:23 21.02.2020
2525 Clouds 3 1022 69 10000 1 0 17:57 21.02.2020
2526 Clouds 3 1021 69 10000 1 0 17:37 21.02.2020
2527 Rain 3 1021 69 10000 1 0 17:19 21.02.2020
2528 Rain 3 1021 69 10000 1 0 16:44 21.02.2020
2529 Rain 4 1021 64 10000 2 180 16:24 21.02.2020
2530 Rain 4 1021 69 10000 2 160 15:59 21.02.2020
2531 Rain 4 1021 69 10000 2 170 15:38 21.02.2020
2532 Rain 4 1021 69 10000 2 170 15:19 21.02.2020
2533 Rain 4 1021 69 10000 3 160 14:42 21.02.2020
2534 Rain 4 1021 69 10000 3 160 14:22 21.02.2020
2535 Rain 4 1021 69 10000 3 150 13:59 21.02.2020
2536 Clouds 4 1021 69 10000 3 170 13:39 21.02.2020
2537 Clouds 5 1021 69 10000 3 170 13:39 21.02.2020
2538 Clouds 5 1021 65 10000 3 190 13:20 21.02.2020
2539 Rain 5 1021 65 10000 3 180 12:43 21.02.2020
2540 Rain 5 1021 65 10000 3 180 12:24 21.02.2020
2541 Rain 5 1021 65 10000 3 180 11:56 21.02.2020
2542 Rain 5 1022 65 10000 3 190 11:37 21.02.2020
2543 Clouds 5 1022 65 10000 3 190 11:19 21.02.2020
2544 Clouds 4 1022 69 10000 3 180 10:42 21.02.2020
2545 Clouds 4 1022 69 10000 3 180 10:42 21.02.2020
2546 Clouds 4 1022 69 10000 2 170 10:20 21.02.2020
2547 Clouds 4 1022 69 10000 2 170 09:58 21.02.2020
2548 Clouds 4 1021 69 10000 2 180 09:39 21.02.2020
2549 Clouds 4 1021 69 10000 1 0 09:20 21.02.2020
2550 Clouds 4 1021 69 10000 1 0 08:54 21.02.2020
2551 Clouds 3 1021 69 10000 2 160 08:36 21.02.2020
2552 Clouds 3 1021 69 10000 2 160 08:18 21.02.2020
2553 Clouds 3 1021 74 10000 2 140 07:41 21.02.2020
2554 Clouds 3 1021 74 10000 2 140 07:20 21.02.2020
2555 Clouds 2 1021 80 10000 1 130 06:55 21.02.2020
2556 Clouds 2 1021 80 10000 1 0 06:31 21.02.2020
2557 Clouds 2 1021 87 10000 3 130 05:55 21.02.2020
2558 Clouds 3 1021 91 10000 2 150 04:50 21.02.2020
2559 Clouds 3 1021 91 10000 2 150 04:25 21.02.2020
2560 Clouds 4 1022 91 10000 2 130 03:46 21.02.2020
2561 Clouds 4 1022 69 10000 1 0 02:58 21.02.2020
2562 Clouds 4 1022 87 10000 1.38 255 01:29 21.02.2020
2563 Clouds 4 1022 69 10000 1 0 00:46 21.02.2020
2564 Clouds 4 1022 69 10000 1 0 00:24 21.02.2020
2565 Clouds 4 1022 69 10000 1 0 23:57 20.02.2020
2566 Clouds 4 1022 69 10000 1 0 23:39 20.02.2020
2567 Clouds 4 1022 69 6000 1 180 23:20 20.02.2020
2568 Clouds 4 1022 69 9000 0.2 260 22:39 20.02.2020
2569 Clouds 4 1022 69 9000 0.2 260 22:21 20.02.2020
2570 Clouds 4 1022 69 9000 0.2 260 22:21 20.02.2020
2571 Clouds 4 1022 69 9000 0.2 260 22:21 20.02.2020
2572 Clouds 4 1022 74 10000 1 0 21:57 20.02.2020
2573 Clouds 5 1022 60 10000 1 130 21:37 20.02.2020
2574 Clouds 5 1022 60 10000 1 130 21:19 20.02.2020
2575 Clouds 4 1021 64 8000 1 150 20:55 20.02.2020
2576 Clouds 4 1021 64 10000 1 120 20:37 20.02.2020
2577 Clouds 5 1021 64 10000 1 120 20:19 20.02.2020
2578 Clouds 5 1021 64 10000 1 120 20:19 20.02.2020
2579 Clouds 5 1021 60 10000 1.13 242 19:58 20.02.2020
2580 Clouds 5 1021 65 10000 2 120 19:40 20.02.2020
2581 Clouds 5 1021 65 10000 2 120 19:21 20.02.2020
2582 Clouds 5 1021 65 10000 1 100 18:40 20.02.2020
2583 Clouds 5 1021 72 10000 1 0 18:20 20.02.2020
2584 Clouds 5 1021 72 10000 1 0 17:56 20.02.2020
2585 Clouds 5 1021 72 10000 1 0 17:38 20.02.2020
2586 Clouds 5 1021 59 10000 1 0 17:18 20.02.2020
2587 Clouds 5 1021 59 10000 1 0 16:55 20.02.2020
2588 Clouds 5 1020 59 10000 1 280 16:37 20.02.2020
2589 Clouds 5 1020 59 10000 1 280 16:18 20.02.2020
2590 Clouds 6 1020 65 10000 3 270 15:42 20.02.2020
2591 Clouds 6 1020 65 10000 3 270 15:21 20.02.2020
2592 Clouds 6 1020 60 10000 4 290 14:57 20.02.2020
2593 Clouds 7 1020 52 10000 3 260 14:39 20.02.2020
2594 Clouds 7 1020 52 10000 3 260 14:20 20.02.2020
2595 Clouds 7 1020 52 10000 3 310 13:45 20.02.2020
2596 Clouds 7 1020 52 10000 3 210 13:20 20.02.2020
2597 Clouds 7 1020 52 10000 2 210 12:58 20.02.2020
2598 Clouds 7 1020 56 10000 2 240 12:40 20.02.2020
2599 Clouds 7 1020 56 10000 2 240 12:19 20.02.2020
2600 Clouds 6 1020 60 10000 3 240 11:54 20.02.2020
2601 Clouds 6 1020 60 10000 2 230 11:36 20.02.2020
2602 Clouds 6 1020 60 10000 2 230 11:18 20.02.2020
2603 Clouds 6 1019 60 10000 2 220 10:42 20.02.2020
2604 Clouds 6 1019 60 10000 2 220 10:42 20.02.2020
2605 Clouds 6 1019 60 10000 2 220 10:22 20.02.2020
2606 Clouds 5 1019 65 10000 2 240 09:55 20.02.2020
2607 Clouds 4 1019 69 10000 2 270 09:36 20.02.2020
2608 Clouds 4 1019 69 10000 1 0 09:18 20.02.2020
2609 Clouds 3 1019 69 9000 1 220 08:39 20.02.2020
2610 Clouds 3 1019 69 9000 1 220 08:21 20.02.2020
2611 Clouds 2 1018 74 10000 2 280 07:46 20.02.2020
2612 Clouds 2 1018 74 10000 2 280 07:26 20.02.2020
2613 Clouds 1 1018 80 10000 1.67 176 06:55 20.02.2020
2614 Clouds 2 1018 80 10000 1 0 06:27 20.02.2020
2615 Clouds 1 1017 80 10000 1 230 05:47 20.02.2020
2616 Clouds 1 1017 71 10000 1 250 04:56 20.02.2020
2617 Clouds 1 1017 71 10000 2 240 04:28 20.02.2020
2618 Clouds 1 1017 71 10000 2 280 03:35 20.02.2020
2619 Clouds 1 1017 71 9000 2.09 196 02:28 20.02.2020
2620 Clouds 0 1017 92 8000 2.17 196 01:18 20.02.2020
2621 Clouds 1 1017 71 8000 2.17 196 00:34 20.02.2020
2622 Clouds 0 1017 71 8000 2 250 23:52 19.02.2020
2623 Clouds 0 1017 71 7000 1 0 23:23 19.02.2020
2624 Clouds 0 1017 66 7000 2 250 22:55 19.02.2020
2625 Clouds 2 1017 80 8000 2 210 22:37 19.02.2020
2626 Clouds 1 1017 80 8000 2 210 22:18 19.02.2020
2627 Clouds 1 1017 66 7000 2 230 21:55 19.02.2020
2628 Clouds 2 1017 66 9000 2 230 21:36 19.02.2020
2629 Clouds 2 1017 74 7000 1 220 21:18 19.02.2020
2630 Clouds 2 1017 74 7000 1 220 20:55 19.02.2020
2631 Clouds 2 1017 74 8000 1 230 20:36 19.02.2020
2632 Clear 2 1017 74 8000 2 220 20:18 19.02.2020
2633 Clear 2 1017 74 8000 2 220 19:54 19.02.2020
2634 Clear 2 1017 69 8000 1 220 19:36 19.02.2020
2635 Clear 4 1017 64 6000 2 220 19:18 19.02.2020
2636 Clear 4 1017 64 6000 2 220 18:55 19.02.2020
2637 Clear 5 1017 64 7000 2 220 18:37 19.02.2020
2638 Clear 4 1017 64 7000 2 220 18:19 19.02.2020
2639 Clear 5 1017 56 10000 2 230 17:42 19.02.2020
2640 Clear 5 1017 56 10000 2 230 17:42 19.02.2020
2641 Clear 6 1017 56 10000 2 230 17:19 19.02.2020
2642 Clear 7 1017 48 10000 3 260 16:44 19.02.2020
2643 Clear 7 1017 48 10000 3 260 16:19 19.02.2020
2644 Clear 8 1017 45 10000 4 270 15:58 19.02.2020
2645 Clear 8 1017 45 10000 4 290 15:39 19.02.2020
2646 Clear 8 1017 45 10000 4 290 15:20 19.02.2020
2647 Clear 8 1017 42 10000 5 270 14:42 19.02.2020
2648 Clear 9 1017 42 10000 5 300 14:23 19.02.2020
2649 Clear 9 1017 42 10000 5 300 13:59 19.02.2020
2650 Clouds 8 1017 49 10000 4 310 13:39 19.02.2020
2651 Clouds 9 1018 49 10000 4 300 13:19 19.02.2020
2652 Clouds 9 1018 49 10000 5 300 12:39 19.02.2020
2653 Clouds 9 1018 49 10000 5 300 12:19 19.02.2020
2654 Clouds 8 1018 51 10000 6 270 11:55 19.02.2020
2655 Clouds 7 1018 51 10000 5 260 11:37 19.02.2020
2656 Clouds 7 1018 66 10000 5 260 11:18 19.02.2020
2657 Clear 7 1019 65 10000 4 270 10:56 19.02.2020
2658 Clear 7 1019 70 10000 4 290 10:37 19.02.2020
2659 Clear 6 1019 70 10000 4 290 10:18 19.02.2020
2660 Clear 6 1019 75 10000 5 280 09:54 19.02.2020
2661 Clear 5 1019 86 10000 4 290 09:36 19.02.2020
2662 Clouds 4 1019 93 10000 5 270 09:18 19.02.2020
2663 Clouds 4 1019 86 10000 4 260 08:42 19.02.2020
2664 Clouds 4 1019 86 10000 4 260 08:42 19.02.2020
2665 Clouds 3 1019 86 10000 4 260 08:23 19.02.2020
2666 Clear 2 1019 100 10000 4 280 07:41 19.02.2020
2667 Clear 2 1019 100 10000 4 280 07:20 19.02.2020
2668 Clear 2 1018 86 10000 4 280 06:47 19.02.2020
2669 Clear 2 1018 86 10000 4 260 05:40 19.02.2020
2670 Clear 2 1018 93 10000 3 270 03:59 19.02.2020
2671 Clear 3 1018 93 10000 3 260 02:49 19.02.2020
2672 Clear 3 1017 88 10000 3 280 02:29 19.02.2020
2673 Clear 3 1017 93 10000 3 270 01:23 19.02.2020
2674 Clear 4 1017 86 10000 4 280 00:43 19.02.2020
2675 Clear 4 1017 86 10000 4 280 00:24 19.02.2020
2676 Clear 4 1017 86 10000 3 270 23:41 18.02.2020
2677 Clear 4 1017 86 10000 3 270 23:20 18.02.2020
2678 Clear 5 1017 93 10000 4 270 22:56 18.02.2020
2679 Clear 4 1017 93 10000 4 260 22:37 18.02.2020
2680 Clear 4 1017 93 10000 4 260 22:19 18.02.2020
2681 Clear 5 1017 93 10000 4 260 21:55 18.02.2020
2682 Clear 5 1016 87 10000 4 260 21:36 18.02.2020
2683 Clear 5 1016 87 10000 4 260 21:18 18.02.2020
2684 Clear 6 1016 93 7000 3 260 20:55 18.02.2020
2685 Clear 6 1016 93 7000 2 250 20:36 18.02.2020
2686 Clouds 6 1016 93 7000 2 250 20:18 18.02.2020
2687 Clouds 6 1016 93 7000 2 250 20:18 18.02.2020
2688 Clouds 7 1016 81 10000 4 290 19:42 18.02.2020
2689 Clouds 7 1016 81 10000 4 290 19:19 18.02.2020
2690 Clouds 7 1016 75 10000 5 280 18:57 18.02.2020
2691 Clouds 8 1016 81 10000 4 270 18:39 18.02.2020
2692 Clouds 8 1016 81 10000 4 270 18:19 18.02.2020
2693 Clouds 7 1015 81 9000 3 260 17:42 18.02.2020
2694 Clouds 7 1015 81 9000 3 260 17:20 18.02.2020
2695 Clouds 7 1015 81 9000 3 260 17:19 18.02.2020
2696 Clouds 8 1015 75 10000 3 270 16:40 18.02.2020
2697 Clouds 8 1015 75 10000 3 270 16:22 18.02.2020
2698 Clouds 8 1015 75 10000 4 280 15:56 18.02.2020
2699 Clouds 8 1014 70 10000 6 300 15:37 18.02.2020
2700 Clouds 9 1014 70 10000 6 300 15:18 18.02.2020
2701 Clouds 9 1014 66 10000 5 290 14:55 18.02.2020
2702 Clouds 9 1014 66 10000 5 290 14:55 18.02.2020
2703 Clouds 9 1014 66 10000 5 280 14:37 18.02.2020
2704 Rain 9 1014 66 10000 5 280 14:19 18.02.2020
2705 Rain 8 1014 70 10000 5 270 13:41 18.02.2020
2706 Clouds 8 1014 70 10000 5 270 13:41 18.02.2020
2707 Clouds 9 1014 70 10000 5 270 13:21 18.02.2020
2708 Clouds 8 1014 70 10000 4 240 12:50 18.02.2020
2709 Clouds 7 1014 75 10000 4 250 12:31 18.02.2020
2710 Clouds 7 1014 70 10000 4 250 11:59 18.02.2020
2711 Clouds 7 1014 70 10000 3 230 11:41 18.02.2020
2712 Clouds 7 1014 70 10000 3 230 11:23 18.02.2020
2713 Clouds 6 1015 75 10000 3 210 10:46 18.02.2020
2714 Clouds 6 1015 75 10000 4 230 10:25 18.02.2020
2715 Clouds 5 1015 80 10000 4 230 09:58 18.02.2020
2716 Clouds 5 1015 80 10000 4 230 09:58 18.02.2020
2717 Clouds 4 1016 86 10000 5 230 09:39 18.02.2020
2718 Clouds 4 1015 86 10000 4 220 09:20 18.02.2020
2719 Clouds 4 1015 86 10000 4 220 08:59 18.02.2020
2720 Clouds 3 1015 93 10000 4 210 08:40 18.02.2020
2721 Clouds 2 1015 93 10000 4 200 08:20 18.02.2020
2722 Clouds 2 1015 93 10000 4 200 07:55 18.02.2020
2723 Clouds 2 1015 93 10000 4 200 07:55 18.02.2020
2724 Clouds 2 1016 93 10000 3 230 07:29 18.02.2020
2725 Clouds 2 1016 93 10000 3 220 06:55 18.02.2020
2726 Clouds 2 1016 93 10000 2 220 06:32 18.02.2020
2727 Clouds 2 1016 93 10000 2 240 05:56 18.02.2020
2728 Clouds 2 1016 86 10000 2 230 05:23 18.02.2020
2729 Clouds 4 1016 80 10000 3 210 03:57 18.02.2020
2730 Clouds 5 1017 75 10000 3 210 02:58 18.02.2020
2731 Clouds 5 1017 75 10000 2 200 01:45 18.02.2020
2732 Clouds 6 1018 75 10000 2 230 00:44 18.02.2020
2733 Clouds 6 1018 75 10000 2 230 00:19 18.02.2020
2734 Clouds 6 1018 75 10000 3 220 23:44 17.02.2020
2735 Clouds 6 1018 75 10000 3 220 23:24 17.02.2020
2736 Clouds 6 1018 75 10000 3 210 22:58 17.02.2020
2737 Clouds 6 1018 75 10000 3 220 22:40 17.02.2020
2738 Clouds 6 1018 75 10000 3 220 22:20 17.02.2020
2739 Clouds 7 1019 75 10000 4 220 21:39 17.02.2020
2740 Clouds 7 1019 75 10000 4 220 21:39 17.02.2020
2741 Clouds 7 1019 70 10000 4 230 21:19 17.02.2020
2742 Clouds 7 1019 70 10000 4 230 20:57 17.02.2020
2743 Clouds 7 1019 75 10000 3 240 20:38 17.02.2020
2744 Clouds 7 1019 75 10000 3 240 20:20 17.02.2020
2745 Clouds 7 1019 75 10000 4 230 19:44 17.02.2020
2746 Clouds 7 1019 75 10000 5 220 19:22 17.02.2020
2747 Clouds 7 1019 75 10000 6 220 18:59 17.02.2020
2748 Clouds 7 1019 75 10000 5 220 18:37 17.02.2020
2749 Clouds 7 1019 75 10000 5 220 18:19 17.02.2020
2750 Clouds 7 1019 75 10000 5 220 17:54 17.02.2020
2751 Clouds 7 1019 75 10000 5 220 17:36 17.02.2020
2752 Clouds 7 1019 75 10000 5 220 17:18 17.02.2020
2753 Clouds 7 1019 75 10000 4 210 16:43 17.02.2020
2754 Clouds 7 1019 75 10000 4 210 16:22 17.02.2020
2755 Clouds 8 1019 65 10000 4 210 15:57 17.02.2020
2756 Clouds 8 1019 65 10000 5 210 15:39 17.02.2020
2757 Clouds 8 1019 65 10000 5 210 15:39 17.02.2020
2758 Clouds 8 1019 65 10000 5 210 15:21 17.02.2020
2759 Clouds 8 1020 65 10000 6 220 14:44 17.02.2020
2760 Clouds 8 1020 65 10000 6 220 14:25 17.02.2020
2761 Clouds 8 1019 61 10000 7 210 13:58 17.02.2020
2762 Clouds 8 1020 61 10000 7 230 13:39 17.02.2020
2763 Clouds 8 1020 61 10000 7 230 13:19 17.02.2020
2764 Clouds 8 1020 61 10000 7 210 12:47 17.02.2020
2765 Clouds 8 1020 65 10000 6 220 12:26 17.02.2020
2766 Clouds 7 1021 55 10000 7 220 11:59 17.02.2020
2767 Clouds 7 1021 55 10000 7 220 11:40 17.02.2020
2768 Clouds 7 1021 62 10000 7 220 11:21 17.02.2020
2769 Clouds 6 1021 62 10000 7 220 10:55 17.02.2020
2770 Clouds 5 1021 62 10000 7 210 10:37 17.02.2020
2771 Clouds 5 1021 62 10000 7 210 10:18 17.02.2020
2772 Clouds 5 1021 62 10000 7 210 10:18 17.02.2020
2773 Clouds 4 1021 69 10000 6 210 09:41 17.02.2020
2774 Clouds 4 1021 69 10000 6 210 09:21 17.02.2020
2775 Clouds 3 1021 74 10000 7 220 08:58 17.02.2020
2776 Clouds 3 1022 74 10000 6 210 08:40 17.02.2020
2777 Clouds 3 1022 74 10000 6 210 08:20 17.02.2020
2778 Clouds 2 1022 74 10000 5 200 07:45 17.02.2020
2779 Clouds 2 1022 74 10000 5 200 07:24 17.02.2020
2780 Clouds 2 1022 74 10000 5 200 06:52 17.02.2020
2781 Clouds 2 1022 69 10000 5 210 06:32 17.02.2020
2782 Clouds 2 1022 69 10000 5 210 05:56 17.02.2020
2783 Clouds 2 1022 74 10000 6 200 05:37 17.02.2020
2784 Clouds 2 1023 69 10000 5 200 03:21 17.02.2020
2785 Clouds 2 1024 74 10000 6 200 01:49 17.02.2020
2786 Clouds 2 1025 69 10000 6 210 00:44 17.02.2020
2787 Clouds 2 1025 69 10000 6 200 00:21 17.02.2020
2788 Clouds 2 1025 69 10000 5 200 23:53 16.02.2020
2789 Clouds 2 1025 74 10000 5 200 23:32 16.02.2020
2790 Clouds 2 1026 74 10000 5 200 22:58 16.02.2020
2791 Clouds 2 1026 74 10000 4 200 22:39 16.02.2020
2792 Clouds 2 1026 74 10000 4 200 22:21 16.02.2020
2793 Clouds 2 1026 74 10000 5 210 21:57 16.02.2020
2794 Clouds 2 1026 74 10000 5 210 21:57 16.02.2020
2795 Clouds 2 1026 74 10000 5 210 21:57 16.02.2020
2796 Clouds 3 1026 73 10000 4 210 21:39 16.02.2020
2797 Clouds 3 1026 73 10000 4 210 21:21 16.02.2020
2798 Clouds 3 1026 73 10000 4 210 20:57 16.02.2020
2799 Clouds 3 1027 73 10000 4 200 20:39 16.02.2020
2800 Clouds 3 1027 74 10000 4 200 20:20 16.02.2020
2801 Clouds 3 1027 74 10000 4 200 19:58 16.02.2020
2802 Clouds 3 1027 74 10000 4 200 19:38 16.02.2020
2803 Clouds 3 1027 74 10000 4 200 19:18 16.02.2020
2804 Clouds 3 1027 74 10000 4 200 18:42 16.02.2020
2805 Clouds 3 1027 74 10000 4 200 18:23 16.02.2020
2806 Clouds 4 1027 74 10000 5 210 17:55 16.02.2020
2807 Clouds 4 1027 74 10000 5 210 17:36 16.02.2020
2808 Clouds 4 1027 68 10000 5 210 17:18 16.02.2020
2809 Clouds 4 1027 68 10000 5 210 17:18 16.02.2020
2810 Clouds 4 1028 68 10000 5 210 16:54 16.02.2020
2811 Clouds 4 1028 68 10000 6 210 16:36 16.02.2020
2812 Clouds 4 1028 68 10000 6 210 16:18 16.02.2020
2813 Clouds 5 1028 68 10000 6 210 15:41 16.02.2020
2814 Clouds 5 1028 68 10000 6 210 15:21 16.02.2020
2815 Clouds 5 1029 68 10000 7 220 14:44 16.02.2020
2816 Clouds 5 1029 62 10000 7 220 14:23 16.02.2020
2817 Clouds 4 1029 62 10000 7 210 13:57 16.02.2020
2818 Clouds 4 1029 62 10000 6 210 13:38 16.02.2020
2819 Clouds 4 1030 62 10000 5 210 13:20 16.02.2020
2820 Clouds 4 1031 62 10000 6 220 12:39 16.02.2020
2821 Clouds 4 1031 62 10000 6 220 12:39 16.02.2020
2822 Clouds 4 1031 62 10000 6 220 12:19 16.02.2020
2823 Clouds 4 1031 62 10000 6 220 12:19 16.02.2020
2824 Clouds 4 1030 62 10000 5 210 11:40 16.02.2020
2825 Clouds 4 1030 66 10000 5 210 11:20 16.02.2020
2826 Clouds 5 1030 66 10000 4 210 10:58 16.02.2020
2827 Clouds 5 1030 66 10000 4 210 10:58 16.02.2020
2828 Clouds 4 1031 66 10000 4 220 10:40 16.02.2020
2829 Clouds 4 1031 66 10000 4 220 10:21 16.02.2020
2830 Clouds 4 1031 66 10000 4 220 10:21 16.02.2020
2831 Clouds 4 1031 66 10000 5 200 09:59 16.02.2020
2832 Clouds 4 1031 66 10000 4 200 09:38 16.02.2020
2833 Clouds 4 1031 66 10000 4 200 09:20 16.02.2020
2834 Clouds 3 1031 86 10000 3 220 08:50 16.02.2020
2835 Clouds 3 1031 86 10000 3 220 08:50 16.02.2020
2836 Mist 2 1032 100 4300 2 220 08:22 16.02.2020
2837 Mist 2 1032 100 4300 2 220 07:59 16.02.2020
2838 Mist 2 1032 100 4000 2 240 07:40 16.02.2020
2839 Mist 2 1031 100 5000 2 230 06:47 16.02.2020
2840 Mist 1 1031 100 5000 1 230 05:43 16.02.2020
2841 Clouds 1 1030 100 6000 2 210 04:35 16.02.2020
2842 Clouds 1 1030 100 7000 1 0 03:19 16.02.2020
2843 Clouds 2 1030 100 8000 1 240 01:57 16.02.2020
2844 Clouds 2 1030 100 9000 2 330 01:37 16.02.2020
2845 Clouds 2 1030 93 9000 2 300 01:19 16.02.2020
2846 Clouds 2 1030 100 9000 2 320 00:41 16.02.2020
2847 Clouds 2 1030 100 9000 2 320 00:21 16.02.2020
2848 Clouds 2 1029 93 10000 1.2 287 23:43 15.02.2020
2849 Clouds 2 1029 93 10000 1.75 290 23:24 15.02.2020
2850 Clouds 2 1029 100 10000 2 350 22:57 15.02.2020
2851 Clouds 2 1029 100 9000 2 360 22:39 15.02.2020
2852 Clouds 2 1029 100 9000 2 360 22:19 15.02.2020
2853 Clouds 2 1029 100 8000 3 300 21:43 15.02.2020
2854 Clouds 2 1029 100 8000 3 300 21:24 15.02.2020
2855 Clouds 3 1029 100 7000 2 330 20:56 15.02.2020
2856 Clouds 3 1029 93 9000 2 330 20:37 15.02.2020
2857 Clouds 3 1029 93 9000 2 330 20:19 15.02.2020
2858 Drizzle 3 1028 100 2700 2 340 19:41 15.02.2020
2859 Drizzle 3 1028 100 2700 2 340 19:22 15.02.2020
2860 Drizzle 3 1028 100 3500 3 330 18:41 15.02.2020
2861 Drizzle 3 1028 100 3500 3 330 18:21 15.02.2020
2862 Drizzle 3 1028 100 2500 2 310 17:56 15.02.2020
2863 Drizzle 3 1028 100 3000 3 300 17:37 15.02.2020
2864 Drizzle 3 1028 100 3000 3 300 17:19 15.02.2020
2865 Clouds 3 1027 86 8000 3 310 16:41 15.02.2020
2866 Rain 4 1027 86 8000 3 310 16:23 15.02.2020
2867 Rain 4 1026 86 9000 2 300 15:54 15.02.2020
2868 Rain 4 1026 86 10000 2 320 15:36 15.02.2020
2869 Rain 4 1026 86 10000 2 320 15:36 15.02.2020
2870 Clouds 4 1026 86 10000 3 320 15:18 15.02.2020
2871 Clouds 5 1026 86 10000 3 300 14:39 15.02.2020
2872 Clouds 5 1025 86 10000 3 260 14:18 15.02.2020
2873 Clouds 4 1025 86 10000 3 260 13:42 15.02.2020
2874 Clouds 4 1025 86 10000 3 270 13:23 15.02.2020
2875 Clouds 4 1025 86 10000 2 250 12:57 15.02.2020
2876 Clouds 4 1025 86 10000 3 260 12:38 15.02.2020
2877 Clouds 4 1025 86 10000 3 260 12:19 15.02.2020
2878 Clouds 4 1024 86 9000 2 260 11:46 15.02.2020
2879 Clouds 4 1024 86 8000 2 270 11:27 15.02.2020
2880 Clouds 4 1024 100 7000 2 270 10:49 15.02.2020
2881 Clouds 4 1024 93 7000 2 280 10:29 15.02.2020
2882 Clouds 3 1024 93 9000 3 290 09:56 15.02.2020
2883 Clouds 3 1023 93 9000 2 270 09:37 15.02.2020
2884 Clouds 3 1023 93 9000 2 230 09:19 15.02.2020
2885 Clouds 3 1023 93 9000 2 230 08:43 15.02.2020
2886 Clouds 3 1023 93 10000 2 250 08:23 15.02.2020
2887 Clouds 3 1022 93 10000 2 230 07:45 15.02.2020
2888 Clouds 3 1022 93 10000 2 230 07:27 15.02.2020
2889 Clouds 2 1021 93 10000 2 220 06:47 15.02.2020
2890 Clouds 2 1021 93 10000 2 220 06:28 15.02.2020
2891 Clouds 3 1021 93 10000 1 0 05:31 15.02.2020
2892 Clouds 3 1021 93 10000 2 180 04:45 15.02.2020
2893 Clouds 3 1020 93 10000 2 150 03:23 15.02.2020
2894 Clouds 3 1019 86 10000 2 140 02:42 15.02.2020
2895 Clouds 3 1019 86 10000 2 140 02:19 15.02.2020
2896 Clouds 3 1020 93 10000 2 130 01:38 15.02.2020
2897 Rain 3 1019 86 10000 1 0 00:38 15.02.2020
2898 Rain 3 1019 86 10000 2 130 00:18 15.02.2020
2899 Rain 3 1019 93 10000 3 140 23:39 14.02.2020
2900 Rain 3 1019 93 10000 3 140 23:18 14.02.2020
2901 Rain 4 1019 80 10000 3 150 22:43 14.02.2020
2902 Rain 4 1019 80 10000 3 150 22:23 14.02.2020
2903 Clouds 4 1019 80 10000 2 150 21:51 14.02.2020
2904 Clouds 4 1019 80 10000 2 150 21:51 14.02.2020
2905 Clouds 4 1019 80 10000 3 150 21:33 14.02.2020
2906 Clouds 4 1019 83 10000 3 130 20:58 14.02.2020
2907 Clouds 4 1019 83 10000 3 130 20:39 14.02.2020
2908 Clouds 4 1019 69 10000 3 130 20:19 14.02.2020
2909 Clouds 3 1019 69 10000 4 130 19:42 14.02.2020
2910 Clouds 4 1019 69 10000 4 130 19:24 14.02.2020
2911 Clouds 4 1019 69 10000 4 130 18:59 14.02.2020
2912 Clouds 4 1019 64 10000 4 130 18:40 14.02.2020
2913 Clouds 4 1019 64 10000 4 130 18:21 14.02.2020
2914 Clouds 4 1019 64 10000 3 130 17:56 14.02.2020
2915 Clouds 4 1019 64 10000 3 140 17:38 14.02.2020
2916 Clouds 4 1019 60 10000 3 140 17:18 14.02.2020
2917 Clouds 4 1019 56 10000 2 140 16:42 14.02.2020
2918 Clouds 4 1019 56 10000 2 140 16:42 14.02.2020
2919 Clouds 4 1019 56 10000 2 140 16:23 14.02.2020
2920 Clouds 5 1019 56 10000 2 140 15:57 14.02.2020
2921 Clouds 5 1019 56 10000 2 160 15:39 14.02.2020
2922 Clouds 5 1019 56 10000 2 160 15:20 14.02.2020
2923 Clouds 5 1019 56 10000 3 160 14:59 14.02.2020
2924 Clouds 6 1019 52 10000 3 170 14:41 14.02.2020
2925 Clouds 6 1019 52 10000 3 170 14:22 14.02.2020
2926 Clouds 6 1019 48 10000 4 180 13:56 14.02.2020
2927 Clouds 6 1018 52 10000 5 200 13:38 14.02.2020
2928 Clouds 6 1018 52 10000 5 200 13:19 14.02.2020
2929 Clouds 6 1018 48 10000 3 190 12:56 14.02.2020
2930 Clouds 6 1019 56 10000 4 170 12:38 14.02.2020
2931 Clouds 6 1019 56 10000 4 170 12:19 14.02.2020
2932 Clouds 5 1019 55 10000 3 180 11:55 14.02.2020
2933 Clouds 5 1019 52 10000 4 190 11:36 14.02.2020
2934 Clouds 5 1019 52 10000 4 190 11:18 14.02.2020
2935 Clouds 5 1019 52 10000 4 190 10:41 14.02.2020
2936 Clouds 5 1019 52 10000 4 190 10:22 14.02.2020
2937 Clouds 4 1019 52 10000 4 170 09:45 14.02.2020
2938 Clouds 4 1020 60 10000 3 170 09:24 14.02.2020
2939 Clouds 3 1020 64 10000 3 170 08:57 14.02.2020
2940 Clouds 2 1020 74 10000 1 0 08:39 14.02.2020
2941 Clouds 2 1020 74 10000 1 0 08:20 14.02.2020
2942 Clouds 1 1019 80 10000 1 0 07:49 14.02.2020
2943 Clouds -1 1019 86 10000 2.39 201 07:29 14.02.2020
2944 Clouds -1 1019 86 10000 3 210 06:39 14.02.2020
2945 Clouds -1 1019 86 10000 2 210 06:18 14.02.2020
2946 Clouds -1 1019 86 10000 2 220 05:28 14.02.2020
2947 Clouds 1 1019 80 10000 2 230 03:48 14.02.2020
2948 Clouds 1 1019 83 10000 2 250 02:56 14.02.2020
2949 Clouds 1 1019 83 10000 2 250 02:56 14.02.2020
2950 Clouds 1 1019 83 10000 2 230 01:57 14.02.2020
2951 Clouds 1 1018 82 10000 2 230 00:45 14.02.2020
2952 Clouds 1 1018 82 10000 2 230 00:27 14.02.2020
2953 Clouds 1 1018 74 10000 2 250 23:57 13.02.2020
2954 Clouds 2 1018 80 10000 3 250 23:38 13.02.2020
2955 Clouds 2 1018 80 10000 3 250 23:18 13.02.2020
2956 Clouds 2 1017 74 10000 3 250 22:40 13.02.2020
2957 Clouds 2 1017 74 10000 3 250 22:19 13.02.2020
2958 Clouds 2 1017 74 10000 4 260 21:57 13.02.2020
2959 Clouds 2 1017 69 10000 3 260 21:37 13.02.2020
2960 Clouds 2 1017 69 10000 3 260 21:19 13.02.2020
2961 Clouds 2 1017 69 10000 3 260 20:42 13.02.2020
2962 Clouds 2 1017 69 10000 3 260 20:22 13.02.2020
2963 Clouds 2 1017 69 10000 4 280 19:57 13.02.2020
2964 Clouds 2 1016 69 10000 5 280 19:38 13.02.2020
2965 Clouds 2 1016 69 10000 5 280 19:20 13.02.2020
2966 Clouds 3 1016 74 10000 5 260 18:57 13.02.2020
2967 Clouds 3 1016 79 10000 4 260 18:39 13.02.2020
2968 Clouds 3 1016 79 10000 4 260 18:20 13.02.2020
2969 Clouds 2 1016 79 10000 3 250 17:57 13.02.2020
2970 Clouds 3 1016 79 10000 4 260 17:37 13.02.2020
2971 Clouds 3 1016 86 10000 4 260 17:18 13.02.2020
2972 Clouds 3 1015 86 10000 5 260 16:42 13.02.2020
2973 Clouds 3 1015 86 10000 5 260 16:20 13.02.2020
2974 Clouds 3 1015 86 10000 6 270 15:57 13.02.2020
2975 Clouds 3 1014 86 10000 7 280 15:39 13.02.2020
2976 Clouds 3 1014 86 10000 7 280 15:19 13.02.2020
2977 Clouds 3 1014 86 10000 7 280 14:58 13.02.2020
2978 Clouds 3 1014 86 10000 6 280 14:39 13.02.2020
2979 Clouds 3 1014 86 10000 6 280 14:21 13.02.2020
2980 Clouds 3 1013 86 10000 6 280 13:48 13.02.2020
2981 Clouds 3 1013 86 10000 6 280 13:48 13.02.2020
2982 Clouds 2 1013 93 10000 7 290 13:19 13.02.2020
2983 Clouds 2 1012 93 10000 6 290 12:57 13.02.2020
2984 Clouds 2 1012 93 10000 6 290 12:38 13.02.2020
2985 Clouds 2 1012 93 10000 6 290 12:20 13.02.2020
2986 Clouds 2 1012 93 10000 6 280 11:47 13.02.2020
2987 Rain 1 1012 100 10000 6 270 11:21 13.02.2020
2988 Rain 2 1012 100 10000 6 270 10:57 13.02.2020
2989 Rain 1 1011 94 3300 5 260 10:39 13.02.2020
2990 Rain 1 1011 94 7000 6 260 10:20 13.02.2020
2991 Snow 1 1011 94 9000 6 260 09:42 13.02.2020
2992 Snow 1 1011 94 9000 6 260 09:23 13.02.2020
2993 Rain 1 1011 94 9000 6 260 08:46 13.02.2020
2994 Snow 1 1011 85 1000 6 270 08:19 13.02.2020
2995 Snow 1 1011 85 1000 6 270 08:19 13.02.2020
2996 Snow 1 1011 85 8000 4 250 08:19 13.02.2020
2997 Snow 1 1011 86 9000 5 260 07:43 13.02.2020
2998 Snow 1 1011 86 9000 5 260 07:22 13.02.2020
2999 Snow 1 1010 86 10000 6 270 06:53 13.02.2020
3000 Clouds 1 1010 86 10000 5 270 06:33 13.02.2020
3001 Clouds 1 1010 86 10000 5 270 05:50 13.02.2020
3002 Clouds 1 1009 86 10000 5 270 04:45 13.02.2020
3003 Clouds 1 1009 86 10000 5 270 04:18 13.02.2020
3004 Snow 1 1008 86 10000 3 270 03:30 13.02.2020
3005 Snow 1 1008 86 10000 5 280 02:56 13.02.2020
3006 Snow 1 1008 86 10000 5 280 02:20 13.02.2020
3007 Clouds 1 1008 86 10000 6 270 01:41 13.02.2020
3008 Clouds 2 1008 86 10000 6 270 00:57 13.02.2020
3009 Snow 2 1008 80 10000 5 280 00:27 13.02.2020
3010 Clouds 1 1008 86 10000 5 270 23:43 12.02.2020
3011 Clouds 1 1007 86 10000 5 270 23:23 12.02.2020
3012 Clouds 2 1007 80 10000 5 270 22:57 12.02.2020
3013 Clouds 2 1007 80 10000 6 280 22:39 12.02.2020
3014 Clouds 2 1007 80 10000 6 280 22:21 12.02.2020
3015 Clouds 2 1006 74 10000 5 280 21:55 12.02.2020
3016 Clouds 2 1006 74 10000 6 270 21:37 12.02.2020
3017 Clouds 2 1006 74 10000 6 270 21:18 12.02.2020
3018 Clouds 2 1006 74 10000 8 280 20:43 12.02.2020
3019 Clouds 2 1006 74 10000 8 280 20:25 12.02.2020
3020 Clouds 2 1006 74 10000 7 270 19:57 12.02.2020
3021 Clouds 2 1005 80 10000 5 270 19:39 12.02.2020
3022 Clouds 3 1005 80 10000 5 270 19:21 12.02.2020
3023 Clouds 3 1005 74 10000 6 270 18:50 12.02.2020
3024 Clouds 2 1005 74 10000 6 270 18:20 12.02.2020
3025 Clouds 2 1005 74 10000 6 270 17:58 12.02.2020
3026 Clouds 2 1005 74 10000 6 270 17:38 12.02.2020
3027 Clouds 2 1005 92 10000 6 270 17:19 12.02.2020
3028 Snow 3 1004 85 10000 6 270 16:55 12.02.2020
3029 Clouds 3 1004 92 10000 7 270 16:36 12.02.2020
3030 Clouds 3 1004 85 10000 7 270 16:18 12.02.2020
3031 Clouds 3 1003 93 10000 5 270 15:37 12.02.2020
3032 Clouds 3 1003 93 10000 5 270 15:18 12.02.2020
3033 Clouds 3 1002 92 10000 6 280 14:42 12.02.2020
3034 Rain 3 1002 78 10000 6 280 14:21 12.02.2020
3035 Rain 3 1002 78 9000 4 290 13:58 12.02.2020
3036 Rain 3 1002 81 7000 6 280 13:40 12.02.2020
3037 Snow 3 1002 78 7000 6 280 13:21 12.02.2020
3038 Clouds 4 1002 78 10000 6 290 12:58 12.02.2020
3039 Clouds 4 1002 78 10000 7 290 12:39 12.02.2020
3040 Clouds 4 1002 78 10000 7 290 12:39 12.02.2020
3041 Clouds 4 1002 78 10000 7 290 12:19 12.02.2020
3042 Clouds 4 1001 78 10000 6 290 11:58 12.02.2020
3043 Clouds 4 1001 78 10000 6 290 11:58 12.02.2020
3044 Clouds 4 1001 78 10000 5 290 11:40 12.02.2020
3045 Clouds 4 1001 86 10000 5 290 11:20 12.02.2020
3046 Clouds 4 1001 86 10000 7 290 10:56 12.02.2020
3047 Clouds 3 1001 86 10000 6 290 10:38 12.02.2020
3048 Clouds 3 1001 86 10000 6 290 10:20 12.02.2020
3049 Clouds 3 1000 86 10000 6 290 09:42 12.02.2020
3050 Clouds 3 1000 86 10000 6 290 09:24 12.02.2020
3051 Clouds 3 1000 86 10000 6 290 09:24 12.02.2020
3052 Clouds 3 1000 86 10000 6 280 08:58 12.02.2020
3053 Clouds 2 1000 86 10000 6 280 08:38 12.02.2020
3054 Clouds 2 1000 93 10000 5 280 08:20 12.02.2020
3055 Clouds 2 1000 93 10000 5 280 08:20 12.02.2020
3056 Clouds 2 1000 88 10000 6 280 08:20 12.02.2020
3057 Clouds 2 1000 88 10000 4 280 07:45 12.02.2020
3058 Clouds 2 1000 93 10000 5 280 07:45 12.02.2020
3059 Clouds 2 1000 88 10000 4 280 07:24 12.02.2020
3060 Clouds 2 1000 88 10000 4 270 06:59 12.02.2020
3061 Clouds 2 1000 88 10000 4 270 06:59 12.02.2020
3062 Clouds 2 999 88 10000 5 280 06:24 12.02.2020
3063 Clouds 1 999 88 10000 5 270 05:44 12.02.2020
3064 Clouds 1 998 84 10000 5 270 05:21 12.02.2020
3065 Clouds 1 998 86 10000 4 280 04:40 12.02.2020
3066 Clouds 1 998 84 10000 5 300 03:42 12.02.2020
3067 Clouds 2 998 84 10000 5 300 03:23 12.02.2020
3068 Clouds 2 997 93 10000 5 290 02:31 12.02.2020
3069 Clouds 2 997 93 10000 5 300 01:59 12.02.2020
3070 Clouds 2 997 93 10000 6 290 00:58 12.02.2020
3071 Clouds 2 997 93 10000 5 280 00:39 12.02.2020
3072 Clouds 2 997 93 10000 5 280 00:21 12.02.2020
3073 Clouds 2 996 93 10000 5 290 23:42 11.02.2020
3074 Clouds 2 996 93 10000 5 290 23:24 11.02.2020
3075 Clouds 2 996 93 10000 5 290 22:56 11.02.2020
3076 Clouds 2 996 93 10000 5 270 22:38 11.02.2020
3077 Clouds 2 995 93 10000 4 260 22:19 11.02.2020
3078 Clouds 2 995 93 10000 4 260 21:56 11.02.2020
3079 Clouds 2 995 93 10000 4 250 21:37 11.02.2020
3080 Clouds 2 995 93 10000 3 230 21:18 11.02.2020
3081 Clouds 2 995 93 10000 4 250 21:18 11.02.2020
3082 Clouds 2 995 93 10000 3 230 20:55 11.02.2020
3083 Clouds 2 995 93 10000 4 230 20:37 11.02.2020
3084 Clouds 2 995 93 10000 3 210 20:18 11.02.2020
3085 Rain 2 995 93 10000 4 240 19:42 11.02.2020
3086 Rain 2 995 93 10000 4 240 19:24 11.02.2020
3087 Rain 1 995 100 9000 4 220 18:57 11.02.2020
3088 Rain 1 995 100 9000 4 220 18:57 11.02.2020
3089 Rain 1 995 100 9000 4 210 18:39 11.02.2020
3090 Rain 1 995 100 9000 4 210 18:20 11.02.2020
3091 Rain 2 996 93 9000 3 200 17:55 11.02.2020
3092 Rain 2 995 93 9000 4 200 17:36 11.02.2020
3093 Rain 2 995 93 9000 4 200 17:18 11.02.2020
3094 Rain 2 995 86 9000 5 210 16:56 11.02.2020
3095 Rain 3 995 86 9000 4 220 16:37 11.02.2020
3096 Rain 3 995 86 9000 4 220 16:19 11.02.2020
3097 Rain 4 995 75 10000 6 210 15:44 11.02.2020
3098 Clouds 5 995 65 10000 5 210 15:26 11.02.2020
3099 Clouds 5 995 75 10000 4 220 14:56 11.02.2020
3100 Clouds 6 995 75 10000 5 220 14:36 11.02.2020
3101 Clouds 6 995 71 10000 4 210 14:18 11.02.2020
3102 Clouds 6 996 60 10000 5 220 13:41 11.02.2020
3103 Clouds 6 996 60 10000 5 220 13:21 11.02.2020
3104 -273 0 0 0 0 0 13:21 11.02.2020
3105 Clouds 7 996 56 10000 6 260 12:58 11.02.2020
3106 Clouds 7 997 56 10000 5 240 12:40 11.02.2020
3107 Clouds 7 997 56 10000 5 240 12:20 11.02.2020
3108 Clouds 7 997 71 10000 5 240 11:55 11.02.2020
3109 Clouds 7 997 71 10000 6 250 11:36 11.02.2020
3110 Clouds 7 997 79 10000 6 250 11:18 11.02.2020
3111 Clouds 6 997 79 10000 6 260 10:39 11.02.2020
3112 Clouds 6 997 79 10000 6 260 10:20 11.02.2020
3113 Clouds 5 996 75 10000 6 250 09:56 11.02.2020
3114 Clouds 5 996 75 10000 5 240 09:38 11.02.2020
3115 Clouds 5 996 75 10000 5 240 09:20 11.02.2020
3116 Clouds 5 997 75 10000 5 250 08:46 11.02.2020
3117 Clouds 4 996 80 10000 5 250 08:24 11.02.2020
3118 Clouds 4 996 80 10000 6 260 07:48 11.02.2020
3119 Clouds 3 996 86 10000 6 260 07:27 11.02.2020
3120 Clouds 3 996 86 10000 6 260 06:45 11.02.2020
3121 Clouds 3 996 86 10000 6 260 06:23 11.02.2020
3122 Clouds 3 996 86 10000 6 250 05:58 11.02.2020
3123 Clouds 3 995 86 10000 5 230 05:26 11.02.2020
3124 Clouds 4 995 86 10000 7 250 04:52 11.02.2020
3125 Clouds 3 995 93 10000 5 230 03:26 11.02.2020
3126 Rain 3 995 93 9000 5 230 02:33 11.02.2020
3127 Clouds 2 996 100 10000 6 210 01:39 11.02.2020
3128 Clouds 2 996 100 10000 5 210 00:43 11.02.2020
3129 Clouds 2 996 100 9000 5 210 00:22 11.02.2020
3130 Rain 2 997 93 10000 6 200 23:39 10.02.2020
3131 Rain 2 997 93 10000 6 200 23:20 10.02.2020
3132 Rain 2 997 93 7000 6 190 22:42 10.02.2020
3133 Rain 2 997 93 7000 6 190 22:21 10.02.2020
3134 Clouds 1 998 93 9000 6 200 21:57 10.02.2020
3135 Clouds 1 998 93 9000 6 200 21:57 10.02.2020
3136 Rain 2 998 93 7000 7 200 21:39 10.02.2020
3137 Rain 1 998 93 7000 7 200 21:39 10.02.2020
3138 Rain 2 999 93 6000 6 210 21:20 10.02.2020
3139 Rain 2 999 93 6000 6 210 20:54 10.02.2020
3140 Rain 2 1000 93 9000 7 210 20:36 10.02.2020
3141 Rain 2 1000 93 9000 7 210 20:18 10.02.2020
3142 Rain 2 1000 86 10000 6 210 19:54 10.02.2020
3143 Rain 3 1001 86 10000 6 210 19:36 10.02.2020
3144 Rain 3 1001 89 10000 7 200 19:18 10.02.2020
3145 Rain 3 1001 89 10000 6 200 18:41 10.02.2020
3146 Rain 4 1001 89 10000 6 200 18:21 10.02.2020
3147 Rain 4 1001 89 10000 6 200 17:59 10.02.2020
3148 Rain 4 1002 89 10000 8 200 17:39 10.02.2020
3149 Rain 4 1002 89 10000 8 200 17:39 10.02.2020
3150 Rain 4 1002 74 10000 8 200 17:20 10.02.2020
3151 Rain 4 1002 69 10000 7 200 16:59 10.02.2020
3152 Rain 4 1002 69 10000 7 200 16:40 10.02.2020
3153 Rain 4 1002 69 10000 7 200 16:20 10.02.2020
3154 Rain 4 1002 69 10000 7 200 16:20 10.02.2020
3155 Rain 4 1002 69 10000 6 190 15:56 10.02.2020
3156 Rain 4 1004 69 10000 7 190 15:38 10.02.2020
3157 Rain 4 1004 69 10000 7 190 15:20 10.02.2020
3158 Rain 4 1004 64 10000 6 200 14:56 10.02.2020
3159 Rain 4 1005 64 10000 6 200 14:37 10.02.2020
3160 Clouds 4 1006 64 10000 8 200 14:18 10.02.2020
3161 Clouds 4 1007 60 10000 8 200 13:43 10.02.2020
3162 Rain 4 1007 60 10000 8 200 13:24 10.02.2020
3163 Rain 4 1007 60 10000 7 200 12:56 10.02.2020
3164 Rain 4 1007 60 10000 8 200 12:37 10.02.2020
3165 Rain 4 1007 60 10000 8 200 12:19 10.02.2020
3166 Clouds 3 1009 59 10000 7 200 11:45 10.02.2020
3167 Clear 3 1009 59 10000 7 200 11:20 10.02.2020
3168 Clear 2 1010 59 10000 8 200 10:48 10.02.2020
3169 Clear 2 1011 59 10000 8 200 10:29 10.02.2020
3170 Clear 1 1011 63 10000 8 200 09:48 10.02.2020
3171 Clear 0 1011 63 10000 8 200 09:27 10.02.2020
3172 Clear 0 1012 63 10000 8 200 08:59 10.02.2020
3173 Clear -1 1013 63 10000 6 200 08:38 10.02.2020
3174 Clouds -1 1013 63 10000 6 200 08:20 10.02.2020
3175 Clouds -2 1013 68 10000 6 190 07:52 10.02.2020
3176 Clouds -3 1014 73 10000 6 180 07:32 10.02.2020
3177 Clouds -4 1016 68 10000 6 190 06:44 10.02.2020
3178 Clouds -4 1018 79 10000 7 200 04:51 10.02.2020
3179 Clouds -4 1019 79 10000 5 200 03:53 10.02.2020
3180 Clouds -3 1020 73 10000 6 180 02:57 10.02.2020
3181 Clouds -3 1021 73 10000 4 190 02:36 10.02.2020
3182 Clouds -3 1022 73 10000 5 200 00:56 10.02.2020
3183 Clouds -3 1023 73 10000 5 200 00:37 10.02.2020
3184 Clouds -3 1024 73 10000 3 200 23:59 09.02.2020
3185 Clouds -3 1024 73 10000 4 210 23:41 09.02.2020
3186 Clear -3 1024 73 10000 4 210 23:23 09.02.2020
3187 Clear -3 1024 73 10000 5 180 22:43 09.02.2020
3188 Clear -3 1024 73 10000 5 180 22:21 09.02.2020
3189 Clear -2 1025 74 10000 4 200 21:54 09.02.2020
3190 Clear -2 1025 74 10000 4 200 21:36 09.02.2020
3191 Clear -2 1025 74 10000 4 200 21:18 09.02.2020
3192 Clear -2 1026 79 10000 4 190 20:43 09.02.2020
3193 Clear -2 1026 79 10000 4 190 20:20 09.02.2020
3194 Clear -2 1026 79 10000 4 190 19:54 09.02.2020
3195 Clear -2 1026 79 10000 4 190 19:36 09.02.2020
3196 Clear -2 1026 74 10000 4 180 19:18 09.02.2020
3197 Clear -2 1026 74 10000 3 190 18:41 09.02.2020
3198 Clear -2 1026 74 10000 3 190 18:23 09.02.2020
3199 Clear -1 1027 74 10000 3 200 17:43 09.02.2020
3200 Clear -1 1027 74 10000 3 200 17:23 09.02.2020
3201 Clear 0 1027 82 10000 3 210 16:57 09.02.2020
3202 Clouds 0 1027 82 10000 3 210 16:39 09.02.2020
3203 Clouds 0 1027 82 10000 3 210 16:20 09.02.2020
3204 Clouds 1 1027 69 10000 3 210 15:56 09.02.2020
3205 Clouds 1 1028 69 10000 3 220 15:38 09.02.2020
3206 Clouds 1 1028 69 10000 3 220 15:20 09.02.2020
3207 Clouds 2 1028 59 10000 3 230 14:42 09.02.2020
3208 Clouds 2 1028 59 10000 3 230 14:23 09.02.2020
3209 Clouds 2 1028 59 10000 3 230 13:55 09.02.2020
3210 Clouds 2 1028 59 10000 3 230 13:36 09.02.2020
3211 Clouds 2 1028 59 10000 3 230 13:18 09.02.2020
3212 Clouds 2 1028 64 10000 3 230 12:42 09.02.2020
3213 Clouds 2 1028 64 10000 3 230 12:20 09.02.2020
3214 Clouds 2 1028 64 10000 3 230 12:20 09.02.2020
3215 Clouds 2 1028 64 10000 3 230 11:57 09.02.2020
3216 Clouds 1 1028 64 10000 2 200 11:38 09.02.2020
3217 Clouds 1 1028 64 10000 2 200 11:18 09.02.2020
3218 Clouds 1 1028 64 10000 2 200 11:18 09.02.2020
3219 Clouds 0 1028 78 10000 3 240 10:42 09.02.2020
3220 Clouds 0 1028 78 10000 3 240 10:23 09.02.2020
3221 Clouds 0 1028 68 10000 3 220 09:56 09.02.2020
3222 Clouds 0 1028 74 10000 2 240 09:37 09.02.2020
3223 Clouds -1 1028 74 10000 2 240 09:18 09.02.2020
3224 Clouds -2 1027 79 10000 2 240 08:39 09.02.2020
3225 Clouds -2 1027 79 10000 2 240 08:20 09.02.2020
3226 Clouds -2 1027 74 10000 1 240 07:49 09.02.2020
3227 Clouds -2 1027 79 10000 1 0 06:59 09.02.2020
3228 Clouds -2 1027 86 10000 2 250 06:36 09.02.2020
3229 Clouds -2 1027 79 10000 1 240 05:52 09.02.2020
3230 Clouds -2 1026 74 10000 2 260 05:32 09.02.2020
3231 Clouds -2 1026 74 10000 2 260 04:23 09.02.2020
3232 Clouds -2 1026 74 10000 2 230 02:49 09.02.2020
3233 Clouds -2 1026 74 10000 2 230 02:30 09.02.2020
3234 Clouds -2 1026 74 10000 2 250 01:36 09.02.2020
3235 Clouds -2 1026 74 10000 1 270 00:55 09.02.2020
3236 Clouds -3 1026 73 10000 1 280 00:29 09.02.2020
3237 Clouds -2 1025 68 10000 1 280 23:48 08.02.2020
3238 Clouds -2 1026 74 10000 2 270 23:24 08.02.2020
3239 Clouds -2 1026 74 10000 2 280 22:56 08.02.2020
3240 Snow -2 1025 68 10000 2 280 22:38 08.02.2020
3241 Snow -2 1025 68 10000 2 280 22:20 08.02.2020
3242 Snow -2 1025 68 10000 3 260 21:44 08.02.2020
3243 Snow -2 1025 68 10000 3 260 21:25 08.02.2020
3244 Clouds -2 1025 68 10000 2 250 20:59 08.02.2020
3245 Clouds -3 1025 79 10000 2 260 20:39 08.02.2020
3246 Clouds -3 1025 79 10000 2 260 20:19 08.02.2020
3247 Snow -3 1025 79 10000 3 270 19:56 08.02.2020
3248 Snow -3 1025 79 10000 3 270 19:56 08.02.2020
3249 Snow -3 1025 79 10000 3 280 19:38 08.02.2020
3250 Snow -3 1025 79 10000 3 280 19:19 08.02.2020
3251 Clouds -2 1025 68 10000 4 270 18:44 08.02.2020
3252 Clouds -2 1025 68 10000 4 270 18:25 08.02.2020
3253 Clouds -2 1025 68 10000 3 270 17:59 08.02.2020
3254 Clouds -2 1025 68 10000 3 270 17:40 08.02.2020
3255 Clouds -2 1025 68 10000 3 270 17:18 08.02.2020
3256 Snow -2 1025 68 8000 4 270 16:40 08.02.2020
3257 Snow -2 1025 68 8000 4 270 16:22 08.02.2020
3258 Snow -2 1025 68 9000 5 280 15:57 08.02.2020
3259 Snow -2 1025 68 10000 4 280 15:39 08.02.2020
3260 Snow -2 1025 68 10000 4 280 15:18 08.02.2020
3261 Snow -2 1025 63 10000 5 290 14:43 08.02.2020
3262 Snow -2 1025 63 10000 5 300 14:20 08.02.2020
3263 Clouds -2 1025 63 10000 4 310 13:55 08.02.2020
3264 Clouds -2 1025 63 10000 5 300 13:37 08.02.2020
3265 Clouds -1 1025 63 10000 5 300 13:18 08.02.2020
3266 Clouds -1 1025 58 10000 5 300 12:39 08.02.2020
3267 Clouds -1 1025 58 10000 5 300 12:20 08.02.2020
3268 Clouds -2 1025 58 10000 3 310 11:48 08.02.2020
3269 Clouds -3 1025 58 10000 5 320 11:22 08.02.2020
3270 Clouds -3 1026 58 10000 4 320 10:59 08.02.2020
3271 Clouds -4 1026 58 10000 3 320 10:40 08.02.2020
3272 Clouds -5 1026 67 10000 4 320 10:20 08.02.2020
3273 Clouds -5 1026 62 10000 5 320 09:51 08.02.2020
3274 Clouds -5 1026 62 10000 5 320 09:26 08.02.2020
3275 Clouds -6 1026 73 10000 5 320 08:48 08.02.2020
3276 Clouds -7 1026 67 10000 4 320 08:29 08.02.2020
3277 Clouds -7 1026 72 10000 5 320 07:54 08.02.2020
3278 Clouds -8 1025 72 10000 5 320 07:35 08.02.2020
3279 Clouds -9 1025 72 10000 4 330 06:55 08.02.2020
3280 Clouds -8 1025 72 10000 4 320 06:23 08.02.2020
3281 Clouds -8 1024 72 10000 4 320 05:37 08.02.2020
3282 Clouds -9 1024 72 10000 4 320 05:18 08.02.2020
3283 Clouds -9 1024 72 10000 4 330 04:26 08.02.2020
3284 Clouds -9 1023 72 10000 4 330 03:39 08.02.2020
3285 Clouds -8 1023 67 10000 4 340 02:29 08.02.2020
3286 Clouds -7 1023 62 10000 4 340 01:35 08.02.2020
3287 Clouds -7 1023 62 10000 4 340 00:57 08.02.2020
3288 Clouds -7 1022 62 10000 5 350 00:25 08.02.2020
3289 Clouds -7 1022 62 10000 5 350 23:59 07.02.2020
3290 Clouds -6 1022 57 10000 6 350 23:39 07.02.2020
3291 Clouds -6 1022 57 10000 6 350 23:20 07.02.2020
3292 Clouds -6 1022 57 10000 6 350 22:55 07.02.2020
3293 Clouds -6 1022 57 10000 6 350 22:37 07.02.2020
3294 Clouds -6 1021 57 10000 6 350 22:18 07.02.2020
3295 Clouds -6 1021 57 10000 6 350 21:41 07.02.2020
3296 Clouds -6 1021 57 10000 7 350 21:21 07.02.2020
3297 Clouds -6 1021 53 10000 7 360 20:40 07.02.2020
3298 Clouds -5 1021 53 10000 7 360 20:21 07.02.2020
3299 Clouds -5 1020 53 10000 8 350 19:56 07.02.2020
3300 Clouds -5 1020 53 10000 8 350 19:37 07.02.2020
3301 Clouds -5 1020 53 10000 8 350 19:37 07.02.2020
3302 Clouds -5 1020 53 10000 8 350 19:18 07.02.2020
3303 Clouds -5 1019 53 10000 7 350 18:45 07.02.2020
3304 Clouds -5 1019 53 10000 7 350 18:25 07.02.2020
3305 Clouds -5 1019 57 10000 7 340 17:55 07.02.2020
3306 Clouds -5 1018 53 10000 6 350 17:37 07.02.2020
3307 Clouds -5 1018 53 10000 6 350 17:19 07.02.2020
3308 Clouds -5 1017 57 10000 6 350 16:46 07.02.2020
3309 Clouds -5 1017 57 10000 6 350 16:23 07.02.2020
3310 Clouds -4 1017 62 10000 6 10 15:55 07.02.2020
3311 Snow -4 1016 58 10000 8 360 15:29 07.02.2020
3312 Snow -4 1016 58 9000 7 350 14:57 07.02.2020
3313 Clouds -4 1016 58 10000 8 340 14:38 07.02.2020
3314 Snow -4 1016 73 8000 6 350 14:19 07.02.2020
3315 Snow -4 1016 73 8000 6 350 13:56 07.02.2020
3316 Snow -4 1016 67 9000 6 350 13:38 07.02.2020
3317 Snow -4 1016 67 9000 6 350 13:19 07.02.2020
3318 Snow -5 1015 79 4300 7 340 12:42 07.02.2020
3319 Snow -5 1015 79 4300 7 340 12:42 07.02.2020
3320 Snow -5 1015 79 4300 7 340 12:23 07.02.2020
3321 Snow -5 1015 79 4300 7 340 12:23 07.02.2020
3322 Snow -5 1015 73 5000 6 350 11:45 07.02.2020
3323 Snow -5 1015 73 1100 7 350 11:24 07.02.2020
3324 Snow -4 1015 67 4400 8 350 10:58 07.02.2020
3325 Clouds -5 1015 62 10000 6 340 10:39 07.02.2020
3326 Clouds -5 1015 62 10000 6 340 10:19 07.02.2020
3327 Clouds -5 1014 67 10000 6 340 09:41 07.02.2020
3328 Clouds -5 1014 67 10000 6 340 09:23 07.02.2020
3329 Clouds -6 1014 62 10000 6 330 08:50 07.02.2020
3330 Clouds -6 1014 67 10000 5 340 08:24 07.02.2020
3331 Clear -7 1014 62 10000 6 330 07:55 07.02.2020
3332 Clear -7 1014 62 10000 6 320 07:37 07.02.2020
3333 Clear -7 1014 62 10000 6 320 07:18 07.02.2020
3334 Clear -7 1013 62 10000 5 320 06:42 07.02.2020
3335 Clear -7 1013 62 10000 5 320 06:21 07.02.2020
3336 Clear -7 1013 62 10000 5 330 05:39 07.02.2020
3337 Clear -6 1013 57 10000 5 350 03:54 07.02.2020
3338 Clouds -5 1012 57 10000 6 350 02:23 07.02.2020
3339 Clouds -5 1011 57 10000 7 10 01:21 07.02.2020
3340 Snow -4 1010 58 10000 8 360 00:29 07.02.2020
3341 Snow -2 1009 86 6000 9 10 23:39 06.02.2020
3342 Snow -2 1009 86 6000 9 10 23:20 06.02.2020
3343 Snow 0 1008 75 7000 6 360 22:56 06.02.2020
3344 Snow 0 1008 75 7000 6 350 22:38 06.02.2020
3345 Snow 0 1008 75 7000 6 350 22:19 06.02.2020
3346 Clouds 1 1007 86 10000 6 310 21:37 06.02.2020
3347 Clouds 1 1007 86 10000 6 310 21:19 06.02.2020
3348 Snow 1 1008 75 9000 5 310 20:56 06.02.2020
3349 Snow 1 1007 75 5000 6 300 20:37 06.02.2020
3350 Snow 0 1007 97 5000 6 300 20:18 06.02.2020
3351 Snow 0 1008 97 9000 6 300 19:57 06.02.2020
3352 Clouds 0 1008 97 10000 8 300 19:37 06.02.2020
3353 Clouds 0 1008 97 10000 8 300 19:19 06.02.2020
3354 Clouds 0 1008 97 10000 7 300 18:44 06.02.2020
3355 Snow 0 1008 97 9000 7 300 18:26 06.02.2020
3356 Snow 0 1008 97 5000 6 290 17:59 06.02.2020
3357 Snow 0 1008 97 5000 6 290 17:59 06.02.2020
3358 Snow 0 1009 97 7000 6 290 17:41 06.02.2020
3359 Snow 0 1009 86 7000 6 290 17:20 06.02.2020
3360 Snow 0 1009 86 7000 6 290 17:20 06.02.2020
3361 Snow 0 1009 86 5000 7 300 16:43 06.02.2020
3362 Snow 0 1009 86 5000 7 300 16:25 06.02.2020
3363 Snow 0 1009 86 9000 6 290 15:54 06.02.2020
3364 Snow 1 1009 80 7000 7 280 15:36 06.02.2020
3365 Snow 1 1009 80 7000 7 280 15:18 06.02.2020
3366 Snow 1 1009 86 5000 6 280 14:46 06.02.2020
3367 Clouds 2 1010 74 10000 7 270 14:24 06.02.2020
3368 Clear 2 1011 69 10000 8 270 13:46 06.02.2020
3369 Rain 1 1011 69 10000 8 270 13:27 06.02.2020
3370 Rain 1 1012 46 10000 8 270 12:46 06.02.2020
3371 Clouds 1 1012 46 10000 7 260 12:20 06.02.2020
3372 Clouds 0 1013 68 10000 6 260 11:59 06.02.2020
3373 Clouds -1 1013 68 10000 6 260 11:41 06.02.2020
3374 Clear -1 1013 68 10000 6 260 11:22 06.02.2020
3375 Clear -1 1014 68 10000 5 260 10:59 06.02.2020
3376 Clear -2 1015 58 10000 5 250 10:41 06.02.2020
3377 Clear -2 1015 58 10000 5 250 10:21 06.02.2020
3378 Clear -3 1015 63 10000 4 250 09:59 06.02.2020
3379 Clear -4 1015 73 10000 4 230 09:40 06.02.2020
3380 Clear -4 1015 73 10000 4 230 09:20 06.02.2020
3381 Clear -7 1016 79 10000 3 270 08:43 06.02.2020
3382 Clear -6 1016 79 10000 3 270 08:23 06.02.2020
3383 Clear -7 1016 73 10000 4 260 07:55 06.02.2020
3384 Clear -8 1016 85 10000 3 270 07:29 06.02.2020
3385 Clear -9 1016 78 10000 3 300 06:47 06.02.2020
3386 Clear -8 1016 78 10000 3 300 06:19 06.02.2020
3387 Clear -8 1017 73 10000 3 310 05:32 06.02.2020
3388 Clouds -7 1017 73 10000 3 330 03:47 06.02.2020
3389 Clouds -6 1017 73 10000 3 340 02:58 06.02.2020
3390 Clouds -5 1018 62 10000 5 10 01:55 06.02.2020
3391 Clouds -5 1018 62 10000 5 20 01:24 06.02.2020
3392 Clear -4 1018 63 10000 6 20 00:28 06.02.2020
3393 Clear -4 1018 63 10000 7 20 23:56 05.02.2020
3394 Clear -4 1018 63 10000 7 10 23:38 05.02.2020
3395 Clouds -4 1018 63 10000 7 10 23:19 05.02.2020
3396 Clouds -3 1017 68 10000 7 10 22:41 05.02.2020
3397 Clouds -3 1017 68 10000 7 10 22:41 05.02.2020
3398 Clouds -3 1017 68 10000 7 10 22:23 05.02.2020
3399 Clouds -3 1017 68 10000 8 10 21:57 05.02.2020
3400 Clouds -3 1017 68 10000 8 10 21:39 05.02.2020
3401 Clouds -3 1017 68 10000 8 10 21:20 05.02.2020
3402 Clouds -3 1016 63 10000 8 10 20:39 05.02.2020
3403 Clouds -3 1016 63 10000 8 10 20:20 05.02.2020
3404 Clouds -3 1015 63 10000 8 10 19:59 05.02.2020
3405 Clouds -2 1015 63 10000 9 10 19:40 05.02.2020
3406 Clouds -2 1015 63 10000 9 10 19:19 05.02.2020
3407 Clouds -2 1014 63 10000 9 10 18:56 05.02.2020
3408 Clouds -2 1014 63 10000 8 20 18:38 05.02.2020
3409 Clouds -1 1014 58 10000 6 20 18:19 05.02.2020
3410 Clouds -1 1013 58 10000 7 20 17:38 05.02.2020
3411 Clouds -1 1012 63 10000 6 20 17:20 05.02.2020
3412 Clouds -1 1012 63 10000 6 20 16:57 05.02.2020
3413 Clouds -1 1012 58 10000 8 20 16:39 05.02.2020
3414 Clouds -1 1012 58 10000 8 20 16:20 05.02.2020
3415 Clouds 0 1011 56 10000 8 20 15:46 05.02.2020
3416 Clouds 0 1011 56 10000 8 20 15:20 05.02.2020
3417 Clouds 0 1010 56 10000 8 20 14:59 05.02.2020
3418 Clouds 0 1010 56 10000 7 30 14:40 05.02.2020
3419 Clouds 0 1010 52 10000 7 30 14:21 05.02.2020
3420 Clouds 0 1009 52 10000 9 30 13:43 05.02.2020
3421 Snow 0 1008 53 10000 8 30 13:23 05.02.2020
3422 Snow 0 1008 53 10000 8 30 12:58 05.02.2020
3423 Snow 0 1007 53 10000 10 30 12:36 05.02.2020
3424 Clouds 0 1007 53 10000 10 30 12:18 05.02.2020
3425 Clouds 0 1006 68 10000 9 30 11:41 05.02.2020
3426 Snow 0 1006 68 10000 9 30 11:23 05.02.2020
3427 Snow 0 1006 74 10000 8 40 10:57 05.02.2020
3428 Snow 0 1005 80 10000 9 40 10:39 05.02.2020
3429 Snow -1 1005 80 10000 9 40 10:18 05.02.2020
3430 Snow -1 1004 86 10000 8 40 09:40 05.02.2020
3431 Snow -1 1004 86 10000 8 40 09:21 05.02.2020
3432 Snow -1 1004 92 10000 7 50 08:55 05.02.2020
3433 Snow -1 1004 92 9000 7 50 08:37 05.02.2020
3434 Snow -1 1004 92 9000 7 50 08:18 05.02.2020
3435 Snow -1 1003 100 1700 9 40 07:42 05.02.2020
3436 Snow -1 1003 100 1700 9 40 07:18 05.02.2020
3437 Snow 0 1002 94 2100 8 50 06:39 05.02.2020
3438 Snow 0 1001 94 3000 7 60 06:20 05.02.2020
3439 Snow 0 1000 95 5000 8 60 05:20 05.02.2020
3440 Snow 0 1000 95 5000 8 60 04:58 05.02.2020
3441 Snow 0 999 95 4800 9 60 04:22 05.02.2020
3442 Snow 0 999 95 3600 7 60 02:42 05.02.2020
3443 Snow 0 999 96 3600 7 60 02:20 05.02.2020
3444 Snow 1 999 100 4400 5 60 01:28 05.02.2020
3445 Snow 1 999 100 3900 4 60 00:22 05.02.2020
3446 Rain 1 999 100 2700 4 70 23:40 04.02.2020
3447 Rain 1 999 100 2400 3 70 23:20 04.02.2020
3448 Rain 1 999 100 2400 3 70 22:57 04.02.2020
3449 Rain 1 999 100 2600 3 70 22:39 04.02.2020
3450 Rain 1 999 100 2600 3 70 22:20 04.02.2020
3451 Rain 1 999 100 3000 3 70 21:55 04.02.2020
3452 Rain 1 999 100 2800 2 80 21:37 04.02.2020
3453 Rain 1 999 100 2800 2 80 21:18 04.02.2020
3454 Rain 1 999 100 2500 2 90 20:44 04.02.2020
3455 Drizzle 1 998 100 2400 3 80 20:44 04.02.2020
3456 Drizzle 1 998 100 2400 3 80 20:22 04.02.2020
3457 Drizzle 1 999 96 2100 2 70 19:59 04.02.2020
3458 Rain 1 999 96 2700 2 90 19:41 04.02.2020
3459 Rain 1 999 96 2700 2 90 19:22 04.02.2020
3460 Mist 1 999 96 4700 2 90 18:59 04.02.2020
3461 Snow 1 999 96 4600 2 90 18:38 04.02.2020
3462 Snow 1 999 96 3800 2 100 18:19 04.02.2020
3463 Snow 1 999 96 3800 2 110 17:54 04.02.2020
3464 Snow 1 999 96 3800 2 110 17:36 04.02.2020
3465 Snow 1 999 95 3200 2 110 17:18 04.02.2020
3466 Rain 1 999 100 4800 2 130 16:38 04.02.2020
3467 Rain 1 999 100 4800 2 130 16:38 04.02.2020
3468 Rain 1 999 100 4800 2 130 16:20 04.02.2020
3469 Rain 1 999 100 5000 2 140 15:56 04.02.2020
3470 Drizzle 1 999 100 4900 2 130 15:38 04.02.2020
3471 Drizzle 2 999 100 4900 2 130 15:19 04.02.2020
3472 Clouds 2 1000 95 9000 2 180 14:45 04.02.2020
3473 Clouds 2 1000 58 9000 2 180 14:23 04.02.2020
3474 Clouds 3 1000 58 9000 2 210 13:58 04.02.2020
3475 Clouds 3 1000 74 10000 3 210 13:40 04.02.2020
3476 Clouds 3 1000 74 10000 3 210 13:21 04.02.2020
3477 Clouds 4 1000 60 10000 5 220 12:45 04.02.2020
3478 Clouds 4 1000 60 10000 4 210 12:26 04.02.2020
3479 Clouds 4 1001 55 10000 4 220 11:58 04.02.2020
3480 Clouds 4 1001 55 10000 5 260 11:39 04.02.2020
3481 Clouds 4 1001 55 10000 5 260 11:21 04.02.2020
3482 Clouds 4 1001 60 10000 3 260 10:59 04.02.2020
3483 Clouds 3 1002 64 10000 4 260 10:40 04.02.2020
3484 Clouds 3 1002 64 10000 4 260 10:22 04.02.2020
3485 Clouds 2 1002 74 10000 4 270 09:41 04.02.2020
3486 Clouds 2 1002 74 10000 4 270 09:23 04.02.2020
3487 Clouds 0 1002 61 10000 4 260 08:56 04.02.2020
3488 Clouds 0 1002 61 10000 4 250 08:38 04.02.2020
3489 Clouds 0 1002 61 10000 4 250 08:38 04.02.2020
3490 Clouds 0 1002 75 10000 4 250 08:20 04.02.2020
3491 Clouds -1 1002 86 10000 4 250 07:43 04.02.2020
3492 Clouds -1 1002 86 10000 4 250 07:22 04.02.2020
3493 Clouds -1 1002 80 10000 3 250 06:43 04.02.2020
3494 Clouds -1 1002 80 10000 4 260 05:58 04.02.2020
3495 Clouds -1 1002 80 10000 4 270 05:28 04.02.2020
3496 Clouds 0 1002 79 10000 5 270 03:51 04.02.2020
3497 Clouds 1 1002 69 10000 5 270 03:31 04.02.2020
3498 Clouds 1 1002 69 10000 5 280 02:53 04.02.2020
3499 Clouds 1 1002 69 10000 5 270 02:31 04.02.2020
3500 Clouds 2 1002 69 10000 5 270 01:52 04.02.2020
3501 Clouds 1 1002 69 10000 5 270 01:33 04.02.2020
3502 Clouds 2 1002 64 10000 5 270 00:41 04.02.2020
3503 Clouds 2 1002 64 10000 5 270 00:20 04.02.2020
3504 Clouds 3 1002 64 10000 6 290 23:39 03.02.2020
3505 Clouds 3 1002 64 10000 6 290 23:19 03.02.2020
3506 Clouds 3 1002 64 10000 6 290 22:39 03.02.2020
3507 Clouds 3 1002 64 10000 6 290 22:20 03.02.2020
3508 Clouds 3 1001 59 10000 6 290 21:43 03.02.2020
3509 Clouds 3 1001 59 10000 6 290 21:20 03.02.2020
3510 Clouds 3 1001 59 10000 6 300 20:59 03.02.2020
3511 Clouds 3 1001 59 10000 6 300 20:40 03.02.2020
3512 Clouds 3 1001 59 10000 6 300 20:19 03.02.2020
3513 Clouds 3 1001 59 10000 7 300 19:56 03.02.2020
3514 Clouds 3 1001 59 10000 8 300 19:38 03.02.2020
3515 Clouds 3 1001 59 10000 8 300 19:19 03.02.2020
3516 Clouds 3 1001 59 10000 8 300 19:19 03.02.2020
3517 Clouds 3 1001 59 10000 8 300 19:19 03.02.2020
3518 Clouds 3 1000 59 10000 6 310 18:43 03.02.2020
3519 Clouds 3 1000 59 10000 4 300 18:24 03.02.2020
3520 Clouds 3 1000 59 10000 5 300 17:59 03.02.2020
3521 Clouds 3 1000 59 10000 6 290 17:39 03.02.2020
3522 Clouds 3 1000 59 10000 6 290 17:20 03.02.2020
3523 Clouds 4 999 55 10000 5 290 16:54 03.02.2020
3524 Clouds 4 999 55 10000 7 300 16:36 03.02.2020
3525 Clouds 4 999 51 10000 6 310 16:18 03.02.2020
3526 Clouds 4 998 60 10000 6 300 15:54 03.02.2020
3527 Clouds 4 998 60 10000 6 300 15:36 03.02.2020
3528 Clouds 4 998 60 10000 6 300 15:18 03.02.2020
3529 Clouds 4 998 55 10000 8 310 14:39 03.02.2020
3530 Clouds 5 998 44 10000 6 300 14:21 03.02.2020
3531 Clouds 5 998 44 10000 7 320 13:54 03.02.2020
3532 Clouds 5 998 56 10000 7 300 13:36 03.02.2020
3533 Clouds 5 998 56 10000 7 300 13:18 03.02.2020
3534 Clouds 5 998 56 10000 7 300 12:40 03.02.2020
3535 Clouds 5 998 56 10000 7 300 12:21 03.02.2020
3536 Clouds 5 998 60 10000 7 300 11:57 03.02.2020
3537 Clouds 5 999 60 10000 8 290 11:37 03.02.2020
3538 Clouds 5 999 64 10000 6 300 11:18 03.02.2020
3539 Clouds 4 999 64 10000 7 310 10:41 03.02.2020
3540 Clouds 4 999 64 10000 7 310 10:23 03.02.2020
3541 Clouds 4 999 64 10000 7 310 10:23 03.02.2020
3542 Clouds 5 999 69 10000 6 290 09:48 03.02.2020
3543 Clouds 5 999 80 10000 5 280 09:25 03.02.2020
3544 Clouds 4 999 80 10000 5 280 08:57 03.02.2020
3545 Clouds 4 999 80 10000 4 260 08:39 03.02.2020
3546 Clouds 4 999 80 10000 4 260 08:39 03.02.2020
3547 Clouds 4 999 86 10000 4 260 08:21 03.02.2020
3548 Clouds 3 999 86 10000 4 260 07:41 03.02.2020
3549 Clouds 3 999 86 10000 3 250 07:21 03.02.2020
3550 Clouds 3 999 86 10000 4 260 07:21 03.02.2020
3551 Clouds 3 999 86 10000 3 250 06:51 03.02.2020
3552 Clouds 3 999 86 10000 3 250 06:30 03.02.2020
3553 Clouds 3 998 86 10000 4 280 05:37 03.02.2020
3554 Clouds 3 998 86 10000 4 280 05:18 03.02.2020
3555 Clouds 4 999 80 10000 4 270 04:30 03.02.2020
3556 Clouds 5 999 75 10000 6 280 02:37 03.02.2020
3557 Clouds 5 999 75 10000 6 280 02:18 03.02.2020
3558 Clouds 5 999 80 10000 7 280 00:48 03.02.2020
3559 Rain 6 999 75 10000 10 280 00:25 03.02.2020
3560 Clouds 6 1000 75 10000 8 270 23:39 02.02.2020
3561 Clouds 6 1000 75 10000 8 270 23:21 02.02.2020
3562 Clouds 6 1000 75 10000 7 270 22:58 02.02.2020
3563 Clouds 6 1000 75 10000 8 270 22:39 02.02.2020
3564 Clouds 6 1000 75 10000 8 270 22:20 02.02.2020
3565 Clouds 7 1000 70 10000 9 270 21:56 02.02.2020
3566 Rain 7 1000 75 10000 9 270 21:38 02.02.2020
3567 Rain 7 1000 75 10000 9 270 21:20 02.02.2020
3568 Clouds 7 1000 70 10000 8 270 20:56 02.02.2020
3569 Clouds 7 1000 70 10000 8 270 20:37 02.02.2020
3570 Clouds 7 1000 70 10000 8 270 20:19 02.02.2020
3571 Clouds 7 1000 70 10000 8 270 20:19 02.02.2020
3572 Clouds 7 1000 70 10000 8 270 19:55 02.02.2020
3573 Clouds 8 1000 65 10000 8 270 19:37 02.02.2020
3574 Clouds 8 1000 65 10000 7 270 19:18 02.02.2020
3575 Clouds 8 1000 70 10000 7 270 18:39 02.02.2020
3576 Clouds 8 1000 70 10000 7 270 18:21 02.02.2020
3577 Clouds 8 1000 70 10000 7 270 18:21 02.02.2020
3578 Clouds 8 1000 61 10000 6 270 17:58 02.02.2020
3579 Clouds 9 1000 66 10000 6 270 17:38 02.02.2020
3580 Rain 9 1000 66 10000 6 270 17:19 02.02.2020
3581 Rain 9 1000 66 10000 6 270 16:58 02.02.2020
3582 Clouds 9 1000 76 10000 3 240 16:39 02.02.2020
3583 Rain 9 1000 81 10000 3 260 16:19 02.02.2020
3584 Rain 8 1000 81 10000 3 260 15:59 02.02.2020
3585 Clouds 9 1000 76 10000 4 290 15:39 02.02.2020
3586 Clouds 9 1000 76 10000 4 290 15:20 02.02.2020
3587 Rain 9 1000 70 10000 6 290 14:56 02.02.2020
3588 Rain 10 1000 76 10000 8 280 14:38 02.02.2020
3589 Rain 10 1000 76 10000 8 280 14:18 02.02.2020
3590 Rain 10 999 76 10000 8 260 13:54 02.02.2020
3591 Clouds 11 999 81 10000 6 270 13:36 02.02.2020
3592 Clouds 10 999 81 10000 6 270 13:18 02.02.2020
3593 Clouds 10 999 81 10000 7 260 12:42 02.02.2020
3594 Clouds 10 999 81 10000 7 260 12:22 02.02.2020
3595 Rain 10 999 81 10000 6 260 11:56 02.02.2020
3596 Rain 10 999 81 10000 7 260 11:38 02.02.2020
3597 Clouds 10 999 81 10000 7 260 11:18 02.02.2020
3598 Clouds 9 1000 81 10000 7 250 10:55 02.02.2020
3599 Rain 9 1000 81 10000 7 250 10:36 02.02.2020
3600 Rain 9 1000 81 10000 5 240 10:18 02.02.2020
3601 Clouds 9 1000 76 10000 5 230 09:41 02.02.2020
3602 Clouds 8 1000 76 10000 5 230 09:21 02.02.2020
3603 Clouds 8 1000 81 10000 6 230 08:57 02.02.2020
3604 Clouds 8 1000 81 10000 6 230 08:39 02.02.2020
3605 Clouds 8 1000 81 10000 6 230 08:20 02.02.2020
3606 Clouds 7 1000 81 10000 5 230 07:44 02.02.2020
3607 Clouds 6 1000 87 10000 5 220 07:26 02.02.2020
3608 Clouds 6 1001 93 10000 5 220 06:39 02.02.2020
3609 Clouds 6 1001 93 10000 5 220 06:21 02.02.2020
3610 Clouds 6 1001 93 10000 3 220 05:36 02.02.2020
3611 Clouds 7 1002 87 10000 4 230 04:30 02.02.2020
3612 Clouds 7 1003 87 10000 5 240 03:24 02.02.2020
3613 Clouds 7 1003 93 10000 4 240 02:24 02.02.2020
3614 Clouds 7 1003 93 10000 4 240 01:52 02.02.2020
3615 Clouds 7 1004 93 10000 4 240 01:19 02.02.2020
3616 Clouds 7 1004 93 10000 4 240 00:39 02.02.2020
3617 Clouds 7 1004 93 10000 4 240 00:18 02.02.2020
3618 Clouds 7 1004 93 10000 5 250 23:43 01.02.2020
3619 Clouds 7 1005 93 10000 4 240 23:21 01.02.2020
3620 Clouds 6 1005 100 10000 3 230 22:45 01.02.2020
3621 Clouds 6 1005 100 10000 3 230 22:19 01.02.2020
3622 Clouds 6 1005 100 10000 3 230 22:19 01.02.2020
3623 Clouds 6 1005 93 10000 4 220 21:44 01.02.2020
3624 Rain 5 1005 93 9000 4 220 21:20 01.02.2020
3625 Rain 5 1005 100 7000 4 210 20:57 01.02.2020
3626 Rain 5 1006 100 7000 3 210 20:38 01.02.2020
3627 Rain 4 1006 100 5000 3 210 20:19 01.02.2020
3628 Rain 4 1006 100 5000 3 210 19:56 01.02.2020
3629 Rain 4 1006 93 5000 3 210 19:37 01.02.2020
3630 Rain 4 1006 93 5000 3 210 19:19 01.02.2020
3631 Rain 4 1006 93 5000 3 210 19:19 01.02.2020
3632 Clouds 4 1007 86 10000 3 220 18:56 01.02.2020
3633 Clouds 4 1007 93 10000 3 200 18:37 01.02.2020
3634 Clouds 4 1007 93 10000 3 200 18:19 01.02.2020
3635 Clouds 4 1007 86 10000 3 210 17:55 01.02.2020
3636 Clouds 4 1007 86 10000 3 210 17:37 01.02.2020
3637 Clouds 4 1007 86 10000 3 210 17:18 01.02.2020
3638 Clouds 4 1007 86 10000 2 220 16:41 01.02.2020
3639 Clouds 4 1007 86 10000 2 220 16:21 01.02.2020
3640 Clouds 4 1007 86 10000 2 240 15:55 01.02.2020
3641 Clouds 4 1007 80 10000 3 250 15:37 01.02.2020
3642 Clouds 4 1007 80 10000 3 250 15:18 01.02.2020
3643 Clouds 4 1007 80 10000 5 270 14:40 01.02.2020
3644 Clouds 4 1007 80 10000 5 270 14:20 01.02.2020
3645 Clouds 4 1007 80 10000 4 280 13:45 01.02.2020
3646 Clouds 4 1007 80 10000 4 280 13:24 01.02.2020
3647 Clouds 4 1007 80 10000 4 290 12:56 01.02.2020
3648 Clouds 4 1006 83 10000 3 300 12:38 01.02.2020
3649 Clouds 4 1006 83 10000 3 300 12:20 01.02.2020
3650 Clouds 3 1006 86 10000 3 300 11:39 01.02.2020
3651 Clouds 3 1006 86 10000 3 300 11:21 01.02.2020
3652 Clouds 2 1006 93 10000 4 300 10:58 01.02.2020
3653 Clouds 2 1006 84 10000 4 300 10:39 01.02.2020
3654 Clouds 2 1006 84 10000 4 300 10:21 01.02.2020
3655 Clouds 1 1006 84 10000 5 300 09:58 01.02.2020
3656 Clouds 2 1006 84 10000 4 330 09:39 01.02.2020
3657 Clouds 1 1006 84 10000 5 320 09:20 01.02.2020
3658 Clouds 1 1006 84 10000 5 320 08:46 01.02.2020
3659 Clouds 1 1005 89 10000 5 310 07:50 01.02.2020
3660 Clouds 1 1004 100 10000 5 320 07:27 01.02.2020
3661 Clouds 1 1004 100 10000 4 320 06:56 01.02.2020
3662 Clouds 1 1004 100 10000 4 320 06:56 01.02.2020
3663 Clouds 1 1004 100 10000 5 320 06:33 01.02.2020
3664 Clouds 1 1003 100 10000 5 330 05:52 01.02.2020
3665 Clouds 2 1002 93 10000 4 320 04:20 01.02.2020
3666 Clouds 2 1001 100 7000 5 310 03:22 01.02.2020
3667 Clouds 2 1001 100 9000 5 300 02:46 01.02.2020
3668 Clouds 2 1001 100 7000 4 290 02:28 01.02.2020
3669 Clouds 2 1000 100 7000 5 290 01:55 01.02.2020
3670 Mist 2 1000 100 5000 5 280 01:33 01.02.2020
3671 Mist 2 1000 100 3700 4 260 00:30 01.02.2020
3672 Mist 2 1000 100 3500 3 260 23:59 31.01.2020
3673 Mist 2 1000 100 3500 2 230 23:37 31.01.2020
3674 Mist 2 1000 100 3500 2 230 23:18 31.01.2020
3675 Mist 1 1000 100 5000 3 230 22:41 31.01.2020
3676 Mist 1 1000 100 5000 3 230 22:22 31.01.2020
3677 Clouds 1 1000 100 7000 3 220 21:59 31.01.2020
3678 Clouds 1 999 100 7000 3 210 21:39 31.01.2020
3679 Clouds 1 999 100 7000 3 210 21:19 31.01.2020
3680 Clouds 1 1000 100 9000 2 230 20:56 31.01.2020
3681 Clouds 1 1000 100 9000 2 230 20:56 31.01.2020
3682 Clouds 1 999 100 10000 2 210 20:38 31.01.2020
3683 Clouds 1 999 100 10000 2 210 20:38 31.01.2020
3684 Clouds 1 999 100 10000 3 210 20:20 31.01.2020
3685 Clouds 1 999 100 10000 3 210 19:56 31.01.2020
3686 Clouds 1 999 100 10000 4 210 19:37 31.01.2020
3687 Clouds 1 999 100 10000 4 210 19:19 31.01.2020
3688 Clouds 1 999 100 10000 4 200 18:42 31.01.2020
3689 Clouds 1 999 100 10000 4 200 18:23 31.01.2020
3690 Rain 1 999 100 8000 4 190 17:55 31.01.2020
3691 Rain 1 999 100 6000 3 180 17:36 31.01.2020
3692 Rain 1 999 100 6000 3 180 17:18 31.01.2020
3693 Rain 1 1000 100 6000 3 190 16:55 31.01.2020
3694 Rain 1 1000 100 6000 3 190 16:37 31.01.2020
3695 Rain 1 1000 100 6000 3 190 16:18 31.01.2020
3696 Rain 1 1000 100 6000 3 190 16:18 31.01.2020
3697 Rain 2 1000 93 9000 4 230 15:41 31.01.2020
3698 Rain 2 1000 93 9000 4 230 15:21 31.01.2020
3699 Rain 3 1000 86 10000 5 230 14:58 31.01.2020
3700 Snow 4 1000 80 10000 4 210 14:39 31.01.2020
3701 Clouds 4 1000 80 10000 4 210 14:20 31.01.2020
3702 Clouds 4 1000 86 10000 4 220 13:43 31.01.2020
3703 Clouds 4 1000 86 10000 4 220 13:25 31.01.2020
3704 Clouds 4 1001 86 10000 4 210 12:45 31.01.2020
3705 Clouds 3 1001 93 10000 3 210 12:26 31.01.2020
3706 Clouds 3 1002 93 9000 4 220 11:56 31.01.2020
3707 Rain 2 1002 100 7000 4 220 11:38 31.01.2020
3708 Rain 2 1002 100 7000 4 220 11:20 31.01.2020
3709 Rain 2 1003 100 4800 5 230 10:55 31.01.2020
3710 Clouds 2 1003 93 10000 4 230 10:37 31.01.2020
3711 Clouds 2 1003 93 10000 4 230 10:18 31.01.2020
3712 Clouds 2 1004 93 8000 4 230 09:42 31.01.2020
3713 Clouds 2 1004 93 8000 4 230 09:42 31.01.2020
3714 Clouds 2 1004 93 8000 4 230 09:22 31.01.2020
3715 Snow 1 1004 100 9000 4 220 08:56 31.01.2020
3716 Rain 1 1004 100 6000 3 220 08:38 31.01.2020
3717 Rain 1 1004 100 6000 3 220 08:20 31.01.2020
3718 Snow 1 1005 87 6000 4 220 07:47 31.01.2020
3719 Snow 1 1005 87 10000 4 230 07:19 31.01.2020
3720 Snow 1 1005 87 6000 4 220 07:19 31.01.2020
3721 Snow 1 1005 86 10000 5 230 06:34 31.01.2020
3722 Snow 2 1005 80 10000 4 220 05:55 31.01.2020
3723 Clouds 2 1006 80 10000 3 230 05:20 31.01.2020
3724 Clouds 2 1006 74 10000 3 230 03:52 31.01.2020
3725 Clouds 2 1007 69 10000 4 290 01:54 31.01.2020
3726 Clouds 2 1007 74 10000 6 270 01:29 31.01.2020
3727 Clouds 2 1007 80 10000 7 280 00:38 31.01.2020
3728 Clouds 2 1007 80 10000 7 280 00:20 31.01.2020
3729 Clouds 2 1007 78 10000 5 270 23:40 30.01.2020
3730 Clouds 2 1007 78 10000 5 270 23:40 30.01.2020
3731 Clouds 2 1007 78 10000 5 270 23:40 30.01.2020
3732 Clouds 2 1007 85 10000 5 270 23:21 30.01.2020
3733 Clouds 2 1007 93 10000 5 280 22:38 30.01.2020
3734 Clouds 2 1007 93 10000 5 280 22:20 30.01.2020
3735 Snow 2 1006 93 9000 7 280 21:58 30.01.2020
3736 Clouds 2 1006 85 10000 6 280 21:40 30.01.2020
3737 Clouds 2 1006 85 10000 6 270 21:18 30.01.2020
3738 Clouds 2 1006 85 10000 6 270 20:56 30.01.2020
3739 Clouds 2 1006 85 10000 6 270 20:37 30.01.2020
3740 Clouds 2 1006 80 10000 6 270 20:19 30.01.2020
3741 Clouds 3 1005 80 10000 6 280 19:42 30.01.2020
3742 Clouds 3 1005 80 10000 6 280 19:19 30.01.2020
3743 Clouds 3 1005 74 10000 7 280 18:43 30.01.2020
3744 Clouds 3 1005 74 10000 7 270 18:24 30.01.2020
3745 Clouds 3 1005 69 10000 8 280 17:59 30.01.2020
3746 Clouds 3 1004 74 10000 7 270 17:40 30.01.2020
3747 Clouds 3 1004 69 10000 7 280 17:19 30.01.2020
3748 Clouds 3 1004 69 10000 7 280 16:58 30.01.2020
3749 Clouds 3 1004 69 10000 7 280 16:39 30.01.2020
3750 Clouds 3 1004 69 10000 7 280 16:20 30.01.2020
3751 Clouds 3 1003 74 10000 8 290 15:44 30.01.2020
3752 Clouds 3 1003 74 10000 8 290 15:21 30.01.2020
3753 Clouds 4 1003 74 10000 7 290 14:54 30.01.2020
3754 Clouds 3 1002 74 10000 8 290 14:36 30.01.2020
3755 Clouds 3 1002 74 10000 8 290 14:18 30.01.2020
3756 Clouds 3 1002 72 10000 7 280 13:40 30.01.2020
3757 Clouds 3 1002 73 10000 7 280 13:22 30.01.2020
3758 Rain 3 1002 73 10000 7 290 12:54 30.01.2020
3759 Rain 3 1002 73 10000 8 280 12:36 30.01.2020
3760 Rain 3 1001 73 10000 9 280 12:18 30.01.2020
3761 Clouds 2 1001 73 10000 9 280 11:40 30.01.2020
3762 Rain 2 1001 94 10000 9 280 11:21 30.01.2020
3763 Rain 2 1001 93 9000 8 280 10:57 30.01.2020
3764 Rain 1 1001 100 6000 8 280 10:38 30.01.2020
3765 Rain 1 1001 100 6000 8 280 10:19 30.01.2020
3766 Rain 1 1001 94 10000 8 280 09:43 30.01.2020
3767 Rain 2 1001 94 10000 8 280 09:22 30.01.2020
3768 Rain 2 1000 86 10000 9 280 08:42 30.01.2020
3769 Clouds 1 1000 86 10000 9 280 08:22 30.01.2020
3770 Rain 1 1000 86 10000 9 280 07:55 30.01.2020
3771 Rain 1 1000 81 10000 8 280 07:37 30.01.2020
3772 Rain 1 1000 81 10000 8 280 06:56 30.01.2020
3773 Rain 1 999 81 10000 7 280 06:33 30.01.2020
3774 Rain 1 999 81 9000 7 280 05:53 30.01.2020
3775 Rain 1 999 81 8000 8 280 05:28 30.01.2020
3776 Rain 1 998 91 10000 6 270 04:40 30.01.2020
3777 Rain 1 998 91 10000 7 270 03:46 30.01.2020
3778 Rain 1 998 91 10000 6 270 02:54 30.01.2020
3779 Clouds 1 998 84 10000 7 270 00:56 30.01.2020
3780 Rain 1 998 84 10000 7 280 00:26 30.01.2020
3781 Rain 1 998 84 10000 7 280 23:51 29.01.2020
3782 Rain 1 998 77 9000 7 280 23:23 29.01.2020
3783 Rain 1 998 77 9000 7 280 22:59 29.01.2020
3784 Rain 1 998 100 7000 6 270 22:40 29.01.2020
3785 Rain 1 998 100 7000 6 270 22:19 29.01.2020
3786 Rain 1 998 100 8000 6 280 21:59 29.01.2020
3787 Rain 1 998 100 9000 5 280 21:40 29.01.2020
3788 Rain 1 998 100 10000 6 280 21:19 29.01.2020
3789 Rain 1 998 100 10000 6 280 20:58 29.01.2020
3790 Rain 1 998 100 5000 5 290 20:39 29.01.2020
3791 Rain 1 998 100 5000 5 290 20:21 29.01.2020
3792 Rain 0 998 100 6000 6 290 19:57 29.01.2020
3793 Rain 0 998 95 2800 6 290 19:37 29.01.2020
3794 Rain 0 998 95 2800 6 290 19:19 29.01.2020
3795 Snow 0 998 95 2500 5 280 18:54 29.01.2020
3796 Snow 0 998 95 3000 5 280 18:36 29.01.2020
3797 Snow 0 998 95 3000 5 280 18:18 29.01.2020
3798 Snow 0 998 95 3600 5 280 17:39 29.01.2020
3799 Snow 0 998 95 3600 5 280 17:39 29.01.2020
3800 Snow 0 998 95 3600 4 270 17:21 29.01.2020
3801 Snow 0 998 95 3500 3 270 16:42 29.01.2020
3802 Rain 0 998 95 3500 3 270 16:23 29.01.2020
3803 Rain 0 998 95 2200 2 250 15:56 29.01.2020
3804 Rain 1 998 95 2900 2 240 15:37 29.01.2020
3805 Rain 1 998 95 2900 2 240 15:19 29.01.2020
3806 Rain 1 998 100 10000 3 230 14:43 29.01.2020
3807 Rain 1 998 100 10000 3 230 14:21 29.01.2020
3808 Rain 1 998 100 10000 3 230 14:21 29.01.2020
3809 Rain 1 998 100 9000 3 220 13:55 29.01.2020
3810 Rain 1 998 100 5000 3 220 13:37 29.01.2020
3811 Rain 2 999 100 6000 2 200 13:19 29.01.2020
3812 Rain 2 999 100 6000 2 200 12:55 29.01.2020
3813 Rain 2 999 100 3400 3 190 12:37 29.01.2020
3814 Rain 2 999 100 3400 3 190 12:18 29.01.2020
3815 Rain 2 999 100 4900 3 150 11:45 29.01.2020
3816 Rain 2 999 100 4900 3 150 11:21 29.01.2020
3817 Clouds 2 971 88 0 5.26 152 10:47 29.01.2020
3818 Fog 2 1000 100 450 4 130 10:26 29.01.2020
3819 Fog 1 1000 100 450 4 130 10:26 29.01.2020
3820 Fog 1 1000 100 450 4 130 09:58 29.01.2020
3821 Fog 1 1000 100 450 4 130 09:40 29.01.2020
3822 Fog 1 1000 100 450 4 130 09:20 29.01.2020
3823 Fog 1 1000 88 450 5 120 08:56 29.01.2020
3824 Fog 1 1001 88 500 4 130 08:37 29.01.2020
3825 Fog 0 1001 96 500 4 130 08:18 29.01.2020
3826 Fog 0 1001 96 650 3 130 07:43 29.01.2020
3827 Fog 0 1001 96 650 3 130 07:21 29.01.2020
3828 Mist 0 1002 96 1200 4 130 06:38 29.01.2020
3829 Mist -1 1002 96 1200 4 130 06:19 29.01.2020
3830 Fog -1 1002 100 800 3 130 05:52 29.01.2020
3831 Fog -1 1002 100 750 4 130 05:33 29.01.2020
3832 Fog -1 1003 100 700 4 140 04:39 29.01.2020
3833 Fog -1 1003 100 450 3 130 03:59 29.01.2020
3834 Fog -1 1005 100 800 3 130 02:38 29.01.2020
3835 Fog 0 1005 83 650 3 130 01:18 29.01.2020
3836 Fog 0 1006 83 600 3 140 00:39 29.01.2020
3837 Fog 0 1006 83 600 3 140 00:21 29.01.2020
3838 Fog 0 1006 83 550 3 130 23:40 28.01.2020
3839 Fog 0 1006 90 550 3 140 23:20 28.01.2020
3840 Fog 0 1006 90 550 3 140 22:51 28.01.2020
3841 Fog -1 1007 90 550 3 140 22:27 28.01.2020
3842 Fog -1 1007 90 550 3 140 21:58 28.01.2020
3843 Fog -1 1007 100 500 3 140 21:39 28.01.2020
3844 Fog -1 1007 100 400 3 150 21:20 28.01.2020
3845 Fog -1 1007 100 450 3 130 20:46 28.01.2020
3846 Fog -1 1007 100 450 3 130 20:26 28.01.2020
3847 Fog -1 1008 100 400 2 150 19:57 28.01.2020
3848 Fog -1 1008 100 400 3 160 19:38 28.01.2020
3849 Fog -1 1008 100 400 3 160 19:19 28.01.2020
3850 Fog -1 1008 100 400 3 160 19:19 28.01.2020
3851 Fog -1 1008 100 400 3 140 18:54 28.01.2020
3852 Fog -1 1008 100 600 3 140 18:36 28.01.2020
3853 Fog -1 1008 100 500 2 170 18:18 28.01.2020
3854 Fog -1 1008 100 500 2 170 17:54 28.01.2020
3855 Fog -1 1009 100 400 2 160 17:36 28.01.2020
3856 Fog 0 1009 100 550 3 140 17:18 28.01.2020
3857 Mist 0 1008 82 1400 3 140 16:41 28.01.2020
3858 Fog 0 1009 100 700 2 160 16:22 28.01.2020
3859 Fog 0 1009 82 650 3 140 15:55 28.01.2020
3860 Fog 0 1009 82 700 2 140 15:37 28.01.2020
3861 Fog 0 1009 82 700 2 140 15:18 28.01.2020
3862 Fog 1 1009 100 1300 2 140 14:43 28.01.2020
3863 Fog 2 1009 72 750 2 140 14:19 28.01.2020
3864 Fog 2 1009 100 1400 2 190 13:42 28.01.2020
3865 Fog 2 1009 100 1400 2 190 13:24 28.01.2020
3866 Mist 2 1009 73 1100 2 190 12:45 28.01.2020
3867 Fog 2 1010 73 1100 2 190 12:25 28.01.2020
3868 Fog 2 1010 73 400 2 180 11:59 28.01.2020
3869 Fog 1 1010 73 1100 2 200 11:40 28.01.2020
3870 Fog 1 1010 83 1100 2 200 11:21 28.01.2020
3871 Mist 1 1010 83 1400 1 0 10:43 28.01.2020
3872 Fog 1 1011 83 1000 1 0 10:24 28.01.2020
3873 Fog 0 1011 100 750 2 150 09:59 28.01.2020
3874 Fog 0 1011 100 750 2 150 09:59 28.01.2020
3875 Mist 0 1012 83 2500 2 210 09:39 28.01.2020
3876 Mist 0 1012 83 2500 2 210 09:20 28.01.2020
3877 Mist -1 1012 100 2100 1 0 08:44 28.01.2020
3878 Mist -1 1012 100 2100 1 0 08:25 28.01.2020
3879 Mist -2 1011 100 1100 1 210 07:44 28.01.2020
3880 Mist -2 1011 100 1400 1.47 226 07:26 28.01.2020
3881 Mist -2 1011 100 2700 1 0 06:47 28.01.2020
3882 Mist -2 1011 100 3700 1 0 06:24 28.01.2020
3883 Mist -2 1012 100 4400 2 210 05:37 28.01.2020
3884 Mist -2 1012 100 4400 2 210 05:19 28.01.2020
3885 Mist -2 1012 100 3200 2 230 03:46 28.01.2020
3886 Mist -2 1012 100 2300 2 260 02:44 28.01.2020
3887 Mist -2 1012 100 2300 2 260 02:24 28.01.2020
3888 Mist -2 1012 100 3600 2 240 01:52 28.01.2020
3889 Mist -2 1013 100 2000 2 240 00:58 28.01.2020
3890 Mist -2 1013 100 3300 2 240 00:39 28.01.2020
3891 Mist -1 1013 100 3400 2 250 00:19 28.01.2020
3892 Mist -1 1013 100 3500 2 240 23:42 27.01.2020
3893 Mist -1 1014 100 3300 2 240 23:18 27.01.2020
3894 Mist -1 1014 100 3500 2 250 22:44 27.01.2020
3895 Mist -1 1014 100 3500 2 250 22:20 27.01.2020
3896 Mist -1 1014 100 3500 2 250 22:20 27.01.2020
3897 Mist -1 1014 100 3500 2 250 22:20 27.01.2020
3898 Mist -1 1014 100 4500 2 260 21:57 27.01.2020
3899 Mist -1 1014 100 4500 2 250 21:38 27.01.2020
3900 Mist -1 1014 100 4500 2 250 21:38 27.01.2020
3901 Mist -1 1014 100 4500 3 260 21:18 27.01.2020
3902 Mist -1 1014 100 4500 3 260 20:55 27.01.2020
3903 Mist -1 1014 100 4000 2 240 20:37 27.01.2020
3904 Mist -1 1014 100 4000 2 240 20:18 27.01.2020
3905 Mist -1 1014 100 4800 3 230 19:42 27.01.2020
3906 Mist -1 1014 100 4100 2 260 19:23 27.01.2020
3907 Mist -1 1014 100 4000 1 0 18:57 27.01.2020
3908 Mist -1 1014 100 4500 2 230 18:39 27.01.2020
3909 Mist -1 1014 100 4500 2 230 18:39 27.01.2020
3910 Mist -1 1014 100 4500 2 230 18:20 27.01.2020
3911 Mist -1 1014 92 4100 2 230 17:57 27.01.2020
3912 Mist -1 1015 92 4500 2 240 17:37 27.01.2020
3913 Mist -1 1015 92 4500 2 240 17:18 27.01.2020
3914 Mist -1 1015 92 3700 2 230 16:42 27.01.2020
3915 Mist -1 1015 92 3700 2 230 16:24 27.01.2020
3916 Mist -1 1015 100 2600 4 230 15:56 27.01.2020
3917 Mist 0 1015 76 3200 3 220 15:38 27.01.2020
3918 Mist 0 1015 76 3200 3 220 15:19 27.01.2020
3919 Mist 0 1015 76 3200 3 220 15:19 27.01.2020
3920 Mist 0 1015 76 3300 3 210 14:55 27.01.2020
3921 Mist 0 1015 76 3600 3 230 14:36 27.01.2020
3922 Mist 1 1015 66 3600 3 230 14:18 27.01.2020
3923 Mist 1 1015 66 3900 3 210 13:42 27.01.2020
3924 Mist 1 1016 65 3900 3 230 13:21 27.01.2020
3925 Mist 1 1016 65 3900 3 230 13:21 27.01.2020
3926 Mist 1 1016 65 3700 3 240 12:56 27.01.2020
3927 Mist 1 1016 65 3600 3 210 12:37 27.01.2020
3928 Mist 1 1016 65 3700 3 200 12:19 27.01.2020
3929 Mist 1 1016 65 4000 3 200 11:41 27.01.2020
3930 Mist 1 1017 70 4300 3 190 11:21 27.01.2020
3931 Mist 1 1017 70 4300 3 190 10:43 27.01.2020
3932 Mist 1 1017 86 4300 3 200 10:25 27.01.2020
3933 Mist 1 1017 70 3600 3 210 09:57 27.01.2020
3934 Mist 0 1017 100 3400 2 210 09:38 27.01.2020
3935 Mist -1 1017 92 3300 2 230 09:18 27.01.2020
3936 Mist -1 1017 92 3300 2 230 09:18 27.01.2020
3937 Mist -1 1017 92 4100 3 220 08:43 27.01.2020
3938 Mist -1 1017 92 4100 3 220 08:22 27.01.2020
3939 Mist -2 1017 100 4500 3 230 07:54 27.01.2020
3940 Mist -1 1017 100 4700 3 230 07:35 27.01.2020
3941 Mist -2 1017 100 4800 2 240 06:53 27.01.2020
3942 Mist -2 1018 100 4900 2 240 06:25 27.01.2020
3943 Mist -2 1018 100 4900 2 250 05:24 27.01.2020
3944 Mist -1 1018 100 5000 2 240 03:58 27.01.2020
3945 Clouds 0 1019 82 8000 2 240 02:42 27.01.2020
3946 Clouds 1 1019 86 10000 3 240 01:29 27.01.2020
3947 Clouds 1 1019 86 10000 3 250 00:58 27.01.2020
3948 Clouds 1 1020 90 10000 3 230 00:37 27.01.2020
3949 Clouds 1 1020 90 10000 3 230 00:18 27.01.2020
3950 Clouds 1 1020 90 8000 2 220 23:41 26.01.2020
3951 Clouds 1 1020 90 8000 2 220 23:41 26.01.2020
3952 Clouds 1 1020 87 8000 2 220 23:19 26.01.2020
3953 Clouds 0 1020 87 7000 3 240 22:55 26.01.2020
3954 Clouds 1 1020 87 7000 3 250 22:36 26.01.2020
3955 Clouds 0 1020 87 7000 3 250 22:18 26.01.2020
3956 Clouds 0 1020 87 6000 2 250 21:55 26.01.2020
3957 Clouds 0 1020 100 7000 2 260 21:37 26.01.2020
3958 Clouds 0 1020 100 7000 2 260 21:18 26.01.2020
3959 Clouds 0 1020 92 7000 2 270 20:55 26.01.2020
3960 Clouds 0 1020 92 7000 2 240 20:36 26.01.2020
3961 Clear 0 1020 92 8000 2 250 20:18 26.01.2020
3962 Clear 0 1020 92 8000 2 250 19:42 26.01.2020
3963 Clouds 1 1020 86 10000 4 240 19:21 26.01.2020
3964 Clouds 1 1020 86 10000 4 240 18:59 26.01.2020
3965 Clouds 2 1021 80 9000 3 230 18:40 26.01.2020
3966 Clouds 2 1021 80 9000 3 230 18:22 26.01.2020
3967 Clouds 2 1021 80 7000 2 240 17:58 26.01.2020
3968 Clouds 2 1021 80 7000 2 240 17:58 26.01.2020
3969 Clouds 2 1021 80 9000 3 230 17:38 26.01.2020
3970 Clouds 2 1021 80 9000 3 230 17:19 26.01.2020
3971 Clouds 3 1021 74 10000 2 230 16:58 26.01.2020
3972 Clouds 3 1021 69 10000 3 260 16:39 26.01.2020
3973 Clouds 3 1021 69 10000 3 260 16:20 26.01.2020
3974 Clouds 3 1021 69 10000 3 260 16:20 26.01.2020
3975 Clear 3 1020 83 0 2.31 230 15:55 26.01.2020
3976 Clear 3 1019 83 0 2.31 230 15:36 26.01.2020
3977 Clear 4 992 83 0 2.31 230 15:18 26.01.2020
3978 Clear 4 992 83 0 2.31 230 14:40 26.01.2020
3979 Clear 4 1021 69 0 0.45 313 14:19 26.01.2020
3980 Clear 4 1021 69 0 0.45 313 14:19 26.01.2020
3981 Clear 4 992 71 0 2.7 248 13:42 26.01.2020
3982 Clear 4 992 71 0 2.7 248 13:20 26.01.2020
3983 Clear 5 1021 72 0 0.45 89 12:57 26.01.2020
3984 Clear 5 1021 70 0 0.45 210 12:39 26.01.2020
3985 Clear 5 1021 78 0 0.89 207 12:21 26.01.2020
3986 Clear 5 1020 71 0 2.51 248 11:57 26.01.2020
3987 Clouds 4 1022 71 10000 3 260 11:38 26.01.2020
3988 Clouds 3 1022 81 10000 3 260 11:18 26.01.2020
3989 Clouds 3 1022 81 10000 3 260 10:57 26.01.2020
3990 Clouds 3 1022 81 10000 3 260 10:38 26.01.2020
3991 Clouds 3 1022 81 10000 3 260 10:38 26.01.2020
3992 Clouds 3 1022 81 10000 3 260 10:20 26.01.2020
3993 Clouds 3 1022 81 10000 3 260 10:20 26.01.2020
3994 Clouds 3 1022 81 10000 3 260 09:56 26.01.2020
3995 Clouds 2 1022 81 10000 3 280 09:38 26.01.2020
3996 Clouds 2 1022 81 10000 3 280 09:19 26.01.2020
3997 Clouds 2 1022 81 9000 3 280 08:42 26.01.2020
3998 Clouds 2 1022 89 9000 3 280 08:22 26.01.2020
3999 Clouds 1 1021 89 10000 4 260 07:54 26.01.2020
4000 Clouds 1 1021 89 10000 3 260 07:36 26.01.2020
4001 Clouds 1 1021 89 10000 3 260 07:18 26.01.2020
4002 Clouds 1 1020 89 10000 3 270 06:26 26.01.2020
4003 Clouds 2 1020 89 10000 3 270 05:29 26.01.2020
4004 Clouds 2 1019 89 10000 5 320 04:43 26.01.2020
4005 Clouds 2 1019 89 10000 5 300 02:38 26.01.2020
4006 Clouds 2 1019 86 10000 5 300 01:45 26.01.2020
4007 Clouds 2 1018 86 10000 5 290 01:23 26.01.2020
4008 Clouds 2 1018 85 10000 5 280 00:43 26.01.2020
4009 Clouds 2 1018 85 10000 5 280 00:25 26.01.2020
4010 Clouds 1 1017 90 0 0.45 274 23:40 25.01.2020
4011 Clouds 1 1017 90 0 0.89 240 23:21 25.01.2020
4012 Clouds 1 989 80 0 4.43 290 22:56 25.01.2020
4013 Clouds 1 989 80 0 4.43 290 22:56 25.01.2020
4014 Clouds 1 1017 89 0 0.45 203 22:37 25.01.2020
4015 Clouds 1 988 80 0 4.43 290 22:18 25.01.2020
4016 Clouds 1 1017 89 0 0.89 229 21:55 25.01.2020
4017 Clouds 1 1017 89 0 0.89 227 21:55 25.01.2020
4018 Clouds 1 1017 89 0 0.89 229 21:55 25.01.2020
4019 Clouds 1 1016 90 0 0.89 267 21:36 25.01.2020
4020 Clouds 1 988 80 0 4.43 290 21:18 25.01.2020
4021 Clouds 1 1016 90 0 1.34 249 20:43 25.01.2020
4022 Clouds 0 1017 83 0 5.2 288 20:24 25.01.2020
4023 Clouds 1 1016 89 0 0.89 236 19:48 25.01.2020
4024 Clouds 1 1016 89 0 0.45 293 19:20 25.01.2020
4025 Clouds 1 1015 79 0 5.03 291 18:59 25.01.2020
4026 Clouds 1 1016 89 0 0.89 251 18:41 25.01.2020
4027 Clouds 1 1016 89 0 0.89 190 18:20 25.01.2020
4028 Clouds 1 1016 89 0 0.45 251 17:54 25.01.2020
4029 Clouds 1 1016 89 0 0.89 283 17:36 25.01.2020
4030 Clouds 1 1015 72 0 4.79 290 17:18 25.01.2020
4031 Clouds 1 986 76 0 5.03 291 16:42 25.01.2020
4032 Clouds 2 1015 87 0 0.45 273 16:22 25.01.2020
4033 Clouds 1 1014 86 0 0.45 233 15:56 25.01.2020
4034 Clouds 2 986 76 0 5.03 291 15:37 25.01.2020
4035 Clouds 2 986 76 0 5.03 291 15:19 25.01.2020
4036 Clouds 2 986 76 0 5.03 291 14:41 25.01.2020
4037 Clouds 2 1013 72 0 5.51 283 14:19 25.01.2020
4038 Clouds 2 985 72 0 5.51 283 13:43 25.01.2020
4039 Clouds 2 1014 86 0 1.34 256 13:25 25.01.2020
4040 Clouds 2 1014 86 10000 7 280 12:50 25.01.2020
4041 Clouds 2 1014 86 10000 7 280 12:30 25.01.2020
4042 Clouds 2 1014 86 10000 7 280 11:55 25.01.2020
4043 Clouds 2 1014 86 10000 8 280 11:36 25.01.2020
4044 Clouds 2 1014 86 10000 8 280 11:18 25.01.2020
4045 Clouds 1 1014 80 10000 7 280 10:41 25.01.2020
4046 Clouds 1 1014 80 10000 7 280 10:21 25.01.2020
4047 Clouds 1 1014 80 10000 7 280 09:57 25.01.2020
4048 Clouds 1 1014 80 10000 7 280 09:37 25.01.2020
4049 Clouds 1 1014 80 10000 7 280 09:18 25.01.2020
4050 Clouds 1 1014 80 10000 7 280 08:42 25.01.2020
4051 Clouds 1 1014 80 10000 7 280 08:42 25.01.2020
4052 Clouds 1 1014 80 10000 7 270 07:53 25.01.2020
4053 Clouds 1 1014 80 10000 7 270 07:53 25.01.2020
4054 Clouds 1 1013 74 10000 7 280 06:58 25.01.2020
4055 Clouds 1 1013 74 10000 6 270 06:31 25.01.2020
4056 Clouds 1 1013 80 10000 5 270 05:51 25.01.2020
4057 Clouds 1 1013 80 10000 6 270 05:30 25.01.2020
4058 Clouds 1 1013 74 10000 6 270 03:55 25.01.2020
4059 Clouds 1 1013 69 10000 6 270 03:34 25.01.2020
4060 Clouds 0 1014 74 10000 5 260 02:24 25.01.2020
4061 Clouds 1 1014 74 10000 5 270 01:54 25.01.2020
4062 Clouds 1 1014 69 10000 5 270 00:52 25.01.2020
4063 Clouds 1 1014 69 10000 5 280 00:27 25.01.2020
4064 Clouds 1 1014 69 10000 5 280 00:27 25.01.2020
4065 Clouds 1 1014 69 10000 5 280 23:59 24.01.2020
4066 Clouds 1 1014 69 10000 5 270 23:41 24.01.2020
4067 Clouds 1 1014 69 10000 5 270 23:41 24.01.2020
4068 Clouds 1 1014 69 10000 5 270 23:23 24.01.2020
4069 Clouds 1 1014 69 10000 5 270 23:23 24.01.2020
4070 Clouds 1 1015 69 10000 5 270 22:46 24.01.2020
4071 Clouds 1 1015 69 10000 5 270 22:26 24.01.2020
4072 Clouds 1 1015 69 10000 5 270 21:57 24.01.2020
4073 Clouds 1 1015 69 10000 5 270 21:57 24.01.2020
4074 Clouds 1 1015 69 10000 6 270 21:39 24.01.2020
4075 Clouds 1 1015 69 10000 6 270 21:18 24.01.2020
4076 Clouds 1 1015 69 10000 5 260 20:43 24.01.2020
4077 Clouds 1 1015 69 10000 5 260 20:21 24.01.2020
4078 Clouds 2 1015 69 10000 5 260 19:58 24.01.2020
4079 Clouds 2 1016 69 10000 6 260 19:39 24.01.2020
4080 Clouds 2 1016 69 10000 6 260 19:21 24.01.2020
4081 Clouds 2 1016 69 10000 4 260 18:44 24.01.2020
4082 Clouds 2 1016 69 10000 5 260 18:25 24.01.2020
4083 Clouds 2 1016 74 10000 5 260 17:59 24.01.2020
4084 Clouds 2 1016 69 10000 6 260 17:41 24.01.2020
4085 Clouds 2 1016 69 10000 6 260 17:20 24.01.2020
4086 Clouds 3 1016 69 10000 4 250 16:40 24.01.2020
4087 Clouds 3 1016 69 10000 4 250 16:21 24.01.2020
4088 Clouds 3 1016 69 10000 4 260 15:56 24.01.2020
4089 Clouds 3 1017 64 10000 6 260 15:38 24.01.2020
4090 Clouds 3 1017 64 10000 6 260 15:19 24.01.2020
4091 Clouds 4 1017 69 10000 9 260 14:41 24.01.2020
4092 Clouds 3 1017 74 10000 7 270 14:22 24.01.2020
4093 Clouds 3 1018 74 10000 7 270 13:45 24.01.2020
4094 Rain 3 1018 74 10000 7 270 13:24 24.01.2020
4095 Rain 2 1018 74 10000 8 270 12:45 24.01.2020
4096 Rain 2 1018 74 10000 7 260 12:45 24.01.2020
4097 Clouds 2 1018 74 10000 8 270 12:24 24.01.2020
4098 Clouds 1 1019 80 10000 8 270 11:59 24.01.2020
4099 Clouds 2 1019 74 10000 7 270 11:40 24.01.2020
4100 Clouds 1 1019 74 10000 7 270 11:18 24.01.2020
4101 Clouds 1 1020 74 10000 8 270 10:43 24.01.2020
4102 Clouds 1 1020 74 10000 8 270 10:21 24.01.2020
4103 Clouds 1 1020 81 10000 7 270 09:56 24.01.2020
4104 Clouds 0 1020 81 10000 7 270 09:37 24.01.2020
4105 Clouds 1 1020 81 10000 7 270 09:18 24.01.2020
4106 Clouds 0 1020 81 10000 7 290 08:40 24.01.2020
4107 Clouds 0 1020 78 10000 7 290 08:19 24.01.2020
4108 Clouds 0 1020 78 10000 10 280 07:49 24.01.2020
4109 Clouds 0 1020 78 10000 7 280 07:24 24.01.2020
4110 Clouds 0 1021 78 10000 7 270 06:46 24.01.2020
4111 Clouds 0 1021 78 10000 7 270 06:28 24.01.2020
4112 Clouds 0 1021 78 10000 5 260 05:43 24.01.2020
4113 Clouds 0 1022 83 10000 5 260 03:55 24.01.2020
4114 Clouds 0 1023 83 10000 5 270 02:43 24.01.2020
4115 Clouds 0 1023 86 10000 5 270 02:23 24.01.2020
4116 Clouds 0 1023 86 10000 4 270 01:39 24.01.2020
4117 Clouds 0 1024 85 10000 4 270 00:54 24.01.2020
4118 Clouds 0 1024 80 10000 4 270 00:19 24.01.2020
4119 Clouds -1 1024 86 10000 3 260 23:45 23.01.2020
4120 Clouds -1 1024 86 10000 3 260 23:27 23.01.2020
4121 Clouds -1 1024 86 10000 3 290 22:59 23.01.2020
4122 Clouds -1 1024 80 10000 4 290 22:37 23.01.2020
4123 Clouds -1 1024 80 10000 4 290 22:19 23.01.2020
4124 Clouds -1 1024 74 10000 4 300 21:56 23.01.2020
4125 Clouds -1 1024 74 10000 4 300 21:38 23.01.2020
4126 Clouds -1 1024 74 10000 4 300 21:19 23.01.2020
4127 Clouds 0 1024 75 10000 5 300 20:56 23.01.2020
4128 Clouds 0 1024 75 10000 5 310 20:37 23.01.2020
4129 Clouds 0 1024 73 10000 5 310 20:19 23.01.2020
4130 Clouds 0 1023 64 10000 6 310 19:44 23.01.2020
4131 Clouds 0 1023 64 10000 6 310 19:24 23.01.2020
4132 Clouds 0 1023 64 10000 6 310 18:59 23.01.2020
4133 Clouds 1 1022 64 10000 6 310 18:39 23.01.2020
4134 Clouds 1 1022 64 10000 6 310 18:20 23.01.2020
4135 Clouds 1 1022 64 10000 7 310 17:57 23.01.2020
4136 Clouds 1 1022 64 10000 6 310 17:39 23.01.2020
4137 Clouds 1 1022 69 10000 7 310 17:19 23.01.2020
4138 Clouds 1 1021 69 10000 8 310 16:39 23.01.2020
4139 Clouds 1 1021 69 10000 8 310 16:20 23.01.2020
4140 Rain 1 1021 69 10000 8 310 15:58 23.01.2020
4141 Rain 1 1021 69 10000 8 310 15:40 23.01.2020
4142 Rain 1 1021 69 10000 8 310 15:19 23.01.2020
4143 Rain 1 1021 69 10000 8 310 15:19 23.01.2020
4144 Clouds 1 1021 69 10000 9 310 14:59 23.01.2020
4145 Clouds 1 1021 69 10000 10 310 14:41 23.01.2020
4146 Clouds 1 1021 69 10000 10 310 14:23 23.01.2020
4147 Clouds 1 1020 69 10000 8 310 13:59 23.01.2020
4148 Clouds 1 1020 74 10000 8 310 13:38 23.01.2020
4149 Snow 1 1020 63 5000 8 320 13:19 23.01.2020
4150 Snow 1 1020 69 9000 8 320 12:46 23.01.2020
4151 Snow 1 1020 69 9000 8 320 12:25 23.01.2020
4152 Snow 1 1020 69 10000 8 320 11:57 23.01.2020
4153 Clouds 1 1020 64 10000 9 320 11:38 23.01.2020
4154 Clouds 1 1020 64 10000 9 320 11:19 23.01.2020
4155 Clouds 1 1020 64 10000 10 330 10:44 23.01.2020
4156 Clouds 1 1020 64 10000 10 320 10:22 23.01.2020
4157 Clouds 1 1020 64 10000 8 330 09:57 23.01.2020
4158 Clouds 1 1019 55 10000 8 330 09:36 23.01.2020
4159 Clouds 0 1019 55 10000 9 330 09:18 23.01.2020
4160 Clouds 0 1018 55 10000 9 320 08:40 23.01.2020
4161 Clouds 0 1018 76 10000 9 320 08:22 23.01.2020
4162 Snow 0 1017 76 10000 8 320 07:45 23.01.2020
4163 Snow 0 1017 76 10000 8 320 07:26 23.01.2020
4164 Snow 0 1016 76 10000 8 320 06:52 23.01.2020
4165 Snow 0 1016 76 9000 8 310 06:22 23.01.2020
4166 Snow 0 1015 74 9000 7 310 05:57 23.01.2020
4167 Clouds 1 1014 74 10000 7 320 04:24 23.01.2020
4168 Snow 1 1014 80 10000 8 320 02:34 23.01.2020
4169 Snow 1 1013 74 10000 7 320 01:33 23.01.2020
4170 Clouds 1 1013 80 10000 8 320 00:27 23.01.2020
4171 Clouds 1 1012 74 10000 8 320 23:48 22.01.2020
4172 Clouds 1 1012 74 10000 8 320 23:30 22.01.2020
4173 Snow 1 1011 80 8000 7 340 22:59 22.01.2020
4174 Snow 1 1011 86 9000 9 340 22:40 22.01.2020
4175 Snow 1 1011 86 9000 9 340 22:22 22.01.2020
4176 Snow 1 1010 67 8000 8 330 21:40 22.01.2020
4177 Snow 1 1010 67 8000 8 330 21:22 22.01.2020
4178 Clouds 2 1009 67 10000 7 310 20:57 22.01.2020
4179 Clouds 2 1009 67 10000 7 310 20:57 22.01.2020
4180 Clouds 2 1008 67 10000 9 300 20:38 22.01.2020
4181 Clouds 2 1008 67 10000 9 300 20:38 22.01.2020
4182 Clouds 2 1008 80 10000 9 300 20:20 22.01.2020
4183 Rain 2 1008 86 10000 8 290 19:56 22.01.2020
4184 Rain 2 1008 86 10000 7 280 19:38 22.01.2020
4185 Rain 2 1008 86 10000 7 280 19:18 22.01.2020
4186 Clouds 2 1009 86 10000 7 290 18:56 22.01.2020
4187 Clouds 2 1009 93 10000 8 290 18:38 22.01.2020
4188 Clouds 2 1009 93 10000 8 290 18:19 22.01.2020
4189 Snow 2 1009 93 10000 8 290 17:40 22.01.2020
4190 Rain 2 1009 93 10000 8 290 17:21 22.01.2020
4191 Rain 2 1008 93 7000 8 290 16:58 22.01.2020
4192 Clouds 2 1008 93 10000 8 290 16:39 22.01.2020
4193 Rain 2 1008 93 10000 8 290 16:21 22.01.2020
4194 Rain 2 1008 93 9000 9 280 15:56 22.01.2020
4195 Rain 1 1009 93 8000 9 280 15:38 22.01.2020
4196 Snow 1 1009 93 8000 9 280 15:19 22.01.2020
4197 Rain 1 1009 93 8000 10 280 14:40 22.01.2020
4198 Rain 1 1009 93 8000 10 280 14:40 22.01.2020
4199 Snow 1 1009 81 9000 10 280 14:21 22.01.2020
4200 Snow 1 1009 81 9000 10 280 13:59 22.01.2020
4201 Snow 2 1009 80 9000 11 280 13:38 22.01.2020
4202 Snow 2 1009 80 9000 11 280 13:19 22.01.2020
4203 Clouds 2 1010 100 2900 9 270 12:57 22.01.2020
4204 Clouds 2 1010 80 10000 8 280 12:39 22.01.2020
4205 Clouds 2 1010 80 10000 8 280 12:20 22.01.2020
4206 Snow 2 1011 80 10000 8 290 11:58 22.01.2020
4207 Clouds 2 1011 80 10000 8 290 11:39 22.01.2020
4208 Clouds 2 1011 80 10000 8 290 11:19 22.01.2020
4209 Clouds 2 1012 80 10000 8 280 11:19 22.01.2020
4210 Clouds 2 1011 80 10000 8 290 11:19 22.01.2020
4211 Clouds 2 1012 80 10000 8 280 10:54 22.01.2020
4212 Clouds 2 1012 80 10000 9 280 10:36 22.01.2020
4213 Clouds 2 1012 80 10000 9 280 10:18 22.01.2020
4214 Clouds 2 1013 88 9000 8 270 09:41 22.01.2020
4215 Clouds 2 1013 88 9000 9 270 09:23 22.01.2020
4216 Clouds 2 1013 88 9000 9 270 08:57 22.01.2020
4217 Clouds 2 1014 93 9000 8 280 08:38 22.01.2020
4218 Clouds 2 1014 81 9000 8 280 08:20 22.01.2020
4219 Clouds 2 1015 81 10000 8 280 07:46 22.01.2020
4220 Clouds 2 1015 81 10000 8 280 07:27 22.01.2020
4221 Clouds 3 1015 74 10000 8 280 06:38 22.01.2020
4222 Clouds 2 1015 74 10000 8 280 06:20 22.01.2020
4223 Clouds 2 1015 74 10000 8 280 06:20 22.01.2020
4224 Clouds 4 1018 80 10000 7 300 04:27 22.01.2020
4225 Clouds 4 1018 80 10000 7 290 03:29 22.01.2020
4226 Clouds 4 1018 69 10000 8 300 02:49 22.01.2020
4227 Clouds 4 1020 69 10000 7 300 01:35 22.01.2020
4228 Clouds 4 1020 76 10000 7 290 00:42 22.01.2020
4229 Clouds 4 1020 76 10000 7 290 00:23 22.01.2020
4230 Clouds 4 1021 76 10000 8 300 23:37 21.01.2020
4231 Clouds 4 1021 76 10000 8 300 23:37 21.01.2020
4232 Clouds 4 1021 69 10000 8 310 23:19 21.01.2020
4233 Clouds 4 1021 69 10000 8 310 22:42 21.01.2020
4234 Clouds 4 1021 69 10000 8 310 22:24 21.01.2020
4235 Clouds 4 1021 69 10000 9 310 21:59 21.01.2020
4236 Clouds 4 1021 69 10000 9 310 21:39 21.01.2020
4237 Clouds 4 1021 69 10000 9 310 21:21 21.01.2020
4238 Clouds 4 1021 64 10000 8 300 20:58 21.01.2020
4239 Clouds 4 1021 64 10000 8 300 20:39 21.01.2020
4240 Clouds 4 1021 64 10000 9 300 20:20 21.01.2020
4241 Clouds 4 1021 64 10000 9 300 19:58 21.01.2020
4242 Clouds 4 1021 69 10000 9 290 19:39 21.01.2020
4243 Clouds 4 1021 69 10000 9 290 19:21 21.01.2020
4244 Clouds 4 1022 65 10000 9 290 18:57 21.01.2020
4245 Clouds 4 1022 69 10000 8 290 18:39 21.01.2020
4246 Clouds 4 1022 69 10000 8 290 18:39 21.01.2020
4247 Clouds 4 1022 69 10000 8 290 18:20 21.01.2020
4248 Clouds 4 1022 69 10000 9 270 17:56 21.01.2020
4249 Clouds 3 1022 69 10000 7 270 17:38 21.01.2020
4250 Clouds 3 1022 69 10000 7 270 17:18 21.01.2020
4251 Clouds 4 1022 64 10000 9 280 16:38 21.01.2020
4252 Clouds 4 1022 64 10000 9 280 16:19 21.01.2020
4253 Clouds 4 1022 64 10000 9 280 16:19 21.01.2020
4254 Clouds 4 1023 64 10000 8 280 15:58 21.01.2020
4255 Clouds 5 1023 60 10000 8 280 15:38 21.01.2020
4256 Clouds 5 1023 60 10000 8 280 15:19 21.01.2020
4257 Clouds 5 1024 60 10000 8 290 14:39 21.01.2020
4258 Clouds 5 1024 60 10000 8 290 14:39 21.01.2020
4259 Clouds 5 1024 60 10000 8 290 14:21 21.01.2020
4260 Clouds 5 1024 56 10000 9 290 13:43 21.01.2020
4261 Clouds 5 1024 56 10000 9 290 13:20 21.01.2020
4262 Clouds 5 1025 56 10000 9 290 12:58 21.01.2020
4263 Clouds 5 1025 60 10000 9 280 12:39 21.01.2020
4264 Clouds 5 1026 64 10000 9 280 12:21 21.01.2020
4265 Clouds 4 1026 64 10000 9 280 11:55 21.01.2020
4266 Clouds 4 1026 69 10000 10 270 11:36 21.01.2020
4267 Clouds 4 1026 69 10000 10 270 11:18 21.01.2020
4268 Clouds 2 1028 74 10000 10 270 10:42 21.01.2020
4269 Clouds 2 1028 74 10000 10 270 10:22 21.01.2020
4270 Clouds 2 1029 80 10000 8 270 09:43 21.01.2020
4271 Clouds 2 1029 80 10000 8 270 09:23 21.01.2020
4272 Clouds 1 1029 80 10000 9 270 08:58 21.01.2020
4273 Clouds 1 1029 80 10000 9 280 08:40 21.01.2020
4274 Clouds 1 1030 76 10000 9 280 08:19 21.01.2020
4275 Clouds 0 1030 76 10000 9 280 07:42 21.01.2020
4276 Clouds 0 1030 76 10000 9 280 07:42 21.01.2020
4277 Clouds 0 1030 76 10000 9 280 07:23 21.01.2020
4278 Clouds 0 1030 76 10000 8 280 06:55 21.01.2020
4279 Clouds 1 1031 80 10000 7 290 06:37 21.01.2020
4280 Clouds 1 1031 80 10000 7 290 05:50 21.01.2020
4281 Clouds 1 1032 80 10000 6 290 04:41 21.01.2020
4282 Clouds 1 1032 80 10000 7 280 03:40 21.01.2020
4283 Clouds 1 1034 80 10000 7 300 02:26 21.01.2020
4284 Clouds 1 1034 80 10000 6 290 01:28 21.01.2020
4285 Clouds 1 1035 80 10000 6 290 00:40 21.01.2020
4286 Clouds 1 1035 80 10000 6 290 00:21 21.01.2020
4287 Clouds 1 1035 80 10000 6 290 23:41 20.01.2020
4288 Clouds 1 1035 80 10000 6 290 23:19 20.01.2020
4289 Clouds 1 1036 80 10000 7 290 22:58 20.01.2020
4290 Clouds 1 1036 80 10000 6 300 22:38 20.01.2020
4291 Clouds 1 1036 80 10000 6 300 22:38 20.01.2020
4292 Clouds 1 1036 80 10000 6 300 22:20 20.01.2020
4293 Clouds 1 1036 80 10000 6 300 22:20 20.01.2020
4294 Clouds 1 1036 80 10000 6 300 21:58 20.01.2020
4295 Clouds 1 1036 80 10000 6 300 21:37 20.01.2020
4296 Clouds 1 1036 80 10000 6 300 21:19 20.01.2020
4297 Clouds 1 1036 80 10000 7 300 20:57 20.01.2020
4298 Clouds 1 1037 80 10000 6 300 20:38 20.01.2020
4299 Clouds 1 1037 80 10000 6 300 20:18 20.01.2020
4300 Clouds 1 1037 86 10000 6 300 19:56 20.01.2020
4301 Clouds 1 1037 80 10000 6 310 19:38 20.01.2020
4302 Clouds 1 1037 80 10000 6 310 19:18 20.01.2020
4303 Clouds 1 1037 80 10000 6 300 18:44 20.01.2020
4304 Clouds 1 1037 80 10000 6 300 18:22 20.01.2020
4305 Clouds 1 1037 80 10000 6 300 17:58 20.01.2020
4306 Clouds 1 1037 80 10000 6 300 17:36 20.01.2020
4307 Clouds 1 1037 80 10000 5 300 17:18 20.01.2020
4308 Clouds 1 1037 80 10000 4 290 16:43 20.01.2020
4309 Clouds 1 1037 80 10000 4 290 16:25 20.01.2020
4310 Clouds 1 1037 80 10000 5 290 15:57 20.01.2020
4311 Clouds 1 1037 80 10000 5 300 15:39 20.01.2020
4312 Clouds 1 1037 80 10000 5 300 15:20 20.01.2020
4313 Clouds 1 1038 74 10000 7 320 14:41 20.01.2020
4314 Clouds 1 1038 74 10000 7 320 14:23 20.01.2020
4315 Clouds 1 1038 80 10000 6 330 13:59 20.01.2020
4316 Clouds 1 1037 80 10000 5 330 13:40 20.01.2020
4317 Clouds 1 1037 80 10000 5 330 13:22 20.01.2020
4318 Snow 1 1037 86 10000 5 310 12:47 20.01.2020
4319 Snow 1 1037 86 10000 5 310 12:28 20.01.2020
4320 Clouds 1 1038 87 8000 4 310 11:58 20.01.2020
4321 Mist 1 1038 87 5000 5 330 11:39 20.01.2020
4322 Clouds 0 1038 86 6000 4 320 11:21 20.01.2020
4323 Clouds 0 1038 86 6000 4 320 10:48 20.01.2020
4324 Snow 0 1038 100 6000 4 300 10:22 20.01.2020
4325 Clouds 0 1038 86 6000 4 310 10:22 20.01.2020
4326 Snow 0 1038 100 6000 4 300 09:57 20.01.2020
4327 Snow -1 1038 92 3800 3 300 09:38 20.01.2020
4328 Snow -1 1038 92 3800 3 300 09:19 20.01.2020
4329 Snow -1 1037 92 5000 3 290 08:43 20.01.2020
4330 Snow -1 1037 92 5000 3 290 08:25 20.01.2020
4331 Snow -1 1037 92 3900 3 290 07:43 20.01.2020
4332 Snow -2 1037 92 3900 3 290 07:24 20.01.2020
4333 Snow -2 1037 92 7000 3 300 06:46 20.01.2020
4334 Clouds -2 1037 92 9000 3 290 06:26 20.01.2020
4335 Clouds -2 1037 92 9000 3 300 05:42 20.01.2020
4336 Snow -2 1036 92 6000 3 300 05:21 20.01.2020
4337 Snow -2 1036 86 5000 2 300 04:41 20.01.2020
4338 Clouds -2 1036 86 10000 3 10 02:57 20.01.2020
4339 Clouds -2 1036 86 10000 4 320 01:52 20.01.2020
4340 Clouds -2 1036 86 10000 3 330 01:26 20.01.2020
4341 Clouds -2 1035 86 9000 3 320 00:44 20.01.2020
4342 Clouds -2 1035 86 9000 3 320 00:22 20.01.2020
4343 Clouds -2 1035 86 9000 3 10 23:39 19.01.2020
4344 Clouds -2 1035 86 9000 3 350 23:20 19.01.2020
4345 Clouds -2 1035 86 9000 3 10 23:20 19.01.2020
4346 Clouds -2 1035 86 9000 3 350 22:56 19.01.2020
4347 Clouds -2 1035 86 9000 3 350 22:56 19.01.2020
4348 Clouds -2 1035 86 7000 2 20 22:38 19.01.2020
4349 Clouds -2 1035 86 7000 2 20 22:20 19.01.2020
4350 Clouds -2 1034 86 7000 4 320 21:56 19.01.2020
4351 Clouds -2 1034 86 7000 4 320 21:56 19.01.2020
4352 Clouds -2 1034 86 6000 2 360 21:38 19.01.2020
4353 Clouds -2 1034 86 6000 2 360 21:20 19.01.2020
4354 Clouds -2 1034 86 6000 1 0 20:57 19.01.2020
4355 Clouds -2 1034 86 6000 1 0 20:38 19.01.2020
4356 Clouds -2 1034 86 6000 1 0 20:20 19.01.2020
4357 Clouds -2 1034 86 6000 2 280 19:56 19.01.2020
4358 Clouds -2 1033 86 6000 2 20 19:38 19.01.2020
4359 Clouds -2 1033 86 6000 2 20 19:19 19.01.2020
4360 Clouds -2 1033 86 6000 2 360 18:55 19.01.2020
4361 Clouds -2 1033 86 6000 2 10 18:37 19.01.2020
4362 Clouds -2 1033 92 6000 2 360 18:19 19.01.2020
4363 Clouds -2 1033 92 6000 2 360 17:58 19.01.2020
4364 Clouds -2 1033 92 7000 2 300 17:39 19.01.2020
4365 Clouds -2 1033 92 7000 2 300 17:20 19.01.2020
4366 Clouds -2 1032 92 8000 3 340 16:57 19.01.2020
4367 Clouds -2 1032 92 8000 2 340 16:38 19.01.2020
4368 Clouds -2 1032 92 8000 2 340 16:19 19.01.2020
4369 Clouds -2 1032 92 8000 2 280 15:57 19.01.2020
4370 Clouds -2 1031 92 8000 2 250 15:37 19.01.2020
4371 Clouds -2 1031 92 8000 2 250 15:19 19.01.2020
4372 Clouds -2 1031 92 8000 1 0 14:57 19.01.2020
4373 Clouds -2 1031 92 9000 0.7 244 14:38 19.01.2020
4374 Clouds -2 1031 92 9000 1.2 223 14:18 19.01.2020
4375 Clouds -2 1031 86 9000 2 290 13:56 19.01.2020
4376 Clouds -2 1030 92 9000 1 0 13:37 19.01.2020
4377 Clouds -2 1030 92 9000 1 0 13:18 19.01.2020
4378 Clouds -1 1030 92 9000 1 0 12:54 19.01.2020
4379 Clouds -1 1030 92 9000 2 270 12:36 19.01.2020
4380 Clouds -2 1030 92 9000 2 270 12:18 19.01.2020
4381 Clouds -2 1030 92 8000 2 220 11:39 19.01.2020
4382 Clouds -2 1030 92 9000 1 0 11:20 19.01.2020
4383 Clouds -2 1030 92 9000 1 0 10:55 19.01.2020
4384 Clouds -2 1030 92 8000 3 230 10:37 19.01.2020
4385 Clouds -2 1030 92 8000 3 230 10:37 19.01.2020
4386 Clouds -2 1030 92 9000 2 220 10:18 19.01.2020
4387 Clouds -2 1030 92 9000 2 220 10:18 19.01.2020
4388 Clouds -2 1030 92 8000 2 240 09:44 19.01.2020
4389 Clouds -2 1030 92 8000 2 240 09:25 19.01.2020
4390 Clouds -2 1029 92 6000 2 200 08:58 19.01.2020
4391 Mist -2 1029 92 4900 2 220 08:39 19.01.2020
4392 Mist -2 1029 92 4900 2 220 08:20 19.01.2020
4393 Mist -2 1029 92 5000 2 220 07:42 19.01.2020
4394 Mist -2 1029 92 5000 2 220 07:21 19.01.2020
4395 Clouds -2 1028 92 6000 2 250 06:50 19.01.2020
4396 Clouds -2 1028 92 6000 3 240 05:21 19.01.2020
4397 Clouds -2 1028 100 6000 2 210 02:43 19.01.2020
4398 Clouds -2 1028 100 6000 3 240 02:21 19.01.2020
4399 Clouds -2 1028 100 6000 3 230 01:25 19.01.2020
4400 Mist -2 1027 100 5000 2 220 00:45 19.01.2020
4401 Mist -2 1027 100 5000 2 220 00:27 19.01.2020
4402 Mist -2 1027 100 5000 2 220 23:56 18.01.2020
4403 Mist -2 1027 100 4500 2 220 23:38 18.01.2020
4404 Mist -2 1027 100 4500 2 220 23:18 18.01.2020
4405 Mist -2 1028 100 4700 2 190 22:55 18.01.2020
4406 Mist -2 1028 100 4200 3 240 22:36 18.01.2020
4407 Mist -2 1028 100 4200 3 240 22:18 18.01.2020
4408 Mist -2 1028 100 4200 3 240 22:18 18.01.2020
4409 Mist -2 1028 100 4300 3 210 21:56 18.01.2020
4410 Mist -2 1028 100 4500 2 220 21:36 18.01.2020
4411 Mist -2 1028 100 4500 2 220 21:18 18.01.2020
4412 Mist -1 1028 100 4300 3 220 20:42 18.01.2020
4413 Mist -1 1028 100 4000 3 190 20:20 18.01.2020
4414 Mist -1 1028 100 4000 3 190 19:55 18.01.2020
4415 Mist -1 1028 100 4000 2 210 19:36 18.01.2020
4416 Mist -1 1028 100 4000 2 210 19:36 18.01.2020
4417 Mist -1 1028 100 4000 2 210 19:18 18.01.2020
4418 Mist -1 1028 100 4400 2 230 18:40 18.01.2020
4419 Mist -1 1028 100 4400 2 230 18:21 18.01.2020
4420 Mist -1 1028 100 3600 2 200 17:41 18.01.2020
4421 Mist -1 1028 100 3600 2 200 17:21 18.01.2020
4422 Mist -1 1028 100 4300 3 210 16:57 18.01.2020
4423 Mist -1 1028 100 4700 3 220 16:39 18.01.2020
4424 Mist -1 1028 100 4700 3 220 16:39 18.01.2020
4425 Mist -1 1028 100 4700 3 220 16:21 18.01.2020
4426 Mist -1 1028 100 3700 2 200 15:57 18.01.2020
4427 Mist -1 1028 100 3500 3 220 15:39 18.01.2020
4428 Mist -1 1028 100 3500 3 220 15:20 18.01.2020
4429 Clear -1 999 83 0 2.14 184 14:42 18.01.2020
4430 Clear -1 999 73 0 2.94 186 14:21 18.01.2020
4431 Clear -1 1027 16 0 2.94 186 13:59 18.01.2020
4432 Clear -1 1029 97 0 0.45 148 13:39 18.01.2020
4433 Mist -1 1029 100 4400 3 210 13:20 18.01.2020
4434 Mist -1 1029 100 4400 3 210 12:54 18.01.2020
4435 Mist -1 1029 100 4400 3 210 12:54 18.01.2020
4436 Mist -1 1029 100 4400 3 210 12:36 18.01.2020
4437 Mist -1 1029 100 4400 3 210 12:18 18.01.2020
4438 Mist -1 1030 100 3600 2 200 11:43 18.01.2020
4439 Mist -1 1030 100 3600 2 200 11:21 18.01.2020
4440 Mist -1 1030 100 2400 3 210 10:43 18.01.2020
4441 Mist -1 1030 100 2400 3 210 10:22 18.01.2020
4442 Mist -1 1030 100 2200 3 170 09:59 18.01.2020
4443 Mist -1 1030 100 1300 3 190 09:41 18.01.2020
4444 Mist -1 1030 100 1100 2 190 09:19 18.01.2020
4445 Mist -2 1030 100 1400 3 200 08:42 18.01.2020
4446 Mist -2 1030 100 1400 3 200 08:20 18.01.2020
4447 Mist -2 1030 100 1100 2 180 07:59 18.01.2020
4448 Mist -2 1031 100 1200 3 220 07:39 18.01.2020
4449 Mist -2 1031 100 1900 3 180 06:52 18.01.2020
4450 Mist -2 1031 100 1600 4 220 06:33 18.01.2020
4451 Mist -2 1031 100 1600 3 170 05:52 18.01.2020
4452 Mist -2 1031 100 2000 1 0 04:25 18.01.2020
4453 Fog -1 1031 100 1100 2 210 02:38 18.01.2020
4454 Fog -1 1031 100 1200 2 160 01:40 18.01.2020
4455 Mist -1 1031 100 1400 1 0 00:39 18.01.2020
4456 Mist -1 1031 100 1400 1 0 00:20 18.01.2020
4457 Mist -1 1032 100 2900 1.53 190 23:58 17.01.2020
4458 Mist -1 1032 100 2500 1.53 190 23:39 17.01.2020
4459 Fog -2 1032 100 500 1.29 177 23:18 17.01.2020
4460 Fog -2 1032 100 450 1.29 177 22:41 17.01.2020
4461 Fog -2 1032 100 450 1.29 177 22:19 17.01.2020
4462 Fog -2 1032 100 500 2 200 21:55 17.01.2020
4463 Fog -2 1032 100 1300 1 180 21:37 17.01.2020
4464 Fog -2 1032 100 1300 1 180 21:19 17.01.2020
4465 Fog -1 1032 100 250 1 0 20:41 17.01.2020
4466 Fog -1 1032 100 250 1 0 20:21 17.01.2020
4467 Fog -1 1032 100 250 1 0 20:21 17.01.2020
4468 Fog -1 1032 100 1100 1 69 19:58 17.01.2020
4469 Mist -1 1033 100 3500 2 220 19:38 17.01.2020
4470 Mist -1 1033 100 3500 2 220 19:20 17.01.2020
4471 Mist 0 1033 90 3100 2 230 18:58 17.01.2020
4472 Mist 0 1033 90 3100 2 230 18:58 17.01.2020
4473 Mist 0 1033 90 2600 1 230 18:38 17.01.2020
4474 Mist 0 1033 100 2900 2 240 18:20 17.01.2020
4475 Mist 0 1032 90 3700 2 270 17:40 17.01.2020
4476 Mist 0 1032 85 3700 2 270 17:21 17.01.2020
4477 Mist 0 1032 85 5000 2 260 16:57 17.01.2020
4478 Mist 0 1032 85 5000 2 260 16:57 17.01.2020
4479 Mist 0 1032 85 5000 1 260 16:38 17.01.2020
4480 Mist 0 1032 85 4300 2 280 16:18 17.01.2020
4481 Mist 0 1032 85 4300 2 280 15:44 17.01.2020
4482 Mist 0 1033 85 4200 2 300 15:26 17.01.2020
4483 Mist 1 1032 85 3800 2 280 14:44 17.01.2020
4484 Mist 1 1032 85 3800 2 280 14:26 17.01.2020
4485 Mist 1 1033 81 4300 2 280 13:56 17.01.2020
4486 Mist 1 1033 81 4700 3 290 13:37 17.01.2020
4487 Mist 1 1033 80 4700 3 290 13:18 17.01.2020
4488 Mist 1 1033 80 4700 3 290 13:18 17.01.2020
4489 Mist 2 1033 100 3700 2 310 12:42 17.01.2020
4490 Mist 1 1033 100 3700 2 310 12:42 17.01.2020
4491 Mist 1 1033 100 3700 2 310 12:21 17.01.2020
4492 Mist 1 1033 100 2200 2 300 11:38 17.01.2020
4493 Mist 1 1033 83 1900 2 270 11:18 17.01.2020
4494 Fog 0 1033 100 250 1 0 10:43 17.01.2020
4495 Fog 1 1033 100 250 1 0 10:23 17.01.2020
4496 Fog 0 1033 100 200 1 0 09:58 17.01.2020
4497 Fog 0 1033 100 200 1 0 09:58 17.01.2020
4498 Fog 0 1033 83 400 3 280 09:38 17.01.2020
4499 Fog 0 1033 83 650 3 310 09:19 17.01.2020
4500 Fog 0 1032 83 450 3 290 08:43 17.01.2020
4501 Mist 0 1032 94 1200 2 310 08:24 17.01.2020
4502 Mist 0 1032 94 1200 2 310 07:53 17.01.2020
4503 Mist 0 1032 94 3500 1 0 07:31 17.01.2020
4504 Mist 1 1032 94 4800 2 330 06:57 17.01.2020
4505 Mist 0 1032 94 4900 2 320 06:38 17.01.2020
4506 Mist 1 1031 100 5000 2 310 05:38 17.01.2020
4507 Clouds 1 1029 13 0 2.37 325 03:39 17.01.2020
4508 Clouds 2 1029 11 0 2.37 325 02:45 17.01.2020
4509 Clouds 2 1001 95 0 2.86 317 01:47 17.01.2020
4510 Clouds 2 1030 91 0 0.45 249 01:28 17.01.2020
4511 Clouds 1 1030 94 6000 4 280 00:46 17.01.2020
4512 Clouds 0 1030 94 6000 4 280 00:21 17.01.2020
4513 Clouds 1 1030 94 6000 4 280 23:43 16.01.2020
4514 Clouds 0 1030 94 6000 4 280 23:25 16.01.2020
4515 Clouds 0 1030 89 6000 4 270 22:55 16.01.2020
4516 Clouds 0 1029 89 6000 4 270 22:37 16.01.2020
4517 Clouds 0 1029 89 6000 4 270 22:18 16.01.2020
4518 Clouds 0 1029 89 6000 5 270 21:54 16.01.2020
4519 Mist 0 1029 89 5000 5 280 21:36 16.01.2020
4520 Clouds 0 1029 89 6000 4 270 21:18 16.01.2020
4521 Mist 0 1029 89 5000 4 270 20:40 16.01.2020
4522 Mist 0 1029 81 5000 4 270 20:20 16.01.2020
4523 Clouds 0 1029 81 6000 4 270 19:57 16.01.2020
4524 Clouds 0 1029 81 6000 6 270 19:39 16.01.2020
4525 Clouds 0 1029 81 6000 6 270 19:20 16.01.2020
4526 Clouds 0 1029 81 7000 6 280 18:56 16.01.2020
4527 Clouds 0 1029 81 7000 5 260 18:37 16.01.2020
4528 Clouds 0 1029 81 7000 5 260 18:18 16.01.2020
4529 Clouds 0 1028 81 7000 5 250 17:56 16.01.2020
4530 Clouds 0 1028 81 8000 5 250 17:38 16.01.2020
4531 Clouds 0 1028 82 8000 5 250 17:20 16.01.2020
4532 Clouds 1 1028 86 9000 5 240 16:40 16.01.2020
4533 Clouds 1 1028 86 9000 5 240 16:21 16.01.2020
4534 Clouds 1 1028 86 9000 4 240 15:56 16.01.2020
4535 Clouds 1 1028 86 10000 5 230 15:38 16.01.2020
4536 Clouds 1 1028 86 10000 5 230 15:19 16.01.2020
4537 Clouds 1 1028 86 10000 4 240 14:42 16.01.2020
4538 Clouds 1 1028 86 10000 4 240 14:23 16.01.2020
4539 Clouds 1 1028 86 10000 5 250 13:47 16.01.2020
4540 Clouds 1 1028 86 10000 4 240 13:29 16.01.2020
4541 Clouds 1 1028 86 9000 4 240 12:57 16.01.2020
4542 Clouds 1 1028 86 9000 5 230 12:39 16.01.2020
4543 Clouds 1 1028 86 9000 5 230 12:20 16.01.2020
4544 Clouds 1 1029 86 9000 6 240 11:42 16.01.2020
4545 Clouds 1 1029 86 9000 6 240 11:23 16.01.2020
4546 Clouds 1 1029 86 9000 4 230 10:55 16.01.2020
4547 Clouds 1 1029 86 8000 5 230 10:37 16.01.2020
4548 Clouds 1 1029 86 8000 5 230 10:19 16.01.2020
4549 Clouds 1 1029 80 7000 5 220 09:43 16.01.2020
4550 Clouds 1 1029 80 7000 5 220 09:24 16.01.2020
4551 Clouds 1 1029 80 7000 4 230 08:58 16.01.2020
4552 Clouds 1 1029 80 7000 6 230 08:40 16.01.2020
4553 Clouds 1 1029 86 7000 6 230 08:19 16.01.2020
4554 Clouds 1 1029 86 6000 5 230 07:42 16.01.2020
4555 Clouds 1 1029 86 6000 5 230 07:23 16.01.2020
4556 Clouds 1 1029 86 7000 5 220 06:52 16.01.2020
4557 Clouds 1 1029 86 7000 5 220 06:34 16.01.2020
4558 Clouds 1 1029 86 6000 5 220 05:49 16.01.2020
4559 Clouds 0 1029 87 6000 5 220 04:50 16.01.2020
4560 Clouds 1 1029 86 8000 5 220 03:57 16.01.2020
4561 Clouds 1 1029 86 9000 5 220 02:47 16.01.2020
4562 Clouds 1 1029 87 10000 4 220 01:34 16.01.2020
4563 Clouds 1 1029 87 9000 4 220 00:43 16.01.2020
4564 Clouds 2 1029 87 9000 4 220 00:23 16.01.2020
4565 Clouds 1 1029 87 9000 4 220 23:45 15.01.2020
4566 Clouds 1 1029 85 9000 5 220 23:22 15.01.2020
4567 Clouds 2 1030 85 9000 5 220 22:57 15.01.2020
4568 Clouds 1 1029 85 7000 5 210 22:38 15.01.2020
4569 Clouds 1 1029 85 7000 5 210 22:18 15.01.2020
4570 Clouds 1 1030 85 7000 5 210 21:56 15.01.2020
4571 Clouds 1 1030 85 7000 5 220 21:37 15.01.2020
4572 Clouds 1 1030 85 7000 5 220 21:37 15.01.2020
4573 Clouds 1 1030 85 7000 5 220 21:18 15.01.2020
4574 Clouds 1 1029 85 7000 5 210 20:55 15.01.2020
4575 Clouds 2 1030 85 7000 5 210 20:37 15.01.2020
4576 Clouds 2 1030 80 7000 5 210 20:18 15.01.2020
4577 Clouds 2 1030 80 7000 5 210 19:54 15.01.2020
4578 Clouds 2 1030 80 8000 5 200 19:36 15.01.2020
4579 Clouds 2 1030 80 8000 5 200 19:18 15.01.2020
4580 Clouds 2 1030 80 8000 5 200 19:18 15.01.2020
4581 Clouds 2 1030 80 9000 5 210 18:55 15.01.2020
4582 Clouds 2 1030 80 10000 5 210 18:37 15.01.2020
4583 Clouds 2 1029 80 9000 5 210 18:19 15.01.2020
4584 Clouds 2 1030 80 9000 4 220 17:41 15.01.2020
4585 Clouds 2 1030 71 9000 5 220 17:22 15.01.2020
4586 Clouds 2 1030 71 9000 5 220 16:57 15.01.2020
4587 Clouds 2 1029 71 8000 5 210 16:38 15.01.2020
4588 Clouds 2 1029 71 10000 5 200 16:20 15.01.2020
4589 Clouds 2 1029 71 8000 5 210 16:20 15.01.2020
4590 Clouds 2 1029 71 8000 5 210 16:20 15.01.2020
4591 Clouds 2 1029 71 8000 5 210 16:20 15.01.2020
4592 Clouds 2 1029 80 9000 5 200 15:43 15.01.2020
4593 Clouds 2 1029 80 9000 5 200 15:21 15.01.2020
4594 Clouds 2 1029 86 9000 4 200 14:57 15.01.2020
4595 Clouds 4 1029 71 10000 5 200 14:39 15.01.2020
4596 Clouds 4 1029 63 10000 5 200 14:18 15.01.2020
4597 Clouds 4 1029 63 10000 5 200 14:18 15.01.2020
4598 Clouds 5 1028 63 10000 4 200 13:44 15.01.2020
4599 Clouds 5 1029 65 10000 4 210 13:24 15.01.2020
4600 Clouds 5 1029 63 10000 4 210 12:57 15.01.2020
4601 Clouds 5 1029 70 10000 5 210 12:39 15.01.2020
4602 Clouds 5 1029 70 10000 5 210 12:19 15.01.2020
4603 Rain 5 1029 75 10000 4 210 11:55 15.01.2020
4604 Clouds 5 1029 63 10000 4 220 11:36 15.01.2020
4605 Clouds 5 1029 63 10000 4 220 11:36 15.01.2020
4606 Clouds 4 1029 80 10000 5 220 11:18 15.01.2020
4607 Clouds 3 1029 86 10000 4 210 10:41 15.01.2020
4608 Clouds 3 1029 86 10000 4 210 10:21 15.01.2020
4609 Clouds 2 1029 80 9000 4 210 09:42 15.01.2020
4610 Clouds 2 1029 80 9000 4 210 09:22 15.01.2020
4611 Clouds 1 1029 75 8000 4 200 08:46 15.01.2020
4612 Clouds 0 1029 75 8000 4 210 08:28 15.01.2020
4613 Clouds -1 1029 91 8000 4 200 07:59 15.01.2020
4614 Clouds -1 1028 91 8000 3 200 07:40 15.01.2020
4615 Clouds -1 1028 91 8000 3 200 07:21 15.01.2020
4616 Clouds -1 1028 91 7000 3 200 06:43 15.01.2020
4617 Clouds -1 1028 91 7000 3 200 05:52 15.01.2020
4618 Mist -1 1028 100 5000 2 180 03:44 15.01.2020
4619 Clouds -1 1028 100 6000 2.53 184 01:50 15.01.2020
4620 Mist 0 1027 100 5000 2 140 01:22 15.01.2020
4621 Mist -1 1028 100 4200 1 0 00:44 15.01.2020
4622 Mist -1 1027 100 3700 1 90 00:25 15.01.2020
4623 Mist -1 1027 100 5000 1 0 23:47 14.01.2020
4624 Mist -1 1027 100 4000 1 0 23:29 14.01.2020
4625 Fog -1 1027 100 3000 1 0 22:58 14.01.2020
4626 Mist 0 1027 100 1600 1.97 181 22:40 14.01.2020
4627 Mist 0 1027 100 1600 1.97 181 22:19 14.01.2020
4628 Mist 0 1027 100 3400 1 0 21:58 14.01.2020
4629 Mist -2 1027 100 2100 1 270 21:39 14.01.2020
4630 Mist -1 1027 100 2100 1 270 21:19 14.01.2020
4631 Fog -1 1027 100 1600 1 0 20:56 14.01.2020
4632 Fog 0 1026 100 4100 2 160 20:38 14.01.2020
4633 Fog 0 1026 100 4100 2 160 20:18 14.01.2020
4634 Fog 0 1026 100 4100 2 160 19:55 14.01.2020
4635 Mist 0 1026 100 4300 0.96 168 19:37 14.01.2020
4636 Mist 0 1026 100 4300 0.96 168 19:18 14.01.2020
4637 Mist 0 1026 100 4300 0.96 168 19:18 14.01.2020
4638 Mist 1 1026 92 3600 1 0 18:41 14.01.2020
4639 Mist 0 1026 92 3600 1 0 18:20 14.01.2020
4640 Mist 0 1026 92 3600 1 0 17:58 14.01.2020
4641 Mist 1 1026 93 4400 1 210 17:37 14.01.2020
4642 Mist 1 1026 93 4400 1 210 17:18 14.01.2020
4643 Clear 2 1025 93 7000 1.19 246 16:43 14.01.2020
4644 Clear 3 1025 93 7000 1.19 246 16:23 14.01.2020
4645 Clear 3 1025 93 7000 1.19 246 16:23 14.01.2020
4646 Clear 3 1025 86 10000 1.19 246 15:58 14.01.2020
4647 Clear 5 1025 75 10000 1 0 15:40 14.01.2020
4648 Clear 5 1024 75 10000 2 280 15:19 14.01.2020
4649 Clear 5 1024 75 10000 2 280 14:44 14.01.2020
4650 Clouds 6 1024 70 10000 2 270 14:21 14.01.2020
4651 Clouds 6 1024 70 10000 3 280 13:57 14.01.2020
4652 Clouds 6 1023 80 10000 3 280 13:38 14.01.2020
4653 Clouds 6 1023 80 10000 3 280 13:18 14.01.2020
4654 Clouds 5 1024 80 10000 3 280 12:41 14.01.2020
4655 Clouds 5 1023 80 10000 4 260 12:21 14.01.2020
4656 Clouds 4 1023 80 10000 4 260 11:55 14.01.2020
4657 Clouds 4 1023 80 10000 5 270 11:36 14.01.2020
4658 Clouds 4 1023 86 10000 4 270 11:18 14.01.2020
4659 Clouds 3 1023 86 10000 3 250 10:40 14.01.2020
4660 Clouds 3 1023 86 10000 3 250 10:20 14.01.2020
4661 Clouds 3 1023 86 10000 3 240 09:58 14.01.2020
4662 Clouds 3 1023 86 10000 3 240 09:40 14.01.2020
4663 Clouds 3 1023 93 9000 3 240 09:21 14.01.2020
4664 Clouds 3 1023 93 9000 3 240 08:48 14.01.2020
4665 Clouds 2 1023 93 9000 3 240 08:25 14.01.2020
4666 Clouds 2 1023 93 9000 3 230 07:56 14.01.2020
4667 Clouds 2 1023 93 9000 3 240 07:34 14.01.2020
4668 Clouds 2 1022 93 9000 3 240 06:56 14.01.2020
4669 Clouds 2 1022 93 9000 3 220 06:34 14.01.2020
4670 Clouds 2 1022 93 10000 3 260 05:28 14.01.2020
4671 Clouds 3 1022 93 10000 3 240 03:52 14.01.2020
4672 Clouds 3 1022 93 10000 3 240 03:52 14.01.2020
4673 Clouds 3 1022 93 9000 2 250 02:50 14.01.2020
4674 Clouds 3 1022 86 9000 2 220 01:56 14.01.2020
4675 Clouds 3 1022 93 9000 2 240 00:52 14.01.2020
4676 Clouds 3 1022 93 8000 3 260 00:33 14.01.2020
4677 Clouds 3 1022 86 8000 2 260 23:55 13.01.2020
4678 Clouds 3 1022 86 9000 3 260 23:37 13.01.2020
4679 Clouds 3 1022 86 9000 3 260 23:18 13.01.2020
4680 Clouds 3 1022 86 9000 2 250 22:42 13.01.2020
4681 Clouds 3 1022 86 9000 3 260 22:21 13.01.2020
4682 Clouds 3 1022 86 9000 3 260 21:57 13.01.2020
4683 Clouds 3 1022 86 9000 3 260 21:38 13.01.2020
4684 Clouds 3 1022 86 9000 3 260 21:19 13.01.2020
4685 Clouds 3 1022 86 10000 3 260 20:59 13.01.2020
4686 Clouds 3 1022 86 10000 3 260 20:59 13.01.2020
4687 Clouds 3 1022 86 10000 3 260 20:59 13.01.2020
4688 Clouds 3 1022 86 10000 3 260 20:41 13.01.2020
4689 Clouds 3 1022 86 10000 3 260 20:22 13.01.2020
4690 Clouds 3 1022 86 10000 3 260 20:22 13.01.2020
4691 Clouds 3 1022 86 10000 3 270 19:59 13.01.2020
4692 Clouds 3 1022 86 10000 3 270 19:39 13.01.2020
4693 Clouds 3 1022 86 10000 3 270 19:20 13.01.2020
4694 Clouds 3 1022 86 10000 3 270 19:20 13.01.2020
4695 Clouds 3 1022 86 10000 3 270 18:56 13.01.2020
4696 Clouds 3 1021 86 10000 3 260 18:37 13.01.2020
4697 Clouds 3 1021 86 10000 3 260 18:19 13.01.2020
4698 Clouds 3 1021 86 10000 5 280 17:43 13.01.2020
4699 Clouds 3 1021 86 10000 5 280 17:25 13.01.2020
4700 Clouds 3 1020 85 0 3.67 283 16:57 13.01.2020
4701 Clouds 3 992 85 0 3.67 283 16:38 13.01.2020
4702 Clouds 4 1021 85 0 0.45 75 16:20 13.01.2020
4703 Clouds 4 1019 85 0 3.67 283 15:44 13.01.2020
4704 Clouds 4 1020 84 0 3.67 283 15:24 13.01.2020
4705 Clouds 4 1019 85 0 3.67 283 14:59 13.01.2020
4706 Clouds 4 1020 82 0 0.89 273 14:39 13.01.2020
4707 Clouds 4 1019 85 0 3.67 283 14:39 13.01.2020
4708 Clouds 4 1020 82 0 0.89 273 14:39 13.01.2020
4709 Clouds 4 1020 84 0 0.45 78 14:20 13.01.2020
4710 Clouds 4 1020 84 0 0.89 314 13:55 13.01.2020
4711 Clouds 4 1018 75 0 5.42 288 13:37 13.01.2020
4712 Clouds 4 991 75 0 5.42 288 13:19 13.01.2020
4713 Clouds 3 1019 75 10000 8 300 12:43 13.01.2020
4714 Clouds 3 1019 75 10000 8 300 12:23 13.01.2020
4715 Clouds 3 1019 75 10000 8 300 11:57 13.01.2020
4716 Clouds 3 1019 74 10000 6 290 11:37 13.01.2020
4717 Clouds 3 1019 74 10000 6 290 11:19 13.01.2020
4718 Clouds 3 1019 74 10000 6 280 10:56 13.01.2020
4719 Clouds 3 1019 74 10000 7 270 10:37 13.01.2020
4720 Clouds 3 1019 74 10000 7 270 10:19 13.01.2020
4721 Clouds 3 1018 80 10000 6 270 09:44 13.01.2020
4722 Clouds 2 1018 86 10000 6 270 09:24 13.01.2020
4723 Clouds 2 1018 86 10000 6 270 08:57 13.01.2020
4724 Clouds 2 1018 86 10000 6 270 08:57 13.01.2020
4725 Clouds 1 1018 86 10000 7 270 08:37 13.01.2020
4726 Clouds 1 1018 86 10000 5 270 08:18 13.01.2020
4727 Clouds 1 1018 86 10000 5 260 07:43 13.01.2020
4728 Clouds 1 1018 86 10000 5 260 07:24 13.01.2020
4729 Clouds 1 1018 86 10000 5 260 06:37 13.01.2020
4730 Clouds 1 1018 86 10000 5 260 06:37 13.01.2020
4731 Clouds 1 1019 86 10000 5 260 05:37 13.01.2020
4732 Clouds 1 1019 86 10000 5 260 05:18 13.01.2020
4733 Clouds 1 1019 86 10000 6 260 03:41 13.01.2020
4734 Clouds 0 1020 86 10000 5 260 02:50 13.01.2020
4735 Clouds 0 1020 86 10000 5 260 02:30 13.01.2020
4736 Clouds 0 1020 86 10000 5 260 01:33 13.01.2020
4737 Clouds 0 1020 86 10000 5 250 00:46 13.01.2020
4738 Clouds 0 1020 81 10000 5 260 00:26 13.01.2020
4739 Clouds 0 1020 86 10000 5 260 23:58 12.01.2020
4740 Clouds 0 1021 86 10000 4 250 23:40 12.01.2020
4741 Clouds 0 1021 86 10000 4 250 23:21 12.01.2020
4742 Clouds 0 1021 86 10000 4 250 22:56 12.01.2020
4743 Clouds 1 1021 86 10000 4 250 22:37 12.01.2020
4744 Clouds 1 1021 86 10000 4 250 22:18 12.01.2020
4745 Clouds 1 1021 86 10000 4 260 21:42 12.01.2020
4746 Clouds 1 1021 86 10000 4 260 21:20 12.01.2020
4747 Clouds 1 1022 86 10000 8 270 20:59 12.01.2020
4748 Clouds 1 1022 86 10000 7 260 20:39 12.01.2020
4749 Clouds 1 1022 86 10000 7 260 20:21 12.01.2020
4750 Clouds 1 1022 86 10000 7 260 19:57 12.01.2020
4751 Clouds 1 1022 86 10000 7 250 19:38 12.01.2020
4752 Clouds 1 1022 86 10000 7 250 19:19 12.01.2020
4753 Clouds 1 1022 86 10000 7 250 19:19 12.01.2020
4754 Clouds 1 1022 80 10000 6 250 18:58 12.01.2020
4755 Clouds 1 1023 80 10000 6 250 18:40 12.01.2020
4756 Clouds 1 1023 80 10000 6 250 18:21 12.01.2020
4757 Clouds 1 1023 80 10000 5 250 17:59 12.01.2020
4758 Clouds 1 1023 80 10000 6 250 17:40 12.01.2020
4759 Clouds 1 1023 80 10000 6 250 17:19 12.01.2020
4760 Clouds 1 1024 80 10000 6 260 16:56 12.01.2020
4761 Clouds 0 1024 81 10000 6 250 16:56 12.01.2020
4762 Clouds 0 1024 81 10000 6 250 16:37 12.01.2020
4763 Clouds 0 1024 81 10000 6 250 16:19 12.01.2020
4764 Clouds 0 1024 81 10000 6 250 15:43 12.01.2020
4765 Clouds 0 1024 81 10000 7 250 15:24 12.01.2020
4766 Clouds 0 1025 81 10000 6 260 14:57 12.01.2020
4767 Clouds 1 1025 81 10000 7 260 14:38 12.01.2020
4768 Clouds 1 1025 71 10000 7 260 14:20 12.01.2020
4769 Clouds 2 1025 80 10000 6 260 13:54 12.01.2020
4770 Clouds 1 1025 80 10000 6 250 13:36 12.01.2020
4771 Clouds 1 1026 80 10000 6 260 13:18 12.01.2020
4772 Clouds 1 1026 80 10000 6 270 12:42 12.01.2020
4773 Clouds 2 1026 80 10000 6 270 12:20 12.01.2020
4774 Clouds 1 1026 80 10000 5 270 11:59 12.01.2020
4775 Clouds 1 1027 80 10000 6 270 11:39 12.01.2020
4776 Clouds 1 1027 80 10000 6 270 11:20 12.01.2020
4777 Clouds 0 1027 70 10000 5 290 10:42 12.01.2020
4778 Clouds 0 1027 70 10000 5 290 10:22 12.01.2020
4779 Clouds 0 1027 70 10000 5 320 09:57 12.01.2020
4780 Clouds 0 1028 70 10000 6 310 09:39 12.01.2020
4781 Clouds 0 1028 70 10000 6 310 09:20 12.01.2020
4782 Clouds 0 1027 70 10000 5 310 08:45 12.01.2020
4783 Clouds 0 1027 83 10000 4 310 08:21 12.01.2020
4784 Clouds -1 1027 92 10000 5 320 07:42 12.01.2020
4785 Clouds -1 1027 92 10000 5 320 07:24 12.01.2020
4786 Clouds -1 1027 81 10000 4 320 06:49 12.01.2020
4787 Clouds -1 1027 81 10000 4 320 06:30 12.01.2020
4788 Clouds 0 1027 81 10000 4 320 05:37 12.01.2020
4789 Clouds 0 1027 81 10000 5 320 04:30 12.01.2020
4790 Clouds 0 1026 81 10000 4 330 03:27 12.01.2020
4791 Clouds 0 1026 81 10000 3 330 02:34 12.01.2020
4792 Clouds 0 1025 77 10000 4 340 01:55 12.01.2020
4793 Clouds 0 1025 80 10000 4 340 01:29 12.01.2020
4794 Clouds 1 1024 80 10000 4 10 00:42 12.01.2020
4795 Clouds 1 1024 80 10000 4 10 00:20 12.01.2020
4796 Clouds 2 1024 74 10000 5 360 23:42 11.01.2020
4797 Clouds 2 1024 74 10000 5 360 23:42 11.01.2020
4798 Clouds 2 1024 74 10000 5 360 23:42 11.01.2020
4799 Clouds 2 1024 74 10000 5 360 23:20 11.01.2020
4800 Clouds 2 1024 74 10000 6 360 22:59 11.01.2020
4801 Clouds 2 1023 80 10000 5 10 22:41 11.01.2020
4802 Clouds 2 1023 80 10000 6 10 22:20 11.01.2020
4803 Clouds 2 1023 80 10000 6 10 21:58 11.01.2020
4804 Snow 2 1022 73 9000 5 10 21:40 11.01.2020
4805 Snow 2 1021 73 10000 6 10 21:18 11.01.2020
4806 Clouds 2 1021 73 10000 6 20 20:42 11.01.2020
4807 Clouds 2 1021 85 10000 6 20 20:22 11.01.2020
4808 Clouds 2 1020 85 10000 8 20 19:58 11.01.2020
4809 Clouds 3 1020 86 10000 8 20 19:39 11.01.2020
4810 Clouds 3 1020 86 10000 8 20 19:39 11.01.2020
4811 Clouds 3 1020 86 10000 8 20 19:21 11.01.2020
4812 Drizzle 3 1019 86 6000 8 10 18:59 11.01.2020
4813 Clouds 5 1017 93 9000 6 300 18:39 11.01.2020
4814 Clouds 5 1017 93 9000 6 300 18:20 11.01.2020
4815 Clouds 6 1017 87 10000 6 300 17:58 11.01.2020
4816 Clouds 6 1017 87 10000 6 300 17:58 11.01.2020
4817 Clouds 6 1016 87 10000 6 290 17:39 11.01.2020
4818 Clouds 6 1016 87 10000 6 290 17:19 11.01.2020
4819 Clouds 6 1016 87 10000 6 290 16:46 11.01.2020
4820 Clouds 6 1016 87 10000 6 290 16:27 11.01.2020
4821 Clouds 6 1016 87 10000 6 290 15:59 11.01.2020
4822 Clouds 6 1016 87 10000 6 280 15:41 11.01.2020
4823 Clouds 6 1016 87 10000 6 280 15:22 11.01.2020
4824 Clouds 6 1015 87 10000 6 280 14:57 11.01.2020
4825 Clouds 7 1015 81 10000 7 280 14:38 11.01.2020
4826 Clouds 7 1015 81 10000 6 280 14:20 11.01.2020
4827 Clouds 7 1015 81 10000 6 300 13:41 11.01.2020
4828 Clouds 7 1015 81 10000 6 300 13:20 11.01.2020
4829 Clouds 7 1015 81 10000 6 290 12:58 11.01.2020
4830 Clouds 7 1015 81 10000 6 290 12:40 11.01.2020
4831 Clouds 7 1015 81 10000 6 290 12:21 11.01.2020
4832 Clouds 6 1015 93 9000 6 280 11:48 11.01.2020
4833 Clouds 6 1015 93 9000 6 280 11:26 11.01.2020
4834 Clouds 6 1014 93 10000 6 280 10:51 11.01.2020
4835 Clouds 6 1015 93 7000 7 280 10:30 11.01.2020
4836 Clouds 5 1015 93 7000 7 280 09:58 11.01.2020
4837 Clouds 5 1015 93 6000 7 280 09:38 11.01.2020
4838 Clouds 5 1015 93 6000 7 280 09:20 11.01.2020
4839 Mist 5 1014 93 4200 6 280 08:42 11.01.2020
4840 -273 0 0 0 0 0 08:22 11.01.2020
4841 Drizzle 4 1014 100 2600 6 270 07:44 11.01.2020
4842 Drizzle 4 1014 100 2600 6 270 07:25 11.01.2020
4843 Drizzle 4 1014 100 4600 6 270 06:51 11.01.2020
4844 Drizzle 4 1014 93 6000 6 270 05:48 11.01.2020
4845 Mist 3 1014 100 4800 5 250 04:47 11.01.2020
4846 Mist 3 1014 100 4800 5 250 04:28 11.01.2020
4847 Mist 3 1015 100 3600 5 260 02:49 11.01.2020
4848 Mist 3 1015 100 3300 5 260 02:27 11.01.2020
4849 Drizzle 3 1015 100 4500 5 260 01:43 11.01.2020
4850 Drizzle 3 1015 100 3900 4 250 01:19 11.01.2020
4851 Mist 2 1015 100 4700 4 250 00:40 11.01.2020
4852 Drizzle 2 1015 100 3300 4 260 23:59 10.01.2020
4853 Drizzle 2 1015 100 2800 4 250 23:40 10.01.2020
4854 Drizzle 2 1015 100 2800 4 250 23:22 10.01.2020
4855 Drizzle 2 1016 100 2400 4 250 22:58 10.01.2020
4856 Drizzle 2 1016 100 3600 4 240 22:40 10.01.2020
4857 Drizzle 2 1016 100 3600 4 240 22:20 10.01.2020
4858 Drizzle 2 1016 100 2700 4 240 21:57 10.01.2020
4859 Drizzle 2 1016 100 2600 3 240 21:37 10.01.2020
4860 Drizzle 2 1016 100 2600 3 240 21:19 10.01.2020
4861 Drizzle 2 1016 100 2700 3 240 20:43 10.01.2020
4862 Drizzle 2 1016 100 2700 3 240 20:24 10.01.2020
4863 Drizzle 2 1016 100 3400 2 230 19:58 10.01.2020
4864 Drizzle 2 1016 100 3500 3 230 19:38 10.01.2020
4865 Drizzle 2 1016 100 3300 3 230 19:19 10.01.2020
4866 Drizzle 2 1016 100 3300 3 220 18:43 10.01.2020
4867 Drizzle 2 1016 100 3300 3 220 18:19 10.01.2020
4868 Drizzle 2 1017 100 3700 3 220 17:57 10.01.2020
4869 Drizzle 2 1017 100 3700 3 220 17:57 10.01.2020
4870 Drizzle 2 1016 100 3500 3 230 17:39 10.01.2020
4871 Drizzle 2 1016 100 3500 3 230 17:20 10.01.2020
4872 Drizzle 2 1017 100 3500 4 230 16:57 10.01.2020
4873 Mist 2 1017 100 3900 4 220 16:38 10.01.2020
4874 Mist 2 1017 100 3900 4 220 16:19 10.01.2020
4875 Mist 2 1017 100 5000 4 220 15:56 10.01.2020
4876 Rain 2 1017 100 4400 4 220 15:36 10.01.2020
4877 Rain 2 1017 100 4400 4 220 15:18 10.01.2020
4878 Rain 2 1017 100 3700 3 220 14:55 10.01.2020
4879 Rain 2 1017 100 2400 4 220 14:37 10.01.2020
4880 Rain 2 1017 100 2400 4 220 14:18 10.01.2020
4881 Rain 2 1017 100 2700 4 220 13:43 10.01.2020
4882 Rain 2 1017 100 2700 4 220 13:25 10.01.2020
4883 Rain 2 1017 100 2700 4 210 12:58 10.01.2020
4884 Rain 2 1017 100 5000 4 220 12:39 10.01.2020
4885 Rain 2 1017 100 5000 4 220 12:39 10.01.2020
4886 Rain 2 1017 100 5000 4 220 12:19 10.01.2020
4887 Clouds 2 1018 100 8000 3 220 11:55 10.01.2020
4888 Rain 2 1018 100 9000 3 220 11:37 10.01.2020
4889 Rain 2 1018 100 9000 3 220 11:18 10.01.2020
4890 Rain 2 1019 100 6000 4 210 10:57 10.01.2020
4891 Rain 1 1019 100 8000 3 210 10:36 10.01.2020
4892 Rain 1 1019 100 8000 3 210 10:18 10.01.2020
4893 Rain 1 1019 100 5000 4 180 09:42 10.01.2020
4894 Rain 1 1019 100 5000 4 180 09:23 10.01.2020
4895 Snow 0 1019 97 5000 2 200 08:43 10.01.2020
4896 Snow 0 1019 94 5000 2 200 08:24 10.01.2020
4897 Clouds 0 1019 94 6000 2 200 07:47 10.01.2020
4898 Clouds 0 1019 94 7000 2 200 07:28 10.01.2020
4899 Clouds 0 1019 94 7000 2 200 06:55 10.01.2020
4900 Mist 0 1019 94 5000 2 230 06:27 10.01.2020
4901 Mist 0 1019 94 1700 3 240 05:52 10.01.2020
4902 Mist 1 1020 100 2600 2 230 03:47 10.01.2020
4903 Mist 1 1020 100 5000 2 230 03:28 10.01.2020
4904 Clouds 1 1020 100 7000 2 240 02:51 10.01.2020
4905 Mist 1 1021 100 5000 1 0 01:52 10.01.2020
4906 Mist 1 1021 100 4300 1 0 01:28 10.01.2020
4907 Mist 1 1021 100 3900 1 0 00:47 10.01.2020
4908 Mist 1 1021 100 4200 1 0 00:29 10.01.2020
4909 Clouds 1 1020 100 6000 1 0 23:39 09.01.2020
4910 Clouds 1 1020 100 6000 1 0 23:39 09.01.2020
4911 Clouds 1 1020 100 6000 1 0 23:39 09.01.2020
4912 Clouds 1 1020 100 6000 1 0 23:39 09.01.2020
4913 Clouds 1 1020 100 6000 1 0 23:20 09.01.2020
4914 Clouds 2 1021 100 6000 1 0 22:58 09.01.2020
4915 Mist 1 1021 100 3800 1 350 22:39 09.01.2020
4916 Mist 2 1021 100 3800 1 350 22:19 09.01.2020
4917 Fog 2 1021 100 650 2 320 21:57 09.01.2020
4918 Fog 2 1021 100 900 2 320 21:38 09.01.2020
4919 Fog 2 1022 100 650 2 300 21:20 09.01.2020
4920 Fog 2 1022 100 650 2 300 20:58 09.01.2020
4921 Fog 2 1022 100 650 2 300 20:39 09.01.2020
4922 Fog 2 1022 100 400 2 290 20:20 09.01.2020
4923 Fog 1 1021 100 350 2 290 19:58 09.01.2020
4924 Fog 2 1021 100 450 2 290 19:38 09.01.2020
4925 Fog 2 1021 100 450 2 290 19:19 09.01.2020
4926 Fog 1 1021 100 450 2 280 18:55 09.01.2020
4927 Fog 1 1021 100 450 2 280 18:55 09.01.2020
4928 Fog 1 1021 100 750 3 270 18:37 09.01.2020
4929 Fog 1 1021 100 750 3 270 18:19 09.01.2020
4930 Mist 1 1021 100 1300 2 270 17:41 09.01.2020
4931 Mist 1 1021 100 1300 2 270 17:41 09.01.2020
4932 Mist 1 1021 100 3500 2 290 17:18 09.01.2020
4933 Mist 1 1021 100 3500 2 290 16:55 09.01.2020
4934 Mist 1 1021 100 4600 3 300 16:36 09.01.2020
4935 Mist 1 1021 100 4600 3 300 16:18 09.01.2020
4936 Mist 1 1020 100 4500 3 260 15:41 09.01.2020
4937 Clouds 1 1020 100 6000 4 270 15:19 09.01.2020
4938 Mist 1 1020 100 5000 4 270 14:44 09.01.2020
4939 Mist 1 1020 100 5000 4 270 14:22 09.01.2020
4940 Mist 1 1020 100 5000 4 280 13:58 09.01.2020
4941 Rain 1 1020 100 5000 4 280 13:39 09.01.2020
4942 Rain 1 1020 100 5000 4 280 13:21 09.01.2020
4943 Drizzle 1 1020 100 2700 4 270 12:59 09.01.2020
4944 Drizzle 1 1020 100 2000 4 280 12:40 09.01.2020
4945 Drizzle 1 1020 100 2000 4 280 12:22 09.01.2020
4946 Drizzle 1 1020 95 3300 4 280 11:57 09.01.2020
4947 Drizzle 1 1020 95 2600 4 280 11:38 09.01.2020
4948 Drizzle 1 1020 93 2600 4 280 11:20 09.01.2020
4949 Drizzle 0 1020 93 2500 4 260 10:44 09.01.2020
4950 Mist 0 1021 93 3200 5 270 10:22 09.01.2020
4951 Drizzle 0 1021 93 3200 5 270 09:58 09.01.2020
4952 Mist 0 1021 93 3300 5 260 09:38 09.01.2020
4953 Mist 0 1021 93 3300 5 260 09:19 09.01.2020
4954 Mist 0 1021 93 2500 4 260 08:55 09.01.2020
4955 Mist 0 1021 93 2800 5 260 08:37 09.01.2020
4956 Mist 0 1021 86 2800 5 260 08:19 09.01.2020
4957 Mist 0 1020 86 5000 5 260 07:42 09.01.2020
4958 Snow 0 1020 86 8000 4 250 07:23 09.01.2020
4959 Snow 0 1021 86 3300 4 250 06:39 09.01.2020
4960 Snow 0 1021 86 3300 4 250 06:20 09.01.2020
4961 Snow 0 1021 86 2600 5 250 05:48 09.01.2020
4962 Clouds 0 1021 87 10000 4 260 04:43 09.01.2020
4963 Clouds 0 1022 87 10000 3 250 03:31 09.01.2020
4964 Clouds 0 1022 87 10000 3 230 02:53 09.01.2020
4965 Snow 0 1022 87 7000 2 240 02:24 09.01.2020
4966 Snow 0 1023 87 10000 4 250 01:39 09.01.2020
4967 Clouds -1 1024 80 10000 5 260 00:43 09.01.2020
4968 Clouds -1 1024 80 10000 5 260 00:21 09.01.2020
4969 Clouds -1 1024 80 10000 5 260 00:21 09.01.2020
4970 Clouds 0 1024 87 10000 3 260 23:42 08.01.2020
4971 Clouds -1 1024 74 10000 3 260 23:24 08.01.2020
4972 Clouds -1 1024 74 10000 3 260 22:59 08.01.2020
4973 Clouds -1 1025 74 10000 4 260 22:39 08.01.2020
4974 Clouds -1 1025 74 10000 3 250 22:20 08.01.2020
4975 Clouds -1 1025 74 10000 3 250 21:57 08.01.2020
4976 Clouds -1 1025 74 10000 3 240 21:38 08.01.2020
4977 Clouds -1 1025 74 10000 3 240 21:19 08.01.2020
4978 Clouds -1 1025 68 10000 3 230 20:57 08.01.2020
4979 Clouds -2 1025 68 10000 2 260 20:38 08.01.2020
4980 Clouds -2 1025 68 10000 2 260 20:20 08.01.2020
4981 Clouds -2 1025 68 10000 2 250 19:56 08.01.2020
4982 Clouds -2 1025 68 10000 2 250 19:56 08.01.2020
4983 Clouds -2 1025 68 10000 2 230 19:36 08.01.2020
4984 Clouds -2 1025 68 10000 2 230 19:36 08.01.2020
4985 Clouds -1 1025 68 10000 2 230 19:18 08.01.2020
4986 Clouds -1 1026 68 10000 2 250 18:55 08.01.2020
4987 Clouds -1 1026 68 10000 2 250 18:55 08.01.2020
4988 Clouds -1 1026 68 10000 2 250 18:55 08.01.2020
4989 Clouds -1 1026 63 10000 3 230 18:36 08.01.2020
4990 Clouds -1 1026 63 10000 3 230 18:18 08.01.2020
4991 Clouds -1 1026 63 10000 3 230 17:45 08.01.2020
4992 Clouds -1 1026 68 9000 3 220 17:24 08.01.2020
4993 Clouds -1 1027 58 10000 3 220 16:57 08.01.2020
4994 Clouds 0 1027 76 10000 3 250 16:39 08.01.2020
4995 Clouds 0 1027 76 10000 3 250 16:19 08.01.2020
4996 Clouds 0 1027 76 10000 2 240 15:57 08.01.2020
4997 Clouds 1 1027 50 10000 3 260 15:39 08.01.2020
4998 Clouds 1 1027 50 10000 3 260 15:18 08.01.2020
4999 Clouds 2 1027 51 10000 3 270 14:55 08.01.2020
5000 Clouds 3 1027 47 10000 3 240 14:36 08.01.2020
5001 Clouds 3 1027 47 10000 3 240 14:18 08.01.2020
5002 Clouds 3 1027 55 10000 4 260 13:38 08.01.2020
5003 Clouds 3 1027 55 10000 4 260 13:18 08.01.2020
5004 Clouds 3 1027 74 10000 4 250 12:41 08.01.2020
5005 Clouds 2 1027 74 10000 4 250 12:18 08.01.2020
5006 Clouds 2 1028 74 10000 3 250 11:55 08.01.2020
5007 Clouds 2 1028 80 10000 4 260 11:36 08.01.2020
5008 Clouds 1 1028 80 10000 4 260 11:18 08.01.2020
5009 Clouds 0 1029 73 8000 4 260 10:41 08.01.2020
5010 Clouds 0 1029 73 8000 4 260 10:22 08.01.2020
5011 Mist 0 1029 100 5000 3 260 09:58 08.01.2020
5012 Mist -1 1029 92 4900 2 230 09:38 08.01.2020
5013 Mist -1 1029 92 4900 2 230 09:18 08.01.2020
5014 Mist -1 1030 92 4400 2 250 08:42 08.01.2020
5015 Mist -2 1030 92 4400 2 250 08:24 08.01.2020
5016 Mist -3 1029 100 3700 2 240 07:59 08.01.2020
5017 Mist -3 1029 100 3700 2 240 07:41 08.01.2020
5018 Mist -3 1030 100 2900 1 260 07:23 08.01.2020
5019 Mist -4 1029 100 5000 2 250 06:44 08.01.2020
5020 Mist -4 1029 100 4100 2 240 05:57 08.01.2020
5021 Mist -4 1029 92 4200 1 220 05:27 08.01.2020
5022 Mist -5 1029 92 4000 1.86 264 04:39 08.01.2020
5023 Mist -5 1029 92 3100 1.86 264 03:31 08.01.2020
5024 Mist -5 1030 92 3200 1 230 02:36 08.01.2020
5025 Mist -5 1030 92 3200 1 230 02:18 08.01.2020
5026 Mist -5 1030 92 3200 1 230 02:18 08.01.2020
5027 Mist -5 1030 92 2900 1 220 01:39 08.01.2020
5028 Mist -6 1030 92 3000 1 0 00:52 08.01.2020
5029 Mist -4 1029 92 3200 1 220 00:24 08.01.2020
5030 Mist -4 1029 92 3000 1 240 23:46 07.01.2020
5031 Mist -4 1029 92 3000 1 240 23:22 07.01.2020
5032 Mist -5 1029 92 3000 1 240 22:58 07.01.2020
5033 Mist -4 1029 100 2500 1 230 22:38 07.01.2020
5034 Mist -4 1029 100 2500 1 230 22:19 07.01.2020
5035 Mist -4 1029 100 2500 1 230 22:19 07.01.2020
5036 Fog -4 1029 92 2400 1.21 272 21:42 07.01.2020
5037 Fog -5 1029 100 2400 1 250 21:23 07.01.2020
5038 Mist -4 1029 92 3200 1.21 272 20:58 07.01.2020
5039 Mist -5 1028 100 2500 1.21 272 20:40 07.01.2020
5040 Mist -4 1028 100 2500 1.12 292 20:22 07.01.2020
5041 Mist -3 1029 100 2800 1.19 277 19:57 07.01.2020
5042 Mist -4 1028 100 2800 1.19 277 19:38 07.01.2020
5043 Mist -3 1028 100 2800 1.19 277 19:19 07.01.2020
5044 Mist -3 1029 100 3100 1 260 18:56 07.01.2020
5045 Mist -3 1028 100 3400 2 240 18:38 07.01.2020
5046 Mist -3 1028 100 3400 2 240 18:18 07.01.2020
5047 Mist -3 1028 100 3400 2 240 18:18 07.01.2020
5048 Mist -3 1028 100 3400 2 240 18:18 07.01.2020
5049 Mist -2 1028 92 5000 2 270 17:55 07.01.2020
5050 Mist -2 1028 92 5000 2 270 17:36 07.01.2020
5051 Mist -2 1028 92 5000 2 270 17:18 07.01.2020
5052 Mist -2 1028 92 5000 2 270 16:55 07.01.2020
5053 Clear -2 1028 92 8000 2 270 16:36 07.01.2020
5054 Clear -2 1028 92 8000 2 270 16:18 07.01.2020
5055 Clear -1 1028 86 9000 2 250 15:42 07.01.2020
5056 Clear -1 1027 86 10000 2 250 15:24 07.01.2020
5057 Clear 0 1027 74 10000 1 270 14:58 07.01.2020
5058 Clear 0 1027 74 10000 1 270 14:38 07.01.2020
5059 Clear 1 1027 66 10000 2 280 14:20 07.01.2020
5060 Clouds 1 1027 66 10000 1 0 13:46 07.01.2020
5061 Clouds 1 1027 66 10000 2 250 13:20 07.01.2020
5062 Clouds 1 1027 66 10000 2 250 13:20 07.01.2020
5063 Clear 1 1027 66 10000 1 0 12:56 07.01.2020
5064 Clear 1 1027 66 10000 2 260 12:37 07.01.2020
5065 Clear 0 1027 66 10000 2 260 12:18 07.01.2020
5066 Clear 0 1027 86 10000 2 250 11:41 07.01.2020
5067 Clear 0 1027 86 10000 2 250 11:22 07.01.2020
5068 Clear 0 1027 70 10000 2 240 10:56 07.01.2020
5069 Clear -1 1027 86 10000 2 270 10:37 07.01.2020
5070 Clear -1 1027 86 10000 2 270 10:19 07.01.2020
5071 Clear -2 1027 92 8000 2 270 09:39 07.01.2020
5072 Clear -2 1027 92 8000 2 270 09:20 07.01.2020
5073 Clear -3 1027 92 6000 2 240 08:57 07.01.2020
5074 Clear -4 1027 92 8000 2 250 08:37 07.01.2020
5075 Clear -4 1027 92 8000 2 250 08:37 07.01.2020
5076 Clear -4 1027 92 8000 2 250 08:18 07.01.2020
5077 Clear -5 1027 100 7000 2 230 07:42 07.01.2020
5078 Clear -5 1027 100 7000 2 230 07:42 07.01.2020
5079 Clear -5 1027 100 7000 2 230 06:57 07.01.2020
5080 Clear -5 1027 92 7000 2 250 06:35 07.01.2020
5081 Clear -5 1027 92 7000 2 230 05:59 07.01.2020
5082 Clear -5 1027 92 7000 2 230 05:40 07.01.2020
5083 Mist -5 1027 100 5000 2 250 03:45 07.01.2020
5084 Clear -5 1027 92 6000 2 230 02:47 07.01.2020
5085 Clear -4 1027 92 6000 2 240 01:59 07.01.2020
5086 Clear -4 1027 100 6000 1 230 01:36 07.01.2020
5087 Clear -4 1027 100 6000 1 220 00:55 07.01.2020
5088 Mist -3 1027 92 5000 2 240 00:20 07.01.2020
5089 Clouds -3 1027 92 7000 1 250 23:56 06.01.2020
5090 Clouds -2 1028 86 9000 2 260 23:37 06.01.2020
5091 Clouds -2 1028 86 9000 2 260 23:19 06.01.2020
5092 Clouds -3 1028 92 8000 2 250 22:43 06.01.2020
5093 Clouds -2 1028 86 7000 2 250 22:24 06.01.2020
5094 Clouds -2 1028 86 7000 2 250 22:24 06.01.2020
5095 Clouds -2 1028 86 7000 2 250 22:24 06.01.2020
5096 Clouds -2 1028 79 9000 1 260 21:58 06.01.2020
5097 Clouds -2 1028 74 10000 1 320 21:39 06.01.2020
5098 Clouds -2 1028 74 10000 1 320 21:20 06.01.2020
5099 Clouds -2 1028 74 10000 1 320 21:20 06.01.2020
5100 Clouds -2 1028 74 10000 1 320 21:20 06.01.2020
5101 Clouds -2 1028 68 10000 2 320 20:57 06.01.2020
5102 Clouds -2 1028 74 10000 3 310 20:38 06.01.2020
5103 Clouds -2 1028 74 10000 3 310 20:20 06.01.2020
5104 Clouds -2 1028 80 10000 3 310 19:56 06.01.2020
5105 Clouds -2 1028 80 10000 3 310 19:38 06.01.2020
5106 Clouds -1 1028 86 10000 3 300 19:20 06.01.2020
5107 Clouds -2 1028 80 10000 1 260 18:48 06.01.2020
5108 Clouds -2 1028 80 10000 2 280 18:22 06.01.2020
5109 Clouds -2 1028 86 8000 2 250 17:58 06.01.2020
5110 Clouds -2 1028 79 8000 2 260 17:38 06.01.2020
5111 Clouds -2 1028 79 8000 2 260 17:18 06.01.2020
5112 Clouds -2 1028 79 8000 2 260 17:18 06.01.2020
5113 Clouds -2 1028 74 10000 2 260 16:44 06.01.2020
5114 Clouds -2 1028 74 10000 2 260 16:25 06.01.2020
5115 Clouds -2 1028 74 10000 2 260 16:25 06.01.2020
5116 Clouds -2 1028 68 10000 3 310 15:59 06.01.2020
5117 Clouds -1 1028 63 10000 3 310 15:39 06.01.2020
5118 Clouds -1 1028 63 10000 3 310 15:19 06.01.2020
5119 Clouds 0 1028 79 10000 3 330 14:57 06.01.2020
5120 Clouds 0 1028 79 10000 3 340 14:39 06.01.2020
5121 Clouds 0 1028 73 10000 3 340 14:18 06.01.2020
5122 Clouds 0 1028 73 10000 5 330 13:42 06.01.2020
5123 Clouds 1 1028 71 10000 4 320 13:22 06.01.2020
5124 Clouds 1 1028 55 10000 3 290 12:59 06.01.2020
5125 Clouds 0 1028 71 10000 3 310 12:41 06.01.2020
5126 Clouds 0 1028 71 10000 3 310 12:20 06.01.2020
5127 Clouds 1 1028 71 10000 5 340 11:56 06.01.2020
5128 Clouds 0 1028 71 10000 5 320 11:38 06.01.2020
5129 Clouds 0 1028 73 10000 5 320 11:20 06.01.2020
5130 Clouds 0 1028 73 10000 5 320 11:20 06.01.2020
5131 Clouds 0 1029 74 10000 4 330 10:42 06.01.2020
5132 Clouds 0 1029 74 10000 4 330 10:21 06.01.2020
5133 Clouds -1 1029 74 10000 4 340 09:42 06.01.2020
5134 Clouds -1 1029 74 10000 4 330 09:24 06.01.2020
5135 Clouds -1 1029 80 10000 4 330 08:58 06.01.2020
5136 Clouds -1 1029 80 10000 4 330 08:58 06.01.2020
5137 Clouds -1 1029 80 10000 4 330 08:58 06.01.2020
5138 Clouds -1 1029 80 10000 4 330 08:39 06.01.2020
5139 Clouds -1 1029 80 10000 4 330 08:21 06.01.2020
5140 Clouds -1 1029 86 10000 5 340 07:46 06.01.2020
5141 Clouds -1 1029 86 10000 4 350 07:21 06.01.2020
5142 Clouds -1 1028 86 10000 4 340 06:38 06.01.2020
5143 Clouds -1 1027 92 10000 4 340 05:49 06.01.2020
5144 Clouds -1 1027 92 10000 4 340 05:28 06.01.2020
5145 Clouds 0 1027 86 10000 4 340 04:24 06.01.2020
5146 Clouds 0 1027 86 10000 4 350 03:51 06.01.2020
5147 Clouds 0 1026 86 10000 4 350 02:29 06.01.2020
5148 Clouds 0 1026 79 10000 5 350 01:54 06.01.2020
5149 Clouds 0 1025 79 10000 5 360 01:31 06.01.2020
5150 Clouds 0 1025 81 10000 5 360 00:48 06.01.2020
5151 Clouds 0 1025 81 10000 5 360 00:29 06.01.2020
5152 Clouds 0 1025 81 10000 5 360 23:58 05.01.2020
5153 Clouds 0 1024 81 10000 5 360 23:39 05.01.2020
5154 Clouds 0 1024 94 10000 5 360 23:21 05.01.2020
5155 Clouds 0 1024 94 10000 4 10 22:40 05.01.2020
5156 Clouds 0 1024 94 10000 4 10 22:21 05.01.2020
5157 Clouds 0 1023 94 10000 5 10 21:58 05.01.2020
5158 Clouds 0 1023 94 10000 5 10 21:40 05.01.2020
5159 Clouds 0 1023 94 10000 5 10 21:20 05.01.2020
5160 Clouds 0 1022 94 10000 4 10 20:58 05.01.2020
5161 Clouds 0 1022 92 10000 4 360 20:39 05.01.2020
5162 Clouds 0 1022 94 10000 4 360 20:39 05.01.2020
5163 Clouds 0 1022 94 10000 4 360 20:19 05.01.2020
5164 Rain 0 1021 94 10000 4 10 19:58 05.01.2020
5165 Rain 1 1021 94 7000 5 10 19:39 05.01.2020
5166 Snow 0 1020 94 2200 4 10 19:20 05.01.2020
5167 Snow 0 1020 94 2200 4 10 18:55 05.01.2020
5168 Snow 1 1020 94 4500 4 10 18:37 05.01.2020
5169 Snow 1 1020 94 4500 4 10 18:19 05.01.2020
5170 Snow 1 1019 94 7000 3 10 17:57 05.01.2020
5171 Rain 1 1019 100 8000 3 350 17:38 05.01.2020
5172 Rain 1 1019 100 8000 3 350 17:38 05.01.2020
5173 Rain 1 1019 100 8000 3 350 17:38 05.01.2020
5174 Rain 1 1019 100 8000 3 350 17:19 05.01.2020
5175 Rain 1 1018 100 8000 3 340 16:56 05.01.2020
5176 Clouds 1 1018 100 9000 3 340 16:38 05.01.2020
5177 Rain 1 1017 100 9000 2 10 16:19 05.01.2020
5178 Rain 1 1017 100 9000 2 10 16:19 05.01.2020
5179 Rain 1 1017 100 9000 2 10 16:19 05.01.2020
5180 Rain 1 1016 100 9000 2 350 15:38 05.01.2020
5181 Rain 1 1017 100 9000 2 10 15:38 05.01.2020
5182 Rain 1 1016 100 9000 2 350 15:20 05.01.2020
5183 Rain 2 1016 93 8000 2 10 14:55 05.01.2020
5184 Rain 2 1015 93 7000 2 20 14:37 05.01.2020
5185 Rain 2 1015 93 7000 2 20 14:37 05.01.2020
5186 Rain 2 1015 93 7000 2 20 14:19 05.01.2020
5187 Rain 2 1015 93 6000 2 10 13:55 05.01.2020
5188 Rain 2 1014 93 6000 2 20 13:37 05.01.2020
5189 Rain 2 1014 93 6000 2 20 13:18 05.01.2020
5190 Rain 2 1014 93 6000 2 20 13:18 05.01.2020
5191 Rain 2 1014 93 6000 2 20 13:18 05.01.2020
5192 Rain 2 1014 93 10000 2 10 12:55 05.01.2020
5193 Rain 2 1013 93 10000 3 40 12:37 05.01.2020
5194 Rain 2 1013 93 10000 3 40 12:18 05.01.2020
5195 Clouds 2 1013 89 10000 2 60 11:43 05.01.2020
5196 Clouds 2 1013 89 10000 2 60 11:43 05.01.2020
5197 Clouds 2 1013 89 10000 2 30 11:43 05.01.2020
5198 Clouds 2 1013 89 10000 2 60 11:43 05.01.2020
5199 Clouds 2 1013 89 10000 2 30 11:43 05.01.2020
5200 Clouds 2 1013 92 10000 2 30 11:19 05.01.2020
5201 Clouds 2 1013 92 9000 2 10 10:58 05.01.2020
5202 Clouds 2 1012 92 10000 2 320 10:39 05.01.2020
5203 Clouds 2 1012 92 10000 2 320 10:39 05.01.2020
5204 Clouds 1 1012 92 10000 2 310 10:18 05.01.2020
5205 Clouds 2 1012 92 10000 2 310 09:41 05.01.2020
5206 Clouds 1 1012 92 10000 2 280 09:22 05.01.2020
5207 Clouds 1 1012 92 10000 1 290 08:49 05.01.2020
5208 Clouds 0 1011 98 9000 2 290 08:30 05.01.2020
5209 Snow 0 1011 96 8000 3 270 07:56 05.01.2020
5210 Clouds 0 1010 96 10000 1 240 07:37 05.01.2020
5211 Clouds 0 1010 96 10000 1 240 07:18 05.01.2020
5212 Clouds 0 1009 96 10000 2 270 05:59 05.01.2020
5213 Clouds 1 1009 86 10000 2 270 05:32 05.01.2020
5214 Clouds 1 1009 89 10000 3 270 04:43 05.01.2020
5215 Clouds 1 1009 89 10000 3 270 04:18 05.01.2020
5216 Clouds 1 1009 89 10000 3 270 04:18 05.01.2020
5217 Clouds 0 1009 89 10000 3 260 02:46 05.01.2020
5218 Clouds 1 1009 89 10000 3 260 02:24 05.01.2020
5219 Clouds 1 1009 91 10000 3 270 01:48 05.01.2020
5220 Clouds 1 1009 91 10000 2 250 01:18 05.01.2020
5221 Clouds 1 1008 91 9000 3 240 00:41 05.01.2020
5222 Clouds 1 1009 91 10000 3 250 00:23 05.01.2020
5223 Clouds 1 1009 91 9000 3 260 23:59 04.01.2020
5224 Clouds 1 1009 91 9000 3 260 23:59 04.01.2020
5225 Clouds 1 1009 91 10000 3 260 23:39 04.01.2020
5226 Clouds 2 1009 87 10000 3 260 23:19 04.01.2020
5227 Clouds 2 1009 87 9000 2 250 22:40 04.01.2020
5228 Clouds 2 1009 87 9000 2 250 22:40 04.01.2020
5229 Clouds 2 1009 87 9000 2 250 22:21 04.01.2020
5230 Clouds 2 1009 87 7000 2 260 21:57 04.01.2020
5231 Clouds 2 1009 87 7000 2 260 21:57 04.01.2020
5232 Clouds 2 1009 87 7000 2 270 21:38 04.01.2020
5233 Clouds 2 1009 87 7000 2 270 21:19 04.01.2020
5234 Clouds 2 1009 87 8000 3 270 20:57 04.01.2020
5235 Clouds 2 1009 87 9000 3 270 20:38 04.01.2020
5236 Clouds 2 1009 86 9000 3 270 20:20 04.01.2020
5237 Clouds 2 1009 86 10000 3 300 19:42 04.01.2020
5238 Clouds 2 1009 86 10000 3 300 19:42 04.01.2020
5239 Clouds 2 1009 86 10000 3 300 19:24 04.01.2020
5240 Clouds 3 1009 86 10000 4 290 18:59 04.01.2020
5241 Clouds 3 1009 86 10000 4 300 18:40 04.01.2020
5242 Clouds 3 1009 86 10000 4 300 18:22 04.01.2020
5243 Clouds 3 1009 86 10000 5 300 17:59 04.01.2020
5244 Clouds 3 1009 86 9000 5 300 17:40 04.01.2020
5245 Clouds 3 1009 86 9000 5 300 17:22 04.01.2020
5246 Clouds 3 1009 93 9000 5 290 16:54 04.01.2020
5247 Clouds 3 1009 86 9000 5 280 16:36 04.01.2020
5248 Clouds 3 1009 86 9000 5 280 16:18 04.01.2020
5249 Clouds 3 1008 86 9000 4 280 15:42 04.01.2020
5250 Clouds 3 1008 86 9000 4 280 15:42 04.01.2020
5251 Clouds 3 1008 86 9000 4 280 15:20 04.01.2020
5252 Clouds 3 1008 86 9000 4 280 15:20 04.01.2020
5253 Clouds 3 1008 86 10000 4 270 14:58 04.01.2020
5254 Clouds 3 1008 86 9000 5 270 14:40 04.01.2020
5255 Clouds 3 1008 86 9000 5 270 14:20 04.01.2020
5256 Clouds 3 1008 86 10000 6 280 13:58 04.01.2020
5257 Clouds 3 1008 80 10000 5 270 13:37 04.01.2020
5258 Clouds 3 1008 80 10000 5 270 13:37 04.01.2020
5259 Clouds 3 1008 82 10000 5 270 13:19 04.01.2020
5260 Clouds 3 1009 82 10000 5 270 12:42 04.01.2020
5261 Clouds 3 1009 82 10000 7 270 12:20 04.01.2020
5262 Clouds 3 1009 82 10000 7 270 12:20 04.01.2020
5263 Clouds 3 1009 74 10000 6 270 11:59 04.01.2020
5264 Clouds 3 1009 74 10000 6 270 11:41 04.01.2020
5265 Clouds 2 1009 80 10000 6 270 11:20 04.01.2020
5266 Clouds 2 1010 80 10000 6 260 10:59 04.01.2020
5267 Clouds 2 1010 80 10000 5 260 10:38 04.01.2020
5268 Clouds 2 1010 80 10000 5 260 10:19 04.01.2020
5269 Clouds 1 1010 80 10000 5 260 09:43 04.01.2020
5270 Clouds 1 1011 80 10000 5 250 09:25 04.01.2020
5271 Clouds 0 1011 71 10000 4 260 08:47 04.01.2020
5272 Clouds 0 1011 78 10000 4 250 08:28 04.01.2020
5273 Clear -1 1011 79 10000 3 240 07:51 04.01.2020
5274 Clear -1 1012 86 10000 3 240 07:33 04.01.2020
5275 Clear -3 1012 79 10000 3 240 06:43 04.01.2020
5276 Clear -3 1012 79 10000 3 240 05:52 04.01.2020
5277 Clear -3 1013 85 10000 3 230 04:48 04.01.2020
5278 Clear -3 1013 79 10000 3 230 04:28 04.01.2020
5279 Clear -2 1013 79 10000 3 230 03:20 04.01.2020
5280 Clear -2 1014 79 10000 2 240 02:38 04.01.2020
5281 Clouds -2 1014 79 10000 2 240 02:18 04.01.2020
5282 Clouds -2 1015 79 10000 2 250 01:32 04.01.2020
5283 Clouds -2 1015 79 10000 2 250 01:32 04.01.2020
5284 Clouds -2 1015 79 10000 2 250 01:32 04.01.2020
5285 Clouds -2 1015 74 9000 2 250 00:58 04.01.2020
5286 Clouds -2 1015 79 9000 2 260 00:29 04.01.2020
5287 Clouds -2 1015 74 8000 2 240 23:53 03.01.2020
5288 Clouds -2 1015 85 7000 2 240 23:28 03.01.2020
5289 Clouds -2 1016 92 6000 3 260 22:55 03.01.2020
5290 Clouds -2 1016 92 6000 3 250 22:37 03.01.2020
5291 Clouds -2 1016 92 6000 3 250 22:18 03.01.2020
5292 Clouds -2 1016 92 7000 2 240 21:56 03.01.2020
5293 Mist -3 1016 92 5000 3 260 21:37 03.01.2020
5294 Mist -3 1016 92 5000 3 260 21:18 03.01.2020
5295 Mist -2 1017 92 5000 3 250 20:54 03.01.2020
5296 Clouds -2 1017 86 7000 2 230 20:36 03.01.2020
5297 Clear -2 1017 86 7000 2 230 20:18 03.01.2020
5298 Clear -1 1017 92 6000 2 230 19:41 03.01.2020
5299 Clear -1 1017 92 6000 2 230 19:22 03.01.2020
5300 Clear -2 1017 92 6000 2 250 18:47 03.01.2020
5301 Clear -2 1017 86 6000 1 230 18:26 03.01.2020
5302 Clear -1 1018 79 7000 2 200 17:58 03.01.2020
5303 Clear -1 1018 74 6000 2 220 17:40 03.01.2020
5304 Clear 0 1018 74 6000 2 220 17:21 03.01.2020
5305 Smoke 0 1018 82 5000 2 230 16:44 03.01.2020
5306 Clear 0 1018 82 8000 2 240 16:24 03.01.2020
5307 Clear 1 1018 69 10000 2 250 15:59 03.01.2020
5308 Clear 2 1018 69 10000 3 270 15:41 03.01.2020
5309 Clear 2 1018 69 10000 3 270 15:19 03.01.2020
5310 Clear 2 1018 69 10000 3 270 15:19 03.01.2020
5311 Clear 4 1018 60 10000 2 230 14:39 03.01.2020
5312 Clear 3 1018 60 10000 2 230 14:20 03.01.2020
5313 Rain 3 1018 60 10000 2 270 13:57 03.01.2020
5314 Clear 4 1018 60 10000 2 280 13:38 03.01.2020
5315 Clear 4 1018 60 10000 2 280 13:20 03.01.2020
5316 Clear 3 1019 64 10000 2 270 12:40 03.01.2020
5317 Clear 3 1019 64 10000 2 270 12:21 03.01.2020
5318 Clear 3 1019 69 10000 3 290 11:49 03.01.2020
5319 Clear 3 1019 69 10000 3 290 11:30 03.01.2020
5320 Clear 2 1020 74 10000 3 300 10:48 03.01.2020
5321 Clear 1 1020 74 10000 2 280 10:29 03.01.2020
5322 Clear 1 1020 80 10000 2 280 09:59 03.01.2020
5323 Clear 1 1020 80 10000 2 280 09:41 03.01.2020
5324 Clear 0 1021 80 10000 2 250 09:23 03.01.2020
5325 Clear 0 1020 86 8000 2 260 08:57 03.01.2020
5326 Clear -2 1020 92 7000 2 240 08:39 03.01.2020
5327 Clouds -2 1020 92 7000 2 240 08:21 03.01.2020
5328 Clouds -3 1020 92 7000 2 270 07:42 03.01.2020
5329 Clouds -2 1020 92 7000 2 240 07:19 03.01.2020
5330 Clouds -2 1020 92 7000 2 240 06:56 03.01.2020
5331 Clouds -2 1020 92 8000 3 270 06:37 03.01.2020
5332 Clouds -2 1020 92 8000 3 270 06:18 03.01.2020
5333 Clouds -2 1019 92 7000 2 250 04:42 03.01.2020
5334 Clouds -1 1020 92 6000 2 270 03:34 03.01.2020
5335 Clouds -1 1019 92 7000 3 270 02:47 03.01.2020
5336 Clouds -1 1020 92 6000 3 270 01:47 03.01.2020
5337 Clouds -1 1020 92 7000 4 280 00:57 03.01.2020
5338 Clouds 0 1020 92 8000 4 280 00:33 03.01.2020
5339 Clouds 0 1020 92 9000 4 280 23:58 02.01.2020
5340 Clouds 0 1020 92 9000 3 260 23:39 02.01.2020
5341 Clouds 0 1020 90 9000 3 260 23:19 02.01.2020
5342 Clouds 1 1020 90 9000 3 280 22:58 02.01.2020
5343 Clouds 1 1020 80 9000 3 280 22:39 02.01.2020
5344 Clouds 1 1020 80 9000 3 280 22:19 02.01.2020
5345 Clouds 1 1020 80 9000 3 270 21:55 02.01.2020
5346 Clouds 1 1020 80 10000 4 270 21:36 02.01.2020
5347 Clouds 1 1020 80 10000 4 270 21:18 02.01.2020
5348 Clouds 1 1020 80 9000 3 290 20:40 02.01.2020
5349 Clouds 1 1020 80 9000 3 290 20:21 02.01.2020
5350 Clouds 1 1020 80 9000 3 290 19:56 02.01.2020
5351 Clouds 1 1021 80 9000 4 290 19:38 02.01.2020
5352 Clouds 1 1021 80 9000 4 290 19:19 02.01.2020
5353 Clouds 1 1021 80 9000 5 290 18:59 02.01.2020
5354 Clouds 1 1021 80 9000 6 290 18:40 02.01.2020
5355 Clouds 1 1021 80 9000 6 290 18:22 02.01.2020
5356 Clouds 1 1021 80 9000 6 290 17:57 02.01.2020
5357 Clouds 1 1020 80 10000 6 280 17:38 02.01.2020
5358 Clouds 1 1020 80 10000 6 280 17:19 02.01.2020
5359 Clouds 1 1020 80 10000 7 270 16:57 02.01.2020
5360 Clouds 1 1021 80 10000 6 280 16:38 02.01.2020
5361 Clouds 1 1021 80 10000 6 280 16:38 02.01.2020
5362 Clouds 1 1021 80 10000 6 280 16:20 02.01.2020
5363 Clouds 1 1020 80 10000 5 250 15:56 02.01.2020
5364 Clouds 1 1020 80 10000 5 250 15:56 02.01.2020
5365 Clouds 1 1021 80 10000 5 250 15:37 02.01.2020
5366 Clouds 1 1020 80 10000 5 260 15:19 02.01.2020
5367 Clouds 1 1020 80 10000 5 260 14:55 02.01.2020
5368 Clouds 1 1021 80 10000 5 260 14:36 02.01.2020
5369 Clouds 1 1022 80 10000 5 260 14:18 02.01.2020
5370 Clouds 1 1022 80 10000 5 260 13:47 02.01.2020
5371 Clouds 1 1022 80 10000 5 260 13:29 02.01.2020
5372 Clouds 1 1022 74 10000 5 250 12:44 02.01.2020
5373 Clouds 1 1022 74 10000 5 250 12:25 02.01.2020
5374 Clouds 1 1023 74 10000 6 260 11:43 02.01.2020
5375 Clouds 1 1023 74 10000 6 260 11:25 02.01.2020
5376 Clouds 1 1023 82 10000 5 260 10:57 02.01.2020
5377 Clouds 0 1023 82 10000 5 260 10:38 02.01.2020
5378 Clouds 0 1023 82 10000 5 260 10:19 02.01.2020
5379 Clouds 0 1024 82 10000 5 250 09:41 02.01.2020
5380 Clouds 0 1024 82 10000 4 260 09:22 02.01.2020
5381 Clouds 0 1024 82 10000 4 250 08:44 02.01.2020
5382 Clouds 0 1024 85 10000 4 260 08:25 02.01.2020
5383 Clouds 0 1024 81 10000 4 250 07:49 02.01.2020
5384 Clouds -1 1024 86 10000 5 260 07:30 02.01.2020
5385 Clouds -1 1024 86 10000 4 260 06:44 02.01.2020
5386 Clouds -1 1024 86 10000 4 260 06:26 02.01.2020
5387 Clouds -1 1024 86 10000 3 270 04:40 02.01.2020
5388 Clouds -1 1025 86 10000 4 290 04:21 02.01.2020
5389 Clouds -1 1025 86 10000 4 290 04:21 02.01.2020
5390 Clouds -2 1024 92 10000 5 290 02:28 02.01.2020
5391 Clouds -2 1024 92 10000 4 270 01:57 02.01.2020
5392 Clouds -2 1024 86 10000 4 260 01:32 02.01.2020
5393 Clouds -2 1024 92 10000 4 260 00:52 02.01.2020
5394 Clouds -2 1024 86 10000 4 270 00:32 02.01.2020
5395 Clouds -2 1024 92 10000 4 270 23:48 01.01.2020
5396 Clouds -2 1025 86 10000 4 270 23:25 01.01.2020
5397 Clouds -2 1025 86 10000 3 260 22:54 01.01.2020
5398 Clouds -2 1025 86 10000 2 250 22:36 01.01.2020
5399 Clouds -2 1025 86 10000 2 250 22:18 01.01.2020
5400 Clouds -1 1025 86 10000 3 270 21:42 01.01.2020
5401 Clouds -1 1025 86 10000 3 270 21:21 01.01.2020
5402 Clouds -1 1025 86 10000 3 280 20:58 01.01.2020
5403 Clouds -1 1025 86 10000 3 280 20:39 01.01.2020
5404 Clouds -1 1025 80 10000 3 280 20:20 01.01.2020
5405 Clouds -1 1025 80 10000 3 270 19:57 01.01.2020
5406 Clouds -1 1025 86 10000 3 280 19:39 01.01.2020
5407 Clouds -1 1025 86 10000 3 280 19:20 01.01.2020
5408 Clear -1 1024 79 10000 3 300 18:57 01.01.2020
5409 Clear -1 1024 74 10000 4 310 18:38 01.01.2020
5410 Clear -1 1024 74 10000 4 310 18:20 01.01.2020
5411 Clear -1 1024 74 10000 5 320 17:58 01.01.2020
5412 Clear -1 1023 84 10000 5 320 17:40 01.01.2020
5413 Clear -1 1023 73 10000 5 320 17:20 01.01.2020
5414 Clear -1 1023 73 10000 5 320 16:57 01.01.2020
5415 Clear 0 1022 73 10000 5 320 16:38 01.01.2020
5416 Clear 0 1022 73 10000 5 320 16:19 01.01.2020
5417 Clear 0 1022 73 10000 5 320 15:56 01.01.2020
5418 Clear 0 1022 73 10000 5 320 15:37 01.01.2020
5419 Clear 0 1022 73 10000 5 320 15:19 01.01.2020
5420 Clear 1 1021 64 10000 5 330 14:55 01.01.2020
5421 Clouds 1 1021 64 10000 6 320 14:37 01.01.2020
5422 Clouds 1 1021 64 10000 6 320 14:19 01.01.2020
5423 Clouds 1 1020 64 10000 9 320 13:55 01.01.2020
5424 Clouds 1 1020 64 10000 9 320 13:55 01.01.2020
5425 Clouds 1 1020 69 10000 7 330 13:36 01.01.2020
5426 Clouds 1 1020 69 10000 7 330 13:18 01.01.2020
5427 Clouds 1 1019 69 10000 6 350 12:40 01.01.2020
5428 Clouds 1 1019 69 10000 6 350 12:19 01.01.2020
5429 Clouds 1 1019 74 10000 7 340 11:57 01.01.2020
5430 Snow 1 1019 74 9000 7 340 11:38 01.01.2020
5431 Snow 1 1019 74 9000 7 340 11:19 01.01.2020
5432 Snow 1 1018 74 10000 6 340 10:55 01.01.2020
5433 Snow 1 1018 80 10000 6 330 10:36 01.01.2020
5434 Snow 1 1018 80 10000 6 330 10:18 01.01.2020
5435 Snow 1 1017 73 4900 9 330 09:40 01.01.2020
5436 Clouds 1 1017 74 10000 6 340 09:20 01.01.2020
5437 Clouds 2 1016 80 10000 5 350 08:57 01.01.2020
5438 Clouds 1 1015 80 10000 4 350 08:37 01.01.2020
5439 Clouds 1 1015 80 10000 4 350 08:19 01.01.2020
5440 Snow 1 1015 76 10000 7 330 07:56 01.01.2020
5441 Rain 1 1014 76 10000 8 320 07:38 01.01.2020
5442 Rain 2 1014 76 9000 8 320 06:50 01.01.2020
5443 Rain 2 1013 93 9000 7 320 06:32 01.01.2020
5444 Rain 2 1012 93 9000 8 320 05:46 01.01.2020
5445 Clouds 3 1010 86 10000 9 320 03:48 01.01.2020
5446 Clouds 3 1010 86 10000 9 310 03:28 01.01.2020
5447 Rain 3 1010 86 10000 7 320 02:59 01.01.2020
5448 Rain 3 1010 86 10000 7 320 02:41 01.01.2020
5449 Rain 3 1010 86 10000 8 310 02:21 01.01.2020
5450 Rain 2 1009 93 9000 8 300 01:40 01.01.2020
5451 Rain 2 1009 93 9000 8 300 01:21 01.01.2020
5452 Clouds 3 1009 93 10000 6 300 00:44 01.01.2020
5453 Clouds 3 1009 93 10000 6 300 00:26 01.01.2020
5454 Rain 2 1009 93 10000 7 300 23:43 31.12.2019
5455 Rain 2 1009 93 10000 7 300 23:24 31.12.2019
5456 Rain 2 1009 93 9000 6 300 22:59 31.12.2019
5457 Rain 2 1009 93 9000 6 300 22:39 31.12.2019
5458 Rain 2 1008 93 10000 7 300 22:20 31.12.2019
5459 Rain 2 1008 93 6000 7 300 21:59 31.12.2019
5460 Rain 2 1008 93 6000 7 300 21:41 31.12.2019
5461 Snow 2 1008 93 10000 7 300 21:23 31.12.2019
5462 Rain 2 1008 93 9000 7 290 20:57 31.12.2019
5463 Rain 2 1007 93 10000 7 290 20:37 31.12.2019
5464 Rain 2 1007 93 10000 7 290 20:19 31.12.2019
5465 Rain 1 1007 100 9000 7 280 19:55 31.12.2019
5466 Rain 1 1007 93 10000 7 290 19:37 31.12.2019
5467 Rain 1 1007 93 10000 7 290 19:18 31.12.2019
5468 Rain 1 1007 100 10000 7 290 18:54 31.12.2019
5469 Rain 1 1007 100 10000 7 290 18:54 31.12.2019
5470 Rain 1 1007 96 7000 7 280 18:36 31.12.2019
5471 Rain 1 1007 96 5000 8 280 18:18 31.12.2019
5472 Rain 1 1007 96 5000 8 280 17:55 31.12.2019
5473 Rain 1 1007 96 9000 7 280 17:36 31.12.2019
5474 Rain 1 1007 96 9000 7 280 17:36 31.12.2019
5475 Snow 1 1007 95 9000 7 280 17:18 31.12.2019
5476 Clouds 1 1007 95 10000 7 280 16:55 31.12.2019
5477 Clouds 2 1007 95 10000 7 280 16:36 31.12.2019
5478 Rain 1 1007 95 10000 7 280 16:18 31.12.2019
5479 Rain 1 1007 95 10000 7 280 15:55 31.12.2019
5480 Rain 1 1007 95 9000 7 280 15:37 31.12.2019
5481 Rain 2 1007 95 9000 7 280 15:18 31.12.2019
5482 Clouds 2 1007 80 9000 9 290 14:55 31.12.2019
5483 Rain 3 1007 69 10000 8 280 14:36 31.12.2019
5484 Rain 3 1007 69 10000 8 280 14:18 31.12.2019
5485 Rain 4 1007 64 10000 8 280 13:54 31.12.2019
5486 Rain 4 1007 64 10000 8 270 13:36 31.12.2019
5487 Rain 4 1007 64 10000 8 270 13:18 31.12.2019
5488 Rain 4 1008 60 10000 8 270 12:40 31.12.2019
5489 Rain 4 1008 60 10000 8 270 12:40 31.12.2019
5490 Clouds 4 1008 60 10000 8 270 12:21 31.12.2019
5491 Clouds 4 1008 60 10000 9 280 11:58 31.12.2019
5492 Clouds 5 1008 60 10000 9 280 11:40 31.12.2019
5493 Clear 5 1008 60 10000 9 280 11:21 31.12.2019
5494 Clear 5 1008 60 10000 10 270 10:58 31.12.2019
5495 Clear 4 1009 60 10000 8 270 10:39 31.12.2019
5496 Clear 4 1009 60 10000 8 270 10:20 31.12.2019
5497 Clear 4 1009 64 10000 9 270 09:59 31.12.2019
5498 Clear 3 1010 64 10000 8 260 09:40 31.12.2019
5499 Clear 3 1010 64 10000 8 260 09:22 31.12.2019
5500 Clear 3 1010 69 10000 9 260 08:59 31.12.2019
5501 Clear 3 1010 69 10000 9 260 08:41 31.12.2019
5502 Clouds 2 1010 69 10000 8 260 08:20 31.12.2019
5503 Clouds 2 1011 69 10000 7 260 07:44 31.12.2019
5504 Clouds 1 1011 69 10000 7 260 07:22 31.12.2019
5505 Clouds 1 1011 74 10000 8 260 06:51 31.12.2019
5506 Clouds 1 1011 69 10000 7 260 06:23 31.12.2019
5507 Clouds 1 1013 69 10000 7 250 04:54 31.12.2019
5508 Clouds 0 1013 69 10000 7 260 04:21 31.12.2019
5509 Clouds 0 1015 74 10000 7 250 02:56 31.12.2019
5510 Snow 0 1016 70 10000 7 250 02:19 31.12.2019
5511 Snow 0 1016 70 10000 6 250 01:48 31.12.2019
5512 Snow 0 1016 70 10000 6 240 01:29 31.12.2019
5513 Snow 0 1017 71 10000 6 240 00:48 31.12.2019
5514 Snow -1 1017 74 10000 6 240 00:24 31.12.2019
5515 Snow -1 1018 74 10000 6 240 23:58 30.12.2019
5516 Snow -1 1019 74 10000 6 250 23:39 30.12.2019
5517 Clouds -1 1019 74 10000 6 250 23:21 30.12.2019
5518 Clouds -1 1020 74 10000 6 240 22:59 30.12.2019
5519 Clouds -2 1020 74 10000 6 240 22:41 30.12.2019
5520 Clouds -2 1020 79 10000 6 240 22:20 30.12.2019
5521 Clouds -2 1021 79 10000 6 240 21:57 30.12.2019
5522 Clouds -2 1022 79 10000 6 240 21:39 30.12.2019
5523 Clouds -2 1022 79 10000 6 240 21:20 30.12.2019
5524 Clouds -3 1022 86 10000 6 240 20:58 30.12.2019
5525 Clouds -3 1023 86 10000 6 240 20:40 30.12.2019
5526 Clouds -3 1023 86 10000 6 240 20:20 30.12.2019
5527 Clouds -3 1024 86 10000 6 240 19:58 30.12.2019
5528 Clouds -3 1024 86 10000 5 240 19:38 30.12.2019
5529 Clouds -3 1024 86 10000 5 240 19:19 30.12.2019
5530 Clouds -3 1025 86 10000 5 250 18:58 30.12.2019
5531 Clouds -3 1026 86 10000 6 260 18:40 30.12.2019
5532 Clouds -3 1026 86 10000 6 260 18:20 30.12.2019
5533 Clouds -3 1026 92 10000 5 250 17:56 30.12.2019
5534 Clouds -4 1026 92 10000 6 250 17:37 30.12.2019
5535 Clouds -3 1026 92 10000 6 250 17:18 30.12.2019
5536 Clouds -4 1027 92 10000 6 250 16:57 30.12.2019
5537 Clouds -4 1027 92 10000 5 250 16:37 30.12.2019
5538 Clouds -4 1027 92 10000 5 250 16:37 30.12.2019
5539 Clouds -4 1027 92 10000 5 250 16:18 30.12.2019
5540 Clouds -4 1027 92 10000 5 250 15:55 30.12.2019
5541 Clouds -4 1028 92 10000 6 260 15:37 30.12.2019
5542 Clouds -4 1028 92 10000 6 260 15:18 30.12.2019
5543 Clouds -3 1028 92 10000 6 270 14:42 30.12.2019
5544 Clouds -3 1029 100 10000 7 280 14:20 30.12.2019
5545 Clouds -3 1029 100 10000 6 270 13:56 30.12.2019
5546 Clouds -3 1029 100 10000 6 270 13:37 30.12.2019
5547 Clouds -3 1029 100 10000 6 270 13:19 30.12.2019
5548 Clouds -4 1030 92 10000 7 280 12:43 30.12.2019
5549 Clouds -4 1030 92 10000 6 260 12:22 30.12.2019
5550 Clouds -4 1031 100 10000 6 270 11:59 30.12.2019
5551 Clouds -4 1031 92 10000 7 280 11:40 30.12.2019
5552 Clouds -4 1031 92 10000 7 280 11:19 30.12.2019
5553 Clouds -4 1031 92 10000 7 280 11:19 30.12.2019
5554 Clouds -4 1032 92 10000 6 290 10:45 30.12.2019
5555 Clouds -3 1032 92 10000 6 270 10:22 30.12.2019
5556 Clouds -3 1032 92 10000 6 270 09:59 30.12.2019
5557 Clouds -3 1033 92 10000 5 290 09:41 30.12.2019
5558 Clouds -3 1033 92 10000 5 290 09:20 30.12.2019
5559 Clouds -3 1032 86 10000 6 280 08:54 30.12.2019
5560 Clouds -3 1033 92 10000 4 290 08:36 30.12.2019
5561 Clouds -3 1033 92 10000 4 290 08:36 30.12.2019
5562 Clouds -3 1033 92 10000 4 290 08:18 30.12.2019
5563 Clouds -3 1033 92 10000 6 280 07:39 30.12.2019
5564 Clouds -2 1033 86 10000 5 280 06:55 30.12.2019
5565 Clouds -2 1033 86 10000 3 300 05:24 30.12.2019
5566 Clouds -2 1034 92 10000 3 330 03:58 30.12.2019
5567 Snow -2 1034 92 10000 4 320 03:19 30.12.2019
5568 Snow -2 1034 92 10000 3 330 02:40 30.12.2019
5569 Snow -2 1034 92 10000 3 330 01:55 30.12.2019
5570 Snow -1 1034 92 10000 3 340 01:23 30.12.2019
5571 Snow -1 1034 92 10000 4 330 00:45 30.12.2019
5572 Snow -1 1034 92 10000 4 320 00:19 30.12.2019
5573 Clouds -1 1034 86 10000 2 360 23:39 29.12.2019
5574 Clouds -1 1034 86 10000 2 360 23:21 29.12.2019
5575 Clouds -1 1033 86 10000 3 10 22:55 29.12.2019
5576 Clouds -1 1033 86 10000 3 20 22:37 29.12.2019
5577 Clouds -1 1033 86 10000 3 20 22:18 29.12.2019
5578 Clouds -1 1033 86 10000 3 10 21:43 29.12.2019
5579 Clouds -1 1033 86 10000 3 10 21:21 29.12.2019
5580 Clouds -1 1033 86 10000 3 30 20:57 29.12.2019
5581 Clouds -1 1033 86 10000 5 30 20:39 29.12.2019
5582 Clouds -1 1033 86 10000 5 30 20:21 29.12.2019
5583 Clouds -1 1033 86 10000 4 20 19:59 29.12.2019
5584 Clouds -1 1033 86 10000 4 30 19:40 29.12.2019
5585 Clouds -1 1033 86 10000 4 30 19:40 29.12.2019
5586 Clouds -1 1033 86 10000 4 30 19:21 29.12.2019
5587 Clouds -1 1033 86 10000 4 30 18:58 29.12.2019
5588 Clouds -1 1032 86 9000 4 30 18:39 29.12.2019
5589 Clouds -1 1032 86 9000 4 30 18:20 29.12.2019
5590 Clouds -1 1032 86 10000 4 40 17:58 29.12.2019
5591 Clouds -1 1032 86 10000 4 30 17:39 29.12.2019
5592 Clouds -1 1032 86 10000 4 30 17:20 29.12.2019
5593 Clouds -1 1031 86 10000 5 40 16:57 29.12.2019
5594 Snow -1 1031 86 10000 4 40 16:38 29.12.2019
5595 Snow -1 1031 86 10000 4 40 16:38 29.12.2019
5596 Snow -1 1031 86 10000 4 40 16:38 29.12.2019
5597 Snow -1 1031 86 10000 4 40 16:20 29.12.2019
5598 Snow -1 1031 86 10000 4 30 15:58 29.12.2019
5599 Snow -1 1031 86 10000 4 30 15:58 29.12.2019
5600 Snow -1 1031 86 10000 6 40 15:39 29.12.2019
5601 Snow -1 1031 86 10000 6 40 15:20 29.12.2019
5602 Snow -1 1030 86 10000 5 30 14:58 29.12.2019
5603 Snow -1 1030 86 10000 5 30 14:38 29.12.2019
5604 Snow -1 1030 86 10000 4 30 14:18 29.12.2019
5605 Snow -1 1030 86 9000 5 40 13:57 29.12.2019
5606 Snow -1 1030 92 8000 5 20 13:38 29.12.2019
5607 Snow -1 1030 92 8000 5 20 13:19 29.12.2019
5608 Snow -1 1029 92 9000 3 60 12:45 29.12.2019
5609 Snow -1 1029 92 9000 3 60 12:27 29.12.2019
5610 Snow -1 1029 86 9000 4 70 11:58 29.12.2019
5611 Snow -1 1029 86 4800 4 60 11:39 29.12.2019
5612 Snow -1 1029 86 4800 4 60 11:20 29.12.2019
5613 Snow -1 1029 86 5000 5 50 10:43 29.12.2019
5614 Snow -1 1029 86 5000 5 50 10:25 29.12.2019
5615 Snow -1 1029 86 9000 6 40 09:58 29.12.2019
5616 Snow -1 1028 86 4400 6 40 09:39 29.12.2019
5617 Snow -1 1028 86 4400 6 40 09:21 29.12.2019
5618 Snow -1 1028 86 3600 6 40 08:48 29.12.2019
5619 Snow -1 1027 86 9000 7 40 08:28 29.12.2019
5620 Snow -1 1027 86 2500 6 40 07:56 29.12.2019
5621 Clouds -1 1026 86 10000 7 40 07:28 29.12.2019
5622 Clouds -1 1026 86 10000 7 40 07:28 29.12.2019
5623 Snow -1 1026 86 10000 7 30 06:56 29.12.2019
5624 Snow -1 1025 92 10000 6 40 06:26 29.12.2019
5625 Snow -1 1025 92 7000 6 40 05:53 29.12.2019
5626 Snow -1 1024 92 8000 6 40 04:36 29.12.2019
5627 Snow -1 1024 92 9000 7 40 03:58 29.12.2019
5628 Snow -1 1024 92 6000 7 40 03:21 29.12.2019
5629 Snow -1 1023 92 5000 7 40 02:21 29.12.2019
5630 Snow -1 1023 92 5000 6 30 01:38 29.12.2019
5631 Snow -1 1023 92 5000 6 30 01:19 29.12.2019
5632 Snow -1 1022 92 4500 6 20 00:40 29.12.2019
5633 Snow -1 1022 93 6000 6 20 00:22 29.12.2019
5634 Snow -1 1022 93 2700 5 30 23:44 28.12.2019
5635 Snow -1 1022 94 3700 5 10 23:18 28.12.2019
5636 Snow 0 1022 94 5000 6 30 22:39 28.12.2019
5637 Snow 0 1022 94 5000 6 30 22:21 28.12.2019
5638 Snow 0 1021 94 7000 7 30 21:58 28.12.2019
5639 Snow 0 1021 94 5000 7 20 21:39 28.12.2019
5640 Snow 0 1021 94 5000 7 20 21:21 28.12.2019
5641 Snow 0 1021 94 5000 7 20 21:21 28.12.2019
5642 Snow 0 1021 94 3000 6 20 20:57 28.12.2019
5643 Snow 0 1021 94 7000 6 20 20:37 28.12.2019
5644 Snow 0 1021 94 7000 6 20 20:37 28.12.2019
5645 Snow 0 1021 94 7000 6 20 20:19 28.12.2019
5646 Snow 0 1020 94 4200 5 20 19:57 28.12.2019
5647 Snow 0 1020 94 4200 5 20 19:57 28.12.2019
5648 Snow 0 1020 94 4600 5 20 19:39 28.12.2019
5649 Snow 0 1020 94 4600 5 20 19:20 28.12.2019
5650 Snow 0 1020 94 9000 6 20 18:57 28.12.2019
5651 Snow 0 1020 94 9000 6 20 18:39 28.12.2019
5652 Snow 1 1019 94 4400 6 20 18:18 28.12.2019
5653 Snow 1 1019 94 4400 6 20 18:18 28.12.2019
5654 Snow 1 1019 94 3700 5 40 17:54 28.12.2019
5655 Rain 1 1019 94 5000 5 30 17:36 28.12.2019
5656 Rain 1 1019 94 5000 5 30 17:18 28.12.2019
5657 Rain 1 1018 100 7000 5 20 16:45 28.12.2019
5658 Rain 1 1018 100 10000 5 20 16:24 28.12.2019
5659 Rain 1 1018 100 8000 5 10 15:44 28.12.2019
5660 Rain 2 1017 93 10000 5 20 15:23 28.12.2019
5661 Rain 2 1017 93 9000 5 10 14:57 28.12.2019
5662 Rain 2 1017 93 10000 4 360 14:38 28.12.2019
5663 Snow 2 1016 93 9000 4 10 14:20 28.12.2019
5664 Rain 2 1016 93 9000 4 10 13:43 28.12.2019
5665 Rain 2 1016 100 9000 4 20 13:21 28.12.2019
5666 Rain 2 1016 100 8000 4 10 12:59 28.12.2019
5667 Rain 2 1016 100 6000 4 10 12:40 28.12.2019
5668 Rain 1 1016 100 6000 4 10 12:21 28.12.2019
5669 Rain 2 1015 100 9000 4 20 11:40 28.12.2019
5670 Rain 2 1015 100 9000 4 20 11:22 28.12.2019
5671 Rain 2 1015 100 8000 5 10 10:59 28.12.2019
5672 Rain 2 1015 100 9000 4 10 10:41 28.12.2019
5673 Snow 1 1015 100 9000 4 10 10:20 28.12.2019
5674 Rain 1 1015 100 7000 5 20 09:55 28.12.2019
5675 Rain 1 1014 100 9000 4 20 09:37 28.12.2019
5676 Rain 1 1014 100 9000 4 20 09:18 28.12.2019
5677 Rain 1 1014 94 9000 5 20 08:43 28.12.2019
5678 Rain 1 1014 95 9000 5 20 08:24 28.12.2019
5679 Rain 1 1013 95 10000 4 10 07:48 28.12.2019
5680 Rain 1 1013 95 10000 3 10 07:25 28.12.2019
5681 Snow 0 1012 95 7000 3 360 05:52 28.12.2019
5682 Snow 0 1011 93 6000 3 330 03:49 28.12.2019
5683 Snow 0 1011 93 7000 3 320 02:52 28.12.2019
5684 Snow 0 1011 93 5000 4 320 02:31 28.12.2019
5685 Snow 0 1011 95 5000 4 320 01:56 28.12.2019
5686 Snow 0 1011 95 5000 4 320 01:56 28.12.2019
5687 Snow 0 1011 95 6000 4 320 01:24 28.12.2019
5688 Snow 0 1011 95 5000 4 320 00:51 28.12.2019
5689 Snow 0 1011 95 5000 4 320 00:32 28.12.2019
5690 Snow 0 1011 95 5000 4 330 23:58 27.12.2019
5691 Snow 0 1010 95 7000 4 320 23:39 27.12.2019
5692 Snow 0 1010 94 7000 4 320 23:19 27.12.2019
5693 Snow 0 1010 94 6000 5 320 22:57 27.12.2019
5694 Snow 0 1010 94 3900 5 320 22:38 27.12.2019
5695 Snow 0 1010 94 3900 5 320 22:38 27.12.2019
5696 Snow 0 1010 94 3900 5 320 22:19 27.12.2019
5697 Snow 0 1010 94 5000 5 320 21:43 27.12.2019
5698 Snow 0 1010 94 4600 5 320 21:43 27.12.2019
5699 Snow 0 1010 94 5000 5 320 21:25 27.12.2019
5700 Snow 0 1010 94 4700 5 320 20:58 27.12.2019
5701 Snow 1 1010 94 7000 5 330 20:40 27.12.2019
5702 Snow 0 1010 92 7000 5 330 20:21 27.12.2019
5703 Snow 1 1010 92 10000 5 320 19:41 27.12.2019
5704 Snow 1 1010 92 10000 5 320 19:20 27.12.2019
5705 Rain 1 1009 92 10000 5 330 18:57 27.12.2019
5706 Rain 1 1009 92 10000 5 320 18:37 27.12.2019
5707 Rain 1 1009 92 10000 5 320 18:19 27.12.2019
5708 Snow 1 1009 92 6000 5 320 17:55 27.12.2019
5709 Rain 1 1009 92 5000 4 320 17:37 27.12.2019
5710 Rain 1 1009 93 5000 4 320 17:18 27.12.2019
5711 Rain 0 1009 93 4700 4 320 16:44 27.12.2019
5712 Snow 0 1009 93 4600 5 310 16:26 27.12.2019
5713 Rain 0 1009 93 5000 5 310 15:59 27.12.2019
5714 Rain 1 1009 93 5000 5 300 15:40 27.12.2019
5715 Rain 1 1009 93 5000 5 300 15:20 27.12.2019
5716 Rain 1 1008 93 9000 5 310 14:56 27.12.2019
5717 Rain 1 1008 93 9000 5 310 14:38 27.12.2019
5718 Snow 1 1008 88 9000 5 310 14:20 27.12.2019
5719 Snow 1 1008 88 10000 5 310 13:48 27.12.2019
5720 Snow 1 1008 89 9000 6 310 13:25 27.12.2019
5721 Snow 1 1008 89 9000 6 310 13:25 27.12.2019
5722 Clouds 1 1008 89 10000 5 320 12:56 27.12.2019
5723 Clouds 1 1008 89 10000 6 310 12:38 27.12.2019
5724 Clouds 1 1008 89 10000 6 310 12:20 27.12.2019
5725 Clouds 1 1008 89 10000 5 310 11:42 27.12.2019
5726 Clouds 1 1008 89 10000 5 310 11:22 27.12.2019
5727 Clouds 1 1008 89 10000 5 310 10:54 27.12.2019
5728 Clouds 1 1008 89 10000 5 300 10:36 27.12.2019
5729 Clouds 1 1008 89 10000 5 300 10:18 27.12.2019
5730 Rain 1 1008 89 7000 5 300 09:40 27.12.2019
5731 Rain 1 1008 89 7000 5 300 09:21 27.12.2019
5732 Clouds 1 1008 89 8000 5 300 08:54 27.12.2019
5733 Rain 1 1008 90 9000 5 310 08:34 27.12.2019
5734 Rain 1 1008 88 8000 5 310 07:49 27.12.2019
5735 Rain 1 1008 88 4900 4 300 07:28 27.12.2019
5736 Rain 1 1008 88 7000 4 300 06:36 27.12.2019
5737 Drizzle 1 1008 89 8000 5 300 04:59 27.12.2019
5738 Rain 2 1008 93 10000 5 300 02:53 27.12.2019
5739 Rain 2 1008 93 10000 5 300 01:59 27.12.2019
5740 Rain 2 1008 93 10000 5 300 01:24 27.12.2019
5741 Rain 2 1007 93 10000 4 300 00:58 27.12.2019
5742 Rain 2 1007 93 10000 5 300 00:40 27.12.2019
5743 Rain 2 1007 93 10000 5 300 00:21 27.12.2019
5744 Rain 3 1008 93 10000 5 300 23:41 26.12.2019
5745 Rain 3 1008 93 10000 5 300 23:22 26.12.2019
5746 Rain 3 1008 93 10000 4 290 22:45 26.12.2019
5747 Rain 3 1008 93 10000 4 290 22:23 26.12.2019
5748 Rain 3 1007 93 10000 4 300 21:59 26.12.2019
5749 Drizzle 3 1007 93 10000 5 290 21:38 26.12.2019
5750 Drizzle 4 1007 93 10000 5 290 21:20 26.12.2019
5751 Drizzle 4 1007 93 9000 5 290 20:46 26.12.2019
5752 Drizzle 4 1007 93 5000 5 290 20:23 26.12.2019
5753 Drizzle 4 1007 100 3100 5 290 19:59 26.12.2019
5754 Rain 4 1007 100 3900 5 290 19:39 26.12.2019
5755 Rain 4 1007 100 3900 5 290 19:21 26.12.2019
5756 Rain 4 1007 93 4600 3 330 18:57 26.12.2019
5757 Rain 4 1007 93 4600 3 340 18:38 26.12.2019
5758 Drizzle 4 1007 93 4700 4 300 18:19 26.12.2019
5759 Drizzle 5 1007 93 4700 4 300 17:43 26.12.2019
5760 Drizzle 5 1007 93 9000 4 290 17:22 26.12.2019
5761 Rain 5 1007 93 9000 4 280 16:59 26.12.2019
5762 Rain 5 1007 93 9000 4 280 16:41 26.12.2019
5763 Rain 5 1007 93 10000 3 280 16:21 26.12.2019
5764 Rain 5 1007 93 10000 3 290 15:55 26.12.2019
5765 Clouds 5 1007 93 10000 3 290 15:37 26.12.2019
5766 Clouds 5 1007 93 10000 3 290 15:18 26.12.2019
5767 Clouds 5 1006 93 10000 4 300 14:39 26.12.2019
5768 Clouds 5 1006 93 10000 4 300 14:21 26.12.2019
5769 Clouds 5 1006 93 10000 4 300 13:43 26.12.2019
5770 Rain 5 1006 93 9000 4 290 13:21 26.12.2019
5771 Rain 5 1006 93 9000 4 280 12:58 26.12.2019
5772 Rain 5 1006 93 6000 4 290 12:38 26.12.2019
5773 Rain 5 1006 93 6000 4 290 12:19 26.12.2019
5774 Rain 5 1006 93 5000 4 290 11:57 26.12.2019
5775 Rain 5 1006 93 6000 4 290 11:38 26.12.2019
5776 Rain 5 1006 93 6000 4 290 11:19 26.12.2019
5777 Rain 5 1006 93 6000 4 290 10:42 26.12.2019
5778 Rain 5 1006 93 4700 4 290 10:18 26.12.2019
5779 Rain 5 1006 100 1900 4 300 09:49 26.12.2019
5780 Drizzle 5 1006 100 2100 3 300 09:31 26.12.2019
5781 Rain 5 1006 93 4700 3 320 08:42 26.12.2019
5782 Rain 5 1006 93 4700 3 320 08:24 26.12.2019
5783 Rain 5 1006 93 5000 3 330 07:53 26.12.2019
5784 Rain 5 1006 93 4000 3 330 07:27 26.12.2019
5785 Rain 5 1005 93 2700 3 330 06:53 26.12.2019
5786 Rain 5 1005 93 6000 3 320 06:32 26.12.2019
5787 Rain 5 1005 93 9000 3 330 05:45 26.12.2019
5788 Rain 5 1005 93 6000 2 320 04:55 26.12.2019
5789 Rain 5 1005 93 7000 2 330 04:29 26.12.2019
5790 Rain 5 1005 100 6000 2 320 02:54 26.12.2019
5791 Rain 5 1005 100 3700 2 330 02:34 26.12.2019
5792 Rain 5 1005 100 4500 2 330 01:48 26.12.2019
5793 Rain 5 1005 100 4300 2 320 01:28 26.12.2019
5794 Rain 5 1005 100 3800 2 320 00:49 26.12.2019
5795 Rain 5 1005 100 6000 3 310 00:27 26.12.2019
5796 Rain 5 1005 100 5000 2 320 23:58 25.12.2019
5797 Rain 5 1005 100 5000 2 310 23:39 25.12.2019
5798 Rain 5 1005 100 5000 2 310 23:21 25.12.2019
5799 Rain 5 1005 100 5000 1.18 43 22:58 25.12.2019
5800 Rain 5 1005 100 5000 1 130 22:39 25.12.2019
5801 Rain 5 1005 100 5000 1 130 22:20 25.12.2019
5802 Rain 5 1004 100 5000 1 350 21:58 25.12.2019
5803 Rain 5 1004 100 4100 2 10 21:39 25.12.2019
5804 Rain 5 1004 100 4100 2 10 21:20 25.12.2019
5805 Rain 5 1004 100 5000 2 10 20:54 25.12.2019
5806 Rain 5 1004 100 4400 1 350 20:36 25.12.2019
5807 Rain 5 1004 100 4400 1 350 20:36 25.12.2019
5808 Rain 5 1004 100 4400 1 350 20:18 25.12.2019
5809 Rain 5 1004 100 5000 1.2 57 19:42 25.12.2019
5810 Mist 5 1004 100 5000 1.2 57 19:22 25.12.2019
5811 Rain 5 1004 100 6000 1.2 57 18:56 25.12.2019
5812 Rain 5 1004 100 6000 1.2 57 18:36 25.12.2019
5813 Rain 5 1004 100 6000 1.2 57 18:18 25.12.2019
5814 Rain 5 1004 100 4400 1.2 57 17:40 25.12.2019
5815 Rain 5 1004 100 4400 1.66 73 17:19 25.12.2019
5816 Rain 5 1004 100 5000 1.66 73 16:57 25.12.2019
5817 Rain 5 1004 100 4300 1.66 73 16:37 25.12.2019
5818 Rain 5 1004 100 4300 1.66 73 16:18 25.12.2019
5819 Rain 5 1004 100 4300 1.66 73 16:18 25.12.2019
5820 Rain 5 1004 100 4900 1.66 73 15:56 25.12.2019
5821 Rain 5 1004 100 5000 1 100 15:38 25.12.2019
5822 Rain 5 1004 100 5000 1 100 15:38 25.12.2019
5823 Rain 5 1004 100 5000 1 100 15:19 25.12.2019
5824 Rain 5 1004 100 5000 1 100 15:19 25.12.2019
5825 Rain 5 1004 100 5000 1 100 14:56 25.12.2019
5826 Rain 5 1004 100 6000 2 100 14:37 25.12.2019
5827 Rain 5 1004 100 6000 2 100 14:19 25.12.2019
5828 Rain 5 1004 100 6000 2 90 13:44 25.12.2019
5829 Rain 5 1003 100 5000 2 90 13:21 25.12.2019
5830 Drizzle 5 1003 100 4600 1 0 12:56 25.12.2019
5831 Drizzle 5 1003 100 4300 2 90 12:38 25.12.2019
5832 Drizzle 5 1003 100 4300 2 90 12:18 25.12.2019
5833 Rain 5 1003 100 4200 3 90 11:42 25.12.2019
5834 Rain 5 1003 100 4200 3 90 11:22 25.12.2019
5835 Rain 5 1003 100 3500 2 100 10:58 25.12.2019
5836 Rain 5 1003 100 2700 2 90 10:36 25.12.2019
5837 Rain 5 1003 100 2700 2 90 10:18 25.12.2019
5838 Drizzle 5 1004 100 3000 2 110 09:43 25.12.2019
5839 Drizzle 5 1004 100 2000 2 90 09:25 25.12.2019
5840 Drizzle 5 1004 100 2000 2 90 09:25 25.12.2019
5841 Drizzle 5 1003 100 1200 3 110 08:45 25.12.2019
5842 Drizzle 5 1003 100 1100 2 110 08:25 25.12.2019
5843 Drizzle 5 1003 100 1100 2 110 08:25 25.12.2019
5844 Drizzle 5 1003 100 1200 3 110 07:45 25.12.2019
5845 Drizzle 5 1003 100 1300 3 110 07:23 25.12.2019
5846 Rain 5 1003 100 2200 3 100 06:47 25.12.2019
5847 Drizzle 5 1003 100 2300 3 100 06:21 25.12.2019
5848 Fog 5 1003 100 1000 3 100 04:49 25.12.2019
5849 Mist 5 1003 100 1300 3 100 04:25 25.12.2019
5850 Mist 5 1003 100 1900 3 100 03:52 25.12.2019
5851 Mist 5 1003 100 2100 2 100 03:32 25.12.2019
5852 Mist 5 1003 100 1900 3 110 02:32 25.12.2019
5853 Mist 5 1003 100 2100 3 100 01:55 25.12.2019
5854 Mist 6 1003 93 2600 3 110 01:24 25.12.2019
5855 Rain 6 1003 93 4100 4 100 00:46 25.12.2019
5856 Rain 6 1003 93 4000 4 100 00:27 25.12.2019
5857 Rain 6 1003 93 5000 4 110 23:55 24.12.2019
5858 Rain 6 1003 93 4400 4 100 23:36 24.12.2019
5859 Rain 6 1003 93 4400 4 100 23:18 24.12.2019
5860 Rain 6 1004 93 4200 3 100 22:38 24.12.2019
5861 Rain 6 1004 93 4200 3 100 22:20 24.12.2019
5862 Rain 6 1004 93 4200 2 100 21:42 24.12.2019
5863 Rain 6 1004 93 4200 2 100 21:22 24.12.2019
5864 Drizzle 6 1004 93 4700 3 110 20:45 24.12.2019
5865 Mist 6 1004 93 5000 3 100 20:24 24.12.2019
5866 Clouds 6 1004 93 6000 3 100 19:57 24.12.2019
5867 Clouds 6 1004 93 6000 4 100 19:38 24.12.2019
5868 Clouds 6 1004 93 6000 4 100 19:18 24.12.2019
5869 Clouds 6 1004 93 7000 3 100 18:42 24.12.2019
5870 Clouds 7 1004 87 7000 4 100 18:20 24.12.2019
5871 Clouds 7 1004 87 7000 3 100 17:50 24.12.2019
5872 Clouds 7 1004 87 6000 3 100 17:24 24.12.2019
5873 Clouds 7 1004 87 6000 3 90 16:59 24.12.2019
5874 Clouds 7 1004 87 6000 3 90 16:59 24.12.2019
5875 Clouds 7 1004 87 6000 3 90 16:41 24.12.2019
5876 Clouds 6 1004 93 7000 4 90 16:22 24.12.2019
5877 Clouds 7 1004 93 7000 4 90 16:22 24.12.2019
5878 Clouds 7 1004 93 7000 5 90 15:58 24.12.2019
5879 Clouds 7 1004 87 6000 4 110 15:38 24.12.2019
5880 Clouds 7 1004 87 6000 4 110 15:20 24.12.2019
5881 Clouds 7 1004 93 6000 4 110 14:59 24.12.2019
5882 Clouds 7 1004 93 6000 4 110 14:59 24.12.2019
5883 Clouds 7 1004 93 6000 4 110 14:41 24.12.2019
5884 Clouds 7 1004 93 6000 5 90 14:22 24.12.2019
5885 Clouds 7 1004 93 6000 3 90 13:57 24.12.2019
5886 Mist 7 1003 93 4900 3 60 13:39 24.12.2019
5887 Mist 7 1003 93 4900 3 60 13:20 24.12.2019
5888 Mist 7 1003 93 4000 3 90 12:57 24.12.2019
5889 Rain 7 1003 93 4100 4 80 12:38 24.12.2019
5890 Rain 7 1003 93 4100 4 80 12:38 24.12.2019
5891 Rain 7 1003 93 4100 4 80 12:19 24.12.2019
5892 Mist 7 1003 93 4800 4 120 11:58 24.12.2019
5893 Mist 7 1003 93 4100 3 100 11:38 24.12.2019
5894 Mist 7 1003 93 4100 3 100 11:20 24.12.2019
5895 Mist 7 1004 93 4200 4 110 10:57 24.12.2019
5896 Mist 7 1004 93 3800 4 90 10:38 24.12.2019
5897 Mist 7 1004 93 3800 4 90 10:20 24.12.2019
5898 Mist 7 1003 93 4200 3 100 09:58 24.12.2019
5899 Mist 7 1003 93 4200 3 100 09:57 24.12.2019
5900 Mist 7 1003 93 3900 3 90 09:39 24.12.2019
5901 Mist 7 1003 93 3900 3 90 09:39 24.12.2019
5902 Mist 7 1003 93 3900 3 90 09:21 24.12.2019
5903 Mist 7 1003 93 4400 3 110 08:47 24.12.2019
5904 Mist 7 1003 93 4400 3 110 08:47 24.12.2019
5905 Mist 7 1003 93 4500 3 120 08:24 24.12.2019
5906 Mist 7 1003 93 4400 3 100 07:59 24.12.2019
5907 Rain 6 1002 93 4800 4 100 07:39 24.12.2019
5908 Rain 6 1002 93 4800 4 100 07:20 24.12.2019
5909 Clouds 6 1002 100 6000 4 100 06:39 24.12.2019
5910 Mist 6 1002 100 5000 3 90 06:19 24.12.2019
5911 Mist 6 1002 100 5000 3 90 05:51 24.12.2019
5912 Clouds 6 1001 100 6000 3 100 05:19 24.12.2019
5913 Clouds 6 1001 100 6000 3 100 04:21 24.12.2019
5914 Clouds 6 1001 93 6000 3 100 03:46 24.12.2019
5915 Rain 6 1000 93 6000 4 100 02:28 24.12.2019
5916 Rain 6 1000 93 7000 3 100 01:54 24.12.2019
5917 Rain 7 1000 93 9000 4 100 01:26 24.12.2019
5918 Rain 7 1000 93 10000 3 110 00:58 24.12.2019
5919 Clouds 7 1000 87 9000 4 100 00:39 24.12.2019
5920 Clouds 7 1000 87 9000 4 100 00:19 24.12.2019
5921 Rain 8 1000 93 9000 4 110 23:42 23.12.2019
5922 Rain 8 1000 93 9000 4 110 23:42 23.12.2019
5923 Rain 8 1000 93 9000 4 110 23:24 23.12.2019
5924 Clouds 8 1000 93 9000 4 110 22:57 23.12.2019
5925 Rain 8 999 93 10000 4 110 22:38 23.12.2019
5926 Rain 8 999 93 10000 4 110 22:19 23.12.2019
5927 Rain 9 999 87 10000 4 110 21:56 23.12.2019
5928 Rain 9 999 93 9000 5 110 21:37 23.12.2019
5929 Rain 9 999 93 9000 5 110 21:19 23.12.2019
5930 Rain 9 999 100 7000 5 110 20:58 23.12.2019
5931 Rain 9 999 100 7000 3 100 20:40 23.12.2019
5932 Rain 9 999 100 7000 3 100 20:19 23.12.2019
5933 Rain 9 999 93 8000 3 110 19:57 23.12.2019
5934 Rain 10 999 93 9000 3 110 19:38 23.12.2019
5935 Rain 10 999 93 9000 3 110 19:20 23.12.2019
5936 Rain 10 999 87 10000 3 110 18:58 23.12.2019
5937 Rain 10 999 93 10000 4 110 18:39 23.12.2019
5938 Rain 10 999 93 10000 4 110 18:20 23.12.2019
5939 Rain 11 998 87 10000 4 110 17:58 23.12.2019
5940 Rain 11 998 87 10000 4 120 17:39 23.12.2019
5941 Rain 11 998 87 10000 4 120 17:19 23.12.2019
5942 Clouds 11 998 87 10000 4 130 16:57 23.12.2019
5943 Rain 11 998 87 10000 3 120 16:39 23.12.2019
5944 Rain 11 998 87 10000 3 120 16:18 23.12.2019
5945 Clouds 11 998 87 10000 3 130 15:56 23.12.2019
5946 Clouds 11 998 87 10000 4 130 15:36 23.12.2019
5947 Clouds 11 998 87 10000 4 130 15:18 23.12.2019
5948 Clouds 11 997 93 10000 3 130 14:55 23.12.2019
5949 Clouds 11 997 93 10000 4 130 14:36 23.12.2019
5950 Clouds 11 997 93 10000 4 130 14:18 23.12.2019
5951 Clouds 11 997 93 9000 3 140 13:41 23.12.2019
5952 Clouds 11 997 93 9000 3 140 13:23 23.12.2019
5953 Clouds 11 997 93 9000 3 140 12:59 23.12.2019
5954 Clouds 11 997 93 10000 4 130 12:40 23.12.2019
5955 Clouds 11 997 93 10000 4 130 12:21 23.12.2019
5956 Clouds 11 996 93 8000 3 130 11:56 23.12.2019
5957 Clouds 11 996 100 7000 4 130 11:38 23.12.2019
5958 Mist 10 996 100 4900 3 130 11:20 23.12.2019
5959 Clouds 11 996 100 7000 4 130 11:20 23.12.2019
5960 Rain 10 996 100 4900 3 130 10:55 23.12.2019
5961 Rain 10 996 100 4900 3 130 10:55 23.12.2019
5962 Rain 10 996 100 2400 3 130 10:37 23.12.2019
5963 Rain 10 996 100 2400 3 130 10:18 23.12.2019
5964 Rain 9 996 100 2400 3 110 09:54 23.12.2019
5965 Rain 9 997 100 4400 3 110 09:36 23.12.2019
5966 Rain 9 997 100 4400 3 110 09:18 23.12.2019
5967 Drizzle 9 997 100 700 4 120 08:41 23.12.2019
5968 Drizzle 9 996 100 750 3 120 08:22 23.12.2019
5969 Drizzle 8 996 100 900 3 130 07:49 23.12.2019
5970 Mist 8 997 100 1400 2 140 07:22 23.12.2019
5971 Mist 8 996 100 2200 3 140 06:57 23.12.2019
5972 Mist 8 996 100 1800 2 130 06:32 23.12.2019
5973 Mist 8 996 100 1800 3 130 05:56 23.12.2019
5974 Mist 8 996 100 1900 4 120 05:33 23.12.2019
5975 Fog 7 996 100 900 3 120 04:40 23.12.2019
5976 Fog 7 996 100 500 2 130 03:36 23.12.2019
5977 Fog 7 996 100 450 3 130 02:43 23.12.2019
5978 Fog 7 996 100 400 3 120 02:19 23.12.2019
5979 Fog 6 996 100 400 2 100 01:45 23.12.2019
5980 Fog 6 997 100 400 2 100 01:27 23.12.2019
5981 Fog 6 996 100 450 2 110 00:46 23.12.2019
5982 Fog 6 996 100 700 2 110 00:25 23.12.2019
5983 Fog 6 997 93 400 2 130 23:56 22.12.2019
5984 Clouds 6 997 100 7000 1 0 23:37 22.12.2019
5985 Clouds 6 997 100 7000 1 0 23:18 22.12.2019
5986 Clear 6 996 93 7000 1 0 22:41 22.12.2019
5987 -273 0 0 0 0 0 22:22 22.12.2019
5988 Clear 7 996 93 6000 2 160 21:59 22.12.2019
5989 Clear 7 996 93 6000 2 160 21:40 22.12.2019
5990 Clear 7 996 100 6000 2 160 21:21 22.12.2019
5991 Clear 7 996 100 6000 2 160 21:21 22.12.2019
5992 Clouds 7 996 93 7000 1 0 20:59 22.12.2019
5993 Clouds 7 996 93 7000 1 0 20:39 22.12.2019
5994 Clouds 7 996 93 7000 2 160 20:19 22.12.2019
5995 Clouds 8 996 93 9000 2 170 19:57 22.12.2019
5996 Clouds 8 996 87 9000 3 190 19:39 22.12.2019
5997 Clouds 8 996 87 9000 3 190 19:20 22.12.2019
5998 Clouds 9 995 93 9000 3 200 18:42 22.12.2019
5999 Clouds 9 995 93 9000 3 200 18:24 22.12.2019
6000 Clouds 9 995 93 10000 3 200 17:57 22.12.2019
6001 Clouds 9 995 87 10000 5 190 17:39 22.12.2019
6002 Clouds 9 995 87 10000 5 190 17:19 22.12.2019
6003 Clouds 9 995 87 10000 3 190 16:58 22.12.2019
6004 Clouds 9 995 93 10000 3 180 16:40 22.12.2019
6005 Clouds 9 995 93 10000 3 180 16:40 22.12.2019
6006 Clouds 9 995 93 10000 3 180 16:22 22.12.2019
6007 Clouds 10 995 93 10000 3 170 15:56 22.12.2019
6008 Clouds 10 995 93 10000 3 160 15:38 22.12.2019
6009 Clouds 10 995 93 10000 3 160 15:20 22.12.2019
6010 Clouds 10 995 93 10000 3 160 14:55 22.12.2019
6011 Clouds 10 995 93 9000 3 170 14:37 22.12.2019
6012 Clouds 10 995 93 9000 3 170 14:18 22.12.2019
6013 Clouds 10 995 93 9000 3 170 14:18 22.12.2019
6014 Clouds 10 995 93 9000 3 160 13:55 22.12.2019
6015 Rain 9 995 93 5000 3 160 13:37 22.12.2019
6016 Rain 9 995 93 5000 3 160 13:19 22.12.2019
6017 Rain 9 995 100 5000 3 140 12:56 22.12.2019
6018 Rain 9 995 93 4500 3 130 12:37 22.12.2019
6019 Rain 9 995 93 4500 3 130 12:18 22.12.2019
6020 Rain 9 995 93 2100 3 130 11:56 22.12.2019
6021 Rain 9 995 93 2100 3 130 11:56 22.12.2019
6022 Rain 8 995 100 2000 3 110 11:37 22.12.2019
6023 Rain 8 995 100 2000 3 110 11:18 22.12.2019
6024 Rain 8 996 100 3600 3 130 10:55 22.12.2019
6025 Rain 8 996 100 4900 3 140 10:36 22.12.2019
6026 Rain 8 996 100 4900 3 140 10:18 22.12.2019
6027 Rain 8 997 93 6000 3 150 09:56 22.12.2019
6028 Rain 8 997 93 8000 3 150 09:37 22.12.2019
6029 Rain 8 997 93 8000 3 150 09:19 22.12.2019
6030 Clouds 8 997 87 10000 5 140 08:39 22.12.2019
6031 Clouds 8 997 87 10000 5 140 08:21 22.12.2019
6032 Clouds 7 997 93 9000 5 140 07:40 22.12.2019
6033 Clouds 7 997 93 9000 5 140 07:21 22.12.2019
6034 Clouds 7 998 93 7000 3 150 06:42 22.12.2019
6035 Clouds 7 998 93 7000 3 150 06:21 22.12.2019
6036 Mist 7 998 100 5000 4 130 05:29 22.12.2019
6037 Mist 6 998 100 4300 3 130 04:45 22.12.2019
6038 Mist 6 999 100 1600 3 120 04:22 22.12.2019
6039 Fog 5 1000 93 750 3 160 02:43 22.12.2019
6040 Fog 5 1000 93 750 3 160 02:43 22.12.2019
6041 Fog 5 1000 93 750 3 160 02:43 22.12.2019
6042 Mist 4 1001 100 1700 2 170 01:57 22.12.2019
6043 Mist 4 1001 93 2500 3 170 01:31 22.12.2019
6044 Mist 4 1001 100 4000 1 0 00:48 22.12.2019
6045 Mist 4 1001 100 3300 2 160 00:28 22.12.2019
6046 Mist 4 1001 100 3200 3 140 23:57 21.12.2019
6047 Mist 4 1001 100 3200 3 140 23:57 21.12.2019
6048 Mist 4 1001 100 3200 3 140 23:39 21.12.2019
6049 Mist 4 1002 93 2900 2 160 23:20 21.12.2019
6050 Mist 4 1002 100 2800 2 170 22:46 21.12.2019
6051 Mist 4 1002 100 2800 2 170 22:46 21.12.2019
6052 Mist 5 1002 100 4300 3 180 22:20 21.12.2019
6053 Mist 5 1002 100 5000 2 160 21:58 21.12.2019
6054 Mist 5 1002 93 5000 2 160 21:39 21.12.2019
6055 Mist 5 1002 93 5000 2 160 21:20 21.12.2019
6056 Mist 5 1003 93 5000 1 0 20:59 21.12.2019
6057 Mist 5 1003 93 5000 1 0 20:41 21.12.2019
6058 Mist 5 1003 93 5000 2 190 20:22 21.12.2019
6059 Mist 6 1003 93 5000 2 190 19:58 21.12.2019
6060 Mist 6 1003 93 5000 2 210 19:40 21.12.2019
6061 Mist 6 1003 93 5000 2 210 19:19 21.12.2019
6062 Clouds 6 1004 93 6000 2 220 18:56 21.12.2019
6063 Clouds 7 1004 87 7000 3 210 18:37 21.12.2019
6064 Clouds 7 1004 87 7000 3 210 18:19 21.12.2019
6065 Clouds 7 1003 87 7000 2 180 17:55 21.12.2019
6066 Clouds 7 1004 87 9000 3 210 17:36 21.12.2019
6067 Clouds 7 1004 87 9000 3 210 17:18 21.12.2019
6068 Clouds 7 1004 87 9000 3 210 17:18 21.12.2019
6069 Clouds 7 1004 87 8000 3 200 16:41 21.12.2019
6070 Clouds 7 1004 87 8000 3 190 16:19 21.12.2019
6071 Clouds 7 1004 81 9000 3 190 15:57 21.12.2019
6072 Clouds 7 1004 81 10000 3 210 15:38 21.12.2019
6073 Clouds 7 1004 81 10000 3 210 15:19 21.12.2019
6074 Clouds 7 1004 81 10000 3 210 14:57 21.12.2019
6075 Clouds 8 1004 81 10000 3 200 14:38 21.12.2019
6076 Clouds 8 1004 81 10000 3 200 14:19 21.12.2019
6077 Clouds 8 1003 81 10000 3 190 13:56 21.12.2019
6078 Clouds 8 1004 81 10000 4 190 13:37 21.12.2019
6079 Clouds 8 1004 81 10000 4 190 13:18 21.12.2019
6080 Clouds 8 1004 81 10000 4 190 12:55 21.12.2019
6081 Clouds 8 1005 81 8000 3 220 12:37 21.12.2019
6082 Clouds 8 1005 81 8000 3 220 12:18 21.12.2019
6083 Mist 8 1005 93 5000 2 180 11:43 21.12.2019
6084 Mist 8 1005 93 3400 2 150 11:25 21.12.2019
6085 Mist 8 1005 93 3500 2 150 10:56 21.12.2019
6086 Mist 7 1006 100 2800 2 130 10:38 21.12.2019
6087 Mist 7 1006 100 2800 2 130 10:19 21.12.2019
6088 Mist 7 1006 100 3100 1 0 09:43 21.12.2019
6089 Mist 7 1006 100 2800 2 130 09:21 21.12.2019
6090 Mist 7 1006 93 2900 2 120 08:57 21.12.2019
6091 Mist 7 1007 100 3000 3 160 08:37 21.12.2019
6092 Mist 6 1007 100 3000 3 160 08:19 21.12.2019
6093 Mist 6 1007 100 3700 2 170 07:44 21.12.2019
6094 Mist 6 1007 100 3400 2 160 07:22 21.12.2019
6095 Mist 6 1007 100 4600 3 150 06:44 21.12.2019
6096 Drizzle 6 1007 100 3600 3 150 06:25 21.12.2019
6097 Drizzle 6 1007 100 2000 3 150 05:49 21.12.2019
6098 Drizzle 5 1007 100 900 3 140 04:58 21.12.2019
6099 Drizzle 5 1008 100 550 4 130 03:57 21.12.2019
6100 Drizzle 5 1009 100 800 4 140 02:52 21.12.2019
6101 Drizzle 4 1010 100 1300 4 140 01:59 21.12.2019
6102 Drizzle 4 1010 100 1000 4 140 01:28 21.12.2019
6103 Drizzle 4 1011 100 1400 4 130 00:53 21.12.2019
6104 Drizzle 4 1011 100 1400 4 130 00:33 21.12.2019
6105 Drizzle 4 1011 100 1900 4 130 23:59 20.12.2019
6106 Drizzle 4 1012 93 2200 3 130 23:38 20.12.2019
6107 Drizzle 4 1012 93 2500 3 120 23:18 20.12.2019
6108 Drizzle 4 1013 93 2700 4 130 22:40 20.12.2019
6109 Drizzle 4 1013 93 2700 4 130 22:21 20.12.2019
6110 Drizzle 4 1013 93 3100 3 130 21:58 20.12.2019
6111 Drizzle 3 1014 100 3500 3 130 21:39 20.12.2019
6112 Drizzle 3 1014 100 3500 3 130 21:20 20.12.2019
6113 Drizzle 3 1014 93 5000 4 130 20:41 20.12.2019
6114 Drizzle 3 1014 93 5000 4 130 20:20 20.12.2019
6115 Clouds 3 1015 86 7000 3 130 19:59 20.12.2019
6116 Clouds 3 1015 86 9000 4 130 19:40 20.12.2019
6117 Clouds 3 1015 86 9000 4 130 19:19 20.12.2019
6118 Clouds 2 1016 93 9000 4 130 18:54 20.12.2019
6119 Clouds 2 1016 93 8000 3 130 18:36 20.12.2019
6120 Clouds 2 1016 93 8000 3 130 18:18 20.12.2019
6121 Clouds 2 1017 70 9000 3 120 17:42 20.12.2019
6122 Clouds 2 1017 65 9000 3 120 17:21 20.12.2019
6123 Clouds 2 1017 65 10000 3 120 16:59 20.12.2019
6124 Clouds 2 1017 65 10000 4 130 16:39 20.12.2019
6125 Clouds 2 1017 65 10000 4 130 16:20 20.12.2019
6126 Clouds 3 1018 86 10000 4 120 15:56 20.12.2019
6127 Clouds 3 1018 86 10000 3 120 15:38 20.12.2019
6128 Clouds 3 1018 80 10000 3 130 15:19 20.12.2019
6129 Clouds 4 1018 80 10000 3 130 14:55 20.12.2019
6130 Clouds 4 1019 80 10000 3 130 14:37 20.12.2019
6131 Clouds 4 1019 80 10000 3 130 14:18 20.12.2019
6132 Clouds 5 1019 75 10000 3 150 13:41 20.12.2019
6133 Clouds 5 1020 75 10000 3 140 13:20 20.12.2019
6134 Clouds 5 1020 75 10000 3 140 12:58 20.12.2019
6135 Clouds 5 1020 75 10000 3 150 12:38 20.12.2019
6136 Clouds 5 1020 75 10000 3 150 12:19 20.12.2019
6137 Clouds 4 1021 63 10000 3 150 11:59 20.12.2019
6138 Clouds 4 1021 63 10000 3 150 11:59 20.12.2019
6139 Clouds 5 1021 63 10000 3 150 11:39 20.12.2019
6140 Clouds 5 1021 68 10000 3 150 11:19 20.12.2019
6141 Clouds 4 1022 68 10000 3 160 10:57 20.12.2019
6142 Clouds 4 1023 68 10000 3 140 10:39 20.12.2019
6143 Clouds 4 1023 68 10000 3 140 10:39 20.12.2019
6144 Rain 3 1023 68 10000 2 150 10:20 20.12.2019
6145 Rain 3 1023 68 10000 2 150 09:44 20.12.2019
6146 Rain 3 1023 68 10000 2 150 09:44 20.12.2019
6147 Rain 3 1024 74 10000 3 160 09:22 20.12.2019
6148 Clouds 2 1024 74 10000 3 160 08:59 20.12.2019
6149 Clouds 2 1024 74 10000 3 160 08:59 20.12.2019
6150 Clouds 1 1024 68 10000 2 160 08:41 20.12.2019
6151 Clear 1 1024 76 10000 2 160 08:22 20.12.2019
6152 Clear 1 1024 80 10000 2 150 07:58 20.12.2019
6153 Clear 0 1024 80 10000 3 150 07:39 20.12.2019
6154 Clear 0 1024 80 10000 3 150 07:18 20.12.2019
6155 Clear 1 1024 80 10000 3 160 06:48 20.12.2019
6156 Clear 0 1024 76 10000 2 150 06:30 20.12.2019
6157 Clear 1 1025 86 10000 2 130 05:49 20.12.2019
6158 Clear 0 1025 80 10000 2 140 05:25 20.12.2019
6159 Clear -2 1026 100 10000 2 120 03:57 20.12.2019
6160 Mist -1 1026 92 9000 2.55 150 03:29 20.12.2019
6161 Mist -4 1027 92 5000 1 100 02:38 20.12.2019
6162 Mist -2 1027 92 4500 1.76 141 01:44 20.12.2019
6163 Fog -4 1027 100 2000 1.68 148 00:59 20.12.2019
6164 Fog -4 1027 92 1400 1.68 148 00:40 20.12.2019
6165 Fog -4 1027 92 1400 1.68 148 00:19 20.12.2019
6166 Fog -3 1028 92 250 1 0 23:42 19.12.2019
6167 Fog -2 1028 92 250 1 0 23:23 19.12.2019
6168 Fog -3 1028 92 250 0.32 99 22:56 19.12.2019
6169 Fog -3 1028 100 450 0.32 99 22:36 19.12.2019
6170 Fog -2 1028 100 250 0.32 99 22:18 19.12.2019
6171 Fog -1 1028 92 450 0.32 99 21:42 19.12.2019
6172 Fog -1 1028 92 450 0.32 99 21:20 19.12.2019
6173 Fog -1 1028 100 350 1 240 20:58 19.12.2019
6174 Mist 0 1028 92 4500 0.32 99 20:38 19.12.2019
6175 Mist 1 1027 74 4900 2 270 20:20 19.12.2019
6176 Mist 1 1028 92 4500 1.45 311 20:20 19.12.2019
6177 Mist 0 1027 74 4900 2 270 19:59 19.12.2019
6178 Clear 1 1027 74 6000 1 0 19:40 19.12.2019
6179 Clear 1 1027 74 6000 1 0 19:40 19.12.2019
6180 Clear 1 1027 74 6000 1 0 19:20 19.12.2019
6181 Clear 1 1027 74 7000 2 240 18:59 19.12.2019
6182 Clear 1 1027 74 7000 3 280 18:40 19.12.2019
6183 Clear 3 1027 74 7000 3 280 18:20 19.12.2019
6184 Clear 3 1027 74 7000 2 280 17:56 19.12.2019
6185 Clear 3 1027 74 8000 2 300 17:38 19.12.2019
6186 Clear 4 1027 80 9000 2 300 17:18 19.12.2019
6187 Clear 4 1027 80 9000 2 300 16:56 19.12.2019
6188 Clear 5 1027 75 10000 3 270 16:37 19.12.2019
6189 Clear 5 1027 75 10000 3 270 16:19 19.12.2019
6190 Clear 5 1027 75 10000 3 290 15:57 19.12.2019
6191 Clear 6 1027 70 10000 3 290 15:37 19.12.2019
6192 Clear 6 1027 70 10000 3 290 15:19 19.12.2019
6193 Clear 7 1026 65 10000 4 300 14:54 19.12.2019
6194 Clear 8 1026 61 10000 5 300 14:36 19.12.2019
6195 Clouds 8 1026 61 10000 5 300 14:18 19.12.2019
6196 Clouds 9 1026 61 10000 6 300 13:38 19.12.2019
6197 Clouds 9 1026 61 10000 6 300 13:20 19.12.2019
6198 Clouds 9 1026 66 10000 6 310 12:57 19.12.2019
6199 Clouds 9 1026 66 10000 6 310 12:57 19.12.2019
6200 Clouds 9 1026 66 10000 5 290 12:39 19.12.2019
6201 Clouds 9 1026 66 10000 5 290 12:19 19.12.2019
6202 Clouds 9 1026 66 10000 5 290 11:58 19.12.2019
6203 Clouds 9 1026 75 10000 7 290 11:40 19.12.2019
6204 Clouds 8 1026 75 10000 7 290 11:18 19.12.2019
6205 Clouds 8 1026 75 10000 6 300 10:58 19.12.2019
6206 Clouds 8 1026 81 10000 5 290 10:38 19.12.2019
6207 Clouds 7 1026 93 10000 4 290 10:20 19.12.2019
6208 Clouds 7 1026 93 10000 4 290 09:55 19.12.2019
6209 Clouds 7 1025 93 9000 4 270 09:37 19.12.2019
6210 Clouds 6 1025 93 9000 3 270 09:18 19.12.2019
6211 Clouds 6 1025 93 9000 4 260 08:42 19.12.2019
6212 Clouds 5 1025 93 9000 4 260 08:20 19.12.2019
6213 Clouds 5 1025 93 9000 4 260 08:20 19.12.2019
6214 Clouds 5 1024 100 7000 3 250 07:59 19.12.2019
6215 Clouds 5 1024 93 9000 3 250 07:40 19.12.2019
6216 Clouds 5 1024 93 9000 3 250 07:22 19.12.2019
6217 Clouds 5 1023 100 10000 2 260 06:52 19.12.2019
6218 Clouds 6 1023 93 10000 3 260 06:52 19.12.2019
6219 Clouds 6 1023 93 10000 3 260 06:52 19.12.2019
6220 Clouds 6 1023 93 10000 3 260 06:33 19.12.2019
6221 Clouds 6 1023 93 10000 4 270 05:57 19.12.2019
6222 Clouds 6 1022 87 10000 3 280 05:39 19.12.2019
6223 Clouds 7 1022 87 10000 4 280 04:56 19.12.2019
6224 Clouds 7 1021 87 10000 3 270 03:45 19.12.2019
6225 Clear 7 1021 87 10000 3 280 02:25 19.12.2019
6226 Clear 8 1020 81 10000 4 280 01:24 19.12.2019
6227 Clear 7 1020 87 10000 4 280 00:44 19.12.2019
6228 Clear 8 1020 87 10000 4 280 00:25 19.12.2019
6229 Clear 8 1019 87 10000 4 270 23:58 18.12.2019
6230 Clear 8 1019 81 10000 4 290 23:38 18.12.2019
6231 Clear 8 1019 81 10000 4 290 23:19 18.12.2019
6232 Clear 8 1019 81 10000 4 280 22:56 18.12.2019
6233 Clear 9 1018 81 10000 4 290 22:37 18.12.2019
6234 Clear 9 1018 81 10000 4 290 22:19 18.12.2019
6235 Clear 9 1018 76 10000 5 280 21:56 18.12.2019
6236 Clear 9 1018 76 10000 5 280 21:38 18.12.2019
6237 Clear 9 1017 76 10000 5 270 21:19 18.12.2019
6238 Clear 9 1017 76 10000 5 270 20:55 18.12.2019
6239 Clear 9 1017 76 10000 6 270 20:37 18.12.2019
6240 Clouds 9 1017 76 10000 6 270 20:19 18.12.2019
6241 Clouds 9 1017 76 10000 6 270 19:55 18.12.2019
6242 Clouds 10 1017 71 10000 5 260 19:37 18.12.2019
6243 Clouds 10 1017 71 10000 5 260 19:18 18.12.2019
6244 Clouds 9 1017 71 10000 6 260 19:18 18.12.2019
6245 Clouds 10 1016 66 10000 5 260 18:44 18.12.2019
6246 Clouds 10 1016 66 10000 5 260 18:25 18.12.2019
6247 Clouds 10 1016 66 10000 5 260 18:25 18.12.2019
6248 Clouds 10 1016 66 10000 5 250 17:57 18.12.2019
6249 Clouds 10 1016 66 10000 5 250 17:39 18.12.2019
6250 Clouds 11 1016 66 10000 5 250 17:19 18.12.2019
6251 Clouds 11 1016 66 10000 5 250 16:55 18.12.2019
6252 Clouds 11 1016 62 10000 5 250 16:37 18.12.2019
6253 Clouds 11 1016 62 10000 5 250 16:18 18.12.2019
6254 Clouds 11 1016 58 10000 6 250 15:55 18.12.2019
6255 Clouds 12 1016 58 10000 5 240 15:37 18.12.2019
6256 Clouds 11 1016 58 10000 5 240 15:18 18.12.2019
6257 Clouds 12 1016 58 10000 6 250 14:40 18.12.2019
6258 Clouds 12 1016 54 10000 6 250 14:21 18.12.2019
6259 Clouds 13 1016 54 10000 6 250 13:57 18.12.2019
6260 Clouds 13 1016 54 10000 6 250 13:57 18.12.2019
6261 Clouds 13 1016 54 10000 6 250 13:57 18.12.2019
6262 Clouds 13 1016 54 10000 6 260 13:37 18.12.2019
6263 Clear 13 1016 54 10000 6 260 13:19 18.12.2019
6264 Clear 13 1016 54 10000 5 250 12:57 18.12.2019
6265 Clear 13 1016 58 10000 4 240 12:38 18.12.2019
6266 Clear 12 1016 58 10000 4 230 12:19 18.12.2019
6267 Clear 12 1016 58 10000 4 230 11:55 18.12.2019
6268 Clear 12 1016 58 10000 4 230 11:55 18.12.2019
6269 Clear 11 1017 62 10000 3 240 11:37 18.12.2019
6270 Clear 11 1017 62 10000 3 240 11:18 18.12.2019
6271 Clear 11 1017 62 10000 3 230 10:55 18.12.2019
6272 Clear 10 1017 70 10000 3 230 10:37 18.12.2019
6273 Clear 9 1017 70 10000 3 230 10:19 18.12.2019
6274 Clear 7 1017 81 10000 4 240 09:43 18.12.2019
6275 Clear 6 1017 86 8000 2 250 09:18 18.12.2019
6276 Clear 6 1017 86 8000 2 250 09:18 18.12.2019
6277 Clear 4 1017 100 6000 2 250 08:40 18.12.2019
6278 Clouds 4 1017 100 6000 2 250 08:21 18.12.2019
6279 Clouds 2 1017 100 6000 2 260 07:43 18.12.2019
6280 Mist 3 1017 93 5000 2 240 07:22 18.12.2019
6281 Clouds 2 1017 93 7000 2 240 06:55 18.12.2019
6282 Fog 3 1017 100 6000 3 250 06:27 18.12.2019
6283 Clouds 4 1017 93 9000 3 240 05:47 18.12.2019
6284 Clouds 3 1017 100 9000 3 250 04:52 18.12.2019
6285 Fog 3 1017 100 3100 3 260 02:55 18.12.2019
6286 Clouds 3 1017 93 6000 2 260 02:36 18.12.2019
6287 Clouds 3 1017 93 6000 2 260 02:18 18.12.2019
6288 Clouds 4 1017 100 8000 3 250 01:40 18.12.2019
6289 Clouds 3 1017 100 8000 3 250 01:21 18.12.2019
6290 Clouds 4 1017 93 7000 3 250 00:40 18.12.2019
6291 Clouds 4 1017 93 7000 3 250 00:22 18.12.2019
6292 Clouds 4 1017 100 7000 2 240 23:56 17.12.2019
6293 Clouds 4 1017 100 6000 2 240 23:37 17.12.2019
6294 Clouds 4 1018 93 7000 2 250 23:18 17.12.2019
6295 Clouds 4 1018 93 7000 2 250 22:54 17.12.2019
6296 Clouds 5 1018 93 9000 2 250 22:36 17.12.2019
6297 Clouds 5 1018 93 9000 2 250 22:18 17.12.2019
6298 Clouds 5 1018 93 9000 2 250 22:18 17.12.2019
6299 Clouds 4 1018 93 8000 2 250 21:55 17.12.2019
6300 Clouds 6 1017 86 9000 3 250 21:36 17.12.2019
6301 Clouds 6 1017 86 9000 3 250 21:18 17.12.2019
6302 Clouds 6 1018 86 9000 3 260 20:55 17.12.2019
6303 Clouds 6 1017 86 9000 3 240 20:36 17.12.2019
6304 Clouds 6 1017 86 9000 3 240 20:18 17.12.2019
6305 Clouds 6 1017 87 10000 3 230 19:41 17.12.2019
6306 Clouds 6 1017 87 10000 3 230 19:20 17.12.2019
6307 Clouds 6 1017 87 10000 3 230 18:58 17.12.2019
6308 Clouds 6 1017 87 9000 3 220 18:40 17.12.2019
6309 Clouds 6 1017 87 10000 3 230 18:21 17.12.2019
6310 Clouds 6 1017 87 10000 3 230 17:58 17.12.2019
6311 Clouds 6 1017 81 10000 3 230 17:39 17.12.2019
6312 Clouds 6 1017 81 10000 3 230 17:19 17.12.2019
6313 Clouds 7 1017 87 10000 3 230 16:56 17.12.2019
6314 Clouds 6 1017 87 10000 3 220 16:37 17.12.2019
6315 Clouds 6 1017 87 10000 3 220 16:18 17.12.2019
6316 Clouds 7 1017 87 9000 2 220 15:54 17.12.2019
6317 Clouds 7 1017 75 10000 2 210 15:36 17.12.2019
6318 Clouds 7 1017 75 10000 2 210 15:18 17.12.2019
6319 Clouds 8 1017 75 10000 3 210 14:54 17.12.2019
6320 Clouds 9 1017 70 10000 3 210 14:36 17.12.2019
6321 Clouds 9 1017 70 10000 3 210 14:36 17.12.2019
6322 Clouds 9 1017 70 10000 3 210 14:18 17.12.2019
6323 Clouds 9 1017 61 10000 3 200 13:54 17.12.2019
6324 Clouds 10 1017 61 10000 3 200 13:36 17.12.2019
6325 Clouds 10 1017 61 10000 3 200 13:18 17.12.2019
6326 Clouds 10 1017 61 10000 3 210 12:39 17.12.2019
6327 Clouds 9 1017 66 10000 3 210 12:19 17.12.2019
6328 Clouds 9 1017 66 10000 3 210 11:58 17.12.2019
6329 Clouds 9 1018 61 10000 4 230 11:37 17.12.2019
6330 Clouds 8 1018 65 10000 4 230 11:18 17.12.2019
6331 Clouds 8 1018 65 10000 4 230 10:58 17.12.2019
6332 Clouds 7 1018 70 10000 3 220 10:39 17.12.2019
6333 Clouds 7 1018 70 10000 3 220 10:20 17.12.2019
6334 Clouds 7 1018 70 10000 4 230 09:58 17.12.2019
6335 Clouds 6 1018 70 10000 4 230 09:40 17.12.2019
6336 Clouds 6 1018 70 10000 4 230 09:19 17.12.2019
6337 Clouds 5 1018 75 10000 3 240 08:55 17.12.2019
6338 Clouds 5 1018 75 10000 3 230 08:36 17.12.2019
6339 Clouds 4 1018 79 10000 3 240 08:18 17.12.2019
6340 Clouds 3 1018 79 10000 3 250 07:42 17.12.2019
6341 Clouds 4 1018 79 10000 3 250 07:23 17.12.2019
6342 Clouds 3 1018 86 10000 3 220 06:53 17.12.2019
6343 Clouds 3 1018 86 8000 1 0 06:32 17.12.2019
6344 Clouds 3 1018 80 10000 1 0 05:50 17.12.2019
6345 Clouds 3 1018 80 10000 1 0 05:50 17.12.2019
6346 Clouds 3 1018 80 10000 1 0 05:31 17.12.2019
6347 Clouds 4 1019 80 10000 1 0 04:00 17.12.2019
6348 Clouds 4 1019 93 10000 2 190 02:26 17.12.2019
6349 Mist 3 1020 100 3300 2.16 180 01:22 17.12.2019
6350 Mist 4 1020 100 3100 1 0 00:48 17.12.2019
6351 Mist 3 1020 100 3100 1 0 00:22 17.12.2019
6352 Mist 4 1020 100 3400 1 0 23:58 16.12.2019
6353 Mist 3 1020 93 2300 2 250 23:40 16.12.2019
6354 Fog 3 1020 100 3200 1 230 23:18 16.12.2019
6355 Fog 3 1020 100 3200 1 230 22:54 16.12.2019
6356 Fog 2 1020 100 700 2 250 22:36 16.12.2019
6357 Fog 1 1020 100 700 2 250 22:18 16.12.2019
6358 Fog 1 1020 91 500 2 230 21:54 16.12.2019
6359 Fog 1 1020 91 2400 3 220 21:36 16.12.2019
6360 Fog 1 1020 91 2400 3 220 21:36 16.12.2019
6361 Fog 2 1020 91 2400 3 220 21:18 16.12.2019
6362 Fog 2 1020 91 600 2 230 20:55 16.12.2019
6363 Fog 1 1020 91 1100 2 220 20:37 16.12.2019
6364 Fog 2 1020 87 1100 2 220 20:18 16.12.2019
6365 Fog 2 1020 87 1100 2 220 20:18 16.12.2019
6366 Fog 2 1020 100 500 1 250 19:54 16.12.2019
6367 Fog 2 1020 100 400 2 240 19:36 16.12.2019
6368 Mist 2 1020 100 5000 2 230 19:18 16.12.2019
6369 Mist 2 1020 100 5000 2 230 19:18 16.12.2019
6370 Clouds 5 1020 93 7000 2 240 18:42 16.12.2019
6371 Clouds 5 1020 93 7000 2 240 18:20 16.12.2019
6372 Clouds 5 1020 93 6000 3 230 17:59 16.12.2019
6373 Clouds 5 1019 93 6000 3 230 17:41 16.12.2019
6374 Clouds 5 1019 93 6000 2 230 17:22 16.12.2019
6375 Clouds 5 1019 93 6000 2 230 16:58 16.12.2019
6376 Clouds 6 1019 86 9000 3 220 16:39 16.12.2019
6377 Clouds 6 1019 86 9000 3 220 16:20 16.12.2019
6378 Clouds 6 1019 86 9000 2 230 15:59 16.12.2019
6379 Clouds 7 1018 65 9000 3 240 15:39 16.12.2019
6380 Clouds 7 1018 65 9000 3 240 15:39 16.12.2019
6381 Clouds 7 1019 81 10000 3 230 15:21 16.12.2019
6382 Clouds 8 1018 75 10000 2 240 14:57 16.12.2019
6383 Clouds 9 1018 70 10000 3 260 14:38 16.12.2019
6384 Clouds 9 1018 70 10000 3 260 14:19 16.12.2019
6385 Clouds 9 1018 70 10000 4 280 13:57 16.12.2019
6386 Clouds 10 1017 70 10000 5 280 13:38 16.12.2019
6387 Clouds 10 1017 70 10000 5 280 13:20 16.12.2019
6388 Clouds 10 1017 70 10000 4 260 12:58 16.12.2019
6389 Clouds 9 1017 70 10000 5 260 12:39 16.12.2019
6390 Clouds 9 1017 70 10000 5 260 12:19 16.12.2019
6391 Clouds 9 1017 66 10000 5 270 11:59 16.12.2019
6392 Clouds 9 1017 70 10000 5 260 11:40 16.12.2019
6393 Clouds 9 1017 70 10000 5 260 11:20 16.12.2019
6394 Clouds 8 1017 70 10000 5 260 10:57 16.12.2019
6395 Clouds 8 1017 65 10000 4 260 10:39 16.12.2019
6396 Clouds 8 1017 65 10000 4 260 10:39 16.12.2019
6397 Clouds 8 1017 65 10000 4 260 10:19 16.12.2019
6398 Clouds 7 1017 70 10000 4 260 09:45 16.12.2019
6399 Clouds 7 1017 70 10000 4 270 09:27 16.12.2019
6400 Clouds 7 1017 70 10000 4 270 09:27 16.12.2019
6401 Clouds 7 1016 70 10000 5 260 08:56 16.12.2019
6402 Clouds 7 1016 70 10000 5 260 08:37 16.12.2019
6403 Rain 7 1016 70 10000 5 260 08:18 16.12.2019
6404 Rain 7 1016 70 10000 5 260 08:18 16.12.2019
6405 Rain 7 1015 70 10000 5 260 07:44 16.12.2019
6406 Rain 7 1015 70 10000 5 260 07:22 16.12.2019
6407 Clouds 7 1015 65 10000 5 260 06:45 16.12.2019
6408 Clouds 7 1015 65 10000 5 260 06:25 16.12.2019
6409 Rain 7 1014 65 10000 3 240 05:50 16.12.2019
6410 Rain 7 1014 65 10000 3 240 05:31 16.12.2019
6411 Rain 7 1014 65 10000 4 240 04:22 16.12.2019
6412 Clouds 5 1014 70 10000 5 220 02:19 16.12.2019
6413 Clouds 5 1013 75 10000 4 220 01:44 16.12.2019
6414 Clouds 4 1014 75 10000 3 220 00:43 16.12.2019
6415 Clouds 4 1014 75 10000 3 220 00:25 16.12.2019
6416 Clouds 4 1014 75 10000 4 220 23:58 15.12.2019
6417 Clouds 4 1014 75 10000 3 210 23:38 15.12.2019
6418 Clouds 4 1014 80 10000 2 220 23:20 15.12.2019
6419 Clouds 4 1014 80 10000 2 220 22:56 15.12.2019
6420 Clouds 3 1014 86 10000 3 220 22:37 15.12.2019
6421 Clouds 3 1014 86 10000 3 220 22:18 15.12.2019
6422 Clouds 3 1014 86 10000 3 220 22:18 15.12.2019
6423 Clouds 3 1014 86 10000 3 230 21:56 15.12.2019
6424 Clouds 3 1014 86 10000 3 230 21:56 15.12.2019
6425 Clouds 3 1014 86 10000 3 230 21:37 15.12.2019
6426 Clouds 3 1014 86 10000 3 230 21:19 15.12.2019
6427 Clouds 3 1014 93 9000 2 250 20:55 15.12.2019
6428 Clouds 2 1014 72 9000 2 240 20:37 15.12.2019
6429 Clouds 3 1013 93 10000 2 240 20:18 15.12.2019
6430 Clouds 3 1013 93 10000 2 240 19:56 15.12.2019
6431 Clouds 3 1013 93 10000 2.5 250 19:38 15.12.2019
6432 Clouds 3 1013 93 10000 2.32 237 19:18 15.12.2019
6433 Clouds 3 1013 86 10000 2 260 18:55 15.12.2019
6434 Clouds 4 1013 80 10000 3 240 18:37 15.12.2019
6435 Clouds 4 1013 80 10000 4 250 18:18 15.12.2019
6436 Clouds 5 1012 80 10000 4 250 17:56 15.12.2019
6437 Clouds 5 1012 80 10000 4 250 17:36 15.12.2019
6438 Clouds 5 1012 75 10000 3 250 17:18 15.12.2019
6439 Clouds 5 1012 75 10000 3 250 17:18 15.12.2019
6440 Clouds 5 1012 75 10000 3 250 17:18 15.12.2019
6441 Clouds 6 1012 75 10000 4 260 16:43 15.12.2019
6442 Clouds 6 1012 75 10000 4 260 16:23 15.12.2019
6443 Clouds 6 1012 75 10000 4 260 15:58 15.12.2019
6444 Clouds 6 1011 75 10000 6 260 15:39 15.12.2019
6445 Clouds 6 1011 75 10000 6 260 15:20 15.12.2019
6446 Clouds 6 1010 75 10000 4 240 14:57 15.12.2019
6447 Clouds 6 1010 75 10000 5 260 14:38 15.12.2019
6448 Clouds 6 1010 75 10000 5 260 14:19 15.12.2019
6449 Clouds 6 1010 75 10000 6 270 13:59 15.12.2019
6450 Clouds 7 1009 70 10000 7 260 13:39 15.12.2019
6451 Clouds 7 1009 70 10000 7 260 13:20 15.12.2019
6452 Clouds 7 1009 70 10000 7 270 12:57 15.12.2019
6453 Clouds 7 1008 70 10000 6 260 12:39 15.12.2019
6454 Clouds 7 1008 70 10000 6 260 12:21 15.12.2019
6455 Clouds 7 1008 81 10000 5 260 11:59 15.12.2019
6456 Clouds 7 1008 75 10000 7 270 11:38 15.12.2019
6457 Clouds 6 1008 81 10000 7 270 11:19 15.12.2019
6458 Clouds 6 1008 81 10000 7 270 10:55 15.12.2019
6459 Clouds 6 1008 81 10000 7 280 10:37 15.12.2019
6460 Clouds 6 1008 86 10000 8 280 10:19 15.12.2019
6461 Clouds 5 1008 86 10000 8 280 09:56 15.12.2019
6462 Clouds 5 1007 93 10000 6 270 09:37 15.12.2019
6463 Clouds 5 1007 86 10000 6 270 09:18 15.12.2019
6464 Clouds 4 1007 93 10000 4 260 08:41 15.12.2019
6465 Clouds 4 1007 93 10000 4 260 08:22 15.12.2019
6466 Clouds 4 1006 93 10000 5 270 07:57 15.12.2019
6467 Clouds 5 1006 93 10000 5 260 07:37 15.12.2019
6468 Clouds 5 1005 93 10000 5 260 06:57 15.12.2019
6469 Rain 5 1005 93 10000 4 250 06:23 15.12.2019
6470 Clouds 5 1004 100 10000 3 230 05:39 15.12.2019
6471 Clouds 5 1004 100 10000 3 230 05:19 15.12.2019
6472 Rain 4 1004 100 8000 2 180 03:56 15.12.2019
6473 Rain 4 1004 100 1200 2 160 02:35 15.12.2019
6474 Rain 4 1004 100 1400 2 160 01:55 15.12.2019
6475 Mist 4 1004 100 1900 3 150 01:37 15.12.2019
6476 Mist 4 1004 100 3000 3 150 01:18 15.12.2019
6477 Mist 4 1004 100 4400 2 140 00:42 15.12.2019
6478 Mist 3 1004 100 4400 2 140 00:23 15.12.2019
6479 Fog 3 1005 100 1000 2 130 23:40 14.12.2019
6480 Fog 3 1005 100 900 2 120 23:21 14.12.2019
6481 Fog 3 1005 100 900 2 120 22:59 14.12.2019
6482 Fog 3 1005 93 900 3 140 22:40 14.12.2019
6483 Fog 3 1005 93 900 3 140 22:21 14.12.2019
6484 Fog 3 1005 100 1000 3 130 21:56 14.12.2019
6485 Mist 3 1005 100 1300 3 140 21:38 14.12.2019
6486 Mist 2 1005 100 1300 3 140 21:19 14.12.2019
6487 Mist 2 1005 100 4400 3 130 20:57 14.12.2019
6488 Rain 2 1005 100 4900 3 130 20:39 14.12.2019
6489 Rain 2 1005 100 4900 3 130 20:19 14.12.2019
6490 Rain 2 1006 100 4100 4 130 19:56 14.12.2019
6491 Rain 2 1006 100 1900 3 130 19:37 14.12.2019
6492 Mist 2 1006 100 1900 3 130 19:18 14.12.2019
6493 Mist 2 1006 100 2200 4 130 18:56 14.12.2019
6494 Mist 2 1006 93 2500 4 120 18:36 14.12.2019
6495 Mist 2 1006 93 2900 4 110 18:18 14.12.2019
6496 Mist 2 1006 100 1000 3 110 17:43 14.12.2019
6497 -273 0 0 0 0 0 17:23 14.12.2019
6498 Fog 2 1006 100 800 4 110 16:56 14.12.2019
6499 Fog 2 1007 100 900 3 110 16:38 14.12.2019
6500 Fog 2 1007 100 900 3 110 16:18 14.12.2019
6501 Mist 2 1006 100 2000 4 110 15:42 14.12.2019
6502 Mist 2 1006 100 2000 4 110 15:21 14.12.2019
6503 Mist 2 1007 100 2100 3 110 14:58 14.12.2019
6504 Mist 2 1006 100 3200 4 110 14:38 14.12.2019
6505 Mist 2 1006 93 4300 3 110 14:19 14.12.2019
6506 Mist 2 1006 100 3200 4 110 14:19 14.12.2019
6507 Mist 2 1006 93 5000 3 100 13:45 14.12.2019
6508 Mist 2 1006 93 5000 3 100 13:21 14.12.2019
6509 Mist 2 1006 93 5000 3 100 13:21 14.12.2019
6510 Clouds 2 1006 89 7000 4 110 12:59 14.12.2019
6511 Clouds 2 1006 93 7000 3 130 12:41 14.12.2019
6512 Clouds 2 1006 88 7000 3 110 12:21 14.12.2019
6513 Clouds 2 1006 93 7000 3 130 12:21 14.12.2019
6514 Clouds 2 1006 88 7000 3 110 11:59 14.12.2019
6515 Clouds 1 1006 89 6000 3 120 11:39 14.12.2019
6516 Clouds 1 1006 89 6000 3 120 11:20 14.12.2019
6517 Mist 1 1006 89 5000 3 110 10:59 14.12.2019
6518 Mist 1 1006 89 5000 4 110 10:40 14.12.2019
6519 Mist 1 1006 89 5000 4 110 10:22 14.12.2019
6520 Mist 1 1007 89 4000 3 120 09:57 14.12.2019
6521 Mist 1 1007 89 3600 4 120 09:39 14.12.2019
6522 Mist 1 1007 89 3600 4 120 09:19 14.12.2019
6523 Mist 1 1007 89 3200 4 120 08:43 14.12.2019
6524 Mist 1 1007 91 3200 4 120 08:20 14.12.2019
6525 Mist 0 1007 91 3300 3 120 07:44 14.12.2019
6526 Mist 0 1007 91 3300 3 120 07:23 14.12.2019
6527 Mist 0 1007 91 4500 3 120 06:57 14.12.2019
6528 Mist 0 1006 91 4900 3 120 06:37 14.12.2019
6529 Mist 0 1006 91 5000 4 110 05:59 14.12.2019
6530 Clouds 0 1007 87 6000 3 140 04:48 14.12.2019
6531 Clouds 0 1007 87 6000 4 130 02:35 14.12.2019
6532 Clouds 0 1007 84 6000 4 140 01:56 14.12.2019
6533 Clouds 0 1007 84 6000 4 140 01:56 14.12.2019
6534 Clouds 0 1007 85 7000 3 140 01:37 14.12.2019
6535 Clouds 0 1007 85 7000 3 140 00:47 14.12.2019
6536 Clouds 0 1007 85 7000 4 130 00:27 14.12.2019
6537 Clouds 0 1007 85 6000 4 140 23:56 13.12.2019
6538 Clouds 0 1007 85 6000 5 140 23:37 13.12.2019
6539 Clouds 0 1007 81 6000 4 140 23:18 13.12.2019
6540 Clouds 0 1007 81 6000 4 140 22:40 13.12.2019
6541 Clouds 0 1007 81 6000 4 140 22:19 13.12.2019
6542 Clouds 0 1007 81 6000 4 140 21:56 13.12.2019
6543 Clouds 0 1007 81 6000 3 140 21:37 13.12.2019
6544 Clouds 0 1007 81 6000 3 140 21:19 13.12.2019
6545 Clouds 0 1007 81 6000 5 140 20:41 13.12.2019
6546 Clouds 0 1007 78 6000 5 140 20:22 13.12.2019
6547 Clouds 0 1007 78 6000 5 140 19:59 13.12.2019
6548 Mist 0 1007 78 4600 4 140 19:40 13.12.2019
6549 Mist 0 1007 78 4600 4 140 19:22 13.12.2019
6550 Mist 0 1007 78 4500 4 140 18:58 13.12.2019
6551 Mist 0 1007 78 4400 4 140 18:40 13.12.2019
6552 Mist 0 1007 78 4400 4 140 18:19 13.12.2019
6553 Mist 0 1007 78 4700 4 140 17:43 13.12.2019
6554 Mist 0 1007 78 4700 4 140 17:20 13.12.2019
6555 Mist 0 1007 78 5000 5 130 16:59 13.12.2019
6556 Mist 0 1007 78 5000 5 120 16:39 13.12.2019
6557 Mist 0 1007 78 5000 5 120 16:20 13.12.2019
6558 Mist 0 1007 78 3900 3 130 15:43 13.12.2019
6559 Mist 0 1008 78 3300 4 110 15:23 13.12.2019
6560 Mist 0 1008 78 3300 4 110 14:59 13.12.2019
6561 Mist 0 1008 78 5000 5 120 14:41 13.12.2019
6562 Mist 0 1008 79 5000 5 120 14:20 13.12.2019
6563 Mist 0 1008 79 5000 5 130 13:57 13.12.2019
6564 Clouds 0 1008 79 6000 5 130 13:37 13.12.2019
6565 Clouds 0 1008 76 6000 5 130 13:19 13.12.2019
6566 Clouds 0 1009 76 7000 4 140 12:42 13.12.2019
6567 Clouds 0 1009 76 7000 4 140 12:20 13.12.2019
6568 Clouds 0 1009 76 6000 5 130 11:57 13.12.2019
6569 Clouds 0 1009 76 6000 5 130 11:57 13.12.2019
6570 Mist 0 1009 76 3700 3 140 11:39 13.12.2019
6571 Mist 0 1009 76 3700 3 140 11:39 13.12.2019
6572 Mist 0 1009 82 3700 3 140 11:20 13.12.2019
6573 Mist 0 1010 82 2900 2 150 10:42 13.12.2019
6574 Mist 0 1010 82 2900 2 150 10:42 13.12.2019
6575 Mist 0 1010 82 2900 2 150 10:23 13.12.2019
6576 Mist 0 1010 82 5000 4 140 09:55 13.12.2019
6577 Mist 0 1010 82 3800 3 150 09:36 13.12.2019
6578 Mist 0 1010 82 4100 4 140 09:18 13.12.2019
6579 Mist 0 1010 82 4600 4 140 08:41 13.12.2019
6580 Mist 0 1010 87 5000 4 140 08:23 13.12.2019
6581 Clouds 0 1010 87 6000 4 120 07:44 13.12.2019
6582 Clouds 0 1010 87 6000 4 120 07:44 13.12.2019
6583 Clouds 0 1010 87 6000 4 120 07:21 13.12.2019
6584 Clouds 0 1010 87 8000 4 130 07:21 13.12.2019
6585 Clouds 0 1010 87 8000 4 130 06:51 13.12.2019
6586 Clouds 0 1011 87 8000 5 130 06:28 13.12.2019
6587 Clouds 0 1011 87 10000 5 120 05:45 13.12.2019
6588 Clouds 0 1011 87 10000 5 120 05:24 13.12.2019
6589 Clouds 0 1011 87 10000 4 130 04:35 13.12.2019
6590 Clouds 0 1012 87 10000 5 130 03:39 13.12.2019
6591 Clouds 0 1012 87 10000 4 110 02:33 13.12.2019
6592 Clouds 1 1013 86 9000 4 120 01:43 13.12.2019
6593 Clouds 1 1013 87 8000 3 130 00:55 13.12.2019
6594 Clouds 1 1014 87 9000 5 130 00:36 13.12.2019
6595 Clouds 1 1014 87 8000 4 120 23:57 12.12.2019
6596 Clouds 1 1014 87 9000 4 120 23:37 12.12.2019
6597 Clouds 1 1014 88 9000 4 120 23:19 12.12.2019
6598 Clouds 1 1014 88 8000 3 120 22:54 12.12.2019
6599 Clouds 1 1015 88 6000 3 130 22:36 12.12.2019
6600 Clouds 1 1015 88 6000 3 130 22:18 12.12.2019
6601 Clouds 1 1015 88 7000 4 130 21:54 12.12.2019
6602 Clouds 1 1015 100 6000 4 130 21:36 12.12.2019
6603 Drizzle 1 1015 88 6000 3 120 21:18 12.12.2019
6604 Drizzle 1 1015 88 6000 3 120 20:55 12.12.2019
6605 Drizzle 1 1015 100 5000 3 130 20:37 12.12.2019
6606 Drizzle 1 1016 100 2200 3 130 20:19 12.12.2019
6607 Drizzle 1 1016 100 2700 3 120 19:42 12.12.2019
6608 Drizzle 1 1016 100 2700 3 120 19:22 12.12.2019
6609 Drizzle 1 1016 93 2800 3 130 18:58 12.12.2019
6610 Rain 1 1016 100 3200 4 140 18:39 12.12.2019
6611 Rain 1 1016 100 3200 4 140 18:20 12.12.2019
6612 Drizzle 1 1016 100 3600 4 130 17:57 12.12.2019
6613 Drizzle 1 1016 100 2500 3 140 17:39 12.12.2019
6614 Drizzle 1 1016 100 2500 3 140 17:20 12.12.2019
6615 Drizzle 2 1016 100 2700 3 130 16:57 12.12.2019
6616 Mist 2 1016 100 1400 5 110 16:39 12.12.2019
6617 Mist 2 1016 100 1400 5 110 16:20 12.12.2019
6618 Mist 2 1016 100 3900 5 120 15:56 12.12.2019
6619 Clouds 3 1016 93 7000 4 120 15:37 12.12.2019
6620 Clouds 3 1016 93 9000 3 120 15:18 12.12.2019
6621 Clouds 3 1017 93 7000 2 140 14:38 12.12.2019
6622 Clouds 3 1017 93 9000 3 140 14:20 12.12.2019
6623 Clouds 3 1017 100 6000 4 140 13:58 12.12.2019
6624 Clouds 3 1017 100 6000 4 140 13:39 12.12.2019
6625 Mist 3 1017 100 3700 3 140 13:21 12.12.2019
6626 Clouds 3 1017 100 6000 4 140 13:21 12.12.2019
6627 Mist 3 1017 100 3700 3 140 12:58 12.12.2019
6628 Mist 3 1018 100 2100 3 140 12:40 12.12.2019
6629 Mist 3 1018 100 2100 3 140 12:21 12.12.2019
6630 Mist 3 1018 100 2000 2 150 11:56 12.12.2019
6631 Mist 3 1018 100 1500 2 140 11:38 12.12.2019
6632 Mist 2 1018 100 1500 2 140 11:19 12.12.2019
6633 Mist 2 1019 100 1400 3 140 10:55 12.12.2019
6634 Mist 2 1019 100 1400 3 140 10:37 12.12.2019
6635 Mist 2 1019 100 1400 3 140 10:19 12.12.2019
6636 Fog 2 1019 100 450 4 130 09:42 12.12.2019
6637 Fog 2 1019 100 450 4 130 09:24 12.12.2019
6638 Fog 2 1019 100 750 3 130 08:59 12.12.2019
6639 Mist 2 1019 100 1200 4 130 08:40 12.12.2019
6640 Mist 2 1019 100 1200 4 130 08:22 12.12.2019
6641 Fog 2 1019 100 900 3 130 07:47 12.12.2019
6642 Fog 2 1019 100 500 3 130 07:25 12.12.2019
6643 Fog 2 1019 93 550 3 120 06:54 12.12.2019
6644 Fog 1 1019 100 600 3 110 06:34 12.12.2019
6645 Fog 1 1019 100 600 3 110 05:41 12.12.2019
6646 Fog 1 1019 100 750 3 110 04:54 12.12.2019
6647 Mist 1 1020 100 3000 3 110 03:37 12.12.2019
6648 Fog 1 1020 100 1000 3 120 02:39 12.12.2019
6649 Fog 1 1020 100 1000 3 120 02:20 12.12.2019
6650 Mist 1 1020 100 2400 3 110 01:40 12.12.2019
6651 Mist 1 1020 100 2400 3 110 01:22 12.12.2019
6652 Mist 1 1021 100 2000 3 100 00:46 12.12.2019
6653 Mist 1 1021 100 3200 3 100 00:20 12.12.2019
6654 Mist 1 1021 100 5000 2 130 23:44 11.12.2019
6655 Mist 1 1021 100 4700 3 120 23:21 11.12.2019
6656 Mist 1 1021 100 4700 3 120 22:57 11.12.2019
6657 Drizzle 1 1021 100 3200 3 120 22:39 11.12.2019
6658 Drizzle 1 1021 100 3200 3 120 22:20 11.12.2019
6659 Fog 1 1021 100 800 3 110 21:57 11.12.2019
6660 Fog 1 1021 100 800 3 110 21:57 11.12.2019
6661 Fog 1 1021 100 750 3 120 21:38 11.12.2019
6662 Mist 1 1021 100 2300 3 110 21:19 11.12.2019
6663 Mist 1 1021 100 2300 3 110 21:19 11.12.2019
6664 Mist 1 1021 100 2300 3 110 20:56 11.12.2019
6665 Mist 1 1021 100 2800 3 120 20:37 11.12.2019
6666 Mist 1 1021 100 2800 3 120 20:37 11.12.2019
6667 Mist 1 1021 100 2800 3 120 20:37 11.12.2019
6668 Mist 1 1022 93 5000 3 120 20:19 11.12.2019
6669 Mist 1 1022 93 5000 3 120 20:19 11.12.2019
6670 Mist 1 1022 93 5000 3 120 19:57 11.12.2019
6671 Mist 1 1022 93 5000 3 110 19:38 11.12.2019
6672 Mist 1 1021 94 5000 3 120 19:18 11.12.2019
6673 Mist 2 1022 93 5000 3 110 18:41 11.12.2019
6674 Mist 2 1022 93 5000 2 120 18:21 11.12.2019
6675 Mist 2 1022 93 5000 2 120 17:57 11.12.2019
6676 Mist 2 1022 93 5000 2 120 17:57 11.12.2019
6677 Clouds 2 1022 93 6000 2 100 17:39 11.12.2019
6678 Clouds 2 1022 86 6000 2 100 17:18 11.12.2019
6679 Clouds 2 1022 86 6000 2 100 16:57 11.12.2019
6680 Clouds 2 1022 86 6000 2 100 16:57 11.12.2019
6681 Clouds 3 1021 86 6000 1 0 16:38 11.12.2019
6682 Clouds 3 1021 86 6000 1 0 16:38 11.12.2019
6683 Clouds 3 1021 86 6000 1 0 16:38 11.12.2019
6684 Clouds 3 1021 86 6000 1 0 16:38 11.12.2019
6685 Clouds 3 1021 86 6000 1 0 16:20 11.12.2019
6686 Clouds 3 1021 84 7000 2 120 15:59 11.12.2019
6687 Clouds 3 1021 84 8000 1 110 15:39 11.12.2019
6688 Clouds 3 1021 84 8000 1 110 15:20 11.12.2019
6689 Clouds 3 1021 84 9000 1 140 14:56 11.12.2019
6690 Clouds 3 1021 84 9000 1 0 14:37 11.12.2019
6691 Clouds 3 1021 86 9000 1 0 14:19 11.12.2019
6692 Clouds 3 1021 86 9000 1 0 13:54 11.12.2019
6693 Clouds 3 1021 72 8000 1 0 13:36 11.12.2019
6694 Clouds 3 1021 86 7000 2 360 13:18 11.12.2019
6695 Clouds 3 1021 72 8000 2 360 12:54 11.12.2019
6696 Clouds 3 1021 72 8000 2 360 12:36 11.12.2019
6697 Clouds 3 1021 72 8000 2 360 12:36 11.12.2019
6698 Clouds 3 1021 86 6000 2 330 12:18 11.12.2019
6699 Clouds 3 1021 86 6000 1 0 11:54 11.12.2019
6700 Clouds 3 1021 86 6000 1 0 11:36 11.12.2019
6701 Clouds 3 1021 86 6000 2 300 11:18 11.12.2019
6702 Mist 3 1022 86 5000 1 0 10:41 11.12.2019
6703 Mist 3 1022 86 5000 1 0 10:23 11.12.2019
6704 Mist 3 1022 86 5000 1 0 09:58 11.12.2019
6705 Mist 3 1021 86 5000 1 350 09:38 11.12.2019
6706 Mist 3 1021 86 5000 2 20 09:19 11.12.2019
6707 Mist 3 1021 86 5000 2 20 08:56 11.12.2019
6708 Clouds 2 1021 93 6000 2 320 08:37 11.12.2019
6709 Mist 2 1021 93 4500 2 330 08:18 11.12.2019
6710 Mist 2 1021 100 3100 2 310 07:44 11.12.2019
6711 Mist 2 1021 100 3100 2 310 07:24 11.12.2019
6712 Mist 2 1021 100 3500 2 320 06:46 11.12.2019
6713 Mist 2 1020 100 3900 1 0 06:25 11.12.2019
6714 Mist 2 1020 100 4800 2 330 05:56 11.12.2019
6715 Mist 2 1020 100 5000 2 10 05:35 11.12.2019
6716 Mist 2 1020 100 5000 3 340 04:53 11.12.2019
6717 Mist 2 1019 100 3300 2 320 03:37 11.12.2019
6718 Fog 1 1019 100 600 1 0 02:38 11.12.2019
6719 Mist 1 1019 100 1300 2 290 01:22 11.12.2019
6720 Mist 1 1019 100 1400 3 280 00:43 11.12.2019
6721 Fog 1 1019 100 1100 3 270 00:19 11.12.2019
6722 Mist 1 1019 100 3400 3 260 23:46 10.12.2019
6723 Mist 1 1019 100 3700 2 250 23:26 10.12.2019
6724 Mist 1 1019 100 3700 2 250 22:57 10.12.2019
6725 Mist 1 1018 100 3400 2 240 22:39 10.12.2019
6726 Mist 1 1018 100 3400 2 240 22:20 10.12.2019
6727 Mist 1 1018 100 1600 3 260 21:54 10.12.2019
6728 Mist 1 1017 100 1100 3 240 21:36 10.12.2019
6729 Mist 1 1017 100 1100 2 240 21:18 10.12.2019
6730 Mist 1 1017 100 1100 2 240 20:55 10.12.2019
6731 Mist 1 1017 100 1300 3 250 20:36 10.12.2019
6732 Mist 1 1017 100 1300 3 250 20:18 10.12.2019
6733 Mist 1 1017 100 1300 3 250 20:18 10.12.2019
6734 Mist 1 1017 100 4500 3 240 19:44 10.12.2019
6735 Mist 1 1017 100 4500 3 240 19:26 10.12.2019
6736 Mist 1 1017 100 2600 3 240 18:59 10.12.2019
6737 Mist 1 1016 100 1700 3 240 18:39 10.12.2019
6738 Mist 1 1016 100 1000 3 220 18:19 10.12.2019
6739 Mist 1 1016 100 1000 3 220 17:55 10.12.2019
6740 Mist 1 1016 100 1300 2 220 17:36 10.12.2019
6741 Mist 1 1016 100 1300 3 210 17:18 10.12.2019
6742 Mist 1 1016 100 1300 3 210 17:18 10.12.2019
6743 Mist 1 1015 100 1400 3 220 16:42 10.12.2019
6744 Mist 2 1015 93 2400 2 210 16:20 10.12.2019
6745 Mist 1 1015 100 1400 3 220 16:20 10.12.2019
6746 Mist 2 1015 93 2400 2 210 15:54 10.12.2019
6747 Mist 2 1015 93 2900 2 230 15:36 10.12.2019
6748 Mist 2 1015 93 2900 2 230 15:18 10.12.2019
6749 Mist 2 1015 93 2900 2 230 15:18 10.12.2019
6750 Mist 2 1015 93 2900 2 230 15:18 10.12.2019
6751 Mist 2 1015 100 2400 3 220 14:42 10.12.2019
6752 Mist 2 1015 100 2400 3 220 14:24 10.12.2019
6753 Mist 2 1015 100 2400 3 220 14:24 10.12.2019
6754 Mist 2 1014 100 2800 3 230 13:59 10.12.2019
6755 Mist 2 1014 100 1200 3 220 13:40 10.12.2019
6756 Mist 2 1014 100 1200 3 220 13:20 10.12.2019
6757 Mist 3 1014 100 2400 3 220 12:57 10.12.2019
6758 Mist 3 1014 100 2600 3 230 12:38 10.12.2019
6759 Mist 3 1014 100 2600 3 230 12:20 10.12.2019
6760 Mist 2 1014 100 3200 3 210 11:41 10.12.2019
6761 Mist 2 1014 100 3200 3 210 11:41 10.12.2019
6762 Mist 2 1014 100 3200 3 210 11:23 10.12.2019
6763 Mist 2 1014 100 2500 3 210 10:55 10.12.2019
6764 Mist 2 1014 100 2500 4 200 10:37 10.12.2019
6765 Mist 2 1014 100 2500 3 200 10:18 10.12.2019
6766 Mist 2 1014 100 2400 3 200 09:54 10.12.2019
6767 Mist 2 1014 100 2400 3 200 09:36 10.12.2019
6768 Mist 2 1014 100 2400 3 200 09:18 10.12.2019
6769 Mist 2 1013 93 1800 3 220 08:41 10.12.2019
6770 Mist 2 1013 93 1800 3 220 08:22 10.12.2019
6771 Mist 2 1013 93 1800 3 220 08:22 10.12.2019
6772 Mist 2 1013 93 1700 3 210 07:57 10.12.2019
6773 Mist 2 1013 93 2000 2 190 07:39 10.12.2019
6774 Mist 2 1013 93 2000 2 190 07:39 10.12.2019
6775 Mist 2 1013 93 2000 2 190 07:20 10.12.2019
6776 Mist 1 1013 93 2400 3 180 06:46 10.12.2019
6777 Mist 1 1012 93 1400 3 170 06:19 10.12.2019
6778 Mist 1 1013 93 2500 3 180 06:19 10.12.2019
6779 Mist 1 1012 93 1400 3 170 05:52 10.12.2019
6780 Mist 1 1012 100 1200 3 160 04:50 10.12.2019
6781 Fog 1 1012 86 750 2 170 03:32 10.12.2019
6782 Clouds 1 1012 86 6000 1 0 02:40 10.12.2019
6783 Clouds 1 1012 93 8000 2 160 01:44 10.12.2019
6784 Clouds 1 1011 93 10000 2 160 01:20 10.12.2019
6785 Clouds 0 1011 100 8000 1 0 00:40 10.12.2019
6786 Clouds 0 1011 100 8000 1 0 00:19 10.12.2019
6787 Clouds 0 1011 84 9000 1 0 23:40 09.12.2019
6788 Clouds 0 1011 85 9000 1 0 23:22 09.12.2019
6789 Clouds 1 1011 85 9000 1 0 22:57 09.12.2019
6790 Clouds 1 1011 85 8000 2 200 22:39 09.12.2019
6791 Clouds 1 1011 85 8000 2 200 22:19 09.12.2019
6792 Clouds 1 1011 85 7000 2 210 21:56 09.12.2019
6793 Clouds 2 1011 85 8000 2 210 21:38 09.12.2019
6794 Clouds 2 1011 85 8000 2 210 21:18 09.12.2019
6795 Clouds 2 1011 85 9000 2 220 20:56 09.12.2019
6796 Clouds 2 1011 83 9000 2 230 20:37 09.12.2019
6797 Clouds 2 1011 81 9000 2 230 20:19 09.12.2019
6798 Clouds 2 1011 81 10000 3 230 19:55 09.12.2019
6799 Clouds 2 1011 81 10000 4 220 19:37 09.12.2019
6800 Clouds 2 1011 81 10000 4 220 19:19 09.12.2019
6801 Clouds 3 1011 81 10000 3 210 18:55 09.12.2019
6802 Clouds 2 1011 81 10000 3 210 18:36 09.12.2019